
Distance (Route):
Temperature : 5.5°C
Humidity : 57.4%
Pressure : 707.2hPa| Receiver | Frames | First received | Last received |
|---|---|---|---|
| SQ9EZE-13 | 445 | 2026-08-30 23:19:35 | 2026-08-31 01:44:48 |
| SP9KGR-15 | 401 | 2026-08-30 23:20:04 | 2026-08-31 01:49:25 |
| HA6NAB-11 | 288 | 2026-08-30 23:40:38 | 2026-08-31 01:33:41 |
| OE5DRO-10 | 152 | 2026-08-31 00:33:46 | 2026-08-31 01:26:08 |
| SQ9EZE-15 | 126 | 2026-08-30 23:20:36 | 2026-08-31 01:45:10 |
| GYPAP8-17 | 117 | 2026-08-30 23:18:31 | 2026-08-31 01:50:02 |
| SQ9EZE-14 | 114 | 2026-08-30 23:20:11 | 2026-08-31 01:42:46 |
| OE5DXL-15 | 62 | 2026-08-31 00:46:57 | 2026-08-31 01:22:24 |
| S52SK | 52 | 2026-08-31 00:40:54 | 2026-08-31 01:22:27 |
| LZ4TU-5 | 34 | 2026-08-31 00:36:17 | 2026-08-31 01:24:13 |
| OE3JTB-15 | 31 | 2026-08-30 23:30:38 | 2026-08-31 01:43:25 |
| POL1PZ | 27 | 2026-08-31 01:20:23 | 2026-08-31 01:30:41 |
| OM5KV | 12 | 2026-08-30 23:23:46 | 2026-08-30 23:25:25 |
| Receiver | Date | Latitude | Longitude | Direction | Speed | Altitude | Climb | Temperature | Humidity | Pressure | Voltage | Killtimer | Uptime | BKT | XDATA |
|---|---|---|---|---|---|---|---|---|---|---|---|---|---|---|---|
| GYPAP8-17 | 2026-08-31 01:50:02 | 48.99576 | 21.37521 | 65° | 22km/h | 3093m | -11.9m/s | 5.5°C | 57.4% | 707.2hPa | 2.6V | 07:59:00 | 00:00:00 | 00:00:00 | |
| SP9KGR-15 | 2026-08-31 01:49:25 | 48.99499 | 21.37192 | 72° | 31km/h | 3530m | -14.2m/s | 1.9°C | 71.4% | 670.4hPa | 2.6V | 08:00:00 | 00:00:00 | 00:00:00 | |
| GYPAP8-17 | 2026-08-31 01:49:17 | 48.99478 | 21.37107 | 70° | 33km/h | 3625m | -11.0m/s | 1.2°C | 72.7% | 662.4hPa | 2.6V | 08:00:00 | 00:00:00 | 00:00:00 | |
| SP9KGR-15 | 2026-08-31 01:49:07 | 48.99445 | 21.36992 | 68° | 38km/h | 3739m | -11.5m/s | 0.5°C | 73.6% | 653.0hPa | 2.6V | 08:00:00 | 00:00:00 | 00:00:00 | |
| SP9KGR-15 | 2026-08-31 01:48:52 | 48.99386 | 21.36793 | 69° | 40km/h | 3914m | -12.9m/s | -0.8°C | 76.7% | 639.4hPa | 2.6V | 08:00:00 | 00:00:00 | 00:00:00 | |
| SP9KGR-15 | 2026-08-31 01:48:36 | 48.99328 | 21.36576 | 67° | 38km/h | 4099m | -12.6m/s | -2.3°C | 81.2% | 624.7hPa | 2.6V | 08:01:00 | 00:00:00 | 00:00:00 | |
| GYPAP8-17 | 2026-08-31 01:48:33 | 48.99318 | 21.36534 | 69° | 37km/h | 4136m | -12.4m/s | -2.6°C | 82.5% | 621.7hPa | 2.6V | 00:00:00 | 00:00:00 | 00:00:00 | |
| SP9KGR-15 | 2026-08-31 01:48:22 | 48.99293 | 21.36362 | 75° | 38km/h | 4283m | -14.8m/s | -3.3°C | 66.2% | 610.5hPa | 2.6V | 08:01:00 | 00:00:00 | 00:00:00 | |
| SP9KGR-15 | 2026-08-31 01:48:05 | 48.99258 | 21.36132 | 78° | 38km/h | 4484m | -13.8m/s | -5.2°C | 75.1% | 595.1hPa | 2.6V | 08:01:00 | 00:00:00 | 00:00:00 | |
| SP9KGR-15 | 2026-08-31 01:47:50 | 48.99217 | 21.35921 | 82° | 33km/h | 4662m | -9.5m/s | -6.2°C | 54.7% | 581.7hPa | 2.6V | 08:01:00 | 00:00:00 | 00:00:00 | |
| GYPAP8-17 | 2026-08-31 01:47:49 | 48.99216 | 21.35908 | 83° | 33km/h | 4672m | -9.9m/s | -6.2°C | 49.1% | 581.0hPa | 2.6V | 00:00:00 | 00:00:00 | 00:00:00 | |
| SP9KGR-15 | 2026-08-31 01:47:34 | 48.99219 | 21.35739 | 94° | 26km/h | 4849m | -14.5m/s | -5.6°C | 13.8% | 567.7hPa | 2.6V | 08:02:00 | 00:00:00 | 00:00:00 | |
| SP9KGR-15 | 2026-08-31 01:47:19 | 48.99238 | 21.35572 | 102° | 31km/h | 5030m | -12.7m/s | -5.9°C | 7.3% | 554.9hPa | 2.6V | 08:02:00 | 00:00:00 | 00:00:00 | |
| GYPAP8-17 | 2026-08-31 01:47:04 | 48.99252 | 21.35380 | 89° | 38km/h | 5209m | -12.7m/s | -6.8°C | 6.3% | 542.1hPa | 2.6V | 00:00:00 | 00:00:00 | 00:00:00 | |
| SP9KGR-15 | 2026-08-31 01:47:03 | 48.99251 | 21.35365 | 84° | 35km/h | 5222m | -14.0m/s | -6.9°C | 6.3% | 541.4hPa | 2.6V | 08:02:00 | 00:00:00 | 00:00:00 | |
| SP9KGR-15 | 2026-08-31 01:46:48 | 48.99237 | 21.35145 | 80° | 38km/h | 5417m | -13.7m/s | -7.8°C | 6.4% | 528.3hPa | 2.6V | 08:03:00 | 00:00:00 | 00:00:00 | |
| SP9KGR-15 | 2026-08-31 01:46:32 | 48.99227 | 21.34888 | 88° | 42km/h | 5603m | -12.2m/s | -9.1°C | 5.9% | 515.3hPa | 2.6V | 08:03:00 | 00:00:00 | 00:00:00 | |
| GYPAP8-17 | 2026-08-31 01:46:19 | 48.99226 | 21.34674 | 86° | 40km/h | 5764m | -12.8m/s | -10.1°C | 6.3% | 504.7hPa | 2.6V | 00:00:00 | 00:00:00 | 00:00:00 | |
| SP9KGR-15 | 2026-08-31 01:46:16 | 48.99225 | 21.34624 | 88° | 42km/h | 5802m | -14.5m/s | -10.4°C | 5.9% | 502.3hPa | 2.6V | 08:03:00 | 00:00:00 | 00:00:00 | |
| SP9KGR-15 | 2026-08-31 01:46:01 | 48.99225 | 21.34383 | 95° | 42km/h | 5985m | -14.5m/s | -11.5°C | 7.2% | 490.4hPa | 2.6V | 08:04:00 | 00:00:00 | 00:00:00 | |
| SP9KGR-15 | 2026-08-31 01:45:45 | 48.99229 | 21.34131 | 91° | 42km/h | 6204m | -13.5m/s | -13.0°C | 11.6% | 476.8hPa | 2.6V | 08:04:00 | 00:00:00 | 00:00:00 | |
| GYPAP8-17 | 2026-08-31 01:45:35 | 48.99236 | 21.33955 | 95° | 49km/h | 6329m | -14.4m/s | -13.8°C | 6.0% | 468.8hPa | 2.6V | 00:00:00 | 00:00:00 | 00:00:00 | |
| SP9KGR-15 | 2026-08-31 01:45:29 | 48.99241 | 21.33846 | 96° | 49km/h | 6410m | -11.6m/s | -14.3°C | 6.6% | 463.9hPa | 2.6V | 08:04:00 | 00:00:00 | 00:00:00 | |
| SP9KGR-15 | 2026-08-31 01:45:14 | 48.99258 | 21.33569 | 98° | 51km/h | 6600m | -13.6m/s | -15.9°C | 6.8% | 452.6hPa | 2.6V | 08:04:00 | 00:00:00 | 00:00:00 | |
| SQ9EZE-15 | 2026-08-31 01:45:10 | 48.99264 | 21.33496 | 94° | 47km/h | 6651m | -14.7m/s | -16.3°C | 7.3% | 449.4hPa | 2.6V | 00:00:00 | 00:00:00 | 00:00:00 | |
| SP9KGR-15 | 2026-08-31 01:44:58 | 48.99280 | 21.33277 | 97° | 46km/h | 6807m | -12.7m/s | -17.7°C | 8.7% | 440.1hPa | 2.6V | 08:05:00 | 00:00:00 | 00:00:00 | |
| SQ9EZE-13 | 2026-08-31 01:44:48 | 48.99298 | 21.33093 | 103° | 51km/h | 6931m | -15.4m/s | -18.6°C | 6.2% | 432.8hPa | 2.6V | 00:00:00 | 00:00:00 | 00:00:00 | |
| GYPAP8-17 | 2026-08-31 01:44:43 | 48.99309 | 21.32995 | 103° | 55km/h | 7000m | -13.3m/s | -19.1°C | 20.9% | 428.9hPa | 2.6V | 00:00:00 | 00:00:00 | 00:00:00 | |
| SP9KGR-15 | 2026-08-31 01:44:32 | 48.99347 | 21.32700 | 98° | 49km/h | 7201m | -12.0m/s | -20.9°C | 31.7% | 417.4hPa | 2.6V | 08:05:00 | 00:00:00 | 00:00:00 | |
| SQ9EZE-13 | 2026-08-31 01:44:25 | 48.99352 | 21.32642 | 100° | 49km/h | 7241m | -12.9m/s | -21.3°C | 34.9% | 415.2hPa | 2.6V | 00:00:00 | 00:00:00 | 00:00:00 | |
| SP9KGR-15 | 2026-08-31 01:44:13 | 48.99369 | 21.32414 | 96° | 53km/h | 7394m | -13.6m/s | -22.6°C | 41.7% | 406.4hPa | 2.6V | 08:05:00 | 00:00:00 | 00:00:00 | |
| SQ9EZE-13 | 2026-08-31 01:44:05 | 48.99372 | 21.32257 | 95° | 53km/h | 7499m | -13.6m/s | -23.4°C | 46.3% | 400.8hPa | 2.6V | 08:05:00 | 00:00:00 | 00:00:00 | |
| SQ9EZE-15 | 2026-08-31 01:44:03 | 48.99373 | 21.32216 | 93° | 57km/h | 7525m | -14.4m/s | -23.6°C | 47.4% | 399.4hPa | 2.6V | 00:00:00 | 00:00:00 | 00:00:00 | |
| GYPAP8-17 | 2026-08-31 01:44:01 | 48.99374 | 21.32174 | 90° | 53km/h | 7553m | -15.2m/s | -23.8°C | 49.4% | 397.9hPa | 2.6V | 00:00:00 | 00:00:00 | 00:00:00 | |
| SP9KGR-15 | 2026-08-31 01:43:57 | 48.99377 | 21.32090 | 93° | 53km/h | 7609m | -15.7m/s | -24.3°C | 56.0% | 395.0hPa | 2.6V | 08:05:00 | 00:00:00 | 00:00:00 | |
| SQ9EZE-13 | 2026-08-31 01:43:47 | 48.99397 | 21.31877 | 99° | 55km/h | 7738m | -13.6m/s | -25.5°C | 70.1% | 387.9hPa | 2.6V | 08:05:00 | 00:00:00 | 00:00:00 | |
| SQ9EZE-15 | 2026-08-31 01:43:42 | 48.99410 | 21.31767 | 102° | 57km/h | 7802m | -14.1m/s | -26.1°C | 73.9% | 384.6hPa | 2.6V | 00:00:00 | 00:00:00 | 00:00:00 | |
| SP9KGR-15 | 2026-08-31 01:43:41 | 48.99414 | 21.31745 | 101° | 57km/h | 7814m | -13.0m/s | -26.2°C | 74.3% | 383.9hPa | 2.6V | 08:05:00 | 00:00:00 | 00:00:00 | |
| SQ9EZE-13 | 2026-08-31 01:43:31 | 48.99447 | 21.31521 | 107° | 58km/h | 7941m | -14.3m/s | -27.3°C | 70.6% | 377.3hPa | 2.6V | 08:05:00 | 00:00:00 | 00:00:00 | |
| OE3JTB-15 | 2026-08-31 01:43:25 | 48.99479 | 21.31360 | 110° | 66km/h | 8029m | -12.5m/s | 0°C | 0% | 0hPa | 2.6V | 00:00:00 | 00:00:00 | 00:00:00 | |
| SQ9EZE-15 | 2026-08-31 01:43:21 | 48.99494 | 21.31290 | 107° | 60km/h | 8066m | -13.8m/s | -28.1°C | 61.6% | 370.8hPa | 2.6V | 00:00:00 | 00:00:00 | 00:00:00 | |
| SQ9EZE-13 | 2026-08-31 01:43:16 | 48.99519 | 21.31173 | 111° | 66km/h | 8125m | -12.6m/s | -28.5°C | 61.1% | 367.6hPa | 2.6V | 00:00:00 | 00:00:00 | 00:00:00 | |
| GYPAP8-17 | 2026-08-31 01:43:14 | 48.99530 | 21.31125 | 111° | 64km/h | 8151m | -14.3m/s | -28.7°C | 61.0% | 366.4hPa | 2.6V | 00:00:00 | 00:00:00 | 00:00:00 | |
| SP9KGR-15 | 2026-08-31 01:43:10 | 48.99552 | 21.31031 | 110° | 66km/h | 8204m | -13.0m/s | -29.0°C | 65.3% | 363.7hPa | 2.6V | 08:06:00 | 00:00:00 | 00:00:00 | |
| SQ9EZE-15 | 2026-08-31 01:43:01 | 48.99606 | 21.30818 | 111° | 64km/h | 8315m | -13.5m/s | -29.9°C | 65.8% | 358.1hPa | 2.6V | 00:00:00 | 00:00:00 | 00:00:00 | |
| SQ9EZE-13 | 2026-08-31 01:43:00 | 48.99611 | 21.30795 | 111° | 66km/h | 8327m | -13.4m/s | -30.0°C | 66.4% | 357.4hPa | 2.6V | 00:00:00 | 00:00:00 | 00:00:00 | |
| OE3JTB-15 | 2026-08-31 01:42:56 | 48.99643 | 21.30676 | 115° | 68km/h | 8393m | -14.3m/s | 0°C | 0% | 0hPa | 2.6V | 00:00:00 | 02:52:48 | 00:00:00 | |
| SP9KGR-15 | 2026-08-31 01:42:54 | 48.99651 | 21.30653 | 114° | 64km/h | 8407m | -14.7m/s | -30.7°C | 66.6% | 353.5hPa | 2.6V | 08:06:00 | 00:00:00 | 00:00:00 | |
| SQ9EZE-14 | 2026-08-31 01:42:46 | 48.99698 | 21.30469 | 110° | 66km/h | 8512m | -14.5m/s | -31.2°C | 70.9% | 348.4hPa | 2.6V | 08:06:00 | 00:00:00 | 00:00:00 | |
| SQ9EZE-13 | 2026-08-31 01:42:42 | 48.99721 | 21.30375 | 109° | 62km/h | 8564m | -16.1m/s | -31.6°C | 70.6% | 345.8hPa | 2.6V | 00:00:00 | 00:00:00 | 00:00:00 | |
| SP9KGR-15 | 2026-08-31 01:42:38 | 48.99742 | 21.30280 | 109° | 64km/h | 8620m | -15.8m/s | -31.9°C | 68.7% | 343.1hPa | 2.6V | 08:07:00 | 00:00:00 | 00:00:00 | |
| SQ9EZE-14 | 2026-08-31 01:42:32 | 48.99777 | 21.30107 | 106° | 69km/h | 8715m | -14.4m/s | -32.3°C | 62.0% | 338.6hPa | 2.6V | 00:00:00 | 00:00:00 | 00:00:00 | |
| OE3JTB-15 | 2026-08-31 01:42:27 | 48.99805 | 21.29959 | 105° | 73km/h | 8801m | -14.1m/s | 0°C | 0% | 0hPa | 2.6V | 00:00:00 | 00:00:00 | 00:00:00 | |
| SQ9EZE-13 | 2026-08-31 01:42:25 | 48.99805 | 21.29959 | 105° | 66km/h | 8801m | -14.1m/s | -32.8°C | 58.4% | 334.5hPa | 2.6V | 08:07:00 | 00:00:00 | 00:00:00 | |
| SP9KGR-15 | 2026-08-31 01:42:23 | 48.99814 | 21.29910 | 109° | 66km/h | 8829m | -14.7m/s | -33.0°C | 58.5% | 333.2hPa | 2.6V | 08:07:00 | 00:00:00 | 00:00:00 | |
| GYPAP8-17 | 2026-08-31 01:42:20 | 48.99827 | 21.29837 | 107° | 68km/h | 8868m | -13.4m/s | -33.4°C | 59.7% | 331.2hPa | 2.6V | 00:00:00 | 00:00:00 | 00:00:00 | |
| SQ9EZE-13 | 2026-08-31 01:42:10 | 48.99876 | 21.29597 | 111° | 68km/h | 9002m | -14.7m/s | -34.6°C | 62.6% | 325.0hPa | 2.6V | 08:07:00 | 00:00:00 | 00:00:00 | |
| SP9KGR-15 | 2026-08-31 01:42:07 | 48.99892 | 21.29526 | 109° | 68km/h | 9046m | -13.8m/s | -35.0°C | 63.3% | 322.9hPa | 2.6V | 08:07:00 | 00:00:00 | 00:00:00 | |
| SQ9EZE-15 | 2026-08-31 01:41:56 | 48.99946 | 21.29259 | 107° | 69km/h | 9198m | -11.2m/s | -35.9°C | 54.1% | 316.0hPa | 2.6V | 08:07:00 | 00:00:00 | 00:00:00 | |
| SQ9EZE-13 | 2026-08-31 01:41:55 | 48.99950 | 21.29233 | 105° | 66km/h | 9209m | -11.4m/s | -36.0°C | 53.6% | 315.5hPa | 2.6V | 08:07:00 | 00:00:00 | 00:00:00 | |
| SP9KGR-15 | 2026-08-31 01:41:51 | 48.99969 | 21.29132 | 106° | 71km/h | 9257m | -11.8m/s | -36.3°C | 53.6% | 313.3hPa | 2.6V | 08:07:00 | 00:00:00 | 00:00:00 | |
| SQ9EZE-13 | 2026-08-31 01:41:39 | 49.00038 | 21.28811 | 112° | 75km/h | 9416m | -14.6m/s | -37.5°C | 58.4% | 306.2hPa | 2.6V | 08:08:00 | 00:00:00 | 00:00:00 | |
| SP9KGR-15 | 2026-08-31 01:41:36 | 49.00058 | 21.28729 | 110° | 77km/h | 9460m | -14.8m/s | -37.8°C | 57.2% | 304.4hPa | 2.6V | 08:08:00 | 00:00:00 | 00:00:00 | |
| OE3JTB-15 | 2026-08-31 01:41:30 | 49.00106 | 21.28534 | 110° | 77km/h | 9556m | -13.5m/s | 0°C | 0% | 0hPa | 2.6V | 00:00:00 | 00:00:00 | 00:00:00 | |
| SQ9EZE-13 | 2026-08-31 01:41:24 | 49.00142 | 21.28395 | 110° | 77km/h | 9624m | -15.2m/s | -39.2°C | 57.4% | 297.3hPa | 2.6V | 08:08:00 | 00:00:00 | 00:00:00 | |
| GYPAP8-17 | 2026-08-31 01:41:22 | 49.00156 | 21.28337 | 111° | 82km/h | 9651m | -13.6m/s | -39.5°C | 57.7% | 295.9hPa | 2.6V | 00:00:00 | 00:00:00 | 00:00:00 | |
| SP9KGR-15 | 2026-08-31 01:41:20 | 49.00170 | 21.28280 | 111° | 82km/h | 9676m | -13.8m/s | -39.7°C | 58.8% | 294.9hPa | 2.6V | 08:08:00 | 00:00:00 | 00:00:00 | |
| SQ9EZE-13 | 2026-08-31 01:41:08 | 49.00254 | 21.27942 | 110° | 75km/h | 9838m | -15.9m/s | -41.1°C | 65.4% | 288.0hPa | 2.6V | 08:08:00 | 00:00:00 | 00:00:00 | |
| SP9KGR-15 | 2026-08-31 01:41:04 | 49.00280 | 21.27831 | 112° | 78km/h | 9895m | -14.0m/s | -41.6°C | 66.2% | 285.6hPa | 2.6V | 08:08:00 | 00:00:00 | 00:00:00 | |
| SP9KGR-15 | 2026-08-31 01:40:49 | 49.00372 | 21.27406 | 107° | 75km/h | 10102m | -13.4m/s | -43.3°C | 66.5% | 276.9hPa | 2.6V | 08:09:00 | 00:00:00 | 00:00:00 | |
| SQ9EZE-13 | 2026-08-31 01:40:37 | 49.00439 | 21.27064 | 106° | 75km/h | 10256m | -14.8m/s | -44.6°C | 67.1% | 270.8hPa | 2.6V | 08:09:00 | 00:00:00 | 00:00:00 | |
| SP9KGR-15 | 2026-08-31 01:40:33 | 49.00459 | 21.26949 | 106° | 80km/h | 10313m | -14.1m/s | -45.1°C | 64.8% | 268.5hPa | 2.6V | 08:09:00 | 00:00:00 | 00:00:00 | |
| GYPAP8-17 | 2026-08-31 01:40:31 | 49.00468 | 21.26890 | 103° | 77km/h | 10338m | -12.3m/s | -45.3°C | 64.1% | 267.4hPa | 2.6V | 00:00:00 | 00:00:00 | 00:00:00 | |
| SQ9EZE-14 | 2026-08-31 01:40:24 | 49.00499 | 21.26678 | 101° | 80km/h | 10425m | -11.6m/s | -46.0°C | 64.6% | 263.8hPa | 2.6V | 00:00:00 | 00:00:00 | 00:00:00 | |
| SQ9EZE-15 | 2026-08-31 01:40:22 | 49.00507 | 21.26617 | 102° | 78km/h | 10445m | -11.3m/s | -46.1°C | 64.5% | 263.0hPa | 2.6V | 08:09:00 | 00:00:00 | 00:00:00 | |
| SP9KGR-15 | 2026-08-31 01:40:17 | 49.00527 | 21.26464 | 101° | 82km/h | 10507m | -13.4m/s | -46.6°C | 63.8% | 260.6hPa | 2.6V | 08:09:00 | 00:00:00 | 00:00:00 | |
| SQ9EZE-14 | 2026-08-31 01:40:09 | 49.00558 | 21.26218 | 100° | 82km/h | 10628m | -15.7m/s | -47.7°C | 61.0% | 256.0hPa | 2.6V | 00:00:00 | 00:00:00 | 00:00:00 | |
| SQ9EZE-15 | 2026-08-31 01:40:02 | 49.00584 | 21.25993 | 102° | 84km/h | 10733m | -14.3m/s | -48.5°C | 59.4% | 252.1hPa | 2.6V | 00:00:00 | 00:00:00 | 00:00:00 | |
| SQ9EZE-13 | 2026-08-31 01:39:51 | 49.00624 | 21.25633 | 99° | 84km/h | 10881m | -15.2m/s | -49.8°C | 59.1% | 246.4hPa | 2.6V | 08:10:00 | 00:00:00 | 00:00:00 | |
| SP9KGR-15 | 2026-08-31 01:39:47 | 49.00638 | 21.25501 | 100° | 84km/h | 10933m | -15.8m/s | -50.3°C | 59.0% | 244.5hPa | 2.6V | 08:10:00 | 00:00:00 | 00:00:00 | |
| GYPAP8-17 | 2026-08-31 01:39:43 | 49.00651 | 21.25367 | 99° | 86km/h | 10989m | -13.9m/s | -50.8°C | 59.0% | 242.5hPa | 2.6V | 00:00:00 | 00:00:00 | 00:00:00 | |
| SQ9EZE-13 | 2026-08-31 01:39:36 | 49.00675 | 21.25129 | 100° | 91km/h | 11078m | -12.2m/s | -51.5°C | 59.0% | 239.1hPa | 2.6V | 08:10:00 | 00:00:00 | 00:00:00 | |
| SP9KGR-15 | 2026-08-31 01:39:31 | 49.00696 | 21.24956 | 101° | 88km/h | 11140m | -13.0m/s | -52.1°C | 59.5% | 236.8hPa | 2.6V | 08:10:00 | 00:00:00 | 00:00:00 | |
| SQ9EZE-13 | 2026-08-31 01:39:20 | 49.00751 | 21.24583 | 106° | 88km/h | 11276m | -13.4m/s | -53.2°C | 61.1% | 231.8hPa | 2.6V | 08:10:00 | 00:00:00 | 00:00:00 | |
| SP9KGR-15 | 2026-08-31 01:39:16 | 49.00777 | 21.24450 | 109° | 93km/h | 11330m | -14.6m/s | -53.6°C | 60.0% | 229.9hPa | 2.6V | 08:10:00 | 00:00:00 | 00:00:00 | |
| SQ9EZE-13 | 2026-08-31 01:39:05 | 49.00862 | 21.24087 | 112° | 93km/h | 11484m | -14.3m/s | -54.9°C | 56.5% | 224.5hPa | 2.6V | 08:10:00 | 00:00:00 | 00:00:00 | |
| SP9KGR-15 | 2026-08-31 01:39:00 | 49.00904 | 21.23917 | 112° | 95km/h | 11542m | -12.4m/s | -55.1°C | 53.5% | 222.3hPa | 2.6V | 08:10:00 | 00:00:00 | 00:00:00 | |
| SQ9EZE-15 | 2026-08-31 01:38:55 | 49.00946 | 21.23746 | 111° | 97km/h | 11605m | -12.4m/s | -55.6°C | 52.5% | 220.2hPa | 2.6V | 00:00:00 | 00:00:00 | 00:00:00 | |
| GYPAP8-17 | 2026-08-31 01:38:52 | 49.00971 | 21.23643 | 110° | 97km/h | 11639m | -12.2m/s | -55.9°C | 51.5% | 218.9hPa | 2.6V | 00:00:00 | 00:00:00 | 00:00:00 | |
| SQ9EZE-13 | 2026-08-31 01:38:50 | 49.00986 | 21.23574 | 109° | 95km/h | 11664m | -12.2m/s | -56.1°C | 50.8% | 218.1hPa | 2.6V | 08:10:00 | 00:00:00 | 00:00:00 | |
| SP9KGR-15 | 2026-08-31 01:38:44 | 49.01034 | 21.23367 | 110° | 95km/h | 11752m | -17.1m/s | -56.8°C | 45.7% | 215.5hPa | 2.6V | 08:10:00 | 00:00:00 | 00:00:00 | |
| SQ9EZE-13 | 2026-08-31 01:38:34 | 49.01106 | 21.23016 | 108° | 95km/h | 11910m | -13.3m/s | -58.2°C | 39.6% | 209.9hPa | 2.6V | 08:10:00 | 00:00:00 | 00:00:00 | |
| SP9KGR-15 | 2026-08-31 01:38:28 | 49.01151 | 21.22797 | 108° | 99km/h | 11996m | -14.6m/s | -58.5°C | 32.1% | 207.2hPa | 2.6V | 08:10:00 | 00:00:00 | 00:00:00 | |
| SQ9EZE-13 | 2026-08-31 01:38:19 | 49.01224 | 21.22479 | 110° | 97km/h | 12135m | -15.5m/s | -58.3°C | 19.5% | 202.8hPa | 2.6V | 08:11:00 | 00:00:00 | 00:00:00 | |
| SP9KGR-15 | 2026-08-31 01:38:12 | 49.01285 | 21.22244 | 114° | 97km/h | 12242m | -12.5m/s | -57.8°C | 12.6% | 199.4hPa | 2.6V | 08:11:00 | 00:00:00 | 00:00:00 | |
| SQ9EZE-14 | 2026-08-31 01:38:04 | 49.01363 | 21.21969 | 116° | 99km/h | 12360m | -16.0m/s | -56.9°C | 9.1% | 195.9hPa | 2.6V | 00:00:00 | 00:00:00 | 00:00:00 | |
| GYPAP8-17 | 2026-08-31 01:38:03 | 49.01374 | 21.21935 | 116° | 99km/h | 12375m | -15.4m/s | -56.8°C | 8.8% | 195.3hPa | 2.6V | 00:00:00 | 00:00:00 | 00:00:00 | |
| SP9KGR-15 | 2026-08-31 01:37:57 | 49.01438 | 21.21728 | 118° | 97km/h | 12477m | -18.0m/s | -56.5°C | 7.6% | 192.2hPa | 2.6V | 08:11:00 | 00:00:00 | 00:00:00 | |
| SQ9EZE-15 | 2026-08-31 01:37:51 | 49.01503 | 21.21532 | 119° | 91km/h | 12570m | -13.1m/s | -57.0°C | 7.3% | 189.3hPa | 2.6V | 08:11:00 | 00:00:00 | 00:00:00 | |
| SQ9EZE-13 | 2026-08-31 01:37:49 | 49.01535 | 21.21440 | 118° | 91km/h | 12611m | -14.8m/s | -57.1°C | 7.0% | 188.1hPa | 2.6V | 08:11:00 | 00:00:00 | 00:00:00 | |
| SQ9EZE-14 | 2026-08-31 01:37:48 | 49.01535 | 21.21440 | 118° | 91km/h | 12611m | -14.8m/s | -57.1°C | 7.0% | 188.1hPa | 2.6V | 00:00:00 | 00:00:00 | 00:00:00 | |
| SP9KGR-15 | 2026-08-31 01:37:41 | 49.01604 | 21.21228 | 116° | 84km/h | 12700m | -12.5m/s | -56.9°C | 6.5% | 185.4hPa | 2.6V | 08:11:00 | 00:00:00 | 00:00:00 | |
| SQ9EZE-13 | 2026-08-31 01:37:33 | 49.01684 | 21.20970 | 115° | 78km/h | 12814m | -12.9m/s | -57.6°C | 6.4% | 182.1hPa | 2.6V | 08:12:00 | 00:00:00 | 00:00:00 | |
| SQ9EZE-15 | 2026-08-31 01:37:30 | 49.01701 | 21.20915 | 114° | 77km/h | 12840m | -13.7m/s | -57.8°C | 6.3% | 181.4hPa | 2.6V | 00:00:00 | 00:00:00 | 00:00:00 | |
| SP9KGR-15 | 2026-08-31 01:37:26 | 49.01730 | 21.20808 | 113° | 75km/h | 12896m | -13.9m/s | -58.1°C | 6.1% | 179.8hPa | 2.6V | 08:12:00 | 00:00:00 | 00:00:00 | |
| SQ9EZE-13 | 2026-08-31 01:37:17 | 49.01791 | 21.20534 | 107° | 77km/h | 13025m | -13.6m/s | -58.2°C | 5.6% | 176.2hPa | 2.6V | 08:12:00 | 00:00:00 | 00:00:00 | |
| OE3JTB-15 | 2026-08-31 01:37:10 | 49.01827 | 21.20327 | 102° | 53km/h | 13113m | -11.2m/s | 0°C | 0% | 0hPa | 2.6V | 00:00:00 | 02:47:02 | 00:00:00 | |
| GYPAP8-17 | 2026-08-31 01:37:05 | 49.01842 | 21.20205 | 100° | 80km/h | 13160m | -13.2m/s | -58.1°C | 5.1% | 172.4hPa | 2.6V | 00:00:00 | 00:00:00 | 00:00:00 | |
| SQ9EZE-13 | 2026-08-31 01:37:00 | 49.01857 | 21.20049 | 99° | 84km/h | 13227m | -12.6m/s | -57.6°C | 4.9% | 170.6hPa | 2.6V | 08:12:00 | 00:00:00 | 00:00:00 | |
| SP9KGR-15 | 2026-08-31 01:36:55 | 49.01874 | 21.19890 | 101° | 82km/h | 13290m | -12.6m/s | -57.7°C | 4.9% | 168.9hPa | 2.6V | 08:12:00 | 00:00:00 | 00:00:00 | |
| SQ9EZE-13 | 2026-08-31 01:36:44 | 49.01913 | 21.19568 | 101° | 80km/h | 13439m | -14.0m/s | -57.1°C | 4.2% | 165.0hPa | 2.6V | 08:12:00 | 00:00:00 | 00:00:00 | |
| SP9KGR-15 | 2026-08-31 01:36:39 | 49.01930 | 21.19412 | 100° | 86km/h | 13505m | -11.7m/s | -56.8°C | 4.1% | 163.2hPa | 2.6V | 08:13:00 | 00:00:00 | 00:00:00 | |
| SQ9EZE-13 | 2026-08-31 01:36:29 | 49.01970 | 21.19097 | 103° | 82km/h | 13608m | -11.5m/s | -56.6°C | 3.7% | 160.5hPa | 2.6V | 08:13:00 | 00:00:00 | 00:00:00 | |
| SQ9EZE-15 | 2026-08-31 01:36:25 | 49.01989 | 21.18974 | 106° | 82km/h | 13649m | -10.7m/s | -56.3°C | 3.6% | 159.4hPa | 2.6V | 00:00:00 | 00:00:00 | 00:00:00 | |
| SP9KGR-15 | 2026-08-31 01:36:24 | 49.01995 | 21.18944 | 107° | 80km/h | 13659m | -10.6m/s | -56.2°C | 3.6% | 159.1hPa | 2.6V | 08:13:00 | 00:00:00 | 00:00:00 | |
| SQ9EZE-13 | 2026-08-31 01:36:13 | 49.02064 | 21.18637 | 109° | 75km/h | 13778m | -13.9m/s | -56.0°C | 3.5% | 156.2hPa | 2.6V | 08:13:00 | 00:00:00 | 00:00:00 | |
| GYPAP8-17 | 2026-08-31 01:36:11 | 49.02076 | 21.18585 | 108° | 69km/h | 13805m | -13.9m/s | -56.0°C | 3.4% | 155.6hPa | 2.6V | 00:00:00 | 00:00:00 | 00:00:00 | |
| SP9KGR-15 | 2026-08-31 01:36:08 | 49.02091 | 21.18512 | 105° | 62km/h | 13847m | -15.5m/s | -55.9°C | 3.4% | 154.6hPa | 2.6V | 08:13:00 | 00:00:00 | 00:00:00 | |
| SQ9EZE-15 | 2026-08-31 01:36:05 | 49.02102 | 21.18440 | 101° | 66km/h | 13893m | -15.7m/s | -55.8°C | 3.3% | 153.5hPa | 2.6V | 00:00:00 | 00:00:00 | 00:00:00 | |
| SQ9EZE-13 | 2026-08-31 01:35:58 | 49.02118 | 21.18265 | 98° | 64km/h | 14002m | -15.9m/s | -56.2°C | 3.3% | 151.0hPa | 2.6V | 08:13:00 | 00:00:00 | 00:00:00 | |
| SP9KGR-15 | 2026-08-31 01:35:53 | 49.02126 | 21.18141 | 95° | 62km/h | 14079m | -14.6m/s | -56.5°C | 3.4% | 149.1hPa | 2.6V | 08:13:00 | 00:00:00 | 00:00:00 | |
| SQ9EZE-14 | 2026-08-31 01:35:43 | 49.02143 | 21.17895 | 98° | 71km/h | 14246m | -16.8m/s | -55.9°C | 3.2% | 145.3hPa | 2.6V | 00:00:00 | 00:00:00 | 00:00:00 | |
| SQ9EZE-13 | 2026-08-31 01:35:42 | 49.02145 | 21.17868 | 98° | 69km/h | 14262m | -17.7m/s | -56.0°C | 3.2% | 145.0hPa | 2.6V | 08:14:00 | 00:00:00 | 00:00:00 | |
| SP9KGR-15 | 2026-08-31 01:35:37 | 49.02158 | 21.17731 | 101° | 73km/h | 14349m | -18.4m/s | -56.3°C | 3.3% | 142.9hPa | 2.6V | 08:14:00 | 00:00:00 | 00:00:00 | |
| SQ9EZE-14 | 2026-08-31 01:35:27 | 49.02192 | 21.17455 | 101° | 77km/h | 14532m | -18.2m/s | -56.0°C | 3.3% | 139.0hPa | 2.6V | 00:00:00 | 00:00:00 | 00:00:00 | |
| SQ9EZE-13 | 2026-08-31 01:35:26 | 49.02195 | 21.17426 | 101° | 80km/h | 14550m | -18.1m/s | -56.1°C | 3.3% | 138.6hPa | 2.6V | 08:14:00 | 00:00:00 | 00:00:00 | |
| SP9KGR-15 | 2026-08-31 01:35:22 | 49.02211 | 21.17309 | 103° | 77km/h | 14623m | -19.5m/s | -56.2°C | 3.3% | 137.0hPa | 2.6V | 08:14:00 | 00:00:00 | 00:00:00 | |
| GYPAP8-17 | 2026-08-31 01:35:17 | 49.02236 | 21.17179 | 110° | 68km/h | 14703m | -14.7m/s | -56.3°C | 3.5% | 135.2hPa | 2.6V | 00:00:00 | 00:00:00 | 00:00:00 | |
| SQ9EZE-13 | 2026-08-31 01:35:11 | 49.02266 | 21.17045 | 105° | 53km/h | 14797m | -19.3m/s | -56.2°C | 3.2% | 133.3hPa | 2.6V | 08:14:00 | 00:00:00 | 00:00:00 | |
| SP9KGR-15 | 2026-08-31 01:35:07 | 49.02277 | 21.16966 | 96° | 51km/h | 14868m | -17.1m/s | -56.5°C | 3.2% | 131.8hPa | 2.6V | 08:14:00 | 00:00:00 | 00:00:00 | |
| SQ9EZE-13 | 2026-08-31 01:34:55 | 49.02270 | 21.16741 | 91° | 55km/h | 15065m | -13.9m/s | -55.5°C | 2.6% | 127.8hPa | 2.6V | 08:15:00 | 00:00:00 | 00:00:00 | |
| SP9KGR-15 | 2026-08-31 01:34:52 | 49.02271 | 21.16679 | 95° | 57km/h | 15109m | -17.5m/s | -55.6°C | 2.5% | 127.0hPa | 2.6V | 08:15:00 | 00:00:00 | 00:00:00 | |
| SQ9EZE-13 | 2026-08-31 01:34:39 | 49.02292 | 21.16428 | 99° | 46km/h | 15331m | -17.4m/s | -55.6°C | 2.4% | 122.7hPa | 2.6V | 08:15:00 | 00:00:00 | 00:00:00 | |
| SP9KGR-15 | 2026-08-31 01:34:36 | 49.02297 | 21.16379 | 96° | 40km/h | 15385m | -19.3m/s | -55.8°C | 2.3% | 121.7hPa | 2.6V | 08:15:00 | 00:00:00 | 00:00:00 | |
| SQ9EZE-13 | 2026-08-31 01:34:23 | 49.02307 | 21.16191 | 94° | 42km/h | 15593m | -11.4m/s | -56.4°C | 2.4% | 117.6hPa | 2.6V | 08:15:00 | 00:00:00 | 00:00:00 | |
| SP9KGR-15 | 2026-08-31 01:34:20 | 49.02309 | 21.16140 | 96° | 46km/h | 15627m | -11.6m/s | -56.5°C | 2.4% | 117.0hPa | 2.6V | 08:15:00 | 00:00:00 | 00:00:00 | |
| SQ9EZE-13 | 2026-08-31 01:34:08 | 49.02330 | 21.15917 | 101° | 47km/h | 15794m | -15.6m/s | -56.1°C | 2.2% | 114.0hPa | 2.6V | 08:16:00 | 00:00:00 | 00:00:00 | |
| SP9KGR-15 | 2026-08-31 01:34:05 | 49.02337 | 21.15867 | 105° | 42km/h | 15837m | -12.7m/s | -56.0°C | 2.2% | 113.2hPa | 2.6V | 08:16:00 | 00:00:00 | 00:00:00 | |
| OE3JTB-15 | 2026-08-31 01:34:02 | 49.02345 | 21.15804 | 98° | 24km/h | 15898m | -15.7m/s | 0°C | 0% | 0hPa | 2.6V | 00:00:00 | 00:00:00 | 00:00:00 | |
| SQ9EZE-13 | 2026-08-31 01:33:53 | 49.02340 | 21.15700 | 75° | 31km/h | 16043m | -17.5m/s | -57.0°C | 2.1% | 109.7hPa | 2.6V | 08:16:00 | 00:00:00 | 00:00:00 | |
| SP9KGR-15 | 2026-08-31 01:33:49 | 49.02328 | 21.15649 | 72° | 38km/h | 16114m | -17.4m/s | -57.2°C | 2.1% | 108.4hPa | 2.6V | 08:16:00 | 00:00:00 | 00:00:00 | |
| HA6NAB-11 | 2026-08-31 01:33:41 | 49.02303 | 21.15533 | 76° | 38km/h | 16231m | -12.5m/s | -57.4°C | 2.3% | 106.4hPa | 2.6V | 00:00:00 | 00:00:00 | 00:00:00 | |
| SQ9EZE-13 | 2026-08-31 01:33:37 | 49.02296 | 21.15476 | 81° | 40km/h | 16277m | -13.2m/s | -57.1°C | 2.2% | 105.6hPa | 2.6V | 08:16:00 | 00:00:00 | 00:00:00 | |
| HA6NAB-11 | 2026-08-31 01:33:36 | 49.02294 | 21.15460 | 85° | 42km/h | 16292m | -15.3m/s | -57.1°C | 2.2% | 105.4hPa | 2.6V | 00:00:00 | 00:00:00 | 00:00:00 | |
| SP9KGR-15 | 2026-08-31 01:33:33 | 49.02292 | 21.15410 | 88° | 44km/h | 16339m | -15.7m/s | -57.0°C | 2.1% | 104.6hPa | 2.6V | 08:16:00 | 00:00:00 | 00:00:00 | |
| HA6NAB-11 | 2026-08-31 01:33:31 | 49.02292 | 21.15375 | 93° | 46km/h | 16367m | -11.5m/s | -56.7°C | 2.1% | 104.2hPa | 2.6V | 00:00:00 | 00:00:00 | 00:00:00 | |
| GYPAP8-17 | 2026-08-31 01:33:27 | 49.02296 | 21.15310 | 97° | 40km/h | 16424m | -18.1m/s | -56.2°C | 2.0% | 103.3hPa | 2.6V | 00:00:00 | 00:00:00 | 00:00:00 | |
| HA6NAB-11 | 2026-08-31 01:33:25 | 49.02298 | 21.15279 | 99° | 38km/h | 16459m | -15.6m/s | -56.3°C | 2.0% | 102.7hPa | 2.6V | 00:00:00 | 00:00:00 | 00:00:00 | |
| SQ9EZE-14 | 2026-08-31 01:33:21 | 49.02304 | 21.15224 | 106° | 35km/h | 16519m | -16.1m/s | -55.9°C | 1.9% | 101.7hPa | 2.6V | 08:16:00 | 00:00:00 | 00:00:00 | |
| SP9KGR-15 | 2026-08-31 01:33:18 | 49.02310 | 21.15189 | 104° | 29km/h | 16563m | -15.4m/s | -56.2°C | 2.0% | 101.0hPa | 2.6V | 08:16:00 | 00:00:00 | 00:00:00 | |
| HA6NAB-11 | 2026-08-31 01:33:17 | 49.02312 | 21.15178 | 105° | 29km/h | 16578m | -14.4m/s | -56.3°C | 2.0% | 100.7hPa | 2.6V | 00:00:00 | 00:00:00 | 00:00:00 | |
| SQ9EZE-14 | 2026-08-31 01:33:06 | 49.02319 | 21.15058 | 82° | 35km/h | 16762m | -18.2m/s | -55.7°C | 1.9% | 98.0hPa | 2.6V | 00:00:00 | 00:00:00 | 00:00:00 | |
| SP9KGR-15 | 2026-08-31 01:33:02 | 49.02314 | 21.15005 | 80° | 33km/h | 16827m | -16.4m/s | -55.9°C | 1.9% | 96.9hPa | 2.6V | 08:16:00 | 00:00:00 | 00:00:00 | |
| SQ9EZE-13 | 2026-08-31 01:32:51 | 49.02308 | 21.14886 | 103° | 29km/h | 17016m | -20.5m/s | -55.0°C | 1.8% | 94.1hPa | 2.6V | 08:16:00 | 00:00:00 | 00:00:00 | |
| SQ9EZE-15 | 2026-08-31 01:32:49 | 49.02312 | 21.14864 | 106° | 29km/h | 17053m | -16.3m/s | -55.0°C | 1.7% | 93.5hPa | 2.6V | 00:00:00 | 00:00:00 | 00:00:00 | |
| SP9KGR-15 | 2026-08-31 01:32:47 | 49.02316 | 21.14842 | 108° | 31km/h | 17085m | -16.0m/s | -55.1°C | 1.8% | 93.0hPa | 2.6V | 08:16:00 | 00:00:00 | 00:00:00 | |
| GYPAP8-17 | 2026-08-31 01:32:45 | 49.02321 | 21.14820 | 110° | 29km/h | 17116m | -14.7m/s | -55.3°C | 1.8% | 92.6hPa | 2.6V | 00:00:00 | 00:00:00 | 00:00:00 | |
| SQ9EZE-13 | 2026-08-31 01:32:35 | 49.02342 | 21.14715 | 99° | 27km/h | 17266m | -13.3m/s | -55.4°C | 1.8% | 90.4hPa | 2.6V | 08:16:00 | 00:00:00 | 00:00:00 | |
| SP9KGR-15 | 2026-08-31 01:32:31 | 49.02343 | 21.14679 | 87° | 18km/h | 17317m | -12.9m/s | -55.8°C | 1.8% | 89.6hPa | 2.6V | 08:16:00 | 00:00:00 | 00:00:00 | |
| SQ9EZE-15 | 2026-08-31 01:32:29 | 49.02343 | 21.14665 | 78° | 18km/h | 17344m | -16.2m/s | -55.7°C | 1.8% | 89.3hPa | 2.6V | 00:00:00 | 00:00:00 | 00:00:00 | |
| SQ9EZE-13 | 2026-08-31 01:32:19 | 49.02340 | 21.14635 | 38° | 7km/h | 17534m | -18.5m/s | -56.4°C | 1.9% | 86.8hPa | 2.6V | 08:17:00 | 00:00:00 | 00:00:00 | |
| SP9KGR-15 | 2026-08-31 01:32:15 | 49.02331 | 21.14633 | 359° | 15km/h | 17600m | -20.6m/s | -56.7°C | 2.0% | 86.0hPa | 2.6V | 08:17:00 | 00:00:00 | 00:00:00 | |
| SQ9EZE-13 | 2026-08-31 01:32:04 | 49.02282 | 21.14599 | 60° | 24km/h | 17808m | -21.2m/s | -56.2°C | 1.8% | 83.2hPa | 2.6V | 08:17:00 | 00:00:00 | 00:00:00 | |
| HA6NAB-11 | 2026-08-31 01:32:03 | 49.02279 | 21.14591 | 56° | 26km/h | 17829m | -20.8m/s | -56.2°C | 1.8% | 83.0hPa | 2.6V | 00:00:00 | 00:00:00 | 00:00:00 | |
| SP9KGR-15 | 2026-08-31 01:32:00 | 49.02271 | 21.14564 | 74° | 29km/h | 17886m | -18.1m/s | -55.7°C | 1.8% | 82.1hPa | 2.6V | 08:17:00 | 00:00:00 | 00:00:00 | |
| GYPAP8-17 | 2026-08-31 01:31:57 | 49.02266 | 21.14532 | 74° | 27km/h | 17939m | -16.6m/s | -55.0°C | 1.7% | 81.4hPa | 2.6V | 00:00:00 | 00:00:00 | 00:00:00 | |
| HA6NAB-11 | 2026-08-31 01:31:51 | 49.02263 | 21.14475 | 100° | 20km/h | 18034m | -16.7m/s | -55.4°C | 1.7% | 80.2hPa | 2.6V | 00:00:00 | 00:00:00 | 00:00:00 | |
| SQ9EZE-13 | 2026-08-31 01:31:48 | 49.02263 | 21.14454 | 85° | 15km/h | 18084m | -17.7m/s | -55.5°C | 1.7% | 79.5hPa | 2.6V | 08:17:00 | 00:00:00 | 00:00:00 | |
| HA6NAB-11 | 2026-08-31 01:31:46 | 49.02263 | 21.14441 | 80° | 18km/h | 18119m | -18.2m/s | -55.6°C | 1.8% | 79.1hPa | 2.6V | 00:00:00 | 00:00:00 | 00:00:00 | |
| SP9KGR-15 | 2026-08-31 01:31:44 | 49.02262 | 21.14429 | 84° | 18km/h | 18154m | -17.7m/s | -55.6°C | 1.7% | 78.7hPa | 2.6V | 08:17:00 | 00:00:00 | 00:00:00 | |
| HA6NAB-11 | 2026-08-31 01:31:39 | 49.02256 | 21.14398 | 69° | 20km/h | 18249m | -19.2m/s | -55.5°C | 1.7% | 77.5hPa | 2.6V | 00:00:00 | 00:00:00 | 00:00:00 | |
| HA6NAB-11 | 2026-08-31 01:31:33 | 49.02241 | 21.14347 | 63° | 31km/h | 18358m | -16.3m/s | -55.8°C | 1.9% | 76.2hPa | 2.6V | 08:18:00 | 00:00:00 | 00:00:00 | |
| SQ9EZE-13 | 2026-08-31 01:31:32 | 49.02238 | 21.14337 | 63° | 31km/h | 18375m | -17.0m/s | -55.9°C | 1.9% | 76.0hPa | 2.6V | 08:18:00 | 00:00:00 | 00:00:00 | |
| SP9KGR-15 | 2026-08-31 01:31:29 | 49.02229 | 21.14303 | 73° | 29km/h | 18421m | -16.5m/s | -56.0°C | 1.9% | 75.5hPa | 2.6V | 08:18:00 | 00:00:00 | 00:00:00 | |
| HA6NAB-11 | 2026-08-31 01:31:28 | 49.02227 | 21.14292 | 77° | 29km/h | 18438m | -18.3m/s | -56.0°C | 1.9% | 75.3hPa | 2.6V | 08:18:00 | 00:00:00 | 00:00:00 | |
| HA6NAB-11 | 2026-08-31 01:31:22 | 49.02227 | 21.14243 | 123° | 15km/h | 18549m | -19.4m/s | -55.4°C | 1.8% | 74.1hPa | 2.6V | 08:18:00 | 00:00:00 | 00:00:00 | |
| HA6NAB-11 | 2026-08-31 01:31:16 | 49.02240 | 21.14226 | 161° | 7km/h | 18683m | -17.5m/s | -54.3°C | 1.6% | 72.5hPa | 2.6V | 08:18:00 | 00:00:00 | 00:00:00 | |
| SP9KGR-15 | 2026-08-31 01:31:14 | 49.02242 | 21.14226 | 171° | 7km/h | 18699m | -16.4m/s | -54.1°C | 1.6% | 72.3hPa | 2.6V | 08:18:00 | 00:00:00 | 00:00:00 | |
| HA6NAB-11 | 2026-08-31 01:31:08 | 49.02245 | 21.14229 | 302° | 4km/h | 18797m | -13.0m/s | -54.4°C | 1.6% | 71.1hPa | 2.6V | 08:18:00 | 00:00:00 | 00:00:00 | |
| HA6NAB-11 | 2026-08-31 01:31:03 | 49.02241 | 21.14234 | 18° | 5km/h | 18870m | -15.0m/s | -54.5°C | 1.6% | 70.4hPa | 2.6V | 08:18:00 | 00:00:00 | 00:00:00 | |
| SQ9EZE-14 | 2026-08-31 01:31:00 | 49.02235 | 21.14230 | 18° | 11km/h | 18921m | -15.2m/s | -54.7°C | 1.7% | 69.8hPa | 2.6V | 08:18:00 | 00:00:00 | 00:00:00 | |
| SP9KGR-15 | 2026-08-31 01:30:59 | 49.02232 | 21.14228 | 40° | 13km/h | 18935m | -13.9m/s | -54.8°C | 1.7% | 69.6hPa | 2.6V | 08:18:00 | 00:00:00 | 00:00:00 | |
| HA6NAB-11 | 2026-08-31 01:30:57 | 49.02228 | 21.14223 | 47° | 9km/h | 18967m | -18.1m/s | -55.0°C | 1.7% | 69.3hPa | 2.6V | 08:18:00 | 00:00:00 | 00:00:00 | |
| HA6NAB-11 | 2026-08-31 01:30:52 | 49.02223 | 21.14209 | 53° | 5km/h | 19053m | -18.6m/s | -55.2°C | 1.7% | 68.4hPa | 2.6V | 08:18:00 | 00:00:00 | 00:00:00 | |
| SQ9EZE-14 | 2026-08-31 01:30:46 | 49.02222 | 21.14200 | 96° | 5km/h | 19183m | -18.1m/s | -54.8°C | 1.7% | 67.0hPa | 2.6V | 00:00:00 | 00:00:00 | 00:00:00 | |
| SP9KGR-15 | 2026-08-31 01:30:43 | 49.02221 | 21.14198 | 10° | 4km/h | 19219m | -19.3m/s | -54.8°C | 1.6% | 66.7hPa | 2.6V | 08:19:00 | 00:00:00 | 00:00:00 | |
| POL1PZ | 2026-08-31 01:30:41 | 49.02218 | 21.14197 | 14° | 4km/h | 19265m | -22.4m/s | -54.8°C | 1.6% | 66.3hPa | 2.6V | 00:00:00 | 00:00:00 | 00:00:00 | |
| HA6NAB-11 | 2026-08-31 01:30:40 | 49.02217 | 21.14197 | 329° | 4km/h | 19288m | -23.8m/s | -54.9°C | 1.7% | 66.1hPa | 2.6V | 00:00:00 | 00:00:00 | 00:00:00 | |
| HA6NAB-11 | 2026-08-31 01:30:35 | 49.02209 | 21.14208 | 316° | 11km/h | 19391m | -16.5m/s | -55.1°C | 1.7% | 64.9hPa | 2.6V | 00:00:00 | 00:00:00 | 00:00:00 | |
| HA6NAB-11 | 2026-08-31 01:30:29 | 49.02198 | 21.14214 | 16° | 5km/h | 19502m | -19.2m/s | -54.8°C | 1.6% | 63.8hPa | 2.6V | 00:00:00 | 00:00:00 | 00:00:00 | |
| SP9KGR-15 | 2026-08-31 01:30:27 | 49.02195 | 21.14210 | 38° | 11km/h | 19536m | -19.6m/s | -54.6°C | 1.6% | 63.5hPa | 2.6V | 08:19:00 | 00:00:00 | 00:00:00 | |
| HA6NAB-11 | 2026-08-31 01:30:24 | 49.02186 | 21.14198 | 40° | 13km/h | 19614m | -20.3m/s | -54.3°C | 1.6% | 62.7hPa | 2.6V | 00:00:00 | 00:00:00 | 00:00:00 | |
| SQ9EZE-15 | 2026-08-31 01:30:18 | 49.02177 | 21.14175 | 73° | 15km/h | 19715m | -20.3m/s | -54.6°C | 1.6% | 61.8hPa | 2.6V | 00:00:00 | 00:00:00 | 00:00:00 | |
| HA6NAB-11 | 2026-08-31 01:30:17 | 49.02176 | 21.14169 | 76° | 16km/h | 19734m | -17.2m/s | -54.6°C | 1.6% | 61.6hPa | 2.6V | 00:00:00 | 00:00:00 | 00:00:00 | |
| GYPAP8-17 | 2026-08-31 01:30:15 | 49.02174 | 21.14157 | 88° | 16km/h | 19773m | -20.6m/s | -54.7°C | 1.6% | 61.2hPa | 2.6V | 00:00:00 | 00:00:00 | 00:00:00 | |
| SQ9EZE-13 | 2026-08-31 01:30:14 | 49.02174 | 21.14152 | 93° | 13km/h | 19794m | -21.1m/s | -54.8°C | 1.6% | 61.0hPa | 2.6V | 08:19:00 | 00:00:00 | 00:00:00 | |
| SP9KGR-15 | 2026-08-31 01:30:12 | 49.02174 | 21.14143 | 90° | 11km/h | 19835m | -17.8m/s | -55.0°C | 1.6% | 60.6hPa | 2.6V | 08:19:00 | 00:00:00 | 00:00:00 | |
| POL1PZ | 2026-08-31 01:30:01 | 49.02169 | 21.14138 | 271° | 4km/h | 20031m | -17.3m/s | -55.2°C | 1.7% | 58.7hPa | 2.6V | 00:00:00 | 00:00:00 | 00:00:00 | |
| SQ9EZE-13 | 2026-08-31 01:29:58 | 49.02168 | 21.14142 | 359° | 5km/h | 20081m | -17.9m/s | -55.5°C | 1.7% | 58.2hPa | 2.6V | 08:19:00 | 00:00:00 | 00:00:00 | |
| SP9KGR-15 | 2026-08-31 01:29:56 | 49.02164 | 21.14144 | 344° | 7km/h | 20118m | -17.3m/s | -55.6°C | 1.7% | 57.9hPa | 2.6V | 08:19:00 | 00:00:00 | 00:00:00 | |
| SQ9EZE-13 | 2026-08-31 01:29:43 | 49.02127 | 21.14137 | 52° | 5km/h | 20361m | -19.3m/s | -55.5°C | 1.8% | 55.8hPa | 2.6V | 08:20:00 | 00:00:00 | 00:00:00 | |
| SP9KGR-15 | 2026-08-31 01:29:41 | 49.02126 | 21.14135 | 18° | 4km/h | 20395m | -17.1m/s | -55.4°C | 1.7% | 55.5hPa | 2.6V | 08:20:00 | 00:00:00 | 00:00:00 | |
| POL1PZ | 2026-08-31 01:29:39 | 49.02123 | 21.14136 | 320° | 7km/h | 20433m | -21.9m/s | -55.2°C | 1.7% | 55.2hPa | 2.6V | 00:00:00 | 00:00:00 | 00:00:00 | |
| SQ9EZE-13 | 2026-08-31 01:29:28 | 49.02089 | 21.14126 | 49° | 15km/h | 20661m | -20.9m/s | -55.1°C | 1.7% | 53.2hPa | 2.6V | 08:20:00 | 00:00:00 | 00:00:00 | |
| SP9KGR-15 | 2026-08-31 01:29:25 | 49.02082 | 21.14112 | 59° | 16km/h | 20715m | -16.9m/s | -55.0°C | 1.7% | 52.7hPa | 2.6V | 08:20:00 | 00:00:00 | 00:00:00 | |
| GYPAP8-17 | 2026-08-31 01:29:20 | 49.02073 | 21.14087 | 69° | 13km/h | 20809m | -18.5m/s | -54.4°C | 1.6% | 52.0hPa | 2.6V | 00:00:00 | 00:00:00 | 00:00:00 | |
| POL1PZ | 2026-08-31 01:29:15 | 49.02072 | 21.14062 | 101° | 11km/h | 20903m | -20.4m/s | -54.6°C | 1.6% | 51.2hPa | 2.6V | 00:00:00 | 00:00:00 | 00:00:00 | |
| SQ9EZE-15 | 2026-08-31 01:29:13 | 49.02074 | 21.14055 | 117° | 7km/h | 20942m | -18.3m/s | -54.7°C | 1.6% | 50.9hPa | 2.6V | 08:20:00 | 00:00:00 | 00:00:00 | |
| SQ9EZE-13 | 2026-08-31 01:29:12 | 49.02075 | 21.14053 | 136° | 5km/h | 20960m | -19.3m/s | -54.6°C | 1.7% | 50.8hPa | 2.6V | 08:20:00 | 00:00:00 | 00:00:00 | |
| SP9KGR-15 | 2026-08-31 01:29:10 | 49.02077 | 21.14051 | 141° | 2km/h | 20996m | -17.1m/s | -54.6°C | 1.6% | 50.5hPa | 2.6V | 08:20:00 | 00:00:00 | 00:00:00 | |
| HA6NAB-11 | 2026-08-31 01:29:05 | 49.02079 | 21.14054 | 173° | 4km/h | 21092m | -21.1m/s | -54.1°C | 1.5% | 49.8hPa | 2.6V | 00:00:00 | 00:00:00 | 00:00:00 | |
| HA6NAB-11 | 2026-08-31 01:28:59 | 49.02092 | 21.14047 | 148° | 15km/h | 21206m | -14.8m/s | -54.2°C | 1.6% | 48.9hPa | 2.6V | 00:00:00 | 00:00:00 | 00:00:00 | |
| SQ9EZE-13 | 2026-08-31 01:28:57 | 49.02100 | 21.14042 | 167° | 9km/h | 21259m | -21.1m/s | -54.3°C | 1.6% | 48.5hPa | 2.6V | 08:21:00 | 00:00:00 | 00:00:00 | |
| SP9KGR-15 | 2026-08-31 01:28:55 | 49.02105 | 21.14041 | 173° | 9km/h | 21299m | -20.2m/s | -54.4°C | 1.6% | 48.2hPa | 2.6V | 08:21:00 | 00:00:00 | 00:00:00 | |
| SQ9EZE-15 | 2026-08-31 01:28:53 | 49.02107 | 21.14041 | 179° | 7km/h | 21320m | -22.1m/s | -54.3°C | 1.5% | 48.0hPa | 2.6V | 00:00:00 | 00:00:00 | 00:00:00 | |
| HA6NAB-11 | 2026-08-31 01:28:52 | 49.02109 | 21.14041 | 180° | 9km/h | 21341m | -19.1m/s | -54.2°C | 1.5% | 47.9hPa | 2.6V | 00:00:00 | 00:00:00 | 00:00:00 | |
| HA6NAB-11 | 2026-08-31 01:28:46 | 49.02126 | 21.14046 | 206° | 9km/h | 21472m | -21.2m/s | -54.8°C | 1.6% | 46.9hPa | 2.6V | 00:00:00 | 00:00:00 | 00:00:00 | |
| HA6NAB-11 | 2026-08-31 01:28:41 | 49.02134 | 21.14050 | 267° | 2km/h | 21572m | -19.0m/s | -54.8°C | 1.6% | 46.2hPa | 2.6V | 00:00:00 | 00:00:00 | 00:00:00 | |
| SQ9EZE-14 | 2026-08-31 01:28:40 | 49.02134 | 21.14051 | 247° | 4km/h | 21590m | -17.4m/s | -54.6°C | 1.6% | 46.0hPa | 2.6V | 00:00:00 | 00:00:00 | 00:00:00 | |
| SP9KGR-15 | 2026-08-31 01:28:38 | 49.02134 | 21.14052 | 275° | 5km/h | 21626m | -22.4m/s | -54.7°C | 1.6% | 45.8hPa | 2.6V | 08:21:00 | 00:00:00 | 00:00:00 | |
| GYPAP8-17 | 2026-08-31 01:28:35 | 49.02135 | 21.14060 | 270° | 7km/h | 21697m | -26.1m/s | -55.0°C | 1.6% | 45.3hPa | 2.6V | 00:00:00 | 00:00:00 | 00:00:00 | |
| HA6NAB-11 | 2026-08-31 01:28:29 | 49.02136 | 21.14084 | 274° | 13km/h | 21831m | -19.6m/s | -55.2°C | 1.7% | 44.3hPa | 2.6V | 00:00:00 | 00:00:00 | 00:00:00 | |
| SQ9EZE-14 | 2026-08-31 01:28:24 | 49.02127 | 21.14098 | 337° | 13km/h | 21922m | -19.8m/s | -55.0°C | 1.7% | 43.7hPa | 2.6V | 00:00:00 | 00:00:00 | 00:00:00 | |
| SP9KGR-15 | 2026-08-31 01:28:23 | 49.02124 | 21.14099 | 346° | 16km/h | 21942m | -20.3m/s | -55.1°C | 0% | 43.6hPa | 2.6V | 08:21:00 | 00:00:00 | 00:00:00 | |
| POL1PZ | 2026-08-31 01:28:22 | 49.02121 | 21.14100 | 353° | 16km/h | 21961m | -19.9m/s | -55.1°C | 1.6% | 43.4hPa | 2.6V | 08:21:00 | 00:00:00 | 00:00:00 | |
| HA6NAB-11 | 2026-08-31 01:28:17 | 49.02103 | 21.14100 | 5° | 9km/h | 22069m | -23.2m/s | -54.6°C | 1.6% | 42.7hPa | 2.6V | 00:00:00 | 00:00:00 | 00:00:00 | |
| SP9KGR-15 | 2026-08-31 01:28:07 | 49.02080 | 21.14079 | 48° | 11km/h | 22274m | -27.5m/s | 0°C | 0% | 41.5hPa | 2.6V | 00:00:00 | 00:00:00 | 00:00:00 | |
| POL1PZ | 2026-08-31 01:28:03 | 49.02081 | 21.14063 | 145° | 9km/h | 22391m | -19.9m/s | -54.4°C | 1.5% | 40.6hPa | 2.6V | 00:00:00 | 00:00:00 | 00:00:00 | |
| SP9KGR-15 | 2026-08-31 01:27:51 | 49.02100 | 21.14074 | 225° | 13km/h | 22634m | -23.5m/s | 0°C | 0% | 0hPa | 2.6V | 00:00:00 | 00:00:00 | 00:00:00 | |
| SQ9EZE-15 | 2026-08-31 01:27:48 | 49.02106 | 21.14085 | 243° | 13km/h | 22695m | -19.9m/s | -54.8°C | 1.6% | 38.7hPa | 2.6V | 00:00:00 | 00:00:00 | 00:00:00 | |
| GYPAP8-17 | 2026-08-31 01:27:46 | 49.02109 | 21.14094 | 252° | 13km/h | 22734m | -19.2m/s | -55.0°C | 1.6% | 38.5hPa | 2.6V | 00:00:00 | 00:00:00 | 00:00:00 | |
| POL1PZ | 2026-08-31 01:27:42 | 49.02107 | 21.14110 | 313° | 9km/h | 22816m | -21.1m/s | -55.4°C | 1.7% | 38.0hPa | 2.6V | 00:00:00 | 00:00:00 | 00:00:00 | |
| SQ9EZE-13 | 2026-08-31 01:27:35 | 49.02093 | 21.14109 | 28° | 13km/h | 22964m | -16.6m/s | -55.5°C | 1.8% | 37.1hPa | 2.6V | 08:22:00 | 00:00:00 | 00:00:00 | |
| SP9KGR-15 | 2026-08-31 01:27:34 | 49.02091 | 21.14107 | 28° | 15km/h | 22981m | -16.4m/s | 0°C | 0% | 0hPa | 2.6V | 00:00:00 | 00:00:00 | 00:00:00 | |
| SQ9EZE-15 | 2026-08-31 01:27:28 | 49.02073 | 21.14083 | 67° | 16km/h | 23073m | -18.8m/s | -55.0°C | 1.7% | 36.5hPa | 2.6V | 00:00:00 | 00:00:00 | 00:00:00 | |
| POL1PZ | 2026-08-31 01:27:21 | 49.02079 | 21.14046 | 147° | 16km/h | 23225m | -20.8m/s | -54.7°C | 1.6% | 35.7hPa | 2.6V | 08:22:00 | 00:00:00 | 00:00:00 | |
| SQ9EZE-13 | 2026-08-31 01:27:19 | 49.02088 | 21.14042 | 169° | 20km/h | 23270m | -21.5m/s | -54.8°C | 1.7% | 35.4hPa | 2.6V | 08:22:00 | 00:00:00 | 00:00:00 | |
| HA6NAB-11 | 2026-08-31 01:27:03 | 49.02111 | 21.14079 | 225° | 9km/h | 23605m | -22.1m/s | -54.1°C | 1.5% | 33.6hPa | 2.6V | 08:22:00 | 00:00:00 | 00:00:00 | |
| GYPAP8-17 | 2026-08-31 01:27:00 | 49.02118 | 21.14082 | 172° | 9km/h | 23673m | -25.3m/s | -54.0°C | 1.6% | 33.3hPa | 2.6V | 00:00:00 | 00:00:00 | 00:00:00 | |
| POL1PZ | 2026-08-31 01:26:59 | 49.02121 | 21.14082 | 194° | 11km/h | 23698m | -25.3m/s | -54.0°C | 1.5% | 33.2hPa | 2.6V | 08:22:00 | 00:00:00 | 00:00:00 | |
| HA6NAB-11 | 2026-08-31 01:26:57 | 49.02125 | 21.14085 | 217° | 5km/h | 23756m | -31.9m/s | -53.9°C | 1.5% | 33.0hPa | 2.6V | 08:22:00 | 00:00:00 | 00:00:00 | |
| HA6NAB-11 | 2026-08-31 01:26:52 | 49.02130 | 21.14099 | 264° | 11km/h | 23896m | -24.0m/s | -54.3°C | 1.6% | 32.1hPa | 2.6V | 08:22:00 | 00:00:00 | 00:00:00 | |
| SQ9EZE-13 | 2026-08-31 01:26:48 | 49.02130 | 21.14117 | 283° | 11km/h | 23988m | -22.1m/s | -54.4°C | 1.6% | 31.6hPa | 2.6V | 08:22:00 | 00:00:00 | 00:00:00 | |
| HA6NAB-11 | 2026-08-31 01:26:46 | 49.02128 | 21.14124 | 315° | 11km/h | 24030m | -24.5m/s | -54.4°C | 1.6% | 31.4hPa | 2.6V | 08:22:00 | 00:00:00 | 00:00:00 | |
| HA6NAB-11 | 2026-08-31 01:26:40 | 49.02109 | 21.14130 | 21° | 16km/h | 24178m | -21.1m/s | -54.1°C | 1.6% | 30.7hPa | 2.6V | 08:22:00 | 00:00:00 | 00:00:00 | |
| POL1PZ | 2026-08-31 01:26:39 | 49.02105 | 21.14127 | 24° | 18km/h | 24200m | -23.2m/s | -54.0°C | 1.6% | 30.6hPa | 2.6V | 08:22:00 | 00:00:00 | 00:00:00 | |
| HA6NAB-11 | 2026-08-31 01:26:34 | 49.02085 | 21.14108 | 46° | 15km/h | 24317m | -23.7m/s | -53.5°C | 1.5% | 30.1hPa | 2.6V | 08:22:00 | 00:00:00 | 00:00:00 | |
| HA6NAB-11 | 2026-08-31 01:26:28 | 49.02076 | 21.14090 | 73° | 7km/h | 24449m | -22.1m/s | -53.6°C | 1.6% | 29.5hPa | 2.6V | 00:00:00 | 00:00:00 | 00:00:00 | |
| SQ9EZE-15 | 2026-08-31 01:26:23 | 49.02080 | 21.14069 | 120° | 15km/h | 24560m | -20.6m/s | -53.1°C | 1.5% | 29.0hPa | 2.6V | 00:00:00 | 00:00:00 | 00:00:00 | |
| SQ9EZE-14 | 2026-08-31 01:26:19 | 49.02090 | 21.14048 | 135° | 16km/h | 24631m | -18.3m/s | -53.1°C | 1.6% | 28.6hPa | 2.6V | 00:00:00 | 00:00:00 | 00:00:00 | |
| POL1PZ | 2026-08-31 01:26:18 | 49.02094 | 21.14044 | 151° | 18km/h | 24652m | -22.8m/s | -53.1°C | 1.5% | 28.6hPa | 2.6V | 08:23:00 | 00:00:00 | 00:00:00 | |
| SQ9EZE-13 | 2026-08-31 01:26:17 | 49.02098 | 21.14041 | 162° | 16km/h | 24674m | -22.6m/s | -53.1°C | 1.6% | 28.5hPa | 2.6V | 08:23:00 | 00:00:00 | 00:00:00 | |
| OE5DRO-10 | 2026-08-31 01:26:08 | 49.02134 | 21.14063 | 210° | 7km/h | 24906m | -22.1m/s | -52.0°C | 4.3% | 27.4hPa | 2.6V | 00:00:00 | 00:00:00 | 00:00:00 | |
| SQ9EZE-15 | 2026-08-31 01:26:03 | 49.02145 | 21.14069 | 178° | 7km/h | 25001m | -21.9m/s | -51.7°C | 1.4% | 27.1hPa | 2.5V | 00:00:00 | 00:00:00 | 00:00:00 | |
| SQ9EZE-13 | 2026-08-31 01:26:01 | 49.02149 | 21.14067 | 161° | 7km/h | 25041m | -18.2m/s | -51.5°C | 1.4% | 26.9hPa | 2.5V | 08:23:00 | 00:00:00 | 00:00:00 | |
| POL1PZ | 2026-08-31 01:25:57 | 49.02151 | 21.14061 | 103° | 4km/h | 25119m | -22.9m/s | -51.6°C | 1.4% | 26.6hPa | 2.5V | 08:23:00 | 00:00:00 | 00:00:00 | |
| GYPAP8-17 | 2026-08-31 01:25:50 | 49.02153 | 21.14055 | 229° | 7km/h | 25311m | -28.0m/s | -51.5°C | 1.3% | 25.8hPa | 2.5V | 00:00:00 | 00:00:00 | 00:00:00 | |
| OE5DRO-10 | 2026-08-31 01:25:49 | 49.02156 | 21.14059 | 224° | 9km/h | 25364m | -26.1m/s | -51.6°C | 4.1% | 25.6hPa | 2.5V | 00:00:00 | 00:00:00 | 00:00:00 | |
| SQ9EZE-13 | 2026-08-31 01:25:45 | 49.02161 | 21.14073 | 237° | 18km/h | 25436m | -21.1m/s | -51.9°C | 1.4% | 25.3hPa | 2.5V | 08:23:00 | 00:00:00 | 00:00:00 | |
| POL1PZ | 2026-08-31 01:25:37 | 49.02167 | 21.14104 | 305° | 5km/h | 25620m | -24.6m/s | -51.7°C | 1.4% | 24.6hPa | 2.5V | 08:24:00 | 00:00:00 | 00:00:00 | |
| OE5DRO-10 | 2026-08-31 01:25:30 | 49.02158 | 21.14107 | 77° | 9km/h | 25823m | -28.7m/s | -52.1°C | 4.6% | 23.8hPa | 2.5V | 00:00:00 | 00:00:00 | 00:00:00 | |
| SQ9EZE-13 | 2026-08-31 01:25:29 | 49.02159 | 21.14107 | 77° | 2km/h | 25823m | -28.8m/s | -52.2°C | 1.5% | 23.9hPa | 2.5V | 08:24:00 | 00:00:00 | 00:00:00 | |
| HA6NAB-11 | 2026-08-31 01:25:18 | 49.02162 | 21.14122 | 282° | 16km/h | 26123m | -27.1m/s | -49.8°C | 1.3% | 22.8hPa | 2.5V | 08:24:00 | 00:00:00 | 00:00:00 | |
| POL1PZ | 2026-08-31 01:25:16 | 49.02161 | 21.14134 | 281° | 16km/h | 26180m | -28.8m/s | -49.8°C | 1.3% | 22.6hPa | 2.5V | 08:24:00 | 00:00:00 | 00:00:00 | |
| SQ9EZE-13 | 2026-08-31 01:25:13 | 49.02158 | 21.14149 | 300° | 13km/h | 26265m | -27.2m/s | -49.3°C | 1.2% | 22.3hPa | 2.5V | 08:24:00 | 00:00:00 | 00:00:00 | |
| HA6NAB-11 | 2026-08-31 01:25:12 | 49.02156 | 21.14153 | 303° | 13km/h | 26292m | -26.6m/s | -49.5°C | 1.2% | 22.2hPa | 2.5V | 08:24:00 | 00:00:00 | 00:00:00 | |
| OE5DRO-10 | 2026-08-31 01:25:11 | 49.02152 | 21.14159 | 341° | 20km/h | 26340m | -24.5m/s | -49.8°C | 3.9% | 21.9hPa | 2.5V | 00:00:00 | 00:00:00 | 00:00:00 | |
| HA6NAB-11 | 2026-08-31 01:25:06 | 49.02135 | 21.14154 | 37° | 18km/h | 26439m | -21.2m/s | -50.3°C | 1.4% | 21.7hPa | 2.5V | 08:24:00 | 00:00:00 | 00:00:00 | |
| HA6NAB-11 | 2026-08-31 01:25:01 | 49.02126 | 21.14136 | 111° | 5km/h | 26544m | -22.9m/s | -50.4°C | 1.4% | 21.3hPa | 2.5V | 08:24:00 | 00:00:00 | 00:00:00 | |
| SQ9EZE-15 | 2026-08-31 01:24:58 | 49.02129 | 21.14136 | 234° | 9km/h | 26616m | -27.9m/s | -49.8°C | 1.3% | 21.1hPa | 2.5V | 08:24:00 | 00:00:00 | 00:00:00 | |
| SQ9EZE-13 | 2026-08-31 01:24:57 | 49.02130 | 21.14140 | 234° | 13km/h | 26645m | -28.9m/s | -49.7°C | 1.3% | 21.0hPa | 2.5V | 08:24:00 | 00:00:00 | 00:00:00 | |
| POL1PZ | 2026-08-31 01:24:56 | 49.02132 | 21.14144 | 225° | 11km/h | 26672m | -27.8m/s | -49.7°C | 1.3% | 21.0hPa | 2.5V | 08:24:00 | 00:00:00 | 00:00:00 | |
| HA6NAB-11 | 2026-08-31 01:24:55 | 49.02134 | 21.14147 | 218° | 9km/h | 26698m | -24.4m/s | -49.7°C | 1.3% | 20.9hPa | 2.5V | 08:24:00 | 00:00:00 | 00:00:00 | |
| HA6NAB-11 | 2026-08-31 01:24:49 | 49.02145 | 21.14157 | 218° | 7km/h | 26838m | -23.4m/s | -49.0°C | 1.2% | 20.4hPa | 2.5V | 08:24:00 | 00:00:00 | 00:00:00 | |
| SQ9EZE-13 | 2026-08-31 01:24:42 | 49.02149 | 21.14206 | 277° | 26km/h | 27049m | -26.8m/s | -49.1°C | 1.2% | 19.8hPa | 2.5V | 08:25:00 | 00:00:00 | 00:00:00 | |
| SQ9EZE-15 | 2026-08-31 01:24:38 | 49.02146 | 21.14244 | 283° | 22km/h | 27146m | -22.7m/s | -49.6°C | 1.3% | 19.4hPa | 2.5V | 00:00:00 | 00:00:00 | 00:00:00 | |
| POL1PZ | 2026-08-31 01:24:36 | 49.02145 | 21.14259 | 283° | 15km/h | 27188m | -19.4m/s | -49.7°C | 1.3% | 19.3hPa | 2.5V | 08:25:00 | 00:00:00 | 00:00:00 | |
| OE5DRO-10 | 2026-08-31 01:24:34 | 49.02140 | 21.14276 | 308° | 15km/h | 27258m | -20.5m/s | -49.8°C | 3.9% | 19.1hPa | 2.5V | 00:00:00 | 00:00:00 | 00:00:00 | |
| SQ9EZE-13 | 2026-08-31 01:24:26 | 49.02110 | 21.14295 | 3° | 18km/h | 27439m | -26.5m/s | -49.6°C | 1.3% | 18.6hPa | 2.5V | 08:25:00 | 00:00:00 | 00:00:00 | |
| OE5DRO-10 | 2026-08-31 01:24:15 | 49.02081 | 21.14280 | 43° | 7km/h | 27747m | -25.2m/s | -49.7°C | 4.1% | 17.7hPa | 2.5V | 00:00:00 | 00:00:00 | 00:00:00 | |
| LZ4TU-5 | 2026-08-31 01:24:13 | 49.02080 | 21.14279 | 34° | 4km/h | 27771m | -23.2m/s | -49.8°C | 0% | 17.7hPa | 2.5V | 00:00:00 | 00:00:00 | 00:00:00 | |
| SQ9EZE-13 | 2026-08-31 01:24:11 | 49.02078 | 21.14279 | 0° | 0km/h | 27823m | -29.1m/s | -49.7°C | 1.4% | 17.5hPa | 2.5V | 08:25:00 | 00:00:00 | 00:00:00 | |
| LZ4TU-5 | 2026-08-31 01:24:08 | 49.02078 | 21.14284 | 264° | 4km/h | 27904m | -24.9m/s | -49.5°C | 0% | 17.3hPa | 2.5V | 00:00:00 | 00:00:00 | 00:00:00 | |
| SQ9EZE-14 | 2026-08-31 01:23:58 | 49.02061 | 21.14282 | 24° | 9km/h | 28163m | -24.2m/s | -48.4°C | 1.2% | 16.7hPa | 2.5V | 08:25:00 | 00:00:00 | 00:00:00 | |
| OE5DRO-10 | 2026-08-31 01:23:56 | 49.02056 | 21.14279 | 54° | 15km/h | 28247m | -26.7m/s | -48.0°C | 3.6% | 16.4hPa | 2.5V | 08:25:00 | 00:00:00 | 00:00:00 | |
| POL1PZ | 2026-08-31 01:23:54 | 49.02056 | 21.14277 | 121° | 4km/h | 28275m | -29.2m/s | -48.0°C | 1.2% | 16.4hPa | 2.5V | 00:00:00 | 00:00:00 | 00:00:00 | |
| GYPAP8-17 | 2026-08-31 01:23:52 | 49.02057 | 21.14277 | 178° | 5km/h | 28330m | -25.6m/s | -47.9°C | 1.2% | 16.2hPa | 2.5V | 08:26:00 | 00:00:00 | 00:00:00 | |
| SQ9EZE-14 | 2026-08-31 01:23:42 | 49.02066 | 21.14295 | 17° | 13km/h | 28611m | -28.1m/s | -47.9°C | 1.2% | 15.6hPa | 2.5V | 00:00:00 | 00:00:00 | 00:00:00 | |
| SQ9EZE-13 | 2026-08-31 01:23:40 | 49.02060 | 21.14291 | 30° | 18km/h | 28668m | -29.3m/s | -47.8°C | 1.2% | 15.4hPa | 2.5V | 08:26:00 | 00:00:00 | 00:00:00 | |
| OE5DRO-10 | 2026-08-31 01:23:37 | 49.02044 | 21.14277 | 43° | 16km/h | 28776m | -23.9m/s | -47.9°C | 3.9% | 15.1hPa | 2.5V | 00:00:00 | 00:00:00 | 00:00:00 | |
| HA6NAB-11 | 2026-08-31 01:23:36 | 49.02044 | 21.14277 | 43° | 15km/h | 28776m | -23.9m/s | -47.9°C | 1.3% | 15.1hPa | 2.5V | 08:26:00 | 00:00:00 | 00:00:00 | |
| POL1PZ | 2026-08-31 01:23:34 | 49.02039 | 21.14270 | 55° | 13km/h | 28829m | -27.2m/s | -47.9°C | 0% | 0hPa | 2.5V | 00:00:00 | 00:00:00 | 00:00:00 | |
| SQ9EZE-15 | 2026-08-31 01:23:33 | 49.02037 | 21.14266 | 65° | 13km/h | 28856m | -26.4m/s | -47.7°C | 1.2% | 15.0hPa | 2.5V | 00:00:00 | 00:00:00 | 00:00:00 | |
| HA6NAB-11 | 2026-08-31 01:23:31 | 49.02035 | 21.14256 | 82° | 16km/h | 28908m | -26.5m/s | -47.2°C | 1.2% | 14.9hPa | 2.5V | 08:26:00 | 00:00:00 | 00:00:00 | |
| SQ9EZE-13 | 2026-08-31 01:23:25 | 49.02028 | 21.14206 | 73° | 26km/h | 29062m | -25.9m/s | -46.6°C | 1.2% | 14.5hPa | 2.5V | 08:26:00 | 00:00:00 | 00:00:00 | |
| HA6NAB-11 | 2026-08-31 01:23:19 | 49.02022 | 21.14177 | 69° | 5km/h | 29222m | -28.0m/s | -45.8°C | 1.1% | 14.2hPa | 2.5V | 08:26:00 | 00:00:00 | 00:00:00 | |
| OE5DRO-10 | 2026-08-31 01:23:18 | 49.02021 | 21.14173 | 64° | 15km/h | 29275m | -24.7m/s | -45.5°C | 3.3% | 14.0hPa | 2.5V | 00:00:00 | 00:00:00 | 00:00:00 | |
| POL1PZ | 2026-08-31 01:23:14 | 49.02018 | 21.14162 | 83° | 15km/h | 29350m | -27.9m/s | -45.5°C | 0% | 0hPa | 2.5V | 00:00:00 | 00:00:00 | 00:00:00 | |
| SQ9EZE-15 | 2026-08-31 01:23:13 | 49.02018 | 21.14156 | 76° | 15km/h | 29379m | -29.9m/s | -45.5°C | 1.1% | 13.9hPa | 2.5V | 00:00:00 | 00:00:00 | 00:00:00 | |
| SQ9EZE-13 | 2026-08-31 01:23:09 | 49.02015 | 21.14131 | 83° | 15km/h | 29486m | -24.3m/s | -45.6°C | 1.1% | 13.6hPa | 2.5V | 08:26:00 | 00:00:00 | 00:00:00 | |
| HA6NAB-11 | 2026-08-31 01:23:08 | 49.02015 | 21.14126 | 86° | 15km/h | 29510m | -23.0m/s | -45.6°C | 1.2% | 13.6hPa | 2.5V | 08:26:00 | 00:00:00 | 00:00:00 | |
| LZ4TU-5 | 2026-08-31 01:23:05 | 49.02015 | 21.14112 | 106° | 11km/h | 29585m | -26.8m/s | -45.5°C | 0% | 13.4hPa | 2.5V | 00:00:00 | 00:00:00 | 00:00:00 | |
| GYPAP8-17 | 2026-08-31 01:23:04 | 49.02016 | 21.14108 | 106° | 13km/h | 29613m | -28.4m/s | -45.3°C | 1.1% | 13.4hPa | 2.5V | 00:00:00 | 00:00:00 | 00:00:00 | |
| HA6NAB-11 | 2026-08-31 01:23:03 | 49.02018 | 21.14097 | 107° | 15km/h | 29663m | -25.2m/s | -45.0°C | 1.1% | 13.2hPa | 2.5V | 08:27:00 | 00:00:00 | 00:00:00 | |
| LZ4TU-5 | 2026-08-31 01:23:00 | 49.02019 | 21.14084 | 93° | 20km/h | 29714m | -25.6m/s | -44.8°C | 0% | 13.2hPa | 2.5V | 00:00:00 | 00:00:00 | 00:00:00 | |
| OE5DRO-10 | 2026-08-31 01:22:59 | 49.02019 | 21.14069 | 86° | 11km/h | 29763m | -25.8m/s | -44.5°C | 3.2% | 13.0hPa | 2.5V | 00:00:00 | 00:00:00 | 00:00:00 | |
| HA6NAB-11 | 2026-08-31 01:22:56 | 49.02017 | 21.14056 | 71° | 15km/h | 29814m | -25.5m/s | -44.3°C | 1.0% | 12.9hPa | 2.5V | 08:27:00 | 00:00:00 | 00:00:00 | |
| SQ9EZE-13 | 2026-08-31 01:22:54 | 49.02015 | 21.14047 | 70° | 9km/h | 29873m | -30.4m/s | -44.1°C | 1.0% | 12.9hPa | 2.5V | 08:27:00 | 00:00:00 | 00:00:00 | |
| POL1PZ | 2026-08-31 01:22:53 | 49.02014 | 21.14045 | 68° | 7km/h | 29903m | -32.3m/s | -44.0°C | 0% | 0hPa | 2.5V | 00:00:00 | 00:00:00 | 00:00:00 | |
| HA6NAB-11 | 2026-08-31 01:22:51 | 49.02014 | 21.14042 | 132° | 4km/h | 29969m | -33.2m/s | -44.2°C | 1.0% | 12.7hPa | 2.5V | 08:27:00 | 00:00:00 | 00:00:00 | |
| HA6NAB-11 | 2026-08-31 01:22:45 | 49.02023 | 21.14033 | 117° | 13km/h | 30126m | -24.1m/s | -44.3°C | 1.1% | 12.3hPa | 2.5V | 08:27:00 | 00:00:00 | 00:00:00 | |
| OE5DRO-10 | 2026-08-31 01:22:40 | 49.02017 | 21.14010 | 43° | 15km/h | 30295m | -31.5m/s | -43.7°C | 3.2% | 12.0hPa | 2.5V | 00:00:00 | 00:00:00 | 00:00:00 | |
| SQ9EZE-13 | 2026-08-31 01:22:39 | 49.02017 | 21.14010 | 44° | 13km/h | 30295m | -31.6m/s | -43.7°C | 1.0% | 12.1hPa | 2.5V | 08:27:00 | 00:00:00 | 00:00:00 | |
| HA6NAB-11 | 2026-08-31 01:22:34 | 49.02009 | 21.13997 | 81° | 9km/h | 30439m | -28.7m/s | -43.5°C | 1.0% | 11.8hPa | 2.5V | 08:27:00 | 00:00:00 | 00:00:00 | |
| POL1PZ | 2026-08-31 01:22:31 | 49.02007 | 21.13989 | 63° | 7km/h | 30541m | -34.9m/s | -43.1°C | 0% | 0hPa | 2.5V | 00:00:00 | 00:00:00 | 00:00:00 | |
| HA6NAB-11 | 2026-08-31 01:22:28 | 49.02000 | 21.13980 | 33° | 20km/h | 30642m | -34.6m/s | -42.6°C | 1.0% | 11.5hPa | 2.5V | 08:27:00 | 00:00:00 | 00:00:00 | |
| S52SK | 2026-08-31 01:22:27 | 49.01996 | 21.13975 | 36° | 22km/h | 30676m | -31.6m/s | -42.5°C | 1.0% | 11.4hPa | 2.5V | 00:00:00 | 00:00:00 | 00:00:00 | |
| OE5DXL-15 | 2026-08-31 01:22:24 | 49.01975 | 21.13958 | 34° | 20km/h | 30784m | -28.1m/s | -42.1°C | 2.9% | 11.2hPa | 2.5V | 00:00:00 | 00:00:00 | 00:00:00 | |
| SQ9EZE-13 | 2026-08-31 01:22:23 | 49.01974 | 21.13958 | 35° | 27km/h | 30784m | -28.2m/s | -42.1°C | 0.9% | 11.2hPa | 2.5V | 08:27:00 | 00:00:00 | 00:00:00 | |
| HA6NAB-11 | 2026-08-31 01:22:22 | 49.01970 | 21.13953 | 37° | 22km/h | 30815m | -34.1m/s | -41.9°C | 0.9% | 11.2hPa | 2.5V | 08:27:00 | 00:00:00 | 00:00:00 | |
| OE5DRO-10 | 2026-08-31 01:22:21 | 49.01963 | 21.13945 | 38° | 20km/h | 30885m | -34.5m/s | -41.7°C | 2.8% | 11.0hPa | 2.5V | 00:00:00 | 00:00:00 | 00:00:00 | |
| HA6NAB-11 | 2026-08-31 01:22:17 | 49.01957 | 21.13933 | 54° | 11km/h | 30986m | -30.2m/s | -41.6°C | 0.9% | 10.9hPa | 2.5V | 08:27:00 | 00:00:00 | 00:00:00 | |
| HA6NAB-11 | 2026-08-31 01:22:11 | 49.01943 | 21.13901 | 55° | 24km/h | 31179m | -35.9m/s | -41.5°C | 0.9% | 10.6hPa | 2.5V | 00:00:00 | 00:00:00 | 00:00:00 | |
| POL1PZ | 2026-08-31 01:22:10 | 49.01939 | 21.13893 | 53° | 26km/h | 31215m | -35.8m/s | 0°C | 0% | 0hPa | 2.5V | 00:00:00 | 00:00:00 | 00:00:00 | |
| SQ9EZE-13 | 2026-08-31 01:22:07 | 49.01930 | 21.13870 | 63° | 22km/h | 31320m | -32.7m/s | -41.7°C | 0.9% | 10.4hPa | 2.5V | 08:27:00 | 00:00:00 | 00:00:00 | |
| SQ9EZE-15 | 2026-08-31 01:22:05 | 49.01925 | 21.13856 | 71° | 22km/h | 31383m | -29.3m/s | -41.7°C | 1.0% | 10.3hPa | 2.5V | 00:00:00 | 00:00:00 | 00:00:00 | |
| OE5DRO-10 | 2026-08-31 01:22:02 | 49.01923 | 21.13824 | 97° | 20km/h | 31504m | -30.5m/s | -41.6°C | 2.9% | 10.0hPa | 2.5V | 00:00:00 | 00:00:00 | 00:00:00 | |
| LZ4TU-5 | 2026-08-31 01:21:57 | 49.01925 | 21.13793 | 100° | 16km/h | 31621m | -32.0m/s | -41.7°C | 0% | 9.9hPa | 2.6V | 00:00:00 | 00:00:00 | 00:00:00 | |
| OE5DXL-15 | 2026-08-31 01:21:54 | 49.01922 | 21.13776 | 17° | 26km/h | 31751m | -35.4m/s | -41.5°C | 2.9% | 9.7hPa | 2.6V | 00:00:00 | 00:00:00 | 00:00:00 | |
| LZ4TU-5 | 2026-08-31 01:21:53 | 49.01922 | 21.13776 | 17° | 13km/h | 31751m | -35.5m/s | -41.5°C | 0% | 9.7hPa | 2.5V | 00:00:00 | 00:00:00 | 00:00:00 | |
| SQ9EZE-13 | 2026-08-31 01:21:52 | 49.01919 | 21.13775 | 13° | 13km/h | 31786m | -32.5m/s | -41.5°C | 1.0% | 9.7hPa | 2.5V | 08:27:00 | 00:00:00 | 00:00:00 | |
| POL1PZ | 2026-08-31 01:21:50 | 49.01912 | 21.13771 | 30° | 22km/h | 31854m | -37.2m/s | 0°C | 0% | 0hPa | 2.5V | 00:00:00 | 00:00:00 | 00:00:00 | |
| SQ9EZE-15 | 2026-08-31 01:21:45 | 49.01888 | 21.13743 | 46° | 26km/h | 32028m | -30.9m/s | -41.1°C | 1.0% | 9.3hPa | 2.5V | 00:00:00 | 00:00:00 | 00:00:00 | |
| OE5DRO-10 | 2026-08-31 01:21:43 | 49.01874 | 21.13720 | 52° | 29km/h | 32123m | -34.7m/s | -40.6°C | 2.8% | 9.1hPa | 2.5V | 00:00:00 | 00:00:00 | 00:00:00 | |
| SQ9EZE-14 | 2026-08-31 01:21:37 | 49.01852 | 21.13682 | 51° | 29km/h | 32296m | -32.2m/s | -39.7°C | 0.9% | 9.0hPa | 2.5V | 08:27:00 | 00:00:00 | 00:00:00 | |
| SQ9EZE-13 | 2026-08-31 01:21:36 | 49.01848 | 21.13674 | 50° | 26km/h | 32327m | -30.0m/s | -39.4°C | 0.8% | 8.9hPa | 2.5V | 08:27:00 | 00:00:00 | 00:00:00 | |
| GYPAP8-17 | 2026-08-31 01:21:35 | 49.01843 | 21.13667 | 46° | 27km/h | 32356m | -28.7m/s | -39.2°C | 0.8% | 8.9hPa | 2.5V | 00:00:00 | 00:00:00 | 00:00:00 | |
| POL1PZ | 2026-08-31 01:21:26 | 49.01790 | 21.13608 | 35° | 31km/h | 32637m | -30.3m/s | 0°C | 0% | 0hPa | 2.5V | 00:00:00 | 00:00:00 | 00:00:00 | |
| OE5DXL-15 | 2026-08-31 01:21:24 | 49.01769 | 21.13586 | 36° | 42km/h | 32732m | -30.1m/s | -38.9°C | 2.6% | 8.3hPa | 2.5V | 00:00:00 | 00:00:00 | 00:00:00 | |
| SQ9EZE-14 | 2026-08-31 01:21:21 | 49.01755 | 21.13570 | 37° | 33km/h | 32791m | -33.2m/s | -38.6°C | 0.8% | 8.3hPa | 2.5V | 00:00:00 | 00:00:00 | 00:00:00 | |
| SQ9EZE-13 | 2026-08-31 01:21:20 | 49.01749 | 21.13563 | 34° | 29km/h | 32825m | -35.7m/s | -38.5°C | 0.8% | 8.3hPa | 2.5V | 08:28:00 | 00:00:00 | 00:00:00 | |
| POL1PZ | 2026-08-31 01:21:06 | 49.01643 | 21.13477 | 40° | 40km/h | 33287m | -37.6m/s | 0°C | 0% | 0hPa | 2.5V | 08:28:00 | 00:00:00 | 00:00:00 | |
| OE5DRO-10 | 2026-08-31 01:21:05 | 49.01627 | 21.13456 | 41° | 53km/h | 33361m | -35.4m/s | -37.5°C | 2.3% | 7.6hPa | 2.5V | 08:28:00 | 00:00:00 | 00:00:00 | |
| SQ9EZE-13 | 2026-08-31 01:21:04 | 49.01627 | 21.13456 | 42° | 42km/h | 33361m | -35.5m/s | -37.6°C | 0.7% | 7.7hPa | 2.6V | 08:28:00 | 00:00:00 | 00:00:00 | |
| S52SK | 2026-08-31 01:21:00 | 49.01591 | 21.13406 | 47° | 57km/h | 33503m | -36.0m/s | -37.9°C | 0.8% | 7.5hPa | 2.6V | 00:00:00 | 00:00:00 | 00:00:00 | |
| HA6NAB-11 | 2026-08-31 01:20:59 | 49.01581 | 21.13391 | 48° | 55km/h | 33537m | -34.2m/s | -38.0°C | 0.8% | 7.4hPa | 2.6V | 08:28:00 | 00:00:00 | 00:00:00 | |
| S52SK | 2026-08-31 01:20:55 | 49.01543 | 21.13318 | 57° | 62km/h | 33655m | -25.5m/s | -38.2°C | 0.8% | 7.3hPa | 2.6V | 00:00:00 | 00:00:00 | 00:00:00 | |
| OE5DXL-15 | 2026-08-31 01:20:54 | 49.01528 | 21.13280 | 61° | 33km/h | 33707m | -29.4m/s | -38.4°C | 2.5% | 7.2hPa | 2.6V | 00:00:00 | 00:00:00 | 00:00:00 | |
| HA6NAB-11 | 2026-08-31 01:20:52 | 49.01522 | 21.13261 | 69° | 55km/h | 33738m | -33.0m/s | -38.5°C | 0.9% | 7.2hPa | 2.6V | 08:28:00 | 00:00:00 | 00:00:00 | |
| LZ4TU-5 | 2026-08-31 01:20:50 | 49.01514 | 21.13223 | 74° | 49km/h | 33807m | -37.9m/s | -38.7°C | 0% | 7.2hPa | 2.6V | 00:00:00 | 00:00:00 | 00:00:00 | |
| OE5DRO-10 | 2026-08-31 01:20:46 | 49.01500 | 21.13134 | 78° | 26km/h | 33970m | -29.7m/s | -38.8°C | 2.8% | 6.9hPa | 2.6V | 00:00:00 | 00:00:00 | 00:00:00 | |
| HA6NAB-11 | 2026-08-31 01:20:45 | 49.01500 | 21.13134 | 78° | 44km/h | 33970m | -29.8m/s | -38.8°C | 0.9% | 7.0hPa | 2.6V | 08:28:00 | 00:00:00 | 00:00:00 | |
| POL1PZ | 2026-08-31 01:20:44 | 49.01497 | 21.13118 | 77° | 44km/h | 33999m | -31.3m/s | 0°C | 0% | 0hPa | 2.6V | 08:28:00 | 00:00:00 | 00:00:00 | |
| HA6NAB-11 | 2026-08-31 01:20:39 | 49.01492 | 21.13047 | 90° | 29km/h | 34162m | -38.1m/s | -37.0°C | 0.8% | 6.8hPa | 2.6V | 08:28:00 | 00:00:00 | 00:00:00 | |
| SQ9EZE-15 | 2026-08-31 01:20:34 | 49.01488 | 21.13016 | 67° | 9km/h | 34358m | -38.0m/s | -36.3°C | 0.8% | 6.6hPa | 2.6V | 08:28:00 | 00:00:00 | 00:00:00 | |
| SQ9EZE-13 | 2026-08-31 01:20:33 | 49.01488 | 21.13013 | 80° | 7km/h | 34394m | -37.3m/s | -36.3°C | 0.8% | 6.6hPa | 2.6V | 08:29:00 | 00:00:00 | 00:00:00 | |
| HA6NAB-11 | 2026-08-31 01:20:29 | 49.01486 | 21.12992 | 82° | 22km/h | 34532m | -36.5m/s | -35.7°C | 0.7% | 6.4hPa | 2.6V | 00:00:00 | 00:00:00 | 00:00:00 | |
| OE5DRO-10 | 2026-08-31 01:20:27 | 49.01484 | 21.12959 | 89° | 29km/h | 34644m | -39.5m/s | -35.2°C | 2.2% | 6.3hPa | 2.6V | 00:00:00 | 00:00:00 | 00:00:00 | |
| OE5DXL-15 | 2026-08-31 01:20:24 | 49.01488 | 21.12923 | 114° | 22km/h | 34766m | -42.3m/s | -35.3°C | 2.3% | 6.2hPa | 2.6V | 00:00:00 | 00:00:00 | 00:00:00 | |
| POL1PZ | 2026-08-31 01:20:23 | 49.01488 | 21.12923 | 115° | 29km/h | 34766m | -42.3m/s | 0°C | 0% | 0hPa | 2.6V | 00:00:00 | 00:00:00 | 00:00:00 | |
| GYPAP8-17 | 2026-08-31 01:20:19 | 49.01505 | 21.12888 | 141° | 27km/h | 34938m | -42.1m/s | -35.3°C | 0.8% | 6.1hPa | 2.6V | 00:00:00 | 00:00:00 | 00:00:00 | |
| HA6NAB-11 | 2026-08-31 01:20:18 | 49.01510 | 21.12881 | 144° | 26km/h | 34979m | -39.6m/s | -34.9°C | 0.7% | 6.0hPa | 2.6V | 00:00:00 | 00:00:00 | 00:00:00 | |
| SQ9EZE-13 | 2026-08-31 01:20:16 | 49.01521 | 21.12869 | 143° | 27km/h | 35057m | -36.4m/s | -34.6°C | 0.8% | 6.0hPa | 2.6V | 08:29:00 | 00:00:00 | 00:00:00 | |
| HA6NAB-11 | 2026-08-31 01:20:12 | 49.01545 | 21.12845 | 145° | 35km/h | 35198m | -34.9m/s | -33.6°C | 0.7% | 5.8hPa | 2.6V | 00:00:00 | 00:00:00 | 00:00:00 | |
| OE5DRO-10 | 2026-08-31 01:20:08 | 49.01577 | 21.12810 | 150° | 13km/h | 35364m | -31.9m/s | -32.4°C | 2.0% | 5.6hPa | 2.6V | 00:00:00 | 00:00:00 | 00:00:00 | |
| HA6NAB-11 | 2026-08-31 01:20:07 | 49.01577 | 21.12810 | 151° | 18km/h | 35364m | -32.0m/s | -32.4°C | 0.6% | 5.7hPa | 2.5V | 00:00:00 | 00:00:00 | 00:00:00 | |
| HA6NAB-11 | 2026-08-31 01:20:02 | 49.01587 | 21.12816 | 269° | 18km/h | 35535m | -38.4m/s | -31.4°C | 0.6% | 5.6hPa | 2.5V | 00:00:00 | 00:00:00 | 00:00:00 | |
| SQ9EZE-13 | 2026-08-31 01:20:00 | 49.01588 | 21.12829 | 254° | 16km/h | 35609m | -37.7m/s | -31.7°C | 0.6% | 5.5hPa | 2.5V | 08:29:00 | 00:00:00 | 00:00:00 | |
| HA6NAB-11 | 2026-08-31 01:19:56 | 49.01593 | 21.12836 | 215° | 4km/h | 35749m | -37.0m/s | -31.7°C | 0.6% | 5.4hPa | 2.5V | 00:00:00 | 00:00:00 | 00:00:00 | |
| OE5DXL-15 | 2026-08-31 01:19:54 | 49.01589 | 21.12838 | 358° | 16km/h | 35881m | -46.0m/s | -31.3°C | 2.0% | 5.3hPa | 2.5V | 00:00:00 | 00:00:00 | 00:00:00 | |
| OE5DRO-10 | 2026-08-31 01:19:49 | 49.01572 | 21.12837 | 360° | 11km/h | 36097m | -44.6m/s | -30.3°C | 1.9% | 5.1hPa | 2.5V | 00:00:00 | 00:00:00 | 00:00:00 | |
| SQ9EZE-13 | 2026-08-31 01:19:44 | 49.01568 | 21.12836 | 341° | 7km/h | 36263m | -40.2m/s | -29.8°C | 0.6% | 5.0hPa | 2.5V | 08:29:00 | 00:00:00 | 00:00:00 | |
| S52SK | 2026-08-31 01:19:31 | 49.01534 | 21.12843 | 277° | 18km/h | 36811m | -43.9m/s | -26.1°C | 0.5% | 4.6hPa | 2.5V | 00:00:00 | 00:00:00 | 00:00:00 | |
| OE5DRO-10 | 2026-08-31 01:19:30 | 49.01531 | 21.12860 | 284° | 22km/h | 36892m | -38.3m/s | -25.9°C | 1.5% | 4.5hPa | 2.5V | 00:00:00 | 00:00:00 | 00:00:00 | |
| S52SK | 2026-08-31 01:19:25 | 49.01515 | 21.12906 | 321° | 42km/h | 37038m | -42.4m/s | -25.1°C | 0.4% | 4.5hPa | 2.5V | 00:00:00 | 00:00:00 | 00:00:00 | |
| OE5DXL-15 | 2026-08-31 01:19:24 | 49.01496 | 21.12921 | 336° | 16km/h | 37127m | -45.0m/s | -25.1°C | 1.4% | 4.4hPa | 2.5V | 00:00:00 | 00:00:00 | 00:00:00 | |
| GYPAP8-17 | 2026-08-31 01:19:22 | 49.01487 | 21.12927 | 343° | 38km/h | 37171m | -44.5m/s | -25.3°C | 0.4% | 4.4hPa | 2.5V | 00:00:00 | 00:00:00 | 00:00:00 | |
| SQ9EZE-14 | 2026-08-31 01:19:15 | 49.01458 | 21.12942 | 0° | 0km/h | 37449m | -33.0m/s | -25.8°C | 0.5% | 4.2hPa | 2.5V | 00:00:00 | 00:00:00 | 00:00:00 | |
| SQ9EZE-13 | 2026-08-31 01:19:13 | 49.01460 | 21.12944 | 181° | 4km/h | 37519m | -36.9m/s | -25.6°C | 0.5% | 4.2hPa | 2.5V | 00:00:00 | 00:00:00 | 00:00:00 | |
| OE5DRO-10 | 2026-08-31 01:19:11 | 49.01462 | 21.12945 | 264° | 18km/h | 37632m | -37.7m/s | -25.1°C | 1.4% | 4.1hPa | 2.5V | 00:00:00 | 00:00:00 | 00:00:00 | |
| SQ9EZE-15 | 2026-08-31 01:19:10 | 49.01462 | 21.12945 | 0° | 0km/h | 37632m | -37.8m/s | -25.1°C | 0.4% | 4.1hPa | 2.6V | 00:00:00 | 00:00:00 | 00:00:00 | |
| SQ9EZE-14 | 2026-08-31 01:18:59 | 49.01490 | 21.12996 | 245° | 22km/h | 38089m | -46.9m/s | -25.0°C | 0.4% | 3.9hPa | 2.6V | 00:00:00 | 00:00:00 | 00:00:00 | |
| SQ9EZE-13 | 2026-08-31 01:18:57 | 49.01495 | 21.13010 | 246° | 22km/h | 38165m | -29.2m/s | -25.4°C | 0.5% | 3.8hPa | 2.6V | 00:00:00 | 00:00:00 | 00:00:00 | |
| OE5DXL-15 | 2026-08-31 01:18:54 | 49.01504 | 21.13039 | 244° | 22km/h | 38205m | 10.3m/s | -25.4°C | 1.4% | 3.7hPa | 2.6V | 00:00:00 | 00:00:00 | 08:30:00 | |
| OE5DRO-10 | 2026-08-31 01:18:52 | 49.01504 | 21.13048 | 334° | 18km/h | 38192m | 4.7m/s | -25.4°C | 1.4% | 3.7hPa | 2.5V | 00:00:00 | 00:00:00 | 00:00:00 | |
| HA6NAB-11 | 2026-08-31 01:18:45 | 49.01502 | 21.13057 | 227° | 24km/h | 38170m | 4.6m/s | -25.5°C | 0.4% | 3.8hPa | 2.5V | 00:00:00 | 00:00:00 | 00:00:00 | |
| SQ9EZE-13 | 2026-08-31 01:18:41 | 49.01527 | 21.13099 | 232° | 40km/h | 38153m | 2.6m/s | -25.5°C | 0.4% | 3.8hPa | 2.5V | 00:00:00 | 00:00:00 | 00:00:00 | |
| HA6NAB-11 | 2026-08-31 01:18:40 | 49.01533 | 21.13111 | 235° | 35km/h | 38150m | 2.4m/s | -25.5°C | 0.4% | 3.8hPa | 2.5V | 00:00:00 | 00:00:00 | 00:00:00 | |
| HA6NAB-11 | 2026-08-31 01:18:35 | 49.01536 | 21.13134 | 19° | 11km/h | 38131m | 4.2m/s | -25.6°C | 0.4% | 3.8hPa | 2.5V | 00:00:00 | 00:00:00 | 00:00:00 | |
| OE5DRO-10 | 2026-08-31 01:18:33 | 49.01531 | 21.13129 | 151° | 18km/h | 38121m | 2.8m/s | -25.5°C | 1.4% | 3.8hPa | 2.5V | 00:00:00 | 00:00:00 | 00:00:00 | |
| HA6NAB-11 | 2026-08-31 01:18:29 | 49.01541 | 21.13138 | 217° | 31km/h | 38109m | 5.1m/s | -25.6°C | 0.5% | 3.8hPa | 2.5V | 00:00:00 | 00:00:00 | 00:00:00 | |
| SQ9EZE-13 | 2026-08-31 01:18:26 | 49.01564 | 21.13165 | 221° | 40km/h | 38095m | 3.2m/s | -25.6°C | 0.4% | 3.8hPa | 2.5V | 00:00:00 | 00:00:00 | 00:00:00 | |
| OE5DXL-15 | 2026-08-31 01:18:24 | 49.01580 | 21.13186 | 219° | 20km/h | 38085m | 4.0m/s | -25.5°C | 1.4% | 3.8hPa | 2.5V | 00:00:00 | 00:00:00 | 00:00:00 | |
| HA6NAB-11 | 2026-08-31 01:18:23 | 49.01580 | 21.13186 | 220° | 15km/h | 38085m | 4.1m/s | -25.6°C | 0.4% | 3.8hPa | 2.5V | 00:00:00 | 00:00:00 | 00:00:00 | |
| HA6NAB-11 | 2026-08-31 01:18:17 | 49.01577 | 21.13175 | 93° | 4km/h | 38060m | 3.0m/s | -25.5°C | 0.5% | 3.9hPa | 2.5V | 00:00:00 | 00:00:00 | 00:00:00 | |
| OE5DRO-10 | 2026-08-31 01:18:14 | 49.01592 | 21.13190 | 223° | 24km/h | 38041m | 4.8m/s | -25.4°C | 1.4% | 3.8hPa | 2.5V | 00:00:00 | 00:00:00 | 08:30:00 | |
| HA6NAB-11 | 2026-08-31 01:18:12 | 49.01599 | 21.13199 | 223° | 40km/h | 38037m | 4.2m/s | -25.4°C | 0.5% | 3.9hPa | 2.5V | 00:00:00 | 00:00:00 | 00:00:00 | |
| SQ9EZE-13 | 2026-08-31 01:18:10 | 49.01613 | 21.13219 | 224° | 35km/h | 38030m | 2.8m/s | -25.4°C | 0.4% | 3.9hPa | 2.5V | 00:00:00 | 00:00:00 | 00:00:00 | |
| SQ9EZE-15 | 2026-08-31 01:18:06 | 49.01625 | 21.13235 | 71° | 5km/h | 38014m | 5.1m/s | -25.3°C | 0.5% | 3.9hPa | 2.5V | 00:00:00 | 00:00:00 | 00:00:00 | |
| S52SK | 2026-08-31 01:18:04 | 49.01622 | 21.13228 | 58° | 15km/h | 38004m | 4.0m/s | -25.2°C | 0.4% | 3.9hPa | 2.5V | 00:00:00 | 00:00:00 | 00:00:00 | |
| S52SK | 2026-08-31 01:17:58 | 49.01631 | 21.13230 | 223° | 31km/h | 37980m | 4.9m/s | -25.1°C | 0.5% | 3.9hPa | 2.5V | 00:00:00 | 00:00:00 | 00:00:00 | |
| OE5DRO-10 | 2026-08-31 01:17:55 | 49.01657 | 21.13268 | 230° | 18km/h | 37965m | 2.8m/s | -24.9°C | 1.4% | 3.9hPa | 2.5V | 00:00:00 | 00:00:00 | 00:00:00 | |
| OE5DXL-15 | 2026-08-31 01:17:54 | 49.01660 | 21.13274 | 231° | 20km/h | 37962m | 3.4m/s | -24.9°C | 1.4% | 3.8hPa | 2.5V | 00:00:00 | 00:00:00 | 00:00:00 | |
| S52SK | 2026-08-31 01:17:53 | 49.01660 | 21.13274 | 232° | 18km/h | 37962m | 3.4m/s | -24.9°C | 0% | 3.9hPa | 2.5V | 00:00:00 | 00:00:00 | 00:00:00 | |
| SQ9EZE-15 | 2026-08-31 01:17:46 | 49.01657 | 21.13266 | 136° | 5km/h | 37933m | 3.2m/s | -24.8°C | 0.4% | 3.9hPa | 2.5V | 00:00:00 | 00:00:00 | 00:00:00 | |
| SQ9EZE-13 | 2026-08-31 01:17:39 | 49.01694 | 21.13312 | 228° | 31km/h | 37903m | 3.1m/s | -24.7°C | 0.4% | 3.9hPa | 2.5V | 00:00:00 | 00:00:00 | 00:00:00 | |
| OE5DRO-10 | 2026-08-31 01:17:36 | 49.01702 | 21.13328 | 32° | 18km/h | 37887m | 5.1m/s | -24.6°C | 1.4% | 3.9hPa | 2.5V | 00:00:00 | 00:00:00 | 00:00:00 | |
| GYPAP8-17 | 2026-08-31 01:17:27 | 49.01715 | 21.13337 | 222° | 37km/h | 37852m | 4.8m/s | -24.5°C | 0.4% | 4.0hPa | 2.5V | 00:00:00 | 00:00:00 | 00:00:00 | |
| OE5DXL-15 | 2026-08-31 01:17:24 | 49.01743 | 21.13377 | 223° | 20km/h | 37836m | 2.6m/s | -24.5°C | 1.4% | 3.9hPa | 2.5V | 00:00:00 | 00:00:00 | 00:00:00 | |
| OE5DRO-10 | 2026-08-31 01:17:17 | 49.01753 | 21.13374 | 144° | 18km/h | 37808m | 3.2m/s | -24.5°C | 1.3% | 3.9hPa | 2.5V | 00:00:00 | 00:00:00 | 00:00:00 | |
| SQ9EZE-13 | 2026-08-31 01:17:08 | 49.01797 | 21.13421 | 225° | 22km/h | 37773m | 3.4m/s | -24.5°C | 0.4% | 4.0hPa | 2.5V | 00:00:00 | 00:00:00 | 00:00:00 | |
| OE5DRO-10 | 2026-08-31 01:16:58 | 49.01806 | 21.13425 | 221° | 26km/h | 37726m | 5.6m/s | -25.2°C | 1.4% | 4.0hPa | 2.5V | 00:00:00 | 00:00:00 | 00:00:00 | |
| HA6NAB-11 | 2026-08-31 01:16:56 | 49.01813 | 21.13435 | 223° | 44km/h | 37721m | 4.5m/s | -25.3°C | 0.4% | 4.0hPa | 2.5V | 00:00:00 | 00:00:00 | 00:00:00 | |
| OE5DXL-15 | 2026-08-31 01:16:54 | 49.01836 | 21.13464 | 218° | 20km/h | 37711m | 2.6m/s | -25.3°C | 1.4% | 4.0hPa | 2.5V | 00:00:00 | 00:00:00 | 00:00:00 | |
| SQ9EZE-14 | 2026-08-31 01:16:52 | 49.01841 | 21.13469 | 208° | 20km/h | 37708m | 3.6m/s | -25.4°C | 0.4% | 4.0hPa | 2.5V | 00:00:00 | 00:00:00 | 00:00:00 | |
| HA6NAB-11 | 2026-08-31 01:16:51 | 49.01845 | 21.13469 | 101° | 9km/h | 37698m | 5.8m/s | -25.4°C | 0.4% | 4.0hPa | 2.5V | 00:00:00 | 00:00:00 | 00:00:00 | |
| HA6NAB-11 | 2026-08-31 01:16:44 | 49.01843 | 21.13438 | 188° | 11km/h | 37674m | 4.0m/s | -25.6°C | 0.5% | 4.1hPa | 2.5V | 00:00:00 | 00:00:00 | 00:00:00 | |
| OE5DRO-10 | 2026-08-31 01:16:39 | 49.01877 | 21.13481 | 220° | 18km/h | 37648m | 2.5m/s | -25.6°C | 1.4% | 4.0hPa | 2.5V | 00:00:00 | 00:00:00 | 00:00:00 | |
| SQ9EZE-14 | 2026-08-31 01:16:37 | 49.01882 | 21.13486 | 214° | 16km/h | 37645m | 2.9m/s | -25.7°C | 0.4% | 4.1hPa | 2.5V | 00:00:00 | 00:00:00 | 00:00:00 | |
| SQ9EZE-13 | 2026-08-31 01:16:35 | 49.01886 | 21.13486 | 97° | 7km/h | 37637m | 4.8m/s | -25.7°C | 0.5% | 4.1hPa | 2.5V | 00:00:00 | 00:00:00 | 00:00:00 | |
| HA6NAB-11 | 2026-08-31 01:16:33 | 49.01884 | 21.13475 | 73° | 20km/h | 37628m | 4.0m/s | -25.8°C | 0.5% | 4.1hPa | 2.5V | 00:00:00 | 00:00:00 | 00:00:00 | |
| S52SK | 2026-08-31 01:16:29 | 49.01884 | 21.13455 | 185° | 9km/h | 37613m | 4.6m/s | -25.8°C | 0% | 4.1hPa | 2.5V | 00:00:00 | 00:00:00 | 00:00:00 | |
| HA6NAB-11 | 2026-08-31 01:16:28 | 49.01887 | 21.13457 | 217° | 18km/h | 37608m | 5.4m/s | -25.8°C | 0.5% | 4.1hPa | 2.5V | 00:00:00 | 00:00:00 | 00:00:00 | |
| OE5DXL-15 | 2026-08-31 01:16:24 | 49.01910 | 21.13495 | 233° | 22km/h | 37587m | 2.1m/s | -25.9°C | 1.5% | 4.1hPa | 2.5V | 00:00:00 | 00:00:00 | 00:00:00 | |
| S52SK | 2026-08-31 01:16:23 | 49.01910 | 21.13495 | 233° | 16km/h | 37587m | 2.2m/s | -25.9°C | 0% | 4.1hPa | 2.5V | 00:00:00 | 00:00:00 | 00:00:00 | |
| HA6NAB-11 | 2026-08-31 01:16:22 | 49.01911 | 21.13498 | 221° | 4km/h | 37584m | 3.1m/s | -26.0°C | 0.5% | 4.1hPa | 2.5V | 00:00:00 | 00:00:00 | 00:00:00 | |
| OE5DRO-10 | 2026-08-31 01:16:20 | 49.01906 | 21.13484 | 62° | 26km/h | 37570m | 5.4m/s | -25.9°C | 1.4% | 4.1hPa | 2.5V | 00:00:00 | 00:00:00 | 00:00:00 | |
| SQ9EZE-13 | 2026-08-31 01:16:19 | 49.01906 | 21.13484 | 63° | 29km/h | 37570m | 5.5m/s | -26.0°C | 0.5% | 4.1hPa | 2.5V | 00:00:00 | 00:00:00 | 00:00:00 | |
| SQ9EZE-15 | 2026-08-31 01:16:18 | 49.01902 | 21.13473 | 62° | 33km/h | 37564m | 4.4m/s | -26.0°C | 0.5% | 4.1hPa | 2.5V | 00:00:00 | 00:00:00 | 00:00:00 | |
| HA6NAB-11 | 2026-08-31 01:16:16 | 49.01895 | 21.13452 | 65° | 26km/h | 37557m | 2.9m/s | -26.0°C | 0.4% | 4.1hPa | 2.5V | 00:00:00 | 00:00:00 | 00:00:00 | |
| HA6NAB-11 | 2026-08-31 01:16:10 | 49.01899 | 21.13468 | 256° | 33km/h | 37528m | 4.5m/s | -26.0°C | 0.5% | 4.1hPa | 2.5V | 00:00:00 | 00:00:00 | 00:00:00 | |
| HA6NAB-11 | 2026-08-31 01:16:05 | 49.01893 | 21.13499 | 25° | 20km/h | 37509m | 5.8m/s | -26.0°C | 0.4% | 4.2hPa | 2.5V | 00:00:00 | 00:00:00 | 00:00:00 | |
| SQ9EZE-13 | 2026-08-31 01:16:04 | 49.01888 | 21.13493 | 42° | 31km/h | 37503m | 6.3m/s | -26.0°C | 0.5% | 4.2hPa | 2.5V | 00:00:00 | 00:00:00 | 00:00:00 | |
| OE5DRO-10 | 2026-08-31 01:16:01 | 49.01865 | 21.13452 | 54° | 26km/h | 37485m | 2.8m/s | -26.0°C | 1.5% | 4.1hPa | 2.5V | 00:00:00 | 00:00:00 | 00:00:00 | |
| HA6NAB-11 | 2026-08-31 01:15:59 | 49.01862 | 21.13446 | 49° | 15km/h | 37482m | 3.7m/s | -26.1°C | 0.5% | 4.2hPa | 2.5V | 00:00:00 | 00:00:00 | 00:00:00 | |
| OE5DXL-15 | 2026-08-31 01:15:54 | 49.01860 | 21.13486 | 286° | 35km/h | 37453m | 2.3m/s | -26.0°C | 1.5% | 4.1hPa | 2.5V | 00:00:00 | 00:00:00 | 00:00:00 | |
| GYPAP8-17 | 2026-08-31 01:15:50 | 49.01848 | 21.13495 | 22° | 26km/h | 37441m | 5.7m/s | -26.0°C | 0.4% | 4.2hPa | 2.6V | 00:00:00 | 00:00:00 | 00:00:00 | |
| HA6NAB-11 | 2026-08-31 01:15:48 | 49.01834 | 21.13480 | 45° | 44km/h | 37429m | 5.9m/s | -25.9°C | 0.5% | 4.2hPa | 2.6V | 00:00:00 | 00:00:00 | 00:00:00 | |
| SQ9EZE-13 | 2026-08-31 01:15:47 | 49.01826 | 21.13468 | 50° | 46km/h | 37424m | 4.4m/s | -25.9°C | 0.5% | 4.2hPa | 2.6V | 00:00:00 | 00:00:00 | 00:00:00 | |
| OE5DRO-10 | 2026-08-31 01:15:42 | 49.01798 | 21.13451 | 284° | 38km/h | 37399m | 7.0m/s | -25.7°C | 1.4% | 4.2hPa | 2.6V | 00:00:00 | 00:00:00 | 00:00:00 | |
| SQ9EZE-13 | 2026-08-31 01:15:32 | 49.01739 | 21.13497 | 37° | 47km/h | 37349m | 3.3m/s | -25.7°C | 0.4% | 4.2hPa | 2.6V | 00:00:00 | 00:00:00 | 00:00:00 | |
| OE5DXL-15 | 2026-08-31 01:15:24 | 49.01695 | 21.13543 | 285° | 44km/h | 37312m | 2.8m/s | -25.7°C | 1.4% | 4.2hPa | 2.6V | 00:00:00 | 00:00:00 | 00:00:00 | |
| OE5DRO-10 | 2026-08-31 01:15:23 | 49.01692 | 21.13559 | 295° | 40km/h | 37310m | 2.2m/s | -25.7°C | 1.4% | 4.2hPa | 2.6V | 00:00:00 | 00:00:00 | 08:30:00 | |
| SQ9EZE-15 | 2026-08-31 01:15:19 | 49.01646 | 21.13563 | 29° | 47km/h | 37279m | 3.9m/s | -25.7°C | 0.4% | 4.3hPa | 2.5V | 00:00:00 | 00:00:00 | 00:00:00 | |
| SQ9EZE-13 | 2026-08-31 01:15:18 | 49.01636 | 21.13556 | 23° | 46km/h | 37276m | 2.3m/s | -25.7°C | 0.5% | 4.3hPa | 2.5V | 00:00:00 | 00:00:00 | 00:00:00 | |
| S52SK | 2026-08-31 01:15:05 | 49.01563 | 21.13674 | 345° | 31km/h | 37228m | 5.7m/s | -25.5°C | 0% | 4.3hPa | 2.5V | 00:00:00 | 00:00:00 | 00:00:00 | |
| OE5DRO-10 | 2026-08-31 01:15:04 | 49.01555 | 21.13675 | 5° | 47km/h | 37222m | 6.4m/s | -25.5°C | 1.4% | 4.3hPa | 2.5V | 00:00:00 | 00:00:00 | 00:00:00 | |
| SQ9EZE-13 | 2026-08-31 01:15:00 | 49.01525 | 21.13664 | 12° | 42km/h | 37207m | 2.8m/s | -25.6°C | 0.5% | 4.3hPa | 2.5V | 00:00:00 | 00:00:00 | 00:00:00 | |
| S52SK | 2026-08-31 01:14:59 | 49.01515 | 21.13662 | 358° | 40km/h | 37204m | 2.6m/s | -25.6°C | 0% | 4.3hPa | 2.5V | 00:00:00 | 00:00:00 | 00:00:00 | |
| OE5DXL-15 | 2026-08-31 01:14:54 | 49.01463 | 21.13751 | 299° | 47km/h | 37174m | 2.5m/s | -25.6°C | 1.4% | 4.3hPa | 2.5V | 00:00:00 | 00:00:00 | 00:00:00 | |
| S52SK | 2026-08-31 01:14:53 | 49.01463 | 21.13751 | 299° | 68km/h | 37174m | 2.6m/s | -25.6°C | 0% | 4.4hPa | 2.5V | 00:00:00 | 00:00:00 | 00:00:00 | |
| OE5DRO-10 | 2026-08-31 01:14:45 | 49.01378 | 21.13795 | 359° | 44km/h | 37139m | 1.4m/s | -25.3°C | 1.5% | 4.3hPa | 2.5V | 00:00:00 | 00:00:00 | 00:00:00 | |
| SQ9EZE-13 | 2026-08-31 01:14:44 | 49.01378 | 21.13795 | 360° | 27km/h | 37139m | 1.4m/s | -25.3°C | 0.5% | 4.4hPa | 2.5V | 00:00:00 | 00:00:00 | 00:00:00 | |
| LZ4TU-5 | 2026-08-31 01:14:43 | 49.01372 | 21.13797 | 327° | 27km/h | 37137m | 2.8m/s | -25.3°C | 0% | 4.4hPa | 2.5V | 00:00:00 | 00:00:00 | 00:00:00 | |
| LZ4TU-5 | 2026-08-31 01:14:38 | 49.01349 | 21.13895 | 287° | 77km/h | 37108m | 2.8m/s | -25.2°C | 0% | 4.4hPa | 2.5V | 00:00:00 | 00:00:00 | 00:00:00 | |
| HA6NAB-11 | 2026-08-31 01:14:34 | 49.01317 | 21.13973 | 336° | 46km/h | 37099m | 5.7m/s | -25.3°C | 0.4% | 4.4hPa | 2.5V | 00:00:00 | 00:00:00 | 00:00:00 | |
| SQ9EZE-14 | 2026-08-31 01:14:30 | 49.01279 | 21.13960 | 39° | 33km/h | 37076m | 1.6m/s | -25.2°C | 0.4% | 4.4hPa | 2.5V | 00:00:00 | 00:00:00 | 00:00:00 | |
| SQ9EZE-13 | 2026-08-31 01:14:29 | 49.01273 | 21.13954 | 30° | 20km/h | 37075m | 0.5m/s | -25.3°C | 0.4% | 4.4hPa | 2.5V | 00:00:00 | 00:00:00 | 00:00:00 | |
| HA6NAB-11 | 2026-08-31 01:14:28 | 49.01270 | 21.13953 | 334° | 11km/h | 37074m | 1.8m/s | -25.2°C | 0.4% | 4.4hPa | 2.5V | 00:00:00 | 00:00:00 | 00:00:00 | |
| OE5DXL-15 | 2026-08-31 01:14:24 | 49.01266 | 21.14039 | 277° | 40km/h | 37047m | 2.4m/s | -25.4°C | 1.4% | 4.4hPa | 2.5V | 00:00:00 | 02:24:16 | 08:30:00 | |
| SQ9EZE-14 | 2026-08-31 01:14:15 | 49.01208 | 21.14098 | 47° | 35km/h | 37016m | 1.5m/s | -25.8°C | 0.4% | 4.5hPa | 2.5V | 00:00:00 | 00:00:00 | 00:00:00 | |
| SQ9EZE-13 | 2026-08-31 01:14:14 | 49.01203 | 21.14091 | 44° | 20km/h | 37015m | 0.4m/s | -25.9°C | 0.5% | 4.5hPa | 2.5V | 00:00:00 | 00:00:00 | 00:00:00 | |
| GYPAP8-17 | 2026-08-31 01:14:10 | 49.01201 | 21.14119 | 265° | 53km/h | 36998m | 7.6m/s | -26.0°C | 0.5% | 4.5hPa | 2.5V | 00:00:00 | 00:00:00 | 00:00:00 | |
| OE5DRO-10 | 2026-08-31 01:14:07 | 49.01198 | 21.14216 | 290° | 37km/h | 36984m | 0.3m/s | -26.0°C | 1.4% | 4.4hPa | 2.5V | 00:00:00 | 00:00:00 | 00:00:00 | |
| SQ9EZE-15 | 2026-08-31 01:14:04 | 49.01186 | 21.14242 | 330° | 31km/h | 36979m | 5.4m/s | -26.1°C | 0.5% | 4.5hPa | 2.5V | 00:00:00 | 00:00:00 | 00:00:00 | |
| SQ9EZE-13 | 2026-08-31 01:13:58 | 49.01162 | 21.14203 | 119° | 5km/h | 36953m | 1.1m/s | -26.2°C | 0.5% | 4.5hPa | 2.5V | 00:00:00 | 00:00:00 | 00:00:00 | |
| OE5DXL-15 | 2026-08-31 01:13:54 | 49.01168 | 21.14269 | 275° | 31km/h | 36927m | 3.5m/s | -26.4°C | 1.4% | 4.5hPa | 2.5V | 00:00:00 | 00:00:00 | 00:00:00 | |
| OE5DRO-10 | 2026-08-31 01:13:48 | 49.01143 | 21.14327 | 57° | 29km/h | 36906m | 6.4m/s | -26.7°C | 1.5% | 4.5hPa | 2.5V | 00:00:00 | 00:00:00 | 00:00:00 | |
| SQ9EZE-13 | 2026-08-31 01:13:43 | 49.01142 | 21.14287 | 140° | 15km/h | 36893m | 2.1m/s | -26.9°C | 0.5% | 4.6hPa | 2.5V | 00:00:00 | 00:00:00 | 00:00:00 | |
| S52SK | 2026-08-31 01:13:29 | 49.01142 | 21.14325 | 134° | 13km/h | 36835m | 2.7m/s | -27.1°C | 0% | 4.6hPa | 2.5V | 00:00:00 | 00:00:00 | 00:00:00 | |
| SQ9EZE-13 | 2026-08-31 01:13:28 | 49.01142 | 21.14325 | 134° | 13km/h | 36835m | 2.7m/s | -27.1°C | 0.4% | 4.6hPa | 2.5V | 00:00:00 | 00:00:00 | 00:00:00 | |
| OE5DXL-15 | 2026-08-31 01:13:24 | 49.01143 | 21.14368 | 290° | 31km/h | 36814m | 2.5m/s | -27.4°C | 1.5% | 4.6hPa | 2.5V | 00:00:00 | 00:00:00 | 00:00:00 | |
| S52SK | 2026-08-31 01:13:23 | 49.01143 | 21.14368 | 290° | 40km/h | 36814m | 2.6m/s | -27.4°C | 0% | 4.6hPa | 2.5V | 00:00:00 | 00:00:00 | 00:00:00 | |
| GYPAP8-17 | 2026-08-31 01:13:14 | 49.01121 | 21.14332 | 127° | 18km/h | 36783m | 2.1m/s | -28.0°C | 0.5% | 4.6hPa | 2.5V | 00:00:00 | 00:00:00 | 00:00:00 | |
| SQ9EZE-13 | 2026-08-31 01:13:12 | 49.01126 | 21.14333 | 251° | 16km/h | 36776m | 4.9m/s | -28.2°C | 0.5% | 4.6hPa | 2.5V | 00:00:00 | 00:00:00 | 00:00:00 | |
| OE5DRO-10 | 2026-08-31 01:13:10 | 49.01120 | 21.14368 | 303° | 33km/h | 36762m | 2.6m/s | -28.3°C | 1.6% | 4.6hPa | 2.5V | 00:00:00 | 00:00:00 | 00:00:00 | |
| SQ9EZE-15 | 2026-08-31 01:12:59 | 49.01075 | 21.14336 | 252° | 16km/h | 36722m | 4.9m/s | -28.6°C | 0.5% | 4.7hPa | 2.5V | 00:00:00 | 00:00:00 | 00:00:00 | |
| SQ9EZE-13 | 2026-08-31 01:12:57 | 49.01075 | 21.14344 | 273° | 27km/h | 36717m | 5.2m/s | -28.5°C | 0.5% | 4.7hPa | 2.5V | 00:00:00 | 00:00:00 | 00:00:00 | |
| OE5DXL-15 | 2026-08-31 01:12:54 | 49.01056 | 21.14389 | 339° | 29km/h | 36704m | 2.7m/s | -28.4°C | 1.6% | 4.6hPa | 2.5V | 00:00:00 | 00:00:00 | 00:00:00 | |
| OE5DRO-10 | 2026-08-31 01:12:51 | 49.01030 | 21.14379 | 47° | 31km/h | 36689m | 5.7m/s | -28.4°C | 1.6% | 4.6hPa | 2.5V | 00:00:00 | 00:00:00 | 00:00:00 | |
| SQ9EZE-13 | 2026-08-31 01:12:40 | 49.01019 | 21.14372 | 298° | 33km/h | 36653m | 1.1m/s | -28.8°C | 0.5% | 4.7hPa | 2.5V | 00:00:00 | 00:00:00 | 00:00:00 | |
| OE5DRO-10 | 2026-08-31 01:12:32 | 49.00982 | 21.14312 | 111° | 26km/h | 36620m | 3.9m/s | -29.1°C | 1.6% | 4.7hPa | 2.5V | 00:00:00 | 00:00:00 | 08:30:00 | |
| OE5DXL-15 | 2026-08-31 01:12:24 | 49.00981 | 21.14367 | 30° | 24km/h | 36585m | 5.5m/s | -29.4°C | 1.6% | 4.7hPa | 2.5V | 00:00:00 | 00:00:00 | 00:00:00 | |
| S52SK | 2026-08-31 01:12:23 | 49.00981 | 21.14367 | 30° | 16km/h | 36585m | 5.5m/s | -29.5°C | 0% | 4.7hPa | 2.5V | 00:00:00 | 00:00:00 | 00:00:00 | |
| SQ9EZE-13 | 2026-08-31 01:12:22 | 49.00977 | 21.14361 | 53° | 29km/h | 36579m | 6.0m/s | -29.5°C | 0.5% | 4.8hPa | 2.5V | 00:00:00 | 00:00:00 | 00:00:00 | |
| S52SK | 2026-08-31 01:12:17 | 49.00963 | 21.14308 | 107° | 9km/h | 36562m | 3.6m/s | -29.7°C | 0% | 4.7hPa | 2.5V | 00:00:00 | 00:00:00 | 00:00:00 | |
| OE5DRO-10 | 2026-08-31 01:12:13 | 49.00977 | 21.14345 | 255° | 22km/h | 36539m | 2.3m/s | -29.9°C | 1.7% | 4.7hPa | 2.5V | 00:00:00 | 00:00:00 | 00:00:00 | |
| S52SK | 2026-08-31 01:12:12 | 49.00977 | 21.14345 | 256° | 31km/h | 36539m | 2.4m/s | -30.0°C | 0% | 4.8hPa | 2.5V | 00:00:00 | 00:00:00 | 00:00:00 | |
| GYPAP8-17 | 2026-08-31 01:12:10 | 49.00978 | 21.14362 | 303° | 13km/h | 36534m | 3.6m/s | -30.1°C | 0.5% | 4.8hPa | 2.5V | 00:00:00 | 00:00:00 | 00:00:00 | |
| SQ9EZE-14 | 2026-08-31 01:12:09 | 49.00975 | 21.14363 | 11° | 15km/h | 36529m | 5.4m/s | -30.2°C | 0.5% | 4.8hPa | 2.5V | 00:00:00 | 00:00:00 | 00:00:00 | |
| SQ9EZE-13 | 2026-08-31 01:12:05 | 49.00953 | 21.14330 | 54° | 37km/h | 36510m | 2.4m/s | -30.3°C | 0.5% | 4.8hPa | 2.5V | 00:00:00 | 00:00:00 | 00:00:00 | |
| OE5DXL-15 | 2026-08-31 01:11:54 | 49.00943 | 21.14330 | 42° | 29km/h | 36458m | 5.9m/s | -30.7°C | 1.8% | 4.8hPa | 2.5V | 00:00:00 | 00:00:00 | 00:00:00 | |
| SQ9EZE-14 | 2026-08-31 01:11:53 | 49.00942 | 21.14330 | 42° | 40km/h | 36458m | 6.0m/s | -30.8°C | 0.6% | 4.8hPa | 2.5V | 00:00:00 | 00:00:00 | 00:00:00 | |
| SQ9EZE-13 | 2026-08-31 01:11:50 | 49.00912 | 21.14294 | 26° | 22km/h | 36444m | 3.4m/s | -30.7°C | 0.6% | 4.8hPa | 2.5V | 00:00:00 | 00:00:00 | 00:00:00 | |
| OE5DRO-10 | 2026-08-31 01:11:35 | 49.00850 | 21.14292 | 335° | 29km/h | 36378m | 5.2m/s | -31.0°C | 1.7% | 4.8hPa | 2.5V | 00:00:00 | 00:00:00 | 00:00:00 | |
| SQ9EZE-13 | 2026-08-31 01:11:33 | 49.00845 | 21.14299 | 303° | 26km/h | 36372m | 6.5m/s | -31.1°C | 0.6% | 4.9hPa | 2.6V | 00:00:00 | 00:00:00 | 00:00:00 | |
| SQ9EZE-15 | 2026-08-31 01:11:30 | 49.00846 | 21.14330 | 248° | 27km/h | 36356m | 3.3m/s | -31.2°C | 0.6% | 4.9hPa | 2.6V | 00:00:00 | 00:00:00 | 00:00:00 | |
| OE5DXL-15 | 2026-08-31 01:11:24 | 49.00813 | 21.14327 | 13° | 27km/h | 36323m | 3.8m/s | -31.3°C | 1.8% | 4.9hPa | 2.6V | 00:00:00 | 00:00:00 | 00:00:00 | |
| SQ9EZE-13 | 2026-08-31 01:11:18 | 49.00779 | 21.14344 | 265° | 26km/h | 36299m | 6.4m/s | -31.4°C | 0.6% | 4.9hPa | 2.6V | 00:00:00 | 00:00:00 | 00:00:00 | |
| OE5DRO-10 | 2026-08-31 01:11:16 | 49.00789 | 21.14369 | 221° | 24km/h | 36286m | 3.0m/s | -31.3°C | 1.8% | 4.9hPa | 2.6V | 00:00:00 | 00:00:00 | 00:00:00 | |
| GYPAP8-17 | 2026-08-31 01:11:02 | 49.00738 | 21.14384 | 245° | 27km/h | 36222m | 3.9m/s | -31.1°C | 0.6% | 5.0hPa | 2.6V | 00:00:00 | 00:00:00 | 00:00:00 | |
| OE5DXL-15 | 2026-08-31 01:10:54 | 49.00710 | 21.14382 | 337° | 26km/h | 36179m | 4.7m/s | -31.4°C | 1.7% | 5.0hPa | 2.6V | 00:00:00 | 00:00:00 | 00:00:00 | |
| SQ9EZE-13 | 2026-08-31 01:10:46 | 49.00708 | 21.14458 | 274° | 18km/h | 36143m | 4.9m/s | -31.7°C | 0.6% | 5.1hPa | 2.6V | 00:00:00 | 00:00:00 | 00:00:00 | |
| OE5DRO-10 | 2026-08-31 01:10:38 | 49.00691 | 21.14452 | 260° | 29km/h | 36096m | 6.5m/s | -32.1°C | 1.8% | 5.0hPa | 2.6V | 00:00:00 | 00:00:00 | 00:00:00 | |
| SQ9EZE-13 | 2026-08-31 01:10:32 | 49.00686 | 21.14508 | 19° | 18km/h | 36069m | 6.9m/s | -32.3°C | 0.6% | 5.1hPa | 2.6V | 00:00:00 | 00:00:00 | 00:00:00 | |
| LZ4TU-5 | 2026-08-31 01:10:25 | 49.00676 | 21.14442 | 128° | 22km/h | 36037m | 5.6m/s | -32.4°C | 0% | 5.1hPa | 2.6V | 00:00:00 | 00:00:00 | 00:00:00 | |
| OE5DXL-15 | 2026-08-31 01:10:24 | 49.00685 | 21.14440 | 213° | 26km/h | 36024m | 7.0m/s | -32.3°C | 1.9% | 5.1hPa | 2.6V | 00:00:00 | 00:00:00 | 00:00:00 | |
| OE5DRO-10 | 2026-08-31 01:10:19 | 49.00691 | 21.14483 | 330° | 26km/h | 35998m | 5.4m/s | -32.2°C | 1.9% | 5.1hPa | 2.6V | 00:00:00 | 00:00:00 | 00:00:00 | |
| LZ4TU-5 | 2026-08-31 01:10:18 | 49.00691 | 21.14483 | 331° | 18km/h | 35998m | 5.5m/s | -32.3°C | 0% | 5.2hPa | 2.6V | 00:00:00 | 00:00:00 | 00:00:00 | |
| SQ9EZE-15 | 2026-08-31 01:10:16 | 49.00681 | 21.14480 | 37° | 27km/h | 35986m | 5.9m/s | -32.2°C | 0.6% | 5.2hPa | 2.6V | 00:00:00 | 00:00:00 | 00:00:00 | |
| SQ9EZE-13 | 2026-08-31 01:10:14 | 49.00673 | 21.14462 | 69° | 31km/h | 35976m | 4.1m/s | -32.2°C | 0.6% | 5.2hPa | 2.6V | 00:00:00 | 00:00:00 | 00:00:00 | |
| LZ4TU-5 | 2026-08-31 01:10:11 | 49.00674 | 21.14438 | 158° | 16km/h | 35962m | 5.9m/s | -32.2°C | 0% | 5.2hPa | 2.6V | 00:00:00 | 00:00:00 | 00:00:00 | |
| HA6NAB-11 | 2026-08-31 01:10:04 | 49.00693 | 21.14490 | 330° | 18km/h | 35925m | 6.3m/s | -32.0°C | 0.6% | 5.2hPa | 2.6V | 00:00:00 | 00:00:00 | 00:00:00 | |
| OE5DRO-10 | 2026-08-31 01:10:00 | 49.00667 | 21.14468 | 60° | 27km/h | 35900m | 2.8m/s | -32.0°C | 1.8% | 5.2hPa | 2.6V | 00:00:00 | 00:00:00 | 00:00:00 | |
| SQ9EZE-13 | 2026-08-31 01:09:59 | 49.00667 | 21.14468 | 61° | 16km/h | 35900m | 2.8m/s | -32.0°C | 0.6% | 5.3hPa | 2.6V | 00:00:00 | 00:00:00 | 00:00:00 | |
| HA6NAB-11 | 2026-08-31 01:09:58 | 49.00666 | 21.14465 | 115° | 5km/h | 35896m | 4.9m/s | -32.0°C | 0.6% | 5.3hPa | 2.6V | 00:00:00 | 00:00:00 | 00:00:00 | |
| OE5DXL-15 | 2026-08-31 01:09:54 | 49.00688 | 21.14510 | 251° | 31km/h | 35866m | 2.7m/s | -32.1°C | 1.9% | 5.2hPa | 2.6V | 00:00:00 | 00:00:00 | 08:30:00 | |
| HA6NAB-11 | 2026-08-31 01:09:52 | 49.00690 | 21.14524 | 266° | 33km/h | 35863m | 3.1m/s | -32.2°C | 0.6% | 5.3hPa | 2.5V | 00:00:00 | 00:00:00 | 00:00:00 | |
| GYPAP8-17 | 2026-08-31 01:09:48 | 49.00671 | 21.14541 | 20° | 38km/h | 35839m | 6.2m/s | -32.3°C | 0.6% | 5.3hPa | 2.5V | 00:00:00 | 00:00:00 | 00:00:00 | |
| SQ9EZE-14 | 2026-08-31 01:09:47 | 49.00662 | 21.14535 | 28° | 38km/h | 35834m | 3.8m/s | -32.3°C | 0.6% | 5.3hPa | 2.5V | 00:00:00 | 00:00:00 | 00:00:00 | |
| HA6NAB-11 | 2026-08-31 01:09:46 | 49.00654 | 21.14529 | 28° | 33km/h | 35830m | 2.4m/s | -32.3°C | 0.6% | 5.3hPa | 2.5V | 00:00:00 | 00:00:00 | 00:00:00 | |
| SQ9EZE-13 | 2026-08-31 01:09:43 | 49.00645 | 21.14529 | 260° | 18km/h | 35818m | 6.3m/s | -32.2°C | 0.6% | 5.3hPa | 2.5V | 00:00:00 | 00:00:00 | 00:00:00 | |
| OE5DRO-10 | 2026-08-31 01:09:41 | 49.00655 | 21.14569 | 251° | 31km/h | 35798m | 5.0m/s | -32.1°C | 1.9% | 5.3hPa | 2.5V | 00:00:00 | 00:00:00 | 08:30:00 | |
| HA6NAB-11 | 2026-08-31 01:09:40 | 49.00655 | 21.14569 | 252° | 53km/h | 35798m | 5.0m/s | -32.1°C | 0.6% | 5.3hPa | 2.5V | 00:00:00 | 00:00:00 | 00:00:00 | |
| HA6NAB-11 | 2026-08-31 01:09:34 | 49.00643 | 21.14648 | 351° | 33km/h | 35769m | 6.2m/s | -31.9°C | 0.6% | 5.4hPa | 2.5V | 00:00:00 | 00:00:00 | 00:00:00 | |
| SQ9EZE-14 | 2026-08-31 01:09:31 | 49.00623 | 21.14648 | 2° | 16km/h | 35754m | 3.8m/s | -31.9°C | 0.6% | 5.3hPa | 2.5V | 00:00:00 | 00:00:00 | 00:00:00 | |
| SQ9EZE-13 | 2026-08-31 01:09:28 | 49.00623 | 21.14659 | 236° | 26km/h | 35739m | 6.4m/s | -31.9°C | 0.6% | 5.4hPa | 2.5V | 00:00:00 | 00:00:00 | 00:00:00 | |
| OE5DXL-15 | 2026-08-31 01:09:24 | 49.00647 | 21.14714 | 254° | 18km/h | 35711m | 4.8m/s | -31.9°C | 1.8% | 5.3hPa | 2.5V | 00:00:00 | 00:00:00 | 00:00:00 | |
| OE5DRO-10 | 2026-08-31 01:09:22 | 49.00646 | 21.14730 | 304° | 16km/h | 35700m | 6.0m/s | -31.9°C | 1.8% | 5.4hPa | 2.5V | 00:00:00 | 00:00:00 | 00:00:00 | |
| S52SK | 2026-08-31 01:09:20 | 49.00642 | 21.14734 | 328° | 20km/h | 35694m | 5.9m/s | -32.0°C | 0% | 5.4hPa | 2.5V | 00:00:00 | 00:00:00 | 00:00:00 | |
| S52SK | 2026-08-31 01:09:15 | 49.00627 | 21.14754 | 258° | 16km/h | 35668m | 5.4m/s | -31.9°C | 0% | 5.4hPa | 2.5V | 00:00:00 | 00:00:00 | 00:00:00 | |
| SQ9EZE-13 | 2026-08-31 01:09:13 | 49.00638 | 21.14777 | 223° | 31km/h | 35651m | 5.1m/s | -31.9°C | 0.6% | 5.4hPa | 2.5V | 00:00:00 | 00:00:00 | 00:00:00 | |
| S52SK | 2026-08-31 01:09:10 | 49.00649 | 21.14791 | 219° | 26km/h | 35641m | 4.2m/s | -31.9°C | 0% | 5.4hPa | 2.5V | 00:00:00 | 00:00:00 | 00:00:00 | |
| S52SK | 2026-08-31 01:09:04 | 49.00655 | 21.14801 | 0° | 0km/h | 35613m | 4.1m/s | -31.8°C | 0% | 5.5hPa | 2.5V | 00:00:00 | 00:00:00 | 00:00:00 | |
| OE5DRO-10 | 2026-08-31 01:09:03 | 49.00657 | 21.14802 | 192° | 20km/h | 35604m | 5.8m/s | -31.7°C | 1.8% | 5.4hPa | 2.5V | 00:00:00 | 00:00:00 | 00:00:00 | |
| SQ9EZE-13 | 2026-08-31 01:08:56 | 49.00694 | 21.14819 | 192° | 16km/h | 35574m | 4.7m/s | -31.6°C | 0.6% | 5.5hPa | 2.5V | 00:00:00 | 00:00:00 | 00:00:00 | |
| OE5DXL-15 | 2026-08-31 01:08:54 | 49.00697 | 21.14815 | 53° | 18km/h | 35557m | 4.9m/s | -31.5°C | 1.8% | 5.4hPa | 2.5V | 00:00:00 | 00:00:00 | 00:00:00 | |
| SQ9EZE-15 | 2026-08-31 01:08:52 | 49.00695 | 21.14812 | 59° | 13km/h | 35552m | 3.9m/s | -31.5°C | 0.6% | 5.5hPa | 2.5V | 00:00:00 | 00:00:00 | 00:00:00 | |
| LZ4TU-5 | 2026-08-31 01:08:50 | 49.00694 | 21.14804 | 126° | 11km/h | 35545m | 4.4m/s | -31.5°C | 0% | 5.5hPa | 2.5V | 00:00:00 | 00:00:00 | 00:00:00 | |
| LZ4TU-5 | 2026-08-31 01:08:47 | 49.00717 | 21.14803 | 195° | 35km/h | 35524m | 4.1m/s | -31.5°C | 0% | 5.5hPa | 2.5V | 00:00:00 | 00:00:00 | 00:00:00 | |
| OE5DRO-10 | 2026-08-31 01:08:44 | 49.00736 | 21.14813 | 202° | 18km/h | 35512m | 4.6m/s | -31.4°C | 1.8% | 5.5hPa | 2.5V | 00:00:00 | 00:00:00 | 00:00:00 | |
| SQ9EZE-13 | 2026-08-31 01:08:40 | 49.00738 | 21.14812 | 47° | 11km/h | 35497m | 4.5m/s | -31.5°C | 0.6% | 5.6hPa | 2.5V | 00:00:00 | 00:00:00 | 00:00:00 | |
| OE5DRO-10 | 2026-08-31 01:08:25 | 49.00789 | 21.14747 | 135° | 33km/h | 35423m | 4.3m/s | -32.2°C | 1.8% | 5.6hPa | 2.5V | 00:00:00 | 00:00:00 | 00:00:00 | |
| OE5DXL-15 | 2026-08-31 01:08:24 | 49.00794 | 21.14741 | 152° | 33km/h | 35418m | 5.7m/s | -32.3°C | 1.8% | 5.6hPa | 2.5V | 00:00:00 | 00:00:00 | 00:00:00 | |
| SQ9EZE-13 | 2026-08-31 01:08:09 | 49.00871 | 21.14667 | 157° | 38km/h | 35351m | 5.8m/s | -33.0°C | 0.6% | 5.7hPa | 2.5V | 00:00:00 | 00:00:00 | 00:00:00 | |
| OE5DRO-10 | 2026-08-31 01:08:06 | 49.00916 | 21.14640 | 151° | 33km/h | 35335m | 3.4m/s | -33.0°C | 1.9% | 5.6hPa | 2.5V | 00:00:00 | 00:00:00 | 00:00:00 | |
| OE5DXL-15 | 2026-08-31 01:07:54 | 49.00973 | 21.14546 | 154° | 31km/h | 35278m | 5.0m/s | -33.9°C | 2.0% | 5.7hPa | 2.5V | 00:00:00 | 00:00:00 | 00:00:00 | |
| SQ9EZE-15 | 2026-08-31 01:07:48 | 49.01008 | 21.14497 | 123° | 26km/h | 35254m | 4.5m/s | -34.1°C | 0.6% | 5.7hPa | 2.5V | 00:00:00 | 00:00:00 | 00:00:00 | |
| OE5DRO-10 | 2026-08-31 01:07:47 | 49.01015 | 21.14483 | 136° | 27km/h | 35244m | 5.0m/s | -34.1°C | 2.0% | 5.7hPa | 2.5V | 00:00:00 | 00:00:00 | 00:00:00 | |
| S52SK | 2026-08-31 01:07:39 | 49.01059 | 21.14432 | 132° | 42km/h | 35209m | 5.1m/s | -34.4°C | 0% | 5.8hPa | 2.5V | 00:00:00 | 00:00:00 | 00:00:00 | |
| SQ9EZE-13 | 2026-08-31 01:07:38 | 49.01065 | 21.14420 | 130° | 40km/h | 35204m | 4.4m/s | -34.4°C | 0.6% | 5.8hPa | 2.5V | 00:00:00 | 00:00:00 | 00:00:00 | |
| S52SK | 2026-08-31 01:07:34 | 49.01089 | 21.14385 | 153° | 24km/h | 35186m | 5.6m/s | -34.6°C | 0% | 5.8hPa | 2.5V | 00:00:00 | 00:00:00 | 00:00:00 | |
| OE5DRO-10 | 2026-08-31 01:07:28 | 49.01109 | 21.14349 | 107° | 35km/h | 35151m | 4.8m/s | -34.9°C | 2.1% | 5.8hPa | 2.5V | 00:00:00 | 00:00:00 | 00:00:00 | |
| GYPAP8-17 | 2026-08-31 01:07:25 | 49.01123 | 21.14312 | 137° | 40km/h | 35138m | 4.8m/s | -35.1°C | 0.7% | 5.9hPa | 2.5V | 00:00:00 | 00:00:00 | 00:00:00 | |
| OE5DXL-15 | 2026-08-31 01:07:24 | 49.01131 | 21.14303 | 148° | 35km/h | 35133m | 5.8m/s | -35.1°C | 2.1% | 5.8hPa | 2.5V | 00:00:00 | 00:00:00 | 00:00:00 | |
| SQ9EZE-13 | 2026-08-31 01:07:23 | 49.01131 | 21.14303 | 149° | 40km/h | 35133m | 5.9m/s | -35.2°C | 0.7% | 5.9hPa | 2.5V | 00:00:00 | 00:00:00 | 00:00:00 | |
| HA6NAB-11 | 2026-08-31 01:07:13 | 49.01176 | 21.14237 | 105° | 40km/h | 35085m | 4.3m/s | -35.2°C | 0.7% | 5.9hPa | 2.5V | 00:00:00 | 00:00:00 | 00:00:00 | |
| OE5DRO-10 | 2026-08-31 01:07:09 | 49.01212 | 21.14173 | 144° | 38km/h | 35059m | 3.3m/s | -35.3°C | 2.0% | 5.9hPa | 2.5V | 00:00:00 | 00:00:00 | 00:00:00 | |
| SQ9EZE-13 | 2026-08-31 01:07:07 | 49.01221 | 21.14163 | 141° | 38km/h | 35055m | 3.4m/s | -35.4°C | 0.6% | 5.9hPa | 2.5V | 00:00:00 | 00:00:00 | 00:00:00 | |
| SP9KGR-15 | 2026-08-31 01:06:59 | 49.01224 | 21.14083 | 106° | 27km/h | 35015m | 5.5m/s | 0°C | 0% | 0hPa | 2.5V | 00:00:00 | 00:00:00 | 00:00:00 | |
| HA6NAB-11 | 2026-08-31 01:06:58 | 49.01227 | 21.14073 | 124° | 33km/h | 35010m | 5.6m/s | -36.3°C | 0.7% | 6.0hPa | 2.5V | 00:00:00 | 00:00:00 | 00:00:00 | |
| OE5DXL-15 | 2026-08-31 01:06:54 | 49.01262 | 21.14002 | 115° | 44km/h | 34984m | 4.8m/s | -36.6°C | 2.3% | 5.9hPa | 2.5V | 00:00:00 | 00:00:00 | 00:00:00 | |
| HA6NAB-11 | 2026-08-31 01:06:53 | 49.01262 | 21.14001 | 116° | 51km/h | 34984m | 4.9m/s | -36.6°C | 0.7% | 6.0hPa | 2.5V | 00:00:00 | 00:00:00 | 00:00:00 | |
| SQ9EZE-13 | 2026-08-31 01:06:51 | 49.01269 | 21.13966 | 96° | 46km/h | 34974m | 5.0m/s | -36.6°C | 0.7% | 6.0hPa | 2.5V | 00:00:00 | 00:00:00 | 00:00:00 | |
| OE5DRO-10 | 2026-08-31 01:06:50 | 49.01268 | 21.13934 | 82° | 38km/h | 34963m | 5.9m/s | -36.5°C | 2.3% | 6.0hPa | 2.5V | 00:00:00 | 00:00:00 | 08:30:00 | |
| HA6NAB-11 | 2026-08-31 01:06:47 | 49.01265 | 21.13907 | 83° | 35km/h | 34951m | 5.5m/s | -36.5°C | 0.7% | 6.0hPa | 2.6V | 00:00:00 | 00:00:00 | 00:00:00 | |
| HA6NAB-11 | 2026-08-31 01:06:42 | 49.01267 | 21.13825 | 97° | 55km/h | 34923m | 6.3m/s | -36.5°C | 0.7% | 6.1hPa | 2.6V | 00:00:00 | 00:00:00 | 00:00:00 | |
| SQ9EZE-13 | 2026-08-31 01:06:36 | 49.01276 | 21.13714 | 108° | 31km/h | 34891m | 6.2m/s | -36.5°C | 0.7% | 6.1hPa | 2.6V | 00:00:00 | 00:00:00 | 00:00:00 | |
| OE5DRO-10 | 2026-08-31 01:06:31 | 49.01283 | 21.13658 | 75° | 42km/h | 34861m | 5.9m/s | -36.4°C | 2.3% | 6.1hPa | 2.6V | 00:00:00 | 00:00:00 | 00:00:00 | |
| OE5DXL-15 | 2026-08-31 01:06:24 | 49.01265 | 21.13521 | 108° | 35km/h | 34825m | 7.2m/s | -36.2°C | 2.2% | 6.1hPa | 2.6V | 00:00:00 | 00:00:00 | 00:00:00 | |
| SQ9EZE-13 | 2026-08-31 01:06:21 | 49.01273 | 21.13506 | 157° | 22km/h | 34811m | 5.9m/s | -36.2°C | 0.7% | 6.1hPa | 2.6V | 00:00:00 | 00:00:00 | 00:00:00 | |
| OE5DRO-10 | 2026-08-31 01:06:12 | 49.01251 | 21.13379 | 79° | 31km/h | 34763m | 4.3m/s | -36.2°C | 2.2% | 6.1hPa | 2.6V | 00:00:00 | 00:00:00 | 00:00:00 | |
| S52SK | 2026-08-31 01:06:10 | 49.01250 | 21.13363 | 91° | 38km/h | 34758m | 5.4m/s | -36.2°C | 0% | 6.2hPa | 2.6V | 00:00:00 | 00:00:00 | 00:00:00 | |
| SQ9EZE-15 | 2026-08-31 01:06:04 | 49.01273 | 21.13318 | 113° | 26km/h | 34727m | 4.5m/s | -36.1°C | 0.7% | 6.2hPa | 2.6V | 00:00:00 | 00:00:00 | 00:00:00 | |
| SQ9EZE-13 | 2026-08-31 01:06:03 | 49.01274 | 21.13307 | 95° | 33km/h | 34722m | 5.2m/s | -36.1°C | 0.7% | 6.2hPa | 2.6V | 00:00:00 | 00:00:00 | 00:00:00 | |
| LZ4TU-5 | 2026-08-31 01:05:57 | 49.01262 | 21.13210 | 79° | 33km/h | 34690m | 5.3m/s | -36.2°C | 0% | 6.3hPa | 2.6V | 00:00:00 | 00:00:00 | 00:00:00 | |
| OE5DXL-15 | 2026-08-31 01:05:54 | 49.01258 | 21.13180 | 76° | 27km/h | 34667m | 5.5m/s | -36.4°C | 2.1% | 6.2hPa | 2.6V | 00:00:00 | 00:00:00 | 00:00:00 | |
| OE5DRO-10 | 2026-08-31 01:05:53 | 49.01258 | 21.13175 | 72° | 27km/h | 34662m | 5.8m/s | -36.4°C | 2.2% | 6.2hPa | 2.6V | 00:00:00 | 00:00:00 | 00:00:00 | |
| LZ4TU-5 | 2026-08-31 01:05:52 | 49.01258 | 21.13175 | 73° | 15km/h | 34662m | 5.9m/s | -36.5°C | 0% | 6.3hPa | 2.6V | 00:00:00 | 00:00:00 | 00:00:00 | |
| SQ9EZE-13 | 2026-08-31 01:05:48 | 49.01251 | 21.13133 | 85° | 40km/h | 34639m | 5.2m/s | -36.7°C | 0.7% | 6.3hPa | 2.6V | 00:00:00 | 00:00:00 | 00:00:00 | |
| OE5DRO-10 | 2026-08-31 01:05:34 | 49.01226 | 21.12994 | 89° | 26km/h | 34562m | 6.2m/s | -37.0°C | 2.3% | 6.3hPa | 2.6V | 00:00:00 | 00:00:00 | 00:00:00 | |
| SP9KGR-15 | 2026-08-31 01:05:32 | 49.01227 | 21.12986 | 117° | 22km/h | 34555m | 6.8m/s | 0°C | 0% | 0hPa | 2.6V | 00:00:00 | 00:00:00 | 00:00:00 | |
| OE5DXL-15 | 2026-08-31 01:05:24 | 49.01228 | 21.12912 | 47° | 31km/h | 34507m | 4.3m/s | -37.2°C | 2.3% | 6.4hPa | 2.6V | 00:00:00 | 00:00:00 | 08:30:00 | |
| GYPAP8-17 | 2026-08-31 01:05:21 | 49.01219 | 21.12894 | 64° | 24km/h | 34498m | 5.6m/s | -37.3°C | 0.7% | 6.4hPa | 2.5V | 00:00:00 | 00:00:00 | 00:00:00 | |
| SQ9EZE-13 | 2026-08-31 01:05:16 | 49.01230 | 21.12858 | 126° | 27km/h | 34470m | 4.6m/s | -37.2°C | 0.7% | 6.5hPa | 2.5V | 00:00:00 | 00:00:00 | 00:00:00 | |
| SQ9EZE-14 | 2026-08-31 01:05:03 | 49.01211 | 21.12735 | 99° | 27km/h | 34401m | 5.6m/s | -37.3°C | 0.7% | 6.5hPa | 2.5V | 00:00:00 | 00:00:00 | 00:00:00 | |
| OE5DRO-10 | 2026-08-31 01:04:56 | 49.01202 | 21.12607 | 88° | 35km/h | 34357m | 5.6m/s | -37.4°C | 2.3% | 6.5hPa | 2.5V | 00:00:00 | 00:00:00 | 00:00:00 | |
| OE5DXL-15 | 2026-08-31 01:04:54 | 49.01201 | 21.12584 | 84° | 38km/h | 34346m | 5.0m/s | -37.5°C | 2.3% | 6.5hPa | 2.5V | 00:00:00 | 00:00:00 | 00:00:00 | |
| SQ9EZE-14 | 2026-08-31 01:04:47 | 49.01186 | 21.12515 | 78° | 37km/h | 34315m | 4.5m/s | -37.6°C | 0.7% | 6.6hPa | 2.5V | 00:00:00 | 00:00:00 | 00:00:00 | |
| SQ9EZE-13 | 2026-08-31 01:04:42 | 49.01190 | 21.12453 | 102° | 31km/h | 34288m | 4.1m/s | -37.7°C | 0.7% | 6.6hPa | 2.5V | 00:00:00 | 00:00:00 | 00:00:00 | |
| S52SK | 2026-08-31 01:04:41 | 49.01191 | 21.12441 | 93° | 33km/h | 34283m | 4.9m/s | -37.7°C | 0% | 6.6hPa | 2.5V | 00:00:00 | 00:00:00 | 00:00:00 | |
| OE5DRO-10 | 2026-08-31 01:04:37 | 49.01172 | 21.12366 | 64° | 44km/h | 34255m | 4.5m/s | -37.7°C | 2.3% | 6.6hPa | 2.5V | 00:00:00 | 00:00:00 | 00:00:00 | |
| S52SK | 2026-08-31 01:04:35 | 49.01167 | 21.12349 | 70° | 46km/h | 34250m | 5.0m/s | -37.8°C | 0% | 6.7hPa | 2.5V | 00:00:00 | 00:00:00 | 00:00:00 | |
| SQ9EZE-15 | 2026-08-31 01:04:33 | 49.01162 | 21.12318 | 89° | 40km/h | 34239m | 5.6m/s | -37.9°C | 0.7% | 6.7hPa | 2.5V | 00:00:00 | 00:00:00 | 00:00:00 | |
| SQ9EZE-13 | 2026-08-31 01:04:26 | 49.01163 | 21.12201 | 76° | 46km/h | 34201m | 5.2m/s | -38.2°C | 0.8% | 6.7hPa | 2.5V | 00:00:00 | 00:00:00 | 00:00:00 | |
| LZ4TU-5 | 2026-08-31 01:04:25 | 49.01160 | 21.12184 | 75° | 44km/h | 34196m | 6.0m/s | -38.2°C | 0% | 6.7hPa | 2.5V | 00:00:00 | 00:00:00 | 00:00:00 | |
| OE5DXL-15 | 2026-08-31 01:04:24 | 49.01153 | 21.12153 | 71° | 57km/h | 34184m | 5.4m/s | -38.2°C | 2.4% | 6.7hPa | 2.5V | 00:00:00 | 00:00:00 | 00:00:00 | |
| HA6NAB-11 | 2026-08-31 01:04:23 | 49.01153 | 21.12153 | 71° | 40km/h | 34184m | 5.5m/s | -38.3°C | 0.8% | 6.8hPa | 2.5V | 00:00:00 | 00:00:00 | 00:00:00 | |
| LZ4TU-5 | 2026-08-31 01:04:21 | 49.01146 | 21.12124 | 69° | 42km/h | 34173m | 4.7m/s | -38.3°C | 0% | 6.8hPa | 2.5V | 00:00:00 | 00:00:00 | 00:00:00 | |
| OE5DRO-10 | 2026-08-31 01:04:18 | 49.01127 | 21.12053 | 71° | 58km/h | 34151m | 4.9m/s | -38.4°C | 2.4% | 6.7hPa | 2.5V | 00:00:00 | 00:00:00 | 00:00:00 | |
| HA6NAB-11 | 2026-08-31 01:04:17 | 49.01127 | 21.12053 | 72° | 57km/h | 34151m | 4.9m/s | -38.4°C | 0.8% | 6.8hPa | 2.5V | 00:00:00 | 00:00:00 | 00:00:00 | |
| SQ9EZE-13 | 2026-08-31 01:04:11 | 49.01122 | 21.11925 | 99° | 53km/h | 34118m | 4.4m/s | -38.5°C | 0.8% | 6.8hPa | 2.5V | 00:00:00 | 00:00:00 | 00:00:00 | |
| HA6NAB-11 | 2026-08-31 01:04:05 | 49.01095 | 21.11790 | 58° | 73km/h | 34087m | 3.8m/s | -38.6°C | 0.8% | 6.8hPa | 2.5V | 00:00:00 | 00:00:00 | 00:00:00 | |
| HA6NAB-11 | 2026-08-31 01:04:00 | 49.01071 | 21.11689 | 101° | 46km/h | 34061m | 6.2m/s | -38.8°C | 0.8% | 6.9hPa | 2.5V | 00:00:00 | 00:00:00 | 00:00:00 | |
| OE5DRO-10 | 2026-08-31 01:03:59 | 49.01078 | 21.11653 | 108° | 58km/h | 34050m | 4.7m/s | -38.7°C | 2.4% | 6.8hPa | 2.5V | 00:00:00 | 00:00:00 | 08:30:00 | |
| SQ9EZE-13 | 2026-08-31 01:03:56 | 49.01082 | 21.11611 | 92° | 60km/h | 34040m | 5.0m/s | -38.8°C | 0.8% | 6.9hPa | 2.6V | 00:00:00 | 00:00:00 | 00:00:00 | |
| OE5DXL-15 | 2026-08-31 01:03:54 | 49.01073 | 21.11536 | 70° | 60km/h | 34023m | 5.3m/s | -38.7°C | 2.4% | 6.8hPa | 2.6V | 00:00:00 | 00:00:00 | 00:00:00 | |
| OE5DRO-10 | 2026-08-31 01:03:40 | 49.01021 | 21.11236 | 77° | 62km/h | 33948m | 5.4m/s | -39.0°C | 2.5% | 6.9hPa | 2.5V | 00:00:00 | 00:00:00 | 00:00:00 | |
| OE5DXL-15 | 2026-08-31 01:03:24 | 49.00956 | 21.10871 | 78° | 60km/h | 33863m | 4.3m/s | -38.7°C | 2.5% | 7.0hPa | 2.5V | 00:00:00 | 00:00:00 | 00:00:00 | |
| OE5DRO-10 | 2026-08-31 01:03:21 | 49.00939 | 21.10808 | 56° | 60km/h | 33844m | 6.0m/s | -38.6°C | 2.5% | 7.0hPa | 2.5V | 00:00:00 | 00:00:00 | 00:00:00 | |
| GYPAP8-17 | 2026-08-31 01:03:14 | 49.00895 | 21.10695 | 79° | 55km/h | 33812m | 5.2m/s | -38.6°C | 0.8% | 7.1hPa | 2.5V | 00:00:00 | 00:00:00 | 00:00:00 | |
| S52SK | 2026-08-31 01:03:11 | 49.00886 | 21.10629 | 76° | 64km/h | 33797m | 5.7m/s | -38.6°C | 0% | 7.1hPa | 2.5V | 00:00:00 | 00:00:00 | 00:00:00 | |
| SQ9EZE-13 | 2026-08-31 01:03:08 | 49.00864 | 21.10557 | 59° | 73km/h | 33780m | 5.0m/s | -38.5°C | 0.8% | 7.1hPa | 2.5V | 00:00:00 | 00:00:00 | 00:00:00 | |
| S52SK | 2026-08-31 01:03:05 | 49.00837 | 21.10491 | 60° | 60km/h | 33765m | 5.9m/s | -38.5°C | 0% | 7.2hPa | 2.5V | 00:00:00 | 00:00:00 | 00:00:00 | |
| OE5DRO-10 | 2026-08-31 01:03:02 | 49.00816 | 21.10417 | 73° | 57km/h | 33743m | 4.8m/s | -38.4°C | 2.4% | 7.1hPa | 2.5V | 00:00:00 | 00:00:00 | 00:00:00 | |
| OE5DXL-15 | 2026-08-31 01:02:53 | 49.00751 | 21.10240 | 58° | 53km/h | 33694m | 4.9m/s | -38.4°C | 2.4% | 7.2hPa | 2.6V | 00:00:00 | 00:00:00 | 00:00:00 | |
| SQ9EZE-14 | 2026-08-31 01:02:47 | 49.00707 | 21.10159 | 48° | 58km/h | 33665m | 4.8m/s | -38.4°C | 0.8% | 7.3hPa | 2.6V | 00:00:00 | 00:00:00 | 00:00:00 | |
| HA6NAB-11 | 2026-08-31 01:02:46 | 49.00697 | 21.10142 | 51° | 57km/h | 33660m | 4.8m/s | -38.4°C | 0.8% | 7.3hPa | 2.6V | 00:00:00 | 00:00:00 | 00:00:00 | |
| OE5DRO-10 | 2026-08-31 01:02:43 | 49.00669 | 21.10073 | 63° | 53km/h | 33638m | 4.3m/s | -38.4°C | 2.4% | 7.2hPa | 2.6V | 00:00:00 | 00:00:00 | 00:00:00 | |
| HA6NAB-11 | 2026-08-31 01:02:40 | 49.00655 | 21.10038 | 52° | 55km/h | 33628m | 5.7m/s | -38.4°C | 0.8% | 7.3hPa | 2.6V | 00:00:00 | 00:00:00 | 00:00:00 | |
| SQ9EZE-13 | 2026-08-31 01:02:37 | 49.00622 | 21.09992 | 38° | 62km/h | 33610m | 5.2m/s | -38.4°C | 0.8% | 7.3hPa | 2.6V | 00:00:00 | 00:00:00 | 00:00:00 | |
| SQ9EZE-14 | 2026-08-31 01:02:31 | 49.00567 | 21.09906 | 63° | 46km/h | 33576m | 5.8m/s | -38.4°C | 0.8% | 7.4hPa | 2.6V | 00:00:00 | 00:00:00 | 00:00:00 | |
| HA6NAB-11 | 2026-08-31 01:02:29 | 49.00556 | 21.09875 | 62° | 49km/h | 33564m | 5.7m/s | -38.4°C | 0.8% | 7.4hPa | 2.6V | 00:00:00 | 00:00:00 | 00:00:00 | |
| SQ9EZE-15 | 2026-08-31 01:02:28 | 49.00550 | 21.09858 | 59° | 49km/h | 33558m | 5.5m/s | -38.4°C | 0.8% | 7.4hPa | 2.6V | 00:00:00 | 00:00:00 | 00:00:00 | |
| OE5DRO-10 | 2026-08-31 01:02:24 | 49.00512 | 21.09785 | 44° | 49km/h | 33530m | 5.2m/s | -38.3°C | 2.4% | 7.4hPa | 2.6V | 00:00:00 | 00:00:00 | 00:00:00 | |
| OE5DXL-15 | 2026-08-31 01:02:23 | 49.00503 | 21.09773 | 39° | 46km/h | 33524m | 4.8m/s | -38.3°C | 2.4% | 7.4hPa | 2.6V | 00:00:00 | 00:00:00 | 00:00:00 | |
| SQ9EZE-13 | 2026-08-31 01:02:22 | 49.00503 | 21.09773 | 39° | 49km/h | 33524m | 4.9m/s | -38.3°C | 0.8% | 7.4hPa | 2.5V | 00:00:00 | 00:00:00 | 00:00:00 | |
| HA6NAB-11 | 2026-08-31 01:02:17 | 49.00445 | 21.09714 | 40° | 51km/h | 33496m | 4.7m/s | -38.2°C | 0.8% | 7.5hPa | 2.5V | 00:00:00 | 00:00:00 | 00:00:00 | |
| SQ9EZE-14 | 2026-08-31 01:02:16 | 49.00436 | 21.09701 | 48° | 47km/h | 33491m | 6.0m/s | -38.2°C | 0.8% | 7.5hPa | 2.5V | 00:00:00 | 00:00:00 | 00:00:00 | |
| HA6NAB-11 | 2026-08-31 01:02:12 | 49.00418 | 21.09646 | 69° | 38km/h | 33469m | 3.9m/s | -38.2°C | 0.8% | 7.5hPa | 2.5V | 00:00:00 | 00:00:00 | 00:00:00 | |
| SQ9EZE-15 | 2026-08-31 01:02:08 | 49.00387 | 21.09596 | 30° | 55km/h | 33447m | 5.8m/s | -38.1°C | 0.8% | 7.5hPa | 2.5V | 00:00:00 | 00:00:00 | 00:00:00 | |
| SQ9EZE-13 | 2026-08-31 01:02:06 | 49.00362 | 21.09578 | 24° | 51km/h | 33436m | 5.0m/s | -38.1°C | 0.8% | 7.5hPa | 2.5V | 00:00:00 | 00:00:00 | 00:00:00 | |
| OE5DRO-10 | 2026-08-31 01:02:05 | 49.00341 | 21.09562 | 30° | 40km/h | 33425m | 5.4m/s | -38.1°C | 2.4% | 7.5hPa | 2.5V | 00:00:00 | 00:00:00 | 00:00:00 | |
| SQ9EZE-14 | 2026-08-31 01:02:00 | 49.00316 | 21.09525 | 54° | 37km/h | 33402m | 5.9m/s | -38.1°C | 0.8% | 7.6hPa | 2.5V | 00:00:00 | 00:00:00 | 00:00:00 | |
| GYPAP8-17 | 2026-08-31 01:01:56 | 49.00289 | 21.09476 | 48° | 44km/h | 33379m | 5.7m/s | -38.1°C | 0.8% | 7.6hPa | 2.5V | 00:00:00 | 00:00:00 | 00:00:00 | |
| OE5DXL-15 | 2026-08-31 01:01:53 | 49.00255 | 21.09434 | 28° | 33km/h | 33357m | 5.0m/s | -38.1°C | 2.4% | 7.6hPa | 2.5V | 00:00:00 | 00:00:00 | 00:00:00 | |
| SQ9EZE-13 | 2026-08-31 01:01:51 | 49.00245 | 21.09426 | 24° | 46km/h | 33351m | 6.2m/s | -38.1°C | 0.8% | 7.6hPa | 2.5V | 00:00:00 | 00:00:00 | 00:00:00 | |
| OE5DRO-10 | 2026-08-31 01:01:46 | 49.00191 | 21.09395 | 40° | 31km/h | 33317m | 6.6m/s | -37.9°C | 2.4% | 7.6hPa | 2.5V | 00:00:00 | 00:00:00 | 00:00:00 | |
| SQ9EZE-14 | 2026-08-31 01:01:44 | 49.00188 | 21.09390 | 55° | 20km/h | 33310m | 5.4m/s | -37.9°C | 0.8% | 7.7hPa | 2.5V | 00:00:00 | 00:00:00 | 00:00:00 | |
| SQ9EZE-13 | 2026-08-31 01:01:34 | 49.00104 | 21.09321 | 21° | 29km/h | 33256m | 5.3m/s | -37.5°C | 0.8% | 7.7hPa | 2.5V | 00:00:00 | 00:00:00 | 00:00:00 | |
| S52SK | 2026-08-31 01:01:31 | 49.00089 | 21.09311 | 30° | 18km/h | 33239m | 6.1m/s | -37.6°C | 0% | 7.8hPa | 2.5V | 00:00:00 | 00:00:00 | 00:00:00 | |
| OE5DRO-10 | 2026-08-31 01:01:27 | 49.00064 | 21.09289 | 33° | 27km/h | 33212m | 5.4m/s | -37.5°C | 2.3% | 7.7hPa | 2.5V | 00:00:00 | 00:00:00 | 00:00:00 | |
| S52SK | 2026-08-31 01:01:25 | 49.00058 | 21.09283 | 34° | 26km/h | 33206m | 6.3m/s | -37.5°C | 0% | 7.8hPa | 2.5V | 00:00:00 | 00:00:00 | 00:00:00 | |
| OE5DXL-15 | 2026-08-31 01:01:23 | 49.00041 | 21.09267 | 29° | 29km/h | 33190m | 4.8m/s | -37.6°C | 2.3% | 7.8hPa | 2.5V | 00:00:00 | 00:00:00 | 00:00:00 | |
| SQ9EZE-13 | 2026-08-31 01:01:18 | 49.00010 | 21.09250 | 15° | 37km/h | 33166m | 5.0m/s | -38.1°C | 0.8% | 7.8hPa | 2.5V | 00:00:00 | 00:00:00 | 00:00:00 | |
| OE5DRO-10 | 2026-08-31 01:01:08 | 48.99947 | 21.09203 | 24° | 33km/h | 33103m | 4.9m/s | -38.6°C | 2.4% | 7.9hPa | 2.5V | 00:00:00 | 00:00:00 | 08:30:00 | |
| SQ9EZE-13 | 2026-08-31 01:01:03 | 48.99907 | 21.09170 | 39° | 22km/h | 33074m | 5.4m/s | -38.5°C | 0.8% | 7.9hPa | 2.5V | 00:00:00 | 00:00:00 | 00:00:00 | |
| OE5DXL-15 | 2026-08-31 01:00:53 | 48.99848 | 21.09114 | 48° | 33km/h | 33016m | 5.1m/s | -38.4°C | 2.5% | 8.0hPa | 2.5V | 00:00:00 | 00:00:00 | 08:30:00 | |
| OE5DRO-10 | 2026-08-31 01:00:49 | 48.99819 | 21.09082 | 21° | 33km/h | 32992m | 5.5m/s | -38.3°C | 2.4% | 8.0hPa | 2.5V | 00:00:00 | 00:00:00 | 00:00:00 | |
| SQ9EZE-13 | 2026-08-31 01:00:42 | 48.99775 | 21.09048 | 43° | 29km/h | 32953m | 5.5m/s | -38.4°C | 0.8% | 8.1hPa | 2.5V | 00:00:00 | 00:00:00 | 00:00:00 | |
| SQ9EZE-15 | 2026-08-31 01:00:35 | 48.99727 | 21.08997 | 44° | 38km/h | 32918m | 6.3m/s | -38.6°C | 0.8% | 8.1hPa | 2.5V | 00:00:00 | 00:00:00 | 00:00:00 | |
| OE5DRO-10 | 2026-08-31 01:00:30 | 48.99701 | 21.08944 | 36° | 27km/h | 32882m | 5.8m/s | -38.7°C | 2.4% | 8.1hPa | 2.5V | 00:00:00 | 00:00:00 | 00:00:00 | |
| HA6NAB-11 | 2026-08-31 01:00:25 | 48.99673 | 21.08915 | 42° | 40km/h | 32859m | 6.7m/s | -38.8°C | 0.8% | 8.2hPa | 2.5V | 00:00:00 | 00:00:00 | 00:00:00 | |
| OE5DXL-15 | 2026-08-31 01:00:23 | 48.99652 | 21.08882 | 49° | 31km/h | 32842m | 5.1m/s | -38.8°C | 2.4% | 8.1hPa | 2.5V | 00:00:00 | 00:00:00 | 00:00:00 | |
| HA6NAB-11 | 2026-08-31 01:00:20 | 48.99635 | 21.08859 | 31° | 22km/h | 32824m | 5.4m/s | -39.0°C | 0.8% | 8.2hPa | 2.5V | 00:00:00 | 00:00:00 | 00:00:00 | |
| SQ9EZE-15 | 2026-08-31 01:00:15 | 48.99622 | 21.08843 | 59° | 15km/h | 32795m | 4.9m/s | -39.1°C | 0.8% | 8.3hPa | 2.5V | 00:00:00 | 00:00:00 | 00:00:00 | |
| OE5DRO-10 | 2026-08-31 01:00:11 | 48.99599 | 21.08822 | 20° | 35km/h | 32771m | 6.6m/s | -39.3°C | 2.5% | 8.2hPa | 2.5V | 00:00:00 | 00:00:00 | 00:00:00 | |
| SQ9EZE-13 | 2026-08-31 01:00:10 | 48.99599 | 21.08822 | 21° | 40km/h | 32771m | 6.7m/s | -39.4°C | 0.8% | 8.3hPa | 2.5V | 00:00:00 | 00:00:00 | 00:00:00 | |
| HA6NAB-11 | 2026-08-31 01:00:08 | 48.99578 | 21.08810 | 23° | 44km/h | 32761m | 4.5m/s | -39.4°C | 0.8% | 8.3hPa | 2.5V | 00:00:00 | 00:00:00 | 00:00:00 | |
| S52SK | 2026-08-31 01:00:00 | 48.99542 | 21.08755 | 39° | 20km/h | 32713m | 6.1m/s | -39.6°C | 0% | 8.4hPa | 2.5V | 00:00:00 | 00:00:00 | 00:00:00 | |
| S52SK | 2026-08-31 00:59:54 | 48.99499 | 21.08701 | 49° | 47km/h | 32675m | 5.1m/s | -39.6°C | 0% | 8.4hPa | 2.5V | 00:00:00 | 00:00:00 | 00:00:00 | |
| OE5DXL-15 | 2026-08-31 00:59:53 | 48.99484 | 21.08677 | 42° | 29km/h | 32666m | 4.9m/s | -39.5°C | 2.6% | 8.4hPa | 2.5V | 00:00:00 | 00:00:00 | 00:00:00 | |
| OE5DRO-10 | 2026-08-31 00:59:52 | 48.99477 | 21.08670 | 33° | 29km/h | 32660m | 6.5m/s | -39.4°C | 2.5% | 8.4hPa | 2.5V | 00:00:00 | 00:00:00 | 00:00:00 | |
| SP9KGR-15 | 2026-08-31 00:59:47 | 48.99464 | 21.08665 | 0° | 0km/h | 32635m | 6.4m/s | -39.4°C | 0.8% | 8.5hPa | 2.5V | 00:00:00 | 00:00:00 | 00:00:00 | |
| SQ9EZE-14 | 2026-08-31 00:59:43 | 48.99462 | 21.08646 | 62° | 29km/h | 32615m | 5.5m/s | -39.4°C | 0.8% | 8.5hPa | 2.5V | 00:00:00 | 00:00:00 | 00:00:00 | |
| SQ9EZE-13 | 2026-08-31 00:59:39 | 48.99426 | 21.08597 | 37° | 62km/h | 32588m | 4.9m/s | -39.5°C | 0.8% | 8.5hPa | 2.5V | 00:00:00 | 00:00:00 | 00:00:00 | |
| OE5DRO-10 | 2026-08-31 00:59:33 | 48.99384 | 21.08537 | 257° | 22km/h | 32547m | 6.7m/s | -39.5°C | 2.5% | 8.5hPa | 2.5V | 00:00:00 | 00:00:00 | 00:00:00 | |
| SP9KGR-15 | 2026-08-31 00:59:31 | 48.99384 | 21.08539 | 293° | 7km/h | 32541m | 5.8m/s | -39.5°C | 0.8% | 8.6hPa | 2.5V | 00:00:00 | 00:00:00 | 00:00:00 | |
| SQ9EZE-14 | 2026-08-31 00:59:28 | 48.99375 | 21.08539 | 31° | 24km/h | 32527m | 5.0m/s | -39.4°C | 0.8% | 8.6hPa | 2.5V | 00:00:00 | 00:00:00 | 00:00:00 | |
| OE5DXL-15 | 2026-08-31 00:59:23 | 48.99332 | 21.08460 | 49° | 31km/h | 32491m | 4.7m/s | -39.4°C | 2.5% | 8.6hPa | 2.5V | 00:00:00 | 00:00:00 | 00:00:00 | |
| OE5DRO-10 | 2026-08-31 00:59:14 | 48.99317 | 21.08430 | 50° | 35km/h | 32442m | 5.9m/s | -39.5°C | 2.5% | 8.7hPa | 2.6V | 00:00:00 | 00:00:00 | 00:00:00 | |
| SQ9EZE-15 | 2026-08-31 00:59:08 | 48.99271 | 21.08372 | 46° | 51km/h | 32413m | 3.3m/s | -39.7°C | 0.8% | 8.8hPa | 2.5V | 00:00:00 | 00:00:00 | 00:00:00 | |
| SQ9EZE-13 | 2026-08-31 00:59:07 | 48.99264 | 21.08359 | 55° | 44km/h | 32408m | 5.2m/s | -39.7°C | 0.8% | 8.8hPa | 2.5V | 00:00:00 | 00:00:00 | 00:00:00 | |
| OE5DRO-10 | 2026-08-31 00:58:55 | 48.99218 | 21.08253 | 62° | 27km/h | 32333m | 4.7m/s | -40.2°C | 2.5% | 8.8hPa | 2.5V | 00:00:00 | 00:00:00 | 00:00:00 | |
| OE5DXL-15 | 2026-08-31 00:58:53 | 48.99210 | 21.08226 | 73° | 26km/h | 32323m | 5.5m/s | -40.4°C | 2.6% | 8.8hPa | 2.5V | 00:00:00 | 00:00:00 | 00:00:00 | |
| GYPAP8-17 | 2026-08-31 00:58:52 | 48.99210 | 21.08226 | 74° | 31km/h | 32323m | 5.5m/s | -40.4°C | 0.8% | 8.9hPa | 2.5V | 00:00:00 | 00:00:00 | 00:00:00 | |
| SQ9EZE-15 | 2026-08-31 00:58:47 | 48.99204 | 21.08206 | 34° | 7km/h | 32293m | 5.0m/s | -40.6°C | 0.8% | 8.9hPa | 2.5V | 00:00:00 | 00:00:00 | 00:00:00 | |
| OE5DRO-10 | 2026-08-31 00:58:36 | 48.99145 | 21.08094 | 59° | 26km/h | 32226m | 6.3m/s | -40.8°C | 2.6% | 9.0hPa | 2.5V | 00:00:00 | 00:00:00 | 00:00:00 | |
| OE5DXL-15 | 2026-08-31 00:58:23 | 48.99102 | 21.07977 | 64° | 20km/h | 32154m | 4.7m/s | -41.3°C | 2.7% | 9.1hPa | 2.5V | 00:00:00 | 00:00:00 | 00:00:00 | |
| SQ9EZE-13 | 2026-08-31 00:58:20 | 48.99093 | 21.07961 | 40° | 24km/h | 32143m | 6.1m/s | -41.4°C | 0.9% | 9.1hPa | 2.5V | 00:00:00 | 00:00:00 | 00:00:00 | |
| OE5DRO-10 | 2026-08-31 00:58:17 | 48.99078 | 21.07945 | 56° | 18km/h | 32123m | 6.3m/s | -41.5°C | 2.7% | 9.1hPa | 2.5V | 00:00:00 | 00:00:00 | 08:30:00 | |
| S52SK | 2026-08-31 00:58:15 | 48.99077 | 21.07940 | 78° | 16km/h | 32116m | 6.3m/s | -41.6°C | 0% | 9.1hPa | 2.5V | 00:00:00 | 00:00:00 | 00:00:00 | |
| S52SK | 2026-08-31 00:58:10 | 48.99066 | 21.07899 | 39° | 29km/h | 32089m | 6.3m/s | -42.0°C | 0% | 0hPa | 2.5V | 00:00:00 | 00:00:00 | 00:00:00 | |
| SQ9EZE-13 | 2026-08-31 00:58:04 | 48.99035 | 21.07880 | 74° | 7km/h | 32056m | 5.9m/s | -42.1°C | 0.9% | 9.2hPa | 2.5V | 00:00:00 | 00:00:00 | 00:00:00 | |
| OE5DXL-15 | 2026-08-31 00:57:53 | 48.99007 | 21.07834 | 8° | 15km/h | 31990m | 5.9m/s | -42.1°C | 2.8% | 9.3hPa | 2.5V | 00:00:00 | 00:00:00 | 00:00:00 | |
| GYPAP8-17 | 2026-08-31 00:57:49 | 48.99000 | 21.07839 | 291° | 7km/h | 31974m | 4.3m/s | -42.3°C | 0.9% | 9.4hPa | 2.5V | 00:00:00 | 00:00:00 | 00:00:00 | |
| SQ9EZE-15 | 2026-08-31 00:57:40 | 48.98999 | 21.07807 | 8° | 22km/h | 31924m | 5.3m/s | -42.2°C | 0.9% | 9.4hPa | 2.5V | 00:00:00 | 00:00:00 | 00:00:00 | |
| OE5DRO-10 | 2026-08-31 00:57:39 | 48.98989 | 21.07808 | 354° | 15km/h | 31914m | 4.9m/s | -42.2°C | 2.8% | 9.4hPa | 2.5V | 00:00:00 | 00:00:00 | 00:00:00 | |
| SQ9EZE-13 | 2026-08-31 00:57:34 | 48.98987 | 21.07805 | 148° | 13km/h | 31893m | 5.5m/s | -42.2°C | 0.9% | 9.5hPa | 2.5V | 00:00:00 | 00:00:00 | 00:00:00 | |
| HA6NAB-11 | 2026-08-31 00:57:29 | 48.98998 | 21.07784 | 107° | 18km/h | 31867m | 5.1m/s | -42.2°C | 0.9% | 9.5hPa | 2.5V | 00:00:00 | 00:00:00 | 00:00:00 | |
| OE5DXL-15 | 2026-08-31 00:57:23 | 48.98990 | 21.07742 | 24° | 20km/h | 31828m | 4.4m/s | -42.4°C | 2.9% | 9.5hPa | 2.5V | 00:00:00 | 00:00:00 | 00:00:00 | |
| OE5DRO-10 | 2026-08-31 00:57:20 | 48.98988 | 21.07734 | 133° | 22km/h | 31813m | 6.4m/s | -42.5°C | 2.8% | 9.5hPa | 2.5V | 00:00:00 | 00:00:00 | 00:00:00 | |
| HA6NAB-11 | 2026-08-31 00:57:18 | 48.98992 | 21.07729 | 142° | 24km/h | 31806m | 6.3m/s | -42.5°C | 0.9% | 9.6hPa | 2.6V | 00:00:00 | 00:00:00 | 00:00:00 | |
| HA6NAB-11 | 2026-08-31 00:57:13 | 48.99017 | 21.07688 | 102° | 18km/h | 31782m | 6.0m/s | -42.5°C | 0.9% | 9.6hPa | 2.6V | 00:00:00 | 00:00:00 | 00:00:00 | |
| HA6NAB-11 | 2026-08-31 00:57:08 | 48.99006 | 21.07664 | 74° | 15km/h | 31755m | 5.7m/s | -42.6°C | 0.9% | 9.7hPa | 2.6V | 00:00:00 | 00:00:00 | 00:00:00 | |
| SQ9EZE-13 | 2026-08-31 00:57:02 | 48.99018 | 21.07613 | 110° | 26km/h | 31721m | 5.6m/s | -42.7°C | 1.0% | 9.7hPa | 2.6V | 00:00:00 | 00:00:00 | 00:00:00 | |
| OE5DRO-10 | 2026-08-31 00:57:01 | 48.99021 | 21.07596 | 104° | 22km/h | 31710m | 5.4m/s | -42.6°C | 3.0% | 9.7hPa | 2.6V | 00:00:00 | 00:00:00 | 00:00:00 | |
| HA6NAB-11 | 2026-08-31 00:56:57 | 48.99025 | 21.07574 | 104° | 20km/h | 31692m | 5.6m/s | -42.7°C | 0.9% | 9.8hPa | 2.6V | 00:00:00 | 00:00:00 | 00:00:00 | |
| SQ9EZE-14 | 2026-08-31 00:56:56 | 48.99026 | 21.07567 | 97° | 18km/h | 31687m | 4.8m/s | -42.7°C | 0.9% | 9.8hPa | 2.6V | 00:00:00 | 00:00:00 | 00:00:00 | |
| OE5DXL-15 | 2026-08-31 00:56:53 | 48.99019 | 21.07541 | 44° | 26km/h | 31664m | 5.3m/s | -42.6°C | 2.9% | 9.8hPa | 2.6V | 00:00:00 | 00:00:00 | 00:00:00 | |
| HA6NAB-11 | 2026-08-31 00:56:52 | 48.99018 | 21.07541 | 45° | 22km/h | 31664m | 5.4m/s | -42.7°C | 0.9% | 9.8hPa | 2.6V | 00:00:00 | 00:00:00 | 00:00:00 | |
| HA6NAB-11 | 2026-08-31 00:56:46 | 48.99017 | 21.07497 | 116° | 27km/h | 31631m | 5.3m/s | -42.7°C | 0.9% | 9.8hPa | 2.6V | 00:00:00 | 00:00:00 | 00:00:00 | |
| OE5DRO-10 | 2026-08-31 00:56:42 | 48.99019 | 21.07447 | 76° | 26km/h | 31603m | 5.6m/s | -42.6°C | 2.9% | 9.8hPa | 2.6V | 00:00:00 | 00:00:00 | 00:00:00 | |
| S52SK | 2026-08-31 00:56:35 | 48.99011 | 21.07401 | 61° | 22km/h | 31568m | 6.5m/s | -42.6°C | 0% | 0hPa | 2.6V | 00:00:00 | 00:00:00 | 00:00:00 | |
| S52SK | 2026-08-31 00:56:31 | 48.99001 | 21.07356 | 95° | 29km/h | 31539m | 7.0m/s | -42.8°C | 0% | 0hPa | 2.6V | 00:00:00 | 00:00:00 | 00:00:00 | |
| SQ9EZE-13 | 2026-08-31 00:56:26 | 48.99003 | 21.07312 | 75° | 27km/h | 31517m | 6.6m/s | -42.8°C | 0.9% | 10.0hPa | 2.6V | 00:00:00 | 00:00:00 | 00:00:00 | |
| OE5DXL-15 | 2026-08-31 00:56:23 | 48.98985 | 21.07279 | 46° | 22km/h | 31495m | 5.9m/s | -42.8°C | 3.0% | 10.0hPa | 2.6V | 00:00:00 | 00:00:00 | 08:30:00 | |
| SQ9EZE-13 | 2026-08-31 00:56:11 | 48.98949 | 21.07195 | 44° | 22km/h | 31433m | 5.7m/s | -42.8°C | 1.0% | 10.1hPa | 2.5V | 00:00:00 | 00:00:00 | 00:00:00 | |
| SP9KGR-15 | 2026-08-31 00:56:07 | 48.98941 | 21.07172 | 74° | 18km/h | 31411m | 4.9m/s | -42.7°C | 1.0% | 10.2hPa | 2.5V | 00:00:00 | 00:00:00 | 00:00:00 | |
| OE5DRO-10 | 2026-08-31 00:56:04 | 48.98927 | 21.07147 | 32° | 20km/h | 31389m | 5.0m/s | -42.6°C | 2.8% | 10.1hPa | 2.5V | 00:00:00 | 00:00:00 | 00:00:00 | |
| SQ9EZE-13 | 2026-08-31 00:55:55 | 48.98908 | 21.07118 | 71° | 20km/h | 31342m | 5.2m/s | -42.8°C | 1.0% | 10.3hPa | 2.5V | 00:00:00 | 00:00:00 | 00:00:00 | |
| OE5DXL-15 | 2026-08-31 00:55:53 | 48.98905 | 21.07090 | 90° | 18km/h | 31324m | 6.9m/s | -42.8°C | 2.9% | 10.2hPa | 2.5V | 00:00:00 | 00:00:00 | 00:00:00 | |
| OE5DRO-10 | 2026-08-31 00:55:45 | 48.98887 | 21.07040 | 16° | 16km/h | 31276m | 6.5m/s | -42.9°C | 3.0% | 10.3hPa | 2.5V | 00:00:00 | 00:00:00 | 00:00:00 | |
| SP9KGR-15 | 2026-08-31 00:55:42 | 48.98886 | 21.07036 | 104° | 9km/h | 31265m | 4.9m/s | -43.0°C | 1.0% | 10.4hPa | 2.5V | 00:00:00 | 00:00:00 | 00:00:00 | |
| SQ9EZE-13 | 2026-08-31 00:55:39 | 48.98887 | 21.07018 | 83° | 24km/h | 31248m | 6.2m/s | -43.0°C | 1.0% | 10.4hPa | 2.5V | 00:00:00 | 00:00:00 | 00:00:00 | |
| OE5DRO-10 | 2026-08-31 00:55:26 | 48.98851 | 21.06940 | 53° | 18km/h | 31167m | 5.8m/s | -42.8°C | 2.9% | 10.5hPa | 2.5V | 00:00:00 | 00:00:00 | 08:30:00 | |
| OE5DXL-15 | 2026-08-31 00:55:23 | 48.98848 | 21.06929 | 58° | 16km/h | 31151m | 6.3m/s | -42.8°C | 2.9% | 10.5hPa | 2.5V | 00:00:00 | 00:00:00 | 00:00:00 | |
| LZ4TU-5 | 2026-08-31 00:55:19 | 48.98838 | 21.06910 | 51° | 24km/h | 31135m | 4.7m/s | -42.9°C | 0% | 10.6hPa | 2.5V | 00:00:00 | 00:00:00 | 00:00:00 | |
| SP9KGR-15 | 2026-08-31 00:55:13 | 48.98825 | 21.06884 | 47° | 13km/h | 31101m | 6.0m/s | -42.9°C | 0.9% | 10.7hPa | 2.5V | 00:00:00 | 00:00:00 | 00:00:00 | |
| OE5DRO-10 | 2026-08-31 00:55:07 | 48.98792 | 21.06844 | 47° | 20km/h | 31060m | 6.3m/s | -43.0°C | 2.9% | 10.7hPa | 2.5V | 00:00:00 | 00:00:00 | 00:00:00 | |
| SP9KGR-15 | 2026-08-31 00:54:57 | 48.98757 | 21.06810 | 18° | 22km/h | 31007m | 6.2m/s | -43.2°C | 1.0% | 10.8hPa | 2.5V | 00:00:00 | 00:00:00 | 00:00:00 | |
| SQ9EZE-13 | 2026-08-31 00:54:53 | 48.98737 | 21.06801 | 21° | 26km/h | 30985m | 6.6m/s | -43.3°C | 1.0% | 10.8hPa | 2.5V | 00:00:00 | 00:00:00 | 00:00:00 | |
| OE5DRO-10 | 2026-08-31 00:54:48 | 48.98705 | 21.06779 | 25° | 18km/h | 30950m | 5.8m/s | -43.2°C | 3.0% | 10.9hPa | 2.5V | 00:00:00 | 00:00:00 | 00:00:00 | |
| SQ9EZE-14 | 2026-08-31 00:54:47 | 48.98705 | 21.06779 | 26° | 13km/h | 30950m | 5.8m/s | -43.3°C | 1.0% | 10.9hPa | 2.5V | 00:00:00 | 00:00:00 | 00:00:00 | |
| SP9KGR-15 | 2026-08-31 00:54:42 | 48.98688 | 21.06763 | 31° | 27km/h | 30921m | 5.7m/s | -43.3°C | 1.0% | 10.9hPa | 2.5V | 00:00:00 | 00:00:00 | 00:00:00 | |
| GYPAP8-17 | 2026-08-31 00:54:38 | 48.98665 | 21.06747 | 17° | 16km/h | 30898m | 6.3m/s | -43.3°C | 1.0% | 11.0hPa | 2.5V | 00:00:00 | 00:00:00 | 00:00:00 | |
| SQ9EZE-13 | 2026-08-31 00:54:37 | 48.98661 | 21.06746 | 13° | 15km/h | 30892m | 5.4m/s | -43.3°C | 1.0% | 11.0hPa | 2.5V | 00:00:00 | 00:00:00 | 00:00:00 | |
| SQ9EZE-15 | 2026-08-31 00:54:34 | 48.98646 | 21.06740 | 23° | 20km/h | 30870m | 5.5m/s | -43.4°C | 1.0% | 11.1hPa | 2.5V | 00:00:00 | 00:00:00 | 00:00:00 | |
| SQ9EZE-14 | 2026-08-31 00:54:32 | 48.98641 | 21.06737 | 23° | 20km/h | 30864m | 5.4m/s | -43.4°C | 1.0% | 11.0hPa | 2.5V | 00:00:00 | 00:00:00 | 00:00:00 | |
| OE5DRO-10 | 2026-08-31 00:54:29 | 48.98624 | 21.06727 | 20° | 16km/h | 30841m | 5.4m/s | -43.4°C | 2.9% | 11.0hPa | 2.5V | 00:00:00 | 00:00:00 | 00:00:00 | |
| SP9KGR-15 | 2026-08-31 00:54:25 | 48.98606 | 21.06718 | 22° | 27km/h | 30824m | 4.6m/s | -43.4°C | 1.0% | 11.1hPa | 2.5V | 00:00:00 | 00:00:00 | 00:00:00 | |
| SQ9EZE-13 | 2026-08-31 00:54:22 | 48.98593 | 21.06709 | 27° | 11km/h | 30807m | 6.8m/s | -43.4°C | 1.0% | 11.1hPa | 2.5V | 00:00:00 | 00:00:00 | 00:00:00 | |
| SQ9EZE-15 | 2026-08-31 00:54:13 | 48.98571 | 21.06674 | 32° | 20km/h | 30755m | 6.4m/s | -43.7°C | 1.0% | 11.2hPa | 2.5V | 00:00:00 | 00:00:00 | 00:00:00 | |
| OE5DRO-10 | 2026-08-31 00:54:10 | 48.98560 | 21.06665 | 38° | 13km/h | 30731m | 6.4m/s | -43.8°C | 3.0% | 11.2hPa | 2.5V | 00:00:00 | 00:00:00 | 00:00:00 | |
| SQ9EZE-13 | 2026-08-31 00:54:08 | 48.98558 | 21.06660 | 83° | 7km/h | 30720m | 4.9m/s | -43.9°C | 1.0% | 11.3hPa | 2.5V | 00:00:00 | 00:00:00 | 00:00:00 | |
| SP9KGR-15 | 2026-08-31 00:53:54 | 48.98533 | 21.06626 | 329° | 7km/h | 30646m | 5.1m/s | -44.2°C | 1.0% | 11.4hPa | 2.5V | 00:00:00 | 00:00:00 | 00:00:00 | |
| SQ9EZE-13 | 2026-08-31 00:53:52 | 48.98531 | 21.06627 | 16° | 5km/h | 30635m | 6.4m/s | -44.3°C | 1.0% | 11.4hPa | 2.5V | 00:00:00 | 00:00:00 | 00:00:00 | |
| OE5DRO-10 | 2026-08-31 00:53:51 | 48.98527 | 21.06623 | 40° | 13km/h | 30623m | 4.7m/s | -44.3°C | 3.1% | 11.4hPa | 2.5V | 00:00:00 | 00:00:00 | 00:00:00 | |
| SP9KGR-15 | 2026-08-31 00:53:38 | 48.98483 | 21.06597 | 345° | 5km/h | 30556m | 6.5m/s | -44.3°C | 1.0% | 11.6hPa | 2.5V | 00:00:00 | 00:00:00 | 00:00:00 | |
| SQ9EZE-13 | 2026-08-31 00:53:36 | 48.98482 | 21.06597 | 0° | 0km/h | 30544m | 5.4m/s | -44.3°C | 1.0% | 11.6hPa | 2.5V | 00:00:00 | 00:00:00 | 00:00:00 | |
| OE5DXL-15 | 2026-08-31 00:53:34 | 48.98479 | 21.06589 | 56° | 16km/h | 30526m | 5.2m/s | -44.3°C | 3.1% | 11.6hPa | 2.5V | 00:00:00 | 00:00:00 | 00:00:00 | |
| OE5DRO-10 | 2026-08-31 00:53:32 | 48.98474 | 21.06578 | 52° | 16km/h | 30514m | 6.4m/s | -44.3°C | 3.1% | 11.6hPa | 2.6V | 00:00:00 | 00:00:00 | 00:00:00 | |
| LZ4TU-5 | 2026-08-31 00:53:29 | 48.98468 | 21.06569 | 38° | 20km/h | 30503m | 5.2m/s | -44.3°C | 0% | 11.7hPa | 2.6V | 00:00:00 | 00:00:00 | 00:00:00 | |
| LZ4TU-5 | 2026-08-31 00:53:26 | 48.98447 | 21.06555 | 12° | 22km/h | 30480m | 4.2m/s | -44.3°C | 0% | 11.7hPa | 2.6V | 00:00:00 | 00:00:00 | 00:00:00 | |
| SP9KGR-15 | 2026-08-31 00:53:22 | 48.98438 | 21.06556 | 277° | 5km/h | 30463m | 6.4m/s | -44.3°C | 1.0% | 11.7hPa | 2.6V | 00:00:00 | 00:00:00 | 00:00:00 | |
| SQ9EZE-13 | 2026-08-31 00:53:21 | 48.98438 | 21.06558 | 230° | 7km/h | 30457m | 5.0m/s | -44.3°C | 1.0% | 11.7hPa | 2.6V | 00:00:00 | 00:00:00 | 00:00:00 | |
| OE5DRO-10 | 2026-08-31 00:53:13 | 48.98414 | 21.06536 | 4° | 16km/h | 30408m | 5.7m/s | -44.3°C | 3.1% | 11.8hPa | 2.6V | 00:00:00 | 00:00:00 | 00:00:00 | |
| SQ9EZE-13 | 2026-08-31 00:53:06 | 48.98396 | 21.06530 | 56° | 15km/h | 30374m | 4.6m/s | -44.4°C | 1.0% | 11.9hPa | 2.6V | 00:00:00 | 00:00:00 | 00:00:00 | |
| OE5DXL-15 | 2026-08-31 00:53:04 | 48.98389 | 21.06516 | 42° | 15km/h | 30358m | 5.9m/s | 0°C | 0% | 0hPa | 2.6V | 00:00:00 | 00:00:00 | 00:00:00 | |
| OE5DRO-10 | 2026-08-31 00:52:54 | 48.98353 | 21.06482 | 157° | 13km/h | 30302m | 4.6m/s | -44.5°C | 3.1% | 12.0hPa | 2.6V | 00:00:00 | 00:00:00 | 00:00:00 | |
| SQ9EZE-13 | 2026-08-31 00:52:50 | 48.98359 | 21.06471 | 96° | 13km/h | 30286m | 5.8m/s | -44.6°C | 1.0% | 12.1hPa | 2.6V | 00:00:00 | 00:00:00 | 00:00:00 | |
| OE5DRO-10 | 2026-08-31 00:52:35 | 48.98343 | 21.06433 | 11° | 15km/h | 30193m | 5.7m/s | -44.6°C | 3.2% | 12.2hPa | 2.6V | 00:00:00 | 00:00:00 | 08:30:00 | |
| OE5DXL-15 | 2026-08-31 00:52:34 | 48.98340 | 21.06432 | 3° | 15km/h | 30187m | 7.1m/s | 0°C | 0% | 0hPa | 2.6V | 00:00:00 | 00:00:00 | 00:00:00 | |
| SQ9EZE-14 | 2026-08-31 00:52:33 | 48.98336 | 21.06432 | 359° | 18km/h | 30180m | 6.1m/s | -44.7°C | 1.1% | 12.3hPa | 2.6V | 00:00:00 | 00:00:00 | 00:00:00 | |
| SQ9EZE-13 | 2026-08-31 00:52:19 | 48.98335 | 21.06415 | 103° | 2km/h | 30108m | 5.9m/s | -44.4°C | 1.1% | 12.4hPa | 2.6V | 00:00:00 | 00:00:00 | 00:00:00 | |
| S52SK | 2026-08-31 00:52:17 | 48.98334 | 21.06418 | 313° | 11km/h | 30097m | 4.9m/s | -44.4°C | 0% | 0hPa | 2.6V | 00:00:00 | 00:00:00 | 00:00:00 | |
| OE5DRO-10 | 2026-08-31 00:52:16 | 48.98329 | 21.06423 | 337° | 13km/h | 30086m | 6.3m/s | -44.4°C | 3.2% | 12.4hPa | 2.6V | 00:00:00 | 00:00:00 | 00:00:00 | |
| GYPAP8-17 | 2026-08-31 00:52:10 | 48.98319 | 21.06412 | 92° | 9km/h | 30055m | 6.6m/s | -44.5°C | 1.1% | 12.5hPa | 2.6V | 00:00:00 | 00:00:00 | 00:00:00 | |
| OE5DXL-15 | 2026-08-31 00:52:04 | 48.98317 | 21.06384 | 45° | 13km/h | 30015m | 5.2m/s | 0°C | 0% | 0hPa | 2.6V | 00:00:00 | 00:00:00 | 00:00:00 | |
| OE5DRO-10 | 2026-08-31 00:51:57 | 48.98299 | 21.06370 | 70° | 13km/h | 29973m | 5.4m/s | -44.1°C | 3.1% | 12.6hPa | 2.6V | 00:00:00 | 00:00:00 | 00:00:00 | |
| SQ9EZE-13 | 2026-08-31 00:51:49 | 48.98298 | 21.06340 | 55° | 18km/h | 29932m | 6.9m/s | -44.1°C | 1.0% | 12.7hPa | 2.6V | 00:00:00 | 00:00:00 | 00:00:00 | |
| SQ9EZE-15 | 2026-08-31 00:51:48 | 48.98294 | 21.06335 | 45° | 22km/h | 29926m | 5.9m/s | -44.1°C | 1.0% | 12.7hPa | 2.6V | 00:00:00 | 00:00:00 | 00:00:00 | |
| OE5DRO-10 | 2026-08-31 00:51:38 | 48.98274 | 21.06307 | 98° | 16km/h | 29859m | 6.4m/s | -44.1°C | 3.1% | 12.8hPa | 2.6V | 00:00:00 | 00:00:00 | 00:00:00 | |
| OE5DXL-15 | 2026-08-31 00:51:33 | 48.98264 | 21.06276 | 45° | 18km/h | 29828m | 5.9m/s | 0°C | 0% | 0hPa | 2.6V | 00:00:00 | 00:00:00 | 00:00:00 | |
| SQ9EZE-15 | 2026-08-31 00:51:27 | 48.98250 | 21.06251 | 110° | 7km/h | 29799m | 4.9m/s | -44.4°C | 1.0% | 13.0hPa | 2.6V | 00:00:00 | 00:00:00 | 00:00:00 | |
| OE5DRO-10 | 2026-08-31 00:51:19 | 48.98251 | 21.06203 | 80° | 15km/h | 29748m | 5.3m/s | -44.4°C | 3.1% | 13.0hPa | 2.6V | 00:00:00 | 00:00:00 | 00:00:00 | |
| SQ9EZE-13 | 2026-08-31 00:51:18 | 48.98251 | 21.06203 | 81° | 13km/h | 29748m | 5.4m/s | -44.5°C | 1.0% | 13.1hPa | 2.6V | 00:00:00 | 00:00:00 | 00:00:00 | |
| OE5DXL-15 | 2026-08-31 00:51:03 | 48.98234 | 21.06119 | 99° | 15km/h | 29653m | 6.6m/s | 0°C | 0% | 0hPa | 2.6V | 00:00:00 | 02:00:55 | 00:00:00 | |
| SQ9EZE-13 | 2026-08-31 00:51:02 | 48.98234 | 21.06119 | 100° | 16km/h | 29653m | 6.6m/s | -44.9°C | 1.0% | 13.3hPa | 2.6V | 00:00:00 | 00:00:00 | 00:00:00 | |
| OE5DRO-10 | 2026-08-31 00:51:00 | 48.98234 | 21.06099 | 88° | 13km/h | 29634m | 7.0m/s | -44.9°C | 3.1% | 13.2hPa | 2.6V | 00:00:00 | 00:00:00 | 00:00:00 | |
| SP9KGR-15 | 2026-08-31 00:50:57 | 48.98233 | 21.06083 | 80° | 18km/h | 29622m | 5.2m/s | -45.1°C | 1.0% | 13.3hPa | 2.6V | 00:00:00 | 00:00:00 | 00:00:00 | |
| LZ4TU-5 | 2026-08-31 00:50:53 | 48.98232 | 21.06068 | 105° | 4km/h | 29598m | 4.9m/s | 0°C | 0% | 13.4hPa | 2.6V | 00:00:00 | 00:00:00 | 00:00:00 | |
| SQ9EZE-13 | 2026-08-31 00:50:47 | 48.98225 | 21.06037 | 67° | 18km/h | 29563m | 5.9m/s | -45.3°C | 1.1% | 13.4hPa | 2.6V | 00:00:00 | 00:00:00 | 00:00:00 | |
| OE5DRO-10 | 2026-08-31 00:50:41 | 48.98217 | 21.06017 | 67° | 13km/h | 29520m | 6.0m/s | -45.3°C | 3.3% | 13.5hPa | 2.6V | 00:00:00 | 00:00:00 | 00:00:00 | |
| SP9KGR-15 | 2026-08-31 00:50:36 | 48.98214 | 21.05991 | 97° | 15km/h | 29496m | 6.0m/s | -45.3°C | 1.1% | 13.6hPa | 2.6V | 00:00:00 | 00:00:00 | 00:00:00 | |
| SQ9EZE-13 | 2026-08-31 00:50:32 | 48.98215 | 21.05968 | 89° | 16km/h | 29471m | 5.5m/s | -45.3°C | 1.1% | 13.6hPa | 2.6V | 00:00:00 | 00:00:00 | 00:00:00 | |
| GYPAP8-17 | 2026-08-31 00:50:28 | 48.98213 | 21.05955 | 353° | 4km/h | 29447m | 6.2m/s | -45.3°C | 1.0% | 13.7hPa | 2.6V | 00:00:00 | 00:00:00 | 00:00:00 | |
| OE5DRO-10 | 2026-08-31 00:50:22 | 48.98198 | 21.05934 | 73° | 11km/h | 29406m | 6.5m/s | -45.3°C | 3.2% | 13.7hPa | 2.6V | 00:00:00 | 00:00:00 | 00:00:00 | |
| SP9KGR-15 | 2026-08-31 00:50:20 | 48.98198 | 21.05930 | 91° | 11km/h | 29399m | 6.2m/s | -45.4°C | 1.1% | 13.8hPa | 2.6V | 00:00:00 | 00:00:00 | 00:00:00 | |
| SQ9EZE-13 | 2026-08-31 00:50:16 | 48.98198 | 21.05914 | 71° | 11km/h | 29375m | 5.5m/s | -45.4°C | 1.1% | 13.8hPa | 2.6V | 00:00:00 | 00:00:00 | 00:00:00 | |
| SQ9EZE-14 | 2026-08-31 00:50:07 | 48.98179 | 21.05900 | 58° | 15km/h | 29321m | 5.7m/s | -45.5°C | 1.0% | 13.9hPa | 2.6V | 00:00:00 | 00:00:00 | 00:00:00 | |
| SP9KGR-15 | 2026-08-31 00:50:04 | 48.98176 | 21.05888 | 79° | 7km/h | 29303m | 5.1m/s | -45.5°C | 1.1% | 14.0hPa | 2.6V | 00:00:00 | 00:00:00 | 00:00:00 | |
| OE5DRO-10 | 2026-08-31 00:50:03 | 48.98175 | 21.05885 | 59° | 11km/h | 29292m | 5.9m/s | -45.5°C | 3.1% | 13.9hPa | 2.6V | 00:00:00 | 00:00:00 | 00:00:00 | |
| SQ9EZE-13 | 2026-08-31 00:50:00 | 48.98171 | 21.05880 | 44° | 11km/h | 29280m | 5.9m/s | -45.5°C | 1.0% | 14.0hPa | 2.6V | 00:00:00 | 00:00:00 | 00:00:00 | |
| SQ9EZE-14 | 2026-08-31 00:49:51 | 48.98160 | 21.05844 | 75° | 22km/h | 29228m | 5.2m/s | -46.1°C | 1.1% | 14.1hPa | 2.6V | 00:00:00 | 00:00:00 | 00:00:00 | |
| S52SK | 2026-08-31 00:49:48 | 48.98156 | 21.05827 | 57° | 7km/h | 29210m | 6.0m/s | -46.3°C | 0% | 0hPa | 2.6V | 00:00:00 | 00:00:00 | 00:00:00 | |
| OE5DRO-10 | 2026-08-31 00:49:44 | 48.98143 | 21.05822 | 22° | 20km/h | 29181m | 4.7m/s | -46.4°C | 3.3% | 14.2hPa | 2.6V | 00:00:00 | 00:00:00 | 08:30:00 | |
| S52SK | 2026-08-31 00:49:42 | 48.98139 | 21.05819 | 28° | 18km/h | 29176m | 4.8m/s | -46.5°C | 0% | 0hPa | 2.6V | 00:00:00 | 00:00:00 | 00:00:00 | |
| SP9KGR-15 | 2026-08-31 00:49:31 | 48.98111 | 21.05750 | 71° | 16km/h | 29113m | 4.8m/s | -46.7°C | 1.1% | 14.4hPa | 2.6V | 00:00:00 | 00:00:00 | 00:00:00 | |
| SQ9EZE-13 | 2026-08-31 00:49:28 | 48.98103 | 21.05735 | 36° | 22km/h | 29096m | 6.0m/s | -46.8°C | 1.1% | 14.4hPa | 2.6V | 00:00:00 | 00:00:00 | 00:00:00 | |
| OE5DRO-10 | 2026-08-31 00:49:25 | 48.98082 | 21.05715 | 39° | 16km/h | 29075m | 6.3m/s | -46.8°C | 3.3% | 14.4hPa | 2.6V | 00:00:00 | 00:00:00 | 00:00:00 | |
| SP9KGR-15 | 2026-08-31 00:49:15 | 48.98062 | 21.05657 | 77° | 11km/h | 29024m | 6.5m/s | -47.2°C | 1.1% | 14.6hPa | 2.6V | 00:00:00 | 00:00:00 | 00:00:00 | |
| SQ9EZE-13 | 2026-08-31 00:49:13 | 48.98062 | 21.05650 | 77° | 7km/h | 29013m | 4.7m/s | -47.3°C | 1.1% | 14.6hPa | 2.6V | 00:00:00 | 00:00:00 | 00:00:00 | |
| OE5DRO-10 | 2026-08-31 00:49:06 | 48.98039 | 21.05615 | 46° | 22km/h | 28968m | 5.1m/s | -47.4°C | 3.4% | 14.7hPa | 2.6V | 00:00:00 | 00:00:00 | 00:00:00 | |
| SP9KGR-15 | 2026-08-31 00:48:59 | 48.98018 | 21.05591 | 22° | 9km/h | 28933m | 5.2m/s | -47.8°C | 1.2% | 14.8hPa | 2.6V | 00:00:00 | 00:00:00 | 00:00:00 | |
| LZ4TU-5 | 2026-08-31 00:48:56 | 48.98008 | 21.05585 | 25° | 22km/h | 28917m | 6.3m/s | 0°C | 0% | 14.8hPa | 2.6V | 00:00:00 | 00:00:00 | 00:00:00 | |
| LZ4TU-5 | 2026-08-31 00:48:52 | 48.97984 | 21.05561 | 40° | 29km/h | 28894m | 6.1m/s | 0°C | 0% | 14.9hPa | 2.6V | 00:00:00 | 00:00:00 | 00:00:00 | |
| OE5DRO-10 | 2026-08-31 00:48:47 | 48.97947 | 21.05527 | 21° | 20km/h | 28863m | 4.8m/s | -48.1°C | 3.7% | 14.9hPa | 2.6V | 00:00:00 | 00:00:00 | 00:00:00 | |
| SP9KGR-15 | 2026-08-31 00:48:43 | 48.97934 | 21.05520 | 16° | 13km/h | 28845m | 5.3m/s | -48.1°C | 1.3% | 15.0hPa | 2.5V | 00:00:00 | 00:00:00 | 00:00:00 | |
| SQ9EZE-13 | 2026-08-31 00:48:41 | 48.97927 | 21.05519 | 2° | 16km/h | 28836m | 5.5m/s | -48.1°C | 1.2% | 15.0hPa | 2.5V | 00:00:00 | 00:00:00 | 00:00:00 | |
| SQ9EZE-15 | 2026-08-31 00:48:36 | 48.97898 | 21.05516 | 10° | 22km/h | 28808m | 6.2m/s | -48.0°C | 1.2% | 15.1hPa | 2.5V | 00:00:00 | 00:00:00 | 00:00:00 | |
| OE5DRO-10 | 2026-08-31 00:48:28 | 48.97855 | 21.05512 | 14° | 15km/h | 28759m | 4.8m/s | -47.7°C | 3.6% | 15.1hPa | 2.5V | 00:00:00 | 00:00:00 | 00:00:00 | |
| SP9KGR-15 | 2026-08-31 00:48:26 | 48.97852 | 21.05512 | 9° | 13km/h | 28755m | 4.4m/s | -47.7°C | 1.2% | 15.2hPa | 2.5V | 00:00:00 | 00:00:00 | 00:00:00 | |
| SQ9EZE-13 | 2026-08-31 00:48:25 | 48.97849 | 21.05511 | 355° | 15km/h | 28750m | 5.9m/s | -47.7°C | 1.2% | 15.2hPa | 2.5V | 00:00:00 | 00:00:00 | 00:00:00 | |
| SQ9EZE-15 | 2026-08-31 00:48:16 | 48.97811 | 21.05532 | 332° | 16km/h | 28691m | 4.8m/s | -47.7°C | 1.2% | 15.3hPa | 2.5V | 00:00:00 | 00:00:00 | 00:00:00 | |
| OE5DRO-10 | 2026-08-31 00:48:09 | 48.97787 | 21.05550 | 323° | 11km/h | 28653m | 4.9m/s | -47.6°C | 3.5% | 15.4hPa | 2.5V | 00:00:00 | 00:00:00 | 00:00:00 | |
| SP9KGR-15 | 2026-08-31 00:48:04 | 48.97774 | 21.05560 | 4° | 11km/h | 28632m | 5.4m/s | -47.7°C | 1.2% | 15.5hPa | 2.5V | 00:00:00 | 00:00:00 | 00:00:00 | |
| GYPAP8-17 | 2026-08-31 00:48:00 | 48.97762 | 21.05563 | 314° | 15km/h | 28604m | 5.3m/s | -47.7°C | 1.1% | 15.5hPa | 2.5V | 00:00:00 | 00:00:00 | 00:00:00 | |
| SQ9EZE-13 | 2026-08-31 00:47:53 | 48.97750 | 21.05580 | 345° | 9km/h | 28571m | 6.3m/s | -47.8°C | 1.2% | 15.6hPa | 2.5V | 00:00:00 | 00:00:00 | 00:00:00 | |
| OE5DRO-10 | 2026-08-31 00:47:50 | 48.97740 | 21.05580 | 24° | 7km/h | 28549m | 6.6m/s | -47.8°C | 3.6% | 15.6hPa | 2.5V | 00:00:00 | 00:00:00 | 00:00:00 | |
| SQ9EZE-14 | 2026-08-31 00:47:49 | 48.97740 | 21.05580 | 24° | 7km/h | 28549m | 6.6m/s | -47.9°C | 1.2% | 15.7hPa | 2.6V | 00:00:00 | 00:00:00 | 00:00:00 | |
| SP9KGR-15 | 2026-08-31 00:47:48 | 48.97739 | 21.05579 | 60° | 4km/h | 28543m | 5.9m/s | -47.9°C | 1.2% | 15.7hPa | 2.6V | 00:00:00 | 00:00:00 | 00:00:00 | |
| S52SK | 2026-08-31 00:47:45 | 48.97741 | 21.05587 | 258° | 15km/h | 28520m | 5.1m/s | -47.9°C | 0% | 0hPa | 2.6V | 00:00:00 | 00:00:00 | 00:00:00 | |
| S52SK | 2026-08-31 00:47:38 | 48.97751 | 21.05606 | 180° | 4km/h | 28488m | 5.1m/s | -47.8°C | 0% | 0hPa | 2.6V | 00:00:00 | 00:00:00 | 00:00:00 | |
| S52SK | 2026-08-31 00:47:33 | 48.97753 | 21.05606 | 149° | 5km/h | 28459m | 6.4m/s | -47.7°C | 0% | 0hPa | 2.6V | 00:00:00 | 00:00:00 | 00:00:00 | |
| OE5DRO-10 | 2026-08-31 00:47:31 | 48.97759 | 21.05606 | 218° | 9km/h | 28442m | 6.5m/s | -47.7°C | 3.5% | 15.9hPa | 2.6V | 00:00:00 | 00:00:00 | 00:00:00 | |
| S52SK | 2026-08-31 00:47:26 | 48.97764 | 21.05621 | 235° | 5km/h | 28420m | 5.8m/s | 0°C | 0% | 0hPa | 2.6V | 00:00:00 | 00:00:00 | 00:00:00 | |
| SQ9EZE-13 | 2026-08-31 00:47:23 | 48.97764 | 21.05615 | 69° | 13km/h | 28404m | 4.9m/s | -47.9°C | 1.2% | 16.0hPa | 2.6V | 00:00:00 | 00:00:00 | 00:00:00 | |
| S52SK | 2026-08-31 00:47:20 | 48.97757 | 21.05603 | 29° | 13km/h | 28387m | 4.7m/s | 0°C | 0% | 0hPa | 2.6V | 00:00:00 | 00:00:00 | 00:00:00 | |
| S52SK | 2026-08-31 00:47:15 | 48.97756 | 21.05601 | 182° | 9km/h | 28359m | 5.1m/s | 0°C | 0% | 0hPa | 2.6V | 00:00:00 | 00:00:00 | 00:00:00 | |
| OE5DRO-10 | 2026-08-31 00:47:10 | 48.97748 | 21.05594 | 33° | 15km/h | 28327m | 5.0m/s | -47.8°C | 3.5% | 16.2hPa | 2.6V | 00:00:00 | 00:00:00 | 00:00:00 | |
| SQ9EZE-13 | 2026-08-31 00:47:07 | 48.97743 | 21.05585 | 73° | 15km/h | 28316m | 5.5m/s | -47.8°C | 1.2% | 16.2hPa | 2.6V | 00:00:00 | 00:00:00 | 00:00:00 | |
| OE5DXL-15 | 2026-08-31 00:46:57 | 48.97749 | 21.05584 | 20° | 24km/h | 28255m | 7.7m/s | 0°C | 0% | 0hPa | 2.6V | 00:00:00 | 00:00:00 | 00:00:00 | |
| OE5DRO-10 | 2026-08-31 00:46:51 | 48.97721 | 21.05558 | 58° | 16km/h | 28221m | 4.8m/s | -47.8°C | 3.5% | 16.4hPa | 2.6V | 00:00:00 | 00:00:00 | 08:30:00 | |
| SQ9EZE-13 | 2026-08-31 00:46:36 | 48.97672 | 21.05544 | 22° | 27km/h | 28146m | 4.4m/s | -48.2°C | 1.2% | 16.7hPa | 2.5V | 00:00:00 | 00:00:00 | 00:00:00 | |
| OE5DRO-10 | 2026-08-31 00:46:32 | 48.97656 | 21.05527 | 29° | 9km/h | 28118m | 6.3m/s | -48.1°C | 3.7% | 16.7hPa | 2.5V | 00:00:00 | 00:00:00 | 00:00:00 | |
| SQ9EZE-13 | 2026-08-31 00:46:20 | 48.97633 | 21.05542 | 15° | 16km/h | 28055m | 4.8m/s | -48.2°C | 1.2% | 16.9hPa | 2.5V | 00:00:00 | 00:00:00 | 00:00:00 | |
| OE5DRO-10 | 2026-08-31 00:46:13 | 48.97631 | 21.05553 | 281° | 7km/h | 28011m | 5.2m/s | -48.3°C | 3.6% | 17.0hPa | 2.5V | 00:00:00 | 00:00:00 | 00:00:00 | |
| SP9KGR-15 | 2026-08-31 00:45:57 | 48.97623 | 21.05569 | 267° | 13km/h | 27925m | 4.3m/s | -48.8°C | 1.2% | 17.2hPa | 2.5V | 00:00:00 | 00:00:00 | 00:00:00 | |
| OE5DRO-10 | 2026-08-31 00:45:54 | 48.97624 | 21.05575 | 94° | 7km/h | 27903m | 5.3m/s | -48.7°C | 3.7% | 17.2hPa | 2.5V | 00:00:00 | 00:00:00 | 00:00:00 | |
| SQ9EZE-15 | 2026-08-31 00:45:47 | 48.97622 | 21.05559 | 141° | 7km/h | 27869m | 5.8m/s | -48.9°C | 1.2% | 17.4hPa | 2.5V | 00:00:00 | 00:00:00 | 00:00:00 | |
| SP9KGR-15 | 2026-08-31 00:45:41 | 48.97627 | 21.05564 | 310° | 5km/h | 27837m | 4.6m/s | -49.0°C | 1.3% | 17.5hPa | 2.5V | 00:00:00 | 00:00:00 | 00:00:00 | |
| SQ9EZE-14 | 2026-08-31 00:45:37 | 48.97625 | 21.05562 | 67° | 7km/h | 27815m | 5.3m/s | -49.0°C | 1.3% | 17.5hPa | 2.5V | 00:00:00 | 00:00:00 | 00:00:00 | |
| OE5DRO-10 | 2026-08-31 00:45:35 | 48.97621 | 21.05555 | 39° | 7km/h | 27798m | 4.3m/s | -48.9°C | 3.8% | 17.5hPa | 2.5V | 00:00:00 | 00:00:00 | 00:00:00 | |
| SQ9EZE-15 | 2026-08-31 00:45:26 | 48.97619 | 21.05562 | 328° | 7km/h | 27754m | 5.3m/s | -49.0°C | 1.2% | 17.7hPa | 2.5V | 00:00:00 | 00:00:00 | 00:00:00 | |
| S52SK | 2026-08-31 00:45:23 | 48.97616 | 21.05559 | 67° | 9km/h | 27736m | 5.0m/s | 0°C | 0% | 0hPa | 2.5V | 00:00:00 | 00:00:00 | 00:00:00 | |
| SP9KGR-15 | 2026-08-31 00:45:22 | 48.97615 | 21.05555 | 59° | 13km/h | 27731m | 6.4m/s | -49.0°C | 1.3% | 17.8hPa | 2.5V | 00:00:00 | 00:00:00 | 00:00:00 | |
| S52SK | 2026-08-31 00:45:18 | 48.97610 | 21.05541 | 105° | 7km/h | 27708m | 6.5m/s | 0°C | 0% | 0hPa | 2.5V | 00:00:00 | 00:00:00 | 00:00:00 | |
| LZ4TU-5 | 2026-08-31 00:45:17 | 48.97611 | 21.05539 | 151° | 7km/h | 27702m | 5.6m/s | 0°C | 0% | 17.8hPa | 2.5V | 00:00:00 | 00:00:00 | 00:00:00 | |
| OE5DRO-10 | 2026-08-31 00:45:16 | 48.97615 | 21.05539 | 211° | 9km/h | 27691m | 5.3m/s | -48.9°C | 3.8% | 17.8hPa | 2.5V | 00:00:00 | 00:00:00 | 00:00:00 | |
| SP9KGR-15 | 2026-08-31 00:45:06 | 48.97611 | 21.05529 | 60° | 15km/h | 27643m | 6.3m/s | -48.7°C | 1.3% | 18.0hPa | 2.5V | 00:00:00 | 00:00:00 | 00:00:00 | |
| HA6NAB-11 | 2026-08-31 00:45:01 | 48.97605 | 21.05509 | 110° | 11km/h | 27615m | 5.9m/s | -48.5°C | 1.2% | 18.1hPa | 2.5V | 00:00:00 | 00:00:00 | 00:00:00 | |
| OE5DRO-10 | 2026-08-31 00:44:57 | 48.97606 | 21.05498 | 53° | 9km/h | 27587m | 5.0m/s | -48.6°C | 3.7% | 18.1hPa | 2.5V | 00:00:00 | 00:00:00 | 00:00:00 | |
| HA6NAB-11 | 2026-08-31 00:44:55 | 48.97606 | 21.05497 | 64° | 5km/h | 27581m | 6.5m/s | -48.6°C | 1.2% | 18.2hPa | 2.5V | 00:00:00 | 00:00:00 | 00:00:00 | |
| SP9KGR-15 | 2026-08-31 00:44:49 | 48.97592 | 21.05485 | 10° | 13km/h | 27548m | 4.8m/s | -48.6°C | 1.2% | 18.3hPa | 2.5V | 00:00:00 | 00:00:00 | 00:00:00 | |
| SQ9EZE-13 | 2026-08-31 00:44:48 | 48.97589 | 21.05484 | 18° | 11km/h | 27543m | 5.5m/s | -48.7°C | 1.2% | 18.3hPa | 2.5V | 00:00:00 | 00:00:00 | 00:00:00 | |
| OE5DRO-10 | 2026-08-31 00:44:38 | 48.97573 | 21.05460 | 22° | 11km/h | 27484m | 5.0m/s | -48.6°C | 3.7% | 18.4hPa | 2.5V | 00:00:00 | 00:00:00 | 00:00:00 | |
| SP9KGR-15 | 2026-08-31 00:44:33 | 48.97561 | 21.05460 | 14° | 5km/h | 27455m | 6.0m/s | -48.6°C | 1.2% | 18.5hPa | 2.5V | 00:00:00 | 00:00:00 | 00:00:00 | |
| OE5DRO-10 | 2026-08-31 00:44:19 | 48.97519 | 21.05481 | 348° | 15km/h | 27378m | 6.4m/s | -48.8°C | 3.7% | 18.7hPa | 2.5V | 00:00:00 | 00:00:00 | 00:00:00 | |
| SQ9EZE-13 | 2026-08-31 00:44:17 | 48.97516 | 21.05481 | 358° | 11km/h | 27372m | 5.3m/s | -48.9°C | 1.3% | 18.8hPa | 2.5V | 00:00:00 | 00:00:00 | 00:00:00 | |
| SP9KGR-15 | 2026-08-31 00:44:16 | 48.97514 | 21.05482 | 358° | 11km/h | 27367m | 4.4m/s | -48.9°C | 1.2% | 18.8hPa | 2.5V | 00:00:00 | 00:00:00 | 00:00:00 | |
| SQ9EZE-13 | 2026-08-31 00:44:02 | 48.97478 | 21.05536 | 301° | 15km/h | 27292m | 5.5m/s | -48.8°C | 1.2% | 19.0hPa | 2.5V | 00:00:00 | 00:00:00 | 00:00:00 | |
| SP9KGR-15 | 2026-08-31 00:44:01 | 48.97476 | 21.05541 | 303° | 13km/h | 27286m | 6.4m/s | -48.8°C | 1.2% | 19.0hPa | 2.5V | 00:00:00 | 00:00:00 | 00:00:00 | |
| OE5DRO-10 | 2026-08-31 00:44:00 | 48.97473 | 21.05549 | 298° | 11km/h | 27275m | 4.5m/s | -48.8°C | 3.8% | 19.0hPa | 2.5V | 00:00:00 | 00:00:00 | 08:30:00 | |
| SQ9EZE-13 | 2026-08-31 00:43:47 | 48.97466 | 21.05591 | 284° | 13km/h | 27209m | 4.4m/s | -48.8°C | 1.3% | 19.2hPa | 2.6V | 00:00:00 | 00:00:00 | 00:00:00 | |
| SP9KGR-15 | 2026-08-31 00:43:45 | 48.97465 | 21.05599 | 278° | 9km/h | 27199m | 6.3m/s | -48.9°C | 1.3% | 19.3hPa | 2.6V | 00:00:00 | 00:00:00 | 00:00:00 | |
| OE5DRO-10 | 2026-08-31 00:43:40 | 48.97474 | 21.05630 | 247° | 20km/h | 27165m | 4.7m/s | -48.8°C | 3.8% | 19.3hPa | 2.6V | 00:00:00 | 00:00:00 | 00:00:00 | |
| SQ9EZE-14 | 2026-08-31 00:43:36 | 48.97478 | 21.05647 | 270° | 11km/h | 27149m | 4.6m/s | -48.8°C | 1.3% | 19.4hPa | 2.6V | 00:00:00 | 00:00:00 | 00:00:00 | |
| SQ9EZE-15 | 2026-08-31 00:43:33 | 48.97475 | 21.05664 | 291° | 22km/h | 27132m | 6.2m/s | -48.8°C | 1.3% | 19.5hPa | 2.6V | 00:00:00 | 00:00:00 | 00:00:00 | |
| SQ9EZE-13 | 2026-08-31 00:43:32 | 48.97473 | 21.05672 | 290° | 24km/h | 27126m | 5.0m/s | -48.8°C | 1.3% | 19.5hPa | 2.6V | 00:00:00 | 00:00:00 | 00:00:00 | |
| SP9KGR-15 | 2026-08-31 00:43:29 | 48.97470 | 21.05695 | 269° | 16km/h | 27110m | 5.6m/s | -48.7°C | 1.3% | 19.5hPa | 2.6V | 00:00:00 | 00:00:00 | 00:00:00 | |
| OE5DRO-10 | 2026-08-31 00:43:21 | 48.97486 | 21.05760 | 245° | 22km/h | 27059m | 5.2m/s | -48.5°C | 3.8% | 19.6hPa | 2.6V | 00:00:00 | 00:00:00 | 00:00:00 | |
| S52SK | 2026-08-31 00:43:19 | 48.97488 | 21.05766 | 255° | 16km/h | 27053m | 6.4m/s | 0°C | 0% | 0hPa | 2.6V | 00:00:00 | 00:00:00 | 00:00:00 | |
| SQ9EZE-13 | 2026-08-31 00:43:16 | 48.97489 | 21.05790 | 267° | 22km/h | 27036m | 4.4m/s | -48.5°C | 1.3% | 19.8hPa | 2.6V | 00:00:00 | 00:00:00 | 00:00:00 | |
| SP9KGR-15 | 2026-08-31 00:43:13 | 48.97493 | 21.05812 | 244° | 20km/h | 27020m | 5.1m/s | -48.4°C | 1.2% | 19.8hPa | 2.6V | 00:00:00 | 00:00:00 | 00:00:00 | |
| S52SK | 2026-08-31 00:43:12 | 48.97495 | 21.05819 | 241° | 22km/h | 27015m | 5.0m/s | 0°C | 0% | 0hPa | 2.6V | 00:00:00 | 00:00:00 | 00:00:00 | |
| OE5DRO-10 | 2026-08-31 00:43:02 | 48.97530 | 21.05896 | 251° | 13km/h | 26952m | 4.8m/s | -47.8°C | 3.5% | 20.0hPa | 2.6V | 00:00:00 | 00:00:00 | 00:00:00 | |
| SQ9EZE-13 | 2026-08-31 00:43:01 | 48.97530 | 21.05896 | 251° | 15km/h | 26952m | 4.8m/s | -47.9°C | 1.2% | 20.0hPa | 2.6V | 00:00:00 | 00:00:00 | 00:00:00 | |
| SP9KGR-15 | 2026-08-31 00:42:58 | 48.97536 | 21.05908 | 215° | 15km/h | 26934m | 5.5m/s | -47.8°C | 1.2% | 20.1hPa | 2.6V | 00:00:00 | 00:00:00 | 00:00:00 | |
| SQ9EZE-13 | 2026-08-31 00:42:45 | 48.97564 | 21.05961 | 243° | 11km/h | 26863m | 5.3m/s | -48.1°C | 1.2% | 20.3hPa | 2.6V | 00:00:00 | 00:00:00 | 00:00:00 | |
| OE5DRO-10 | 2026-08-31 00:42:43 | 48.97573 | 21.05971 | 195° | 16km/h | 26845m | 6.5m/s | -48.2°C | 3.6% | 20.3hPa | 2.6V | 00:00:00 | 00:00:00 | 00:00:00 | |
| SP9KGR-15 | 2026-08-31 00:42:42 | 48.97573 | 21.05971 | 196° | 20km/h | 26845m | 6.5m/s | -48.3°C | 1.2% | 20.3hPa | 2.6V | 00:00:00 | 00:00:00 | 00:00:00 | |
| GYPAP8-17 | 2026-08-31 00:42:38 | 48.97595 | 21.05977 | 197° | 20km/h | 26823m | 6.3m/s | -48.4°C | 1.2% | 20.4hPa | 2.6V | 00:00:00 | 00:00:00 | 00:00:00 | |
| SQ9EZE-13 | 2026-08-31 00:42:30 | 48.97617 | 21.05978 | 243° | 4km/h | 26777m | 4.8m/s | -49.0°C | 1.2% | 20.5hPa | 2.6V | 00:00:00 | 00:00:00 | 00:00:00 | |
| SP9KGR-15 | 2026-08-31 00:42:27 | 48.97627 | 21.05984 | 188° | 22km/h | 26756m | 6.0m/s | -49.2°C | 1.3% | 20.6hPa | 2.6V | 00:00:00 | 00:00:00 | 00:00:00 | |
| OE5DRO-10 | 2026-08-31 00:42:24 | 48.97644 | 21.05990 | 206° | 16km/h | 26740m | 6.5m/s | -49.1°C | 3.8% | 20.6hPa | 2.6V | 00:00:00 | 00:00:00 | 00:00:00 | |
| SQ9EZE-13 | 2026-08-31 00:42:14 | 48.97675 | 21.06029 | 204° | 18km/h | 26689m | 4.5m/s | -49.2°C | 1.2% | 20.8hPa | 2.6V | 00:00:00 | 00:00:00 | 00:00:00 | |
| SP9KGR-15 | 2026-08-31 00:42:11 | 48.97688 | 21.06029 | 159° | 20km/h | 26672m | 6.2m/s | -49.2°C | 1.3% | 20.9hPa | 2.6V | 00:00:00 | 00:00:00 | 00:00:00 | |
| LZ4TU-5 | 2026-08-31 00:42:10 | 48.97692 | 21.06026 | 152° | 20km/h | 26666m | 4.9m/s | 0°C | 0% | 0hPa | 2.6V | 00:00:00 | 00:00:00 | 00:00:00 | |
| LZ4TU-5 | 2026-08-31 00:42:06 | 48.97705 | 21.06023 | 226° | 11km/h | 26644m | 5.4m/s | 0°C | 0% | 0hPa | 2.6V | 00:00:00 | 00:00:00 | 00:00:00 | |
| OE5DRO-10 | 2026-08-31 00:42:03 | 48.97713 | 21.06032 | 181° | 9km/h | 26621m | 5.0m/s | -49.3°C | 3.7% | 21.0hPa | 2.6V | 00:00:00 | 00:00:00 | 00:00:00 | |
| LZ4TU-5 | 2026-08-31 00:42:02 | 48.97713 | 21.06032 | 182° | 11km/h | 26621m | 5.1m/s | 0°C | 0% | 0hPa | 2.5V | 00:00:00 | 00:00:00 | 00:00:00 | |
| SQ9EZE-13 | 2026-08-31 00:41:59 | 48.97721 | 21.06030 | 171° | 9km/h | 26605m | 6.2m/s | -49.5°C | 1.2% | 21.1hPa | 2.5V | 00:00:00 | 00:00:00 | 00:00:00 | |
| SP9KGR-15 | 2026-08-31 00:41:55 | 48.97728 | 21.06021 | 114° | 15km/h | 26584m | 6.7m/s | -49.6°C | 1.3% | 21.2hPa | 2.5V | 00:00:00 | 00:00:00 | 00:00:00 | |
| OE5DRO-10 | 2026-08-31 00:41:44 | 48.97739 | 21.05999 | 41° | 13km/h | 26520m | 6.7m/s | -50.2°C | 4.0% | 21.3hPa | 2.5V | 00:00:00 | 00:00:00 | 00:00:00 | |
| SQ9EZE-13 | 2026-08-31 00:41:41 | 48.97727 | 21.05988 | 33° | 20km/h | 26503m | 4.9m/s | -50.2°C | 1.3% | 21.4hPa | 2.5V | 00:00:00 | 00:00:00 | 00:00:00 | |
| OE5DRO-10 | 2026-08-31 00:41:25 | 48.97685 | 21.05966 | 9° | 11km/h | 26415m | 4.7m/s | -50.0°C | 3.9% | 21.7hPa | 2.5V | 00:00:00 | 00:00:00 | 00:00:00 | |
| SP9KGR-15 | 2026-08-31 00:41:24 | 48.97685 | 21.05966 | 9° | 9km/h | 26415m | 4.8m/s | -50.0°C | 1.3% | 21.7hPa | 2.5V | 00:00:00 | 00:00:00 | 00:00:00 | |
| SQ9EZE-14 | 2026-08-31 00:41:17 | 48.97679 | 21.05977 | 319° | 16km/h | 26378m | 5.5m/s | -49.9°C | 1.3% | 21.8hPa | 2.5V | 00:00:00 | 00:00:00 | 00:00:00 | |
| SP9KGR-15 | 2026-08-31 00:41:08 | 48.97658 | 21.05999 | 268° | 15km/h | 26331m | 4.5m/s | -49.8°C | 1.3% | 22.0hPa | 2.5V | 00:00:00 | 00:00:00 | 00:00:00 | |
| OE5DRO-10 | 2026-08-31 00:41:06 | 48.97660 | 21.06013 | 261° | 20km/h | 26316m | 4.8m/s | -49.7°C | 3.8% | 22.0hPa | 2.5V | 00:00:00 | 00:00:00 | 08:30:00 | |
| SQ9EZE-14 | 2026-08-31 00:41:03 | 48.97660 | 21.06027 | 282° | 15km/h | 26299m | 5.0m/s | -49.8°C | 1.2% | 22.1hPa | 2.5V | 00:00:00 | 00:00:00 | 00:00:00 | |
| S52SK | 2026-08-31 00:41:01 | 48.97656 | 21.06037 | 319° | 16km/h | 26288m | 6.4m/s | 0°C | 0% | 0hPa | 2.5V | 00:00:00 | 00:00:00 | 00:00:00 | |
| S52SK | 2026-08-31 00:40:54 | 48.97636 | 21.06075 | 273° | 24km/h | 26257m | 4.5m/s | 0°C | 0% | 0hPa | 2.5V | 00:00:00 | 00:00:00 | 00:00:00 | |
| SQ9EZE-15 | 2026-08-31 00:40:52 | 48.97638 | 21.06091 | 255° | 20km/h | 26246m | 5.8m/s | -50.2°C | 1.3% | 22.3hPa | 2.5V | 00:00:00 | 00:00:00 | 00:00:00 | |
| OE5DRO-10 | 2026-08-31 00:40:47 | 48.97645 | 21.06138 | 272° | 15km/h | 26215m | 4.6m/s | -50.2°C | 3.9% | 22.3hPa | 2.5V | 00:00:00 | 00:00:00 | 00:00:00 | |
| SP9KGR-15 | 2026-08-31 00:40:38 | 48.97657 | 21.06188 | 211° | 16km/h | 26168m | 5.4m/s | -50.4°C | 1.3% | 22.6hPa | 2.5V | 00:00:00 | 00:00:00 | 00:00:00 | |
| HA6NAB-11 | 2026-08-31 00:40:36 | 48.97662 | 21.06195 | 233° | 13km/h | 26158m | 5.2m/s | -50.5°C | 1.2% | 22.6hPa | 2.5V | 00:00:00 | 00:00:00 | 00:00:00 | |
| SQ9EZE-15 | 2026-08-31 00:40:32 | 48.97660 | 21.06214 | 310° | 15km/h | 26137m | 6.3m/s | -50.7°C | 1.3% | 22.7hPa | 2.5V | 00:00:00 | 00:00:00 | 00:00:00 | |
| HA6NAB-11 | 2026-08-31 00:40:30 | 48.97656 | 21.06220 | 316° | 11km/h | 26126m | 4.6m/s | -50.9°C | 1.3% | 22.7hPa | 2.5V | 00:00:00 | 00:00:00 | 00:00:00 | |
| OE5DRO-10 | 2026-08-31 00:40:28 | 48.97654 | 21.06227 | 263° | 11km/h | 26116m | 5.3m/s | -51.0°C | 3.8% | 22.7hPa | 2.5V | 00:00:00 | 00:00:00 | 00:00:00 | |
| HA6NAB-11 | 2026-08-31 00:40:25 | 48.97662 | 21.06233 | 184° | 18km/h | 26100m | 6.3m/s | -51.5°C | 1.3% | 22.8hPa | 2.5V | 00:00:00 | 00:00:00 | 00:00:00 | |
| SP9KGR-15 | 2026-08-31 00:40:22 | 48.97677 | 21.06231 | 177° | 18km/h | 26086m | 4.2m/s | -51.7°C | 1.4% | 22.8hPa | 2.5V | 00:00:00 | 00:00:00 | 00:00:00 | |
| SQ9EZE-13 | 2026-08-31 00:40:21 | 48.97677 | 21.06231 | 177° | 18km/h | 26086m | 4.2m/s | -51.7°C | 1.4% | 22.8hPa | 2.5V | 00:00:00 | 00:00:00 | 00:00:00 | |
| HA6NAB-11 | 2026-08-31 00:40:18 | 48.97686 | 21.06236 | 233° | 13km/h | 26070m | 4.6m/s | -51.8°C | 1.4% | 22.9hPa | 2.5V | 00:00:00 | 00:00:00 | 00:00:00 | |
| LZ4TU-5 | 2026-08-31 00:40:15 | 48.97690 | 21.06244 | 208° | 4km/h | 26055m | 5.7m/s | 0°C | 0% | 0hPa | 2.5V | 00:00:00 | 00:00:00 | 00:00:00 | |
| HA6NAB-11 | 2026-08-31 00:40:13 | 48.97691 | 21.06243 | 160° | 5km/h | 26045m | 4.9m/s | -52.0°C | 1.4% | 23.0hPa | 2.5V | 00:00:00 | 00:00:00 | 00:00:00 | |
| LZ4TU-5 | 2026-08-31 00:40:10 | 48.97696 | 21.06242 | 183° | 7km/h | 26030m | 4.1m/s | 0°C | 0% | 0hPa | 2.5V | 00:00:00 | 00:00:00 | 00:00:00 | |
| OE5DRO-10 | 2026-08-31 00:40:09 | 48.97699 | 21.06241 | 141° | 5km/h | 26020m | 6.0m/s | -52.3°C | 4.3% | 23.0hPa | 2.5V | 00:00:00 | 00:00:00 | 00:00:00 | |
| HA6NAB-11 | 2026-08-31 00:40:07 | 48.97700 | 21.06240 | 100° | 5km/h | 26014m | 5.0m/s | -52.4°C | 1.4% | 23.1hPa | 2.5V | 00:00:00 | 00:00:00 | 00:00:00 | |
| SQ9EZE-13 | 2026-08-31 00:40:06 | 48.97699 | 21.06237 | 15° | 4km/h | 26005m | 5.4m/s | -52.4°C | 1.4% | 23.1hPa | 2.5V | 00:00:00 | 00:00:00 | 00:00:00 | |
| OE5DRO-10 | 2026-08-31 00:39:50 | 48.97701 | 21.06269 | 294° | 9km/h | 25923m | 4.5m/s | -52.6°C | 4.4% | 23.4hPa | 2.5V | 00:00:00 | 00:00:00 | 00:00:00 | |
| SQ9EZE-13 | 2026-08-31 00:39:49 | 48.97700 | 21.06271 | 313° | 4km/h | 25919m | 3.7m/s | -52.6°C | 1.4% | 23.4hPa | 2.5V | 00:00:00 | 00:00:00 | 00:00:00 | |
| SP9KGR-15 | 2026-08-31 00:39:35 | 48.97717 | 21.06252 | 270° | 5km/h | 25856m | 5.8m/s | -52.4°C | 1.5% | 23.7hPa | 2.5V | 00:00:00 | 00:00:00 | 00:00:00 | |
| SQ9EZE-13 | 2026-08-31 00:39:33 | 48.97716 | 21.06256 | 314° | 5km/h | 25845m | 4.1m/s | -52.3°C | 1.5% | 23.7hPa | 2.5V | 00:00:00 | 00:00:00 | 00:00:00 | |
| OE5DRO-10 | 2026-08-31 00:39:31 | 48.97711 | 21.06253 | 51° | 7km/h | 25830m | 5.7m/s | -52.1°C | 4.4% | 23.7hPa | 2.5V | 00:00:00 | 00:00:00 | 00:00:00 | |
| SP9KGR-15 | 2026-08-31 00:39:19 | 48.97711 | 21.06260 | 269° | 4km/h | 25777m | 5.2m/s | -52.0°C | 1.5% | 24.0hPa | 2.5V | 00:00:00 | 00:00:00 | 00:00:00 | |
| SQ9EZE-13 | 2026-08-31 00:39:18 | 48.97710 | 21.06264 | 282° | 5km/h | 25766m | 5.1m/s | -52.0°C | 1.4% | 24.0hPa | 2.5V | 00:00:00 | 00:00:00 | 00:00:00 | |
| OE5DRO-10 | 2026-08-31 00:39:12 | 48.97705 | 21.06273 | 287° | 7km/h | 25735m | 5.8m/s | -51.9°C | 4.3% | 24.1hPa | 2.5V | 00:00:00 | 00:00:00 | 00:00:00 | |
| SP9KGR-15 | 2026-08-31 00:39:04 | 48.97699 | 21.06299 | 276° | 11km/h | 25698m | 5.3m/s | -51.7°C | 1.4% | 24.2hPa | 2.5V | 00:00:00 | 00:00:00 | 00:00:00 | |
| SQ9EZE-14 | 2026-08-31 00:39:01 | 48.97699 | 21.06309 | 279° | 4km/h | 25684m | 5.6m/s | -51.6°C | 1.4% | 24.3hPa | 2.5V | 00:00:00 | 00:00:00 | 00:00:00 | |
| OE5DRO-10 | 2026-08-31 00:38:53 | 48.97698 | 21.06327 | 263° | 7km/h | 25640m | 4.5m/s | -51.2°C | 4.2% | 24.4hPa | 2.5V | 00:00:00 | 00:00:00 | 00:00:00 | |
| SP9KGR-15 | 2026-08-31 00:38:49 | 48.97699 | 21.06339 | 259° | 11km/h | 25625m | 3.8m/s | -51.2°C | 1.4% | 24.5hPa | 2.5V | 00:00:00 | 00:00:00 | 00:00:00 | |
| SQ9EZE-14 | 2026-08-31 00:38:47 | 48.97701 | 21.06345 | 174° | 5km/h | 25609m | 5.1m/s | -51.1°C | 1.4% | 24.6hPa | 2.5V | 00:00:00 | 00:00:00 | 00:00:00 | |
| SQ9EZE-13 | 2026-08-31 00:38:46 | 48.97703 | 21.06344 | 168° | 5km/h | 25604m | 4.6m/s | -51.0°C | 1.4% | 24.6hPa | 2.5V | 00:00:00 | 00:00:00 | 00:00:00 | |
| OE5DRO-10 | 2026-08-31 00:38:34 | 48.97715 | 21.06374 | 248° | 15km/h | 25545m | 4.5m/s | -50.8°C | 3.9% | 24.8hPa | 2.5V | 00:00:00 | 00:00:00 | 00:00:00 | |
| SQ9EZE-13 | 2026-08-31 00:38:30 | 48.97720 | 21.06382 | 202° | 11km/h | 25529m | 4.8m/s | -50.9°C | 1.3% | 24.9hPa | 2.5V | 00:00:00 | 00:00:00 | 00:00:00 | |
| SQ9EZE-15 | 2026-08-31 00:38:18 | 48.97744 | 21.06426 | 226° | 16km/h | 25468m | 4.2m/s | -51.6°C | 1.4% | 25.1hPa | 2.5V | 00:00:00 | 00:00:00 | 00:00:00 | |
| OE5DRO-10 | 2026-08-31 00:38:15 | 48.97758 | 21.06434 | 187° | 7km/h | 25448m | 4.0m/s | -51.6°C | 4.2% | 25.2hPa | 2.5V | 00:00:00 | 00:00:00 | 08:30:00 | |
| HA6NAB-11 | 2026-08-31 00:38:05 | 48.97772 | 21.06460 | 186° | 9km/h | 25402m | 5.1m/s | -51.8°C | 1.4% | 25.4hPa | 2.7V | 00:00:00 | 00:00:00 | 00:00:00 | |
| SP9KGR-15 | 2026-08-31 00:38:04 | 48.97777 | 21.06461 | 190° | 15km/h | 25390m | 5.4m/s | -51.8°C | 1.4% | 25.5hPa | 2.7V | 00:00:00 | 00:00:00 | 00:00:00 | |
| HA6NAB-11 | 2026-08-31 00:37:59 | 48.97793 | 21.06458 | 176° | 7km/h | 25365m | 4.9m/s | -51.7°C | 1.4% | 25.5hPa | 2.7V | 00:00:00 | 00:00:00 | 00:00:00 | |
| SQ9EZE-13 | 2026-08-31 00:37:58 | 48.97793 | 21.06458 | 176° | 7km/h | 25365m | 4.9m/s | -51.7°C | 1.4% | 25.5hPa | 2.7V | 00:00:00 | 00:00:00 | 00:00:00 | |
| OE5DRO-10 | 2026-08-31 00:37:50 | 48.97796 | 21.06462 | 150° | 7km/h | 25315m | 5.8m/s | -51.3°C | 4.0% | 25.7hPa | 2.7V | 00:00:00 | 00:00:00 | 00:00:00 | |
| SP9KGR-15 | 2026-08-31 00:37:47 | 48.97799 | 21.06459 | 143° | 7km/h | 25305m | 4.5m/s | -51.5°C | 1.3% | 25.8hPa | 2.7V | 00:00:00 | 00:00:00 | 00:00:00 | |
| SQ9EZE-13 | 2026-08-31 00:37:42 | 48.97800 | 21.06445 | 40° | 4km/h | 25278m | 6.0m/s | -51.7°C | 1.4% | 25.9hPa | 2.7V | 00:00:00 | 00:00:00 | 00:00:00 | |
| SP9KGR-15 | 2026-08-31 00:37:33 | 48.97795 | 21.06434 | 106° | 13km/h | 25226m | 6.1m/s | -52.1°C | 1.4% | 26.1hPa | 2.7V | 00:00:00 | 00:00:00 | 00:00:00 | |
| OE5DRO-10 | 2026-08-31 00:37:31 | 48.97796 | 21.06423 | 89° | 7km/h | 25215m | 4.4m/s | 0°C | 0% | 0hPa | 2.7V | 00:00:00 | 00:00:00 | 00:00:00 | |
| SQ9EZE-13 | 2026-08-31 00:37:27 | 48.97795 | 21.06412 | 70° | 4km/h | 25199m | 5.5m/s | -52.1°C | 1.4% | 26.2hPa | 2.7V | 00:00:00 | 00:00:00 | 00:00:00 | |
| SP9KGR-15 | 2026-08-31 00:37:16 | 48.97799 | 21.06389 | 72° | 9km/h | 25142m | 5.7m/s | -52.0°C | 1.4% | 26.4hPa | 2.7V | 00:00:00 | 00:00:00 | 00:00:00 | |
| OE5DRO-10 | 2026-08-31 00:37:14 | 48.97800 | 21.06379 | 168° | 9km/h | 25117m | 4.3m/s | 0°C | 0% | 0hPa | 2.7V | 00:00:00 | 00:00:00 | 00:00:00 | |
| SP9KGR-15 | 2026-08-31 00:37:00 | 48.97824 | 21.06368 | 173° | 13km/h | 25061m | 6.0m/s | -52.3°C | 1.4% | 26.8hPa | 2.7V | 00:00:00 | 00:00:00 | 00:00:00 | |
| SQ9EZE-13 | 2026-08-31 00:36:56 | 48.97834 | 21.06362 | 171° | 5km/h | 25040m | 5.4m/s | -52.7°C | 1.5% | 26.9hPa | 2.7V | 00:00:00 | 00:00:00 | 00:00:00 | |
| OE5DRO-10 | 2026-08-31 00:36:53 | 48.97840 | 21.06360 | 166° | 15km/h | 25019m | 4.9m/s | 0°C | 0% | 0hPa | 2.7V | 00:00:00 | 00:00:00 | 00:00:00 | |
| SP9KGR-15 | 2026-08-31 00:36:45 | 48.97862 | 21.06368 | 189° | 13km/h | 24976m | 4.8m/s | -52.7°C | 1.5% | 27.1hPa | 2.7V | 00:00:00 | 00:00:00 | 00:00:00 | |
| SQ9EZE-13 | 2026-08-31 00:36:42 | 48.97873 | 21.06372 | 194° | 16km/h | 24960m | 4.4m/s | -52.7°C | 1.4% | 27.2hPa | 2.7V | 00:00:00 | 00:00:00 | 00:00:00 | |
| GYPAP8-17 | 2026-08-31 00:36:40 | 48.97883 | 21.06373 | 178° | 20km/h | 24949m | 5.9m/s | -52.7°C | 1.5% | 27.2hPa | 2.7V | 00:00:00 | 00:00:00 | 00:00:00 | |
| OE5DRO-10 | 2026-08-31 00:36:34 | 48.97910 | 21.06374 | 189° | 15km/h | 24919m | 4.6m/s | 0°C | 0% | 0hPa | 2.7V | 00:00:00 | 00:00:00 | 00:00:00 | |
| LZ4TU-5 | 2026-08-31 00:36:31 | 48.97917 | 21.06373 | 164° | 15km/h | 24908m | 5.6m/s | 0°C | 0% | 0hPa | 2.7V | 00:00:00 | 00:00:00 | 00:00:00 | |
| SQ9EZE-14 | 2026-08-31 00:36:30 | 48.97921 | 21.06371 | 158° | 16km/h | 24903m | 4.6m/s | -52.8°C | 1.5% | 27.4hPa | 2.7V | 00:00:00 | 00:00:00 | 00:00:00 | |
| SP9KGR-15 | 2026-08-31 00:36:29 | 48.97924 | 21.06369 | 154° | 15km/h | 24898m | 5.3m/s | -52.8°C | 1.5% | 27.4hPa | 2.7V | 00:00:00 | 00:00:00 | 00:00:00 | |
| LZ4TU-5 | 2026-08-31 00:36:27 | 48.97930 | 21.06364 | 156° | 11km/h | 24887m | 4.7m/s | 0°C | 0% | 0hPa | 2.7V | 00:00:00 | 00:00:00 | 00:00:00 | |
| SQ9EZE-13 | 2026-08-31 00:36:25 | 48.97935 | 21.06360 | 152° | 15km/h | 24877m | 5.9m/s | -52.8°C | 1.5% | 27.5hPa | 2.7V | 00:00:00 | 00:00:00 | 00:00:00 | |
| LZ4TU-5 | 2026-08-31 00:36:23 | 48.97946 | 21.06351 | 159° | 16km/h | 24861m | 5.0m/s | 0°C | 0% | 0hPa | 2.7V | 00:00:00 | 00:00:00 | 00:00:00 | |
| LZ4TU-5 | 2026-08-31 00:36:17 | 48.97962 | 21.06347 | 163° | 15km/h | 24834m | 5.7m/s | 0°C | 0% | 0hPa | 2.7V | 00:00:00 | 00:00:00 | 00:00:00 | |
| HA6NAB-11 | 2026-08-31 00:36:16 | 48.97966 | 21.06345 | 162° | 16km/h | 24829m | 4.6m/s | -52.9°C | 1.5% | 27.8hPa | 2.7V | 00:00:00 | 00:00:00 | 00:00:00 | |
| OE5DRO-10 | 2026-08-31 00:36:15 | 48.97973 | 21.06341 | 160° | 20km/h | 24818m | 5.5m/s | 0°C | 0% | 0hPa | 2.7V | 00:00:00 | 00:00:00 | 00:00:00 | |
| SP9KGR-15 | 2026-08-31 00:36:13 | 48.97976 | 21.06339 | 158° | 13km/h | 24813m | 4.6m/s | -52.9°C | 1.4% | 27.8hPa | 2.7V | 00:00:00 | 00:00:00 | 00:00:00 | |
| HA6NAB-11 | 2026-08-31 00:36:11 | 48.97986 | 21.06328 | 137° | 20km/h | 24797m | 5.4m/s | -52.9°C | 1.4% | 27.9hPa | 2.7V | 00:00:00 | 00:00:00 | 00:00:00 | |
| HA6NAB-11 | 2026-08-31 00:36:05 | 48.98001 | 21.06305 | 152° | 15km/h | 24767m | 5.3m/s | -53.3°C | 1.5% | 28.0hPa | 2.7V | 00:00:00 | 00:00:00 | 00:00:00 | |
| SP9KGR-15 | 2026-08-31 00:35:58 | 48.98032 | 21.06285 | 145° | 20km/h | 24737m | 4.5m/s | -53.4°C | 1.5% | 28.1hPa | 2.7V | 00:00:00 | 00:00:00 | 00:00:00 | |
| SQ9EZE-13 | 2026-08-31 00:35:54 | 48.98045 | 21.06254 | 109° | 26km/h | 24716m | 4.2m/s | -53.4°C | 1.5% | 28.2hPa | 2.7V | 00:00:00 | 00:00:00 | 00:00:00 | |
| HA6NAB-11 | 2026-08-31 00:35:53 | 48.98048 | 21.06236 | 105° | 22km/h | 24705m | 5.6m/s | -53.3°C | 1.5% | 28.3hPa | 2.7V | 00:00:00 | 00:00:00 | 00:00:00 | |
| HA6NAB-11 | 2026-08-31 00:35:48 | 48.98061 | 21.06195 | 128° | 22km/h | 24680m | 3.7m/s | -53.3°C | 1.5% | 28.4hPa | 2.7V | 00:00:00 | 00:00:00 | 00:00:00 | |
| SP9KGR-15 | 2026-08-31 00:35:42 | 48.98070 | 21.06168 | 104° | 16km/h | 24653m | 5.7m/s | -53.2°C | 1.5% | 28.5hPa | 2.7V | 00:00:00 | 00:00:00 | 00:00:00 | |
| HA6NAB-11 | 2026-08-31 00:35:40 | 48.98071 | 21.06154 | 93° | 18km/h | 24643m | 4.1m/s | -53.2°C | 1.5% | 28.6hPa | 2.7V | 00:00:00 | 00:00:00 | 00:00:00 | |
| SQ9EZE-13 | 2026-08-31 00:35:39 | 48.98071 | 21.06142 | 81° | 15km/h | 24633m | 5.5m/s | -53.2°C | 1.5% | 28.6hPa | 2.7V | 00:00:00 | 00:00:00 | 00:00:00 | |
| HA6NAB-11 | 2026-08-31 00:35:34 | 48.98072 | 21.06118 | 116° | 20km/h | 24613m | 5.1m/s | -53.2°C | 1.5% | 28.7hPa | 2.7V | 00:00:00 | 00:00:00 | 00:00:00 | |
| HA6NAB-11 | 2026-08-31 00:35:29 | 48.98080 | 21.06092 | 84° | 9km/h | 24588m | 4.3m/s | -53.2°C | 1.5% | 28.8hPa | 2.7V | 00:00:00 | 00:00:00 | 00:00:00 | |
| SP9KGR-15 | 2026-08-31 00:35:27 | 48.98079 | 21.06084 | 86° | 13km/h | 24578m | 5.8m/s | -53.2°C | 1.5% | 28.8hPa | 2.7V | 00:00:00 | 00:00:00 | 00:00:00 | |
| HA6NAB-11 | 2026-08-31 00:35:23 | 48.98076 | 21.06060 | 70° | 18km/h | 24557m | 5.4m/s | -53.2°C | 1.5% | 28.9hPa | 2.7V | 00:00:00 | 00:00:00 | 00:00:00 | |
| GYPAP8-17 | 2026-08-31 00:35:21 | 48.98073 | 21.06046 | 86° | 18km/h | 24548m | 4.4m/s | -53.2°C | 1.5% | 29.0hPa | 2.7V | 00:00:00 | 00:00:00 | 00:00:00 | |
| HA6NAB-11 | 2026-08-31 00:35:17 | 48.98079 | 21.06021 | 126° | 15km/h | 24528m | 5.1m/s | -53.2°C | 1.5% | 29.1hPa | 2.7V | 00:00:00 | 00:00:00 | 00:00:00 | |
| SP9KGR-15 | 2026-08-31 00:35:11 | 48.98082 | 21.06001 | 71° | 13km/h | 24498m | 4.8m/s | -53.3°C | 1.5% | 29.2hPa | 2.7V | 00:00:00 | 00:00:00 | 00:00:00 | |
| HA6NAB-11 | 2026-08-31 00:35:10 | 48.98081 | 21.05996 | 59° | 15km/h | 24492m | 5.9m/s | -53.3°C | 1.5% | 29.2hPa | 2.7V | 00:00:00 | 00:00:00 | 00:00:00 | |
| SQ9EZE-13 | 2026-08-31 00:35:08 | 48.98076 | 21.05987 | 52° | 16km/h | 24482m | 4.2m/s | -53.3°C | 1.5% | 29.3hPa | 2.7V | 00:00:00 | 00:00:00 | 00:00:00 | |
| HA6NAB-11 | 2026-08-31 00:35:04 | 48.98072 | 21.05965 | 95° | 15km/h | 24462m | 4.3m/s | -53.3°C | 1.5% | 29.4hPa | 2.7V | 00:00:00 | 00:00:00 | 00:00:00 | |
| HA6NAB-11 | 2026-08-31 00:34:58 | 48.98069 | 21.05942 | 74° | 11km/h | 24432m | 5.1m/s | -53.3°C | 1.5% | 29.5hPa | 2.7V | 00:00:00 | 00:00:00 | 00:00:00 | |
| SP9KGR-15 | 2026-08-31 00:34:56 | 48.98066 | 21.05934 | 57° | 13km/h | 24421m | 5.3m/s | -53.3°C | 1.5% | 29.5hPa | 2.7V | 00:00:00 | 00:00:00 | 00:00:00 | |
| SQ9EZE-13 | 2026-08-31 00:34:52 | 48.98056 | 21.05921 | 46° | 15km/h | 24401m | 5.2m/s | -53.4°C | 1.5% | 29.7hPa | 2.7V | 00:00:00 | 00:00:00 | 00:00:00 | |
| SP9KGR-15 | 2026-08-31 00:34:40 | 48.98013 | 21.05874 | 8° | 20km/h | 24340m | 6.3m/s | -53.5°C | 1.5% | 29.9hPa | 2.7V | 00:00:00 | 00:00:00 | 00:00:00 | |
| SQ9EZE-13 | 2026-08-31 00:34:36 | 48.97995 | 21.05869 | 23° | 16km/h | 24319m | 4.7m/s | -53.4°C | 1.5% | 30.0hPa | 2.7V | 00:00:00 | 00:00:00 | 00:00:00 | |
| SQ9EZE-14 | 2026-08-31 00:34:29 | 48.97957 | 21.05853 | 15° | 22km/h | 24285m | 5.0m/s | -53.4°C | 1.5% | 30.2hPa | 2.7V | 00:00:00 | 00:00:00 | 00:00:00 | |
| OE5DRO-10 | 2026-08-31 00:34:28 | 48.97947 | 21.05850 | 9° | 18km/h | 24275m | 5.0m/s | 0°C | 0% | 0hPa | 2.7V | 00:00:00 | 00:00:00 | 00:00:00 | |
| SP9KGR-15 | 2026-08-31 00:34:24 | 48.97931 | 21.05848 | 5° | 20km/h | 24260m | 4.4m/s | -53.4°C | 1.5% | 30.3hPa | 2.7V | 00:00:00 | 00:00:00 | 00:00:00 | |
| SQ9EZE-13 | 2026-08-31 00:34:20 | 48.97911 | 21.05841 | 13° | 18km/h | 24235m | 5.7m/s | -53.5°C | 1.5% | 30.4hPa | 2.7V | 00:00:00 | 00:00:00 | 00:00:00 | |
| SQ9EZE-14 | 2026-08-31 00:34:14 | 48.97888 | 21.05844 | 345° | 15km/h | 24211m | 4.8m/s | -53.5°C | 1.5% | 30.5hPa | 2.7V | 00:00:00 | 00:00:00 | 00:00:00 | |
| OE5DRO-10 | 2026-08-31 00:34:09 | 48.97866 | 21.05848 | 355° | 13km/h | 24182m | 5.9m/s | 0°C | 0% | 0hPa | 2.7V | 00:00:00 | 00:00:00 | 00:00:00 | |
| GYPAP8-17 | 2026-08-31 00:34:06 | 48.97861 | 21.05849 | 353° | 11km/h | 24172m | 4.7m/s | -53.4°C | 1.5% | 30.7hPa | 2.7V | 00:00:00 | 00:00:00 | 00:00:00 | |
| SQ9EZE-13 | 2026-08-31 00:34:04 | 48.97854 | 21.05850 | 353° | 16km/h | 24161m | 5.1m/s | -53.4°C | 1.5% | 30.8hPa | 2.7V | 00:00:00 | 00:00:00 | 00:00:00 | |
| SP9KGR-15 | 2026-08-31 00:33:53 | 48.97821 | 21.05886 | 338° | 7km/h | 24106m | 4.5m/s | -53.3°C | 1.5% | 31.0hPa | 2.7V | 00:00:00 | 00:00:00 | 00:00:00 | |
| SQ9EZE-13 | 2026-08-31 00:33:49 | 48.97808 | 21.05892 | 337° | 20km/h | 24087m | 4.0m/s | -53.3°C | 1.5% | 31.1hPa | 2.7V | 00:00:00 | 00:00:00 | 00:00:00 | |
| OE5DRO-10 | 2026-08-31 00:33:46 | 48.97796 | 21.05911 | 283° | 13km/h | 24068m | 5.4m/s | 0°C | 0% | 0hPa | 2.7V | 00:00:00 | 00:00:00 | 00:00:00 | |
| SP9KGR-15 | 2026-08-31 00:33:38 | 48.97782 | 21.05934 | 355° | 13km/h | 24033m | 5.7m/s | -53.4°C | 1.5% | 31.4hPa | 2.7V | 00:00:00 | 00:00:00 | 00:00:00 | |
| SQ9EZE-13 | 2026-08-31 00:33:33 | 48.97767 | 21.05941 | 315° | 15km/h | 24009m | 4.7m/s | -53.5°C | 1.5% | 31.5hPa | 2.7V | 00:00:00 | 00:00:00 | 00:00:00 | |
| SP9KGR-15 | 2026-08-31 00:33:22 | 48.97763 | 21.05997 | 288° | 5km/h | 23953m | 4.7m/s | -53.4°C | 1.5% | 31.8hPa | 2.7V | 00:00:00 | 00:00:00 | 00:00:00 | |
| SQ9EZE-13 | 2026-08-31 00:33:18 | 48.97760 | 21.06011 | 282° | 13km/h | 23933m | 4.8m/s | -53.4°C | 1.5% | 31.9hPa | 2.7V | 00:00:00 | 00:00:00 | 00:00:00 | |
| SP9KGR-15 | 2026-08-31 00:33:05 | 48.97771 | 21.06051 | 197° | 4km/h | 23865m | 4.2m/s | -53.3°C | 1.5% | 32.2hPa | 2.7V | 00:00:00 | 00:00:00 | 00:00:00 | |
| SQ9EZE-13 | 2026-08-31 00:33:02 | 48.97775 | 21.06051 | 184° | 9km/h | 23850m | 5.1m/s | -53.2°C | 1.6% | 32.3hPa | 2.7V | 00:00:00 | 00:00:00 | 00:00:00 | |
| GYPAP8-17 | 2026-08-31 00:33:01 | 48.97778 | 21.06052 | 192° | 9km/h | 23845m | 4.7m/s | -53.1°C | 1.5% | 32.3hPa | 2.7V | 00:00:00 | 00:00:00 | 00:00:00 | |
| SP9KGR-15 | 2026-08-31 00:32:50 | 48.97798 | 21.06067 | 179° | 13km/h | 23786m | 6.3m/s | -52.9°C | 1.5% | 32.6hPa | 2.7V | 00:00:00 | 00:00:00 | 00:00:00 | |
| SQ9EZE-13 | 2026-08-31 00:32:47 | 48.97809 | 21.06066 | 183° | 13km/h | 23770m | 5.8m/s | -52.9°C | 1.5% | 32.7hPa | 2.7V | 00:00:00 | 00:00:00 | 00:00:00 | |
| SP9KGR-15 | 2026-08-31 00:32:35 | 48.97829 | 21.06050 | 161° | 15km/h | 23702m | 3.9m/s | -53.4°C | 1.5% | 33.0hPa | 2.7V | 00:00:00 | 00:00:00 | 00:00:00 | |
| SQ9EZE-13 | 2026-08-31 00:32:31 | 48.97837 | 21.06045 | 140° | 7km/h | 23687m | 4.9m/s | -53.4°C | 1.5% | 33.2hPa | 2.7V | 00:00:00 | 00:00:00 | 00:00:00 | |
| SP9KGR-15 | 2026-08-31 00:32:19 | 48.97847 | 21.06030 | 152° | 11km/h | 23625m | 5.2m/s | -53.8°C | 1.5% | 33.5hPa | 2.7V | 00:00:00 | 00:00:00 | 00:00:00 | |
| SQ9EZE-13 | 2026-08-31 00:32:15 | 48.97855 | 21.06023 | 164° | 7km/h | 23604m | 5.6m/s | -54.0°C | 1.6% | 33.6hPa | 2.7V | 00:00:00 | 00:00:00 | 00:00:00 | |
| SQ9EZE-14 | 2026-08-31 00:32:14 | 48.97856 | 21.06023 | 186° | 9km/h | 23599m | 5.2m/s | -54.0°C | 1.6% | 33.6hPa | 2.7V | 00:00:00 | 00:00:00 | 00:00:00 | |
| SP9KGR-15 | 2026-08-31 00:32:03 | 48.97877 | 21.06053 | 229° | 9km/h | 23542m | 4.7m/s | -54.0°C | 1.5% | 33.9hPa | 2.7V | 00:00:00 | 00:00:00 | 00:00:00 | |
| HA6NAB-11 | 2026-08-31 00:31:59 | 48.97885 | 21.06058 | 181° | 7km/h | 23522m | 4.5m/s | -54.0°C | 1.5% | 34.0hPa | 2.7V | 00:00:00 | 00:00:00 | 00:00:00 | |
| SQ9EZE-14 | 2026-08-31 00:31:58 | 48.97886 | 21.06058 | 182° | 5km/h | 23517m | 5.8m/s | -54.0°C | 1.5% | 34.0hPa | 2.7V | 00:00:00 | 00:00:00 | 00:00:00 | |
| HA6NAB-11 | 2026-08-31 00:31:54 | 48.97893 | 21.06059 | 188° | 11km/h | 23496m | 5.8m/s | -54.1°C | 1.5% | 34.1hPa | 2.7V | 00:00:00 | 00:00:00 | 00:00:00 | |
| HA6NAB-11 | 2026-08-31 00:31:49 | 48.97904 | 21.06061 | 190° | 5km/h | 23471m | 4.2m/s | -54.6°C | 1.5% | 34.3hPa | 2.7V | 00:00:00 | 00:00:00 | 00:00:00 | |
| SP9KGR-15 | 2026-08-31 00:31:47 | 48.97908 | 21.06062 | 192° | 7km/h | 23460m | 5.3m/s | -54.7°C | 1.5% | 34.3hPa | 2.7V | 00:00:00 | 00:00:00 | 00:00:00 | |
| SQ9EZE-13 | 2026-08-31 00:31:44 | 48.97912 | 21.06064 | 218° | 4km/h | 23445m | 5.0m/s | -55.0°C | 1.6% | 34.4hPa | 2.7V | 00:00:00 | 00:00:00 | 00:00:00 | |
| HA6NAB-11 | 2026-08-31 00:31:38 | 48.97927 | 21.06069 | 178° | 15km/h | 23415m | 5.7m/s | -55.6°C | 1.7% | 34.6hPa | 2.7V | 00:00:00 | 00:00:00 | 00:00:00 | |
| SP9KGR-15 | 2026-08-31 00:31:33 | 48.97951 | 21.06061 | 166° | 16km/h | 23385m | 4.8m/s | -55.5°C | 1.7% | 34.7hPa | 2.7V | 00:00:00 | 00:00:00 | 00:00:00 | |
| GYPAP8-17 | 2026-08-31 00:31:31 | 48.97955 | 21.06059 | 160° | 15km/h | 23380m | 6.2m/s | -55.5°C | 1.7% | 34.8hPa | 2.7V | 00:00:00 | 00:00:00 | 00:00:00 | |
| HA6NAB-11 | 2026-08-31 00:31:27 | 48.97966 | 21.06048 | 144° | 16km/h | 23359m | 4.8m/s | -55.4°C | 1.7% | 34.9hPa | 2.7V | 00:00:00 | 00:00:00 | 00:00:00 | |
| SP9KGR-15 | 2026-08-31 00:31:16 | 48.97985 | 21.06009 | 119° | 7km/h | 23306m | 5.4m/s | -55.3°C | 1.7% | 35.2hPa | 2.7V | 00:00:00 | 00:00:00 | 00:00:00 | |
| SQ9EZE-13 | 2026-08-31 00:31:13 | 48.97985 | 21.05998 | 96° | 11km/h | 23291m | 5.1m/s | -55.2°C | 1.7% | 35.2hPa | 2.7V | 00:00:00 | 00:00:00 | 00:00:00 | |
| SP9KGR-15 | 2026-08-31 00:31:01 | 48.97983 | 21.05940 | 72° | 16km/h | 23230m | 5.0m/s | -54.9°C | 1.6% | 35.6hPa | 2.7V | 00:00:00 | 00:00:00 | 00:00:00 | |
| SQ9EZE-13 | 2026-08-31 00:30:57 | 48.97978 | 21.05918 | 73° | 13km/h | 23210m | 3.9m/s | -55.0°C | 1.6% | 35.7hPa | 2.7V | 00:00:00 | 00:00:00 | 00:00:00 | |
| SP9KGR-15 | 2026-08-31 00:30:46 | 48.97953 | 21.05868 | 48° | 18km/h | 23155m | 4.0m/s | -55.3°C | 1.7% | 36.0hPa | 2.7V | 00:00:00 | 00:00:00 | 00:00:00 | |
| SQ9EZE-13 | 2026-08-31 00:30:41 | 48.97937 | 21.05844 | 39° | 22km/h | 23131m | 5.6m/s | -55.2°C | 1.7% | 36.1hPa | 2.7V | 00:00:00 | 00:00:00 | 00:00:00 | |
| SP9KGR-15 | 2026-08-31 00:30:31 | 48.97891 | 21.05825 | 12° | 16km/h | 23080m | 5.6m/s | -55.1°C | 1.7% | 36.4hPa | 2.7V | 00:00:00 | 00:00:00 | 00:00:00 | |
| SQ9EZE-13 | 2026-08-31 00:30:26 | 48.97875 | 21.05819 | 30° | 16km/h | 23060m | 5.3m/s | -55.2°C | 1.7% | 36.5hPa | 2.7V | 00:00:00 | 00:00:00 | 00:00:00 | |
| SP9KGR-15 | 2026-08-31 00:30:16 | 48.97845 | 21.05812 | 358° | 16km/h | 23009m | 5.4m/s | -55.1°C | 1.6% | 36.8hPa | 2.7V | 00:00:00 | 00:00:00 | 00:00:00 | |
| SQ9EZE-13 | 2026-08-31 00:30:11 | 48.97831 | 21.05817 | 350° | 9km/h | 22989m | 5.7m/s | -55.1°C | 1.6% | 36.9hPa | 2.7V | 00:00:00 | 00:00:00 | 00:00:00 | |
| SP9KGR-15 | 2026-08-31 00:30:00 | 48.97806 | 21.05840 | 319° | 20km/h | 22935m | 4.8m/s | -54.9°C | 1.6% | 37.3hPa | 2.7V | 00:00:00 | 00:00:00 | 00:00:00 | |
| GYPAP8-17 | 2026-08-31 00:29:57 | 48.97795 | 21.05854 | 323° | 16km/h | 22921m | 4.7m/s | -54.9°C | 1.6% | 37.3hPa | 2.7V | 00:00:00 | 00:00:00 | 00:00:00 | |
| SQ9EZE-13 | 2026-08-31 00:29:55 | 48.97790 | 21.05861 | 315° | 13km/h | 22912m | 5.0m/s | -55.0°C | 1.6% | 37.4hPa | 2.7V | 00:00:00 | 00:00:00 | 00:00:00 | |
| SP9KGR-15 | 2026-08-31 00:29:45 | 48.97768 | 21.05898 | 305° | 18km/h | 22858m | 5.7m/s | -55.2°C | 1.7% | 37.7hPa | 2.7V | 00:00:00 | 00:00:00 | 00:00:00 | |
| HA6NAB-11 | 2026-08-31 00:29:42 | 48.97763 | 21.05910 | 303° | 18km/h | 22848m | 4.2m/s | -55.2°C | 1.7% | 37.8hPa | 2.7V | 00:00:00 | 00:00:00 | 00:00:00 | |
| SQ9EZE-14 | 2026-08-31 00:29:41 | 48.97761 | 21.05916 | 294° | 18km/h | 22844m | 4.6m/s | -55.2°C | 1.7% | 37.8hPa | 2.7V | 00:00:00 | 00:00:00 | 00:00:00 | |
| SQ9EZE-13 | 2026-08-31 00:29:39 | 48.97759 | 21.05930 | 275° | 18km/h | 22833m | 4.4m/s | -55.1°C | 1.7% | 37.9hPa | 2.7V | 00:00:00 | 00:00:00 | 00:00:00 | |
| HA6NAB-11 | 2026-08-31 00:29:37 | 48.97759 | 21.05940 | 261° | 9km/h | 22824m | 5.8m/s | -55.0°C | 1.7% | 37.9hPa | 2.7V | 00:00:00 | 00:00:00 | 00:00:00 | |
| HA6NAB-11 | 2026-08-31 00:29:32 | 48.97764 | 21.05950 | 244° | 7km/h | 22798m | 4.1m/s | -54.7°C | 1.6% | 38.1hPa | 2.7V | 00:00:00 | 00:00:00 | 00:00:00 | |
| SP9KGR-15 | 2026-08-31 00:29:29 | 48.97764 | 21.05960 | 282° | 11km/h | 22783m | 4.7m/s | -54.6°C | 1.6% | 38.1hPa | 2.7V | 00:00:00 | 00:00:00 | 00:00:00 | |
| SQ9EZE-14 | 2026-08-31 00:29:26 | 48.97764 | 21.05976 | 259° | 18km/h | 22769m | 5.4m/s | -54.6°C | 1.6% | 38.2hPa | 2.7V | 00:00:00 | 00:00:00 | 00:00:00 | |
| SQ9EZE-13 | 2026-08-31 00:29:22 | 48.97771 | 21.05997 | 229° | 11km/h | 22749m | 4.2m/s | -54.6°C | 1.7% | 38.4hPa | 2.7V | 00:00:00 | 00:00:00 | 00:00:00 | |
| HA6NAB-11 | 2026-08-31 00:29:20 | 48.97775 | 21.06002 | 225° | 9km/h | 22740m | 5.7m/s | -54.6°C | 1.6% | 38.4hPa | 2.7V | 00:00:00 | 00:00:00 | 00:00:00 | |
| HA6NAB-11 | 2026-08-31 00:29:14 | 48.97776 | 21.06017 | 278° | 9km/h | 22709m | 4.5m/s | -54.5°C | 1.6% | 38.6hPa | 2.7V | 00:00:00 | 00:00:00 | 00:00:00 | |
| SP9KGR-15 | 2026-08-31 00:29:13 | 48.97776 | 21.06021 | 264° | 13km/h | 22704m | 5.9m/s | -54.5°C | 1.6% | 38.6hPa | 2.7V | 00:00:00 | 00:00:00 | 00:00:00 | |
| HA6NAB-11 | 2026-08-31 00:29:08 | 48.97783 | 21.06045 | 235° | 9km/h | 22679m | 4.2m/s | -54.4°C | 1.6% | 38.8hPa | 2.7V | 00:00:00 | 00:00:00 | 00:00:00 | |
| SQ9EZE-13 | 2026-08-31 00:29:07 | 48.97784 | 21.06048 | 234° | 9km/h | 22675m | 4.7m/s | -54.4°C | 1.6% | 38.8hPa | 2.7V | 00:00:00 | 00:00:00 | 00:00:00 | |
| HA6NAB-11 | 2026-08-31 00:29:03 | 48.97788 | 21.06057 | 247° | 4km/h | 22654m | 5.7m/s | -54.3°C | 1.6% | 38.9hPa | 2.7V | 00:00:00 | 00:00:00 | 00:00:00 | |
| SP9KGR-15 | 2026-08-31 00:28:58 | 48.97793 | 21.06070 | 230° | 15km/h | 22631m | 4.2m/s | -54.2°C | 1.6% | 39.1hPa | 2.7V | 00:00:00 | 00:00:00 | 00:00:00 | |
| HA6NAB-11 | 2026-08-31 00:28:57 | 48.97796 | 21.06074 | 221° | 15km/h | 22627m | 5.1m/s | -54.2°C | 1.6% | 39.1hPa | 2.7V | 00:00:00 | 00:00:00 | 00:00:00 | |
| HA6NAB-11 | 2026-08-31 00:28:51 | 48.97819 | 21.06088 | 197° | 15km/h | 22597m | 4.2m/s | -54.2°C | 1.6% | 39.3hPa | 2.7V | 00:00:00 | 00:00:00 | 00:00:00 | |
| SQ9EZE-13 | 2026-08-31 00:28:50 | 48.97823 | 21.06089 | 188° | 13km/h | 22593m | 5.3m/s | -54.1°C | 1.6% | 39.3hPa | 2.7V | 00:00:00 | 00:00:00 | 00:00:00 | |
| GYPAP8-17 | 2026-08-31 00:28:45 | 48.97832 | 21.06092 | 231° | 9km/h | 22568m | 4.6m/s | -54.2°C | 1.6% | 39.5hPa | 2.7V | 00:00:00 | 00:00:00 | 00:00:00 | |
| SP9KGR-15 | 2026-08-31 00:28:42 | 48.97836 | 21.06100 | 220° | 7km/h | 22554m | 5.0m/s | -54.2°C | 1.6% | 39.5hPa | 2.7V | 00:00:00 | 00:00:00 | 00:00:00 | |
| SQ9EZE-13 | 2026-08-31 00:28:33 | 48.97866 | 21.06103 | 170° | 16km/h | 22510m | 5.4m/s | -54.1°C | 1.6% | 39.8hPa | 2.7V | 00:00:00 | 00:00:00 | 00:00:00 | |
| SP9KGR-15 | 2026-08-31 00:28:26 | 48.97880 | 21.06101 | 175° | 5km/h | 22475m | 5.8m/s | -54.0°C | 1.6% | 40.0hPa | 2.7V | 00:00:00 | 00:00:00 | 00:00:00 | |
| SQ9EZE-13 | 2026-08-31 00:28:18 | 48.97900 | 21.06091 | 164° | 11km/h | 22436m | 4.5m/s | -54.0°C | 1.6% | 40.3hPa | 2.7V | 00:00:00 | 00:00:00 | 00:00:00 | |
| SP9KGR-15 | 2026-08-31 00:28:11 | 48.97906 | 21.06079 | 0° | 0km/h | 22401m | 4.9m/s | -54.0°C | 1.5% | 40.5hPa | 2.7V | 00:00:00 | 00:00:00 | 00:00:00 | |
| SQ9EZE-13 | 2026-08-31 00:28:05 | 48.97910 | 21.06065 | 88° | 7km/h | 22362m | 4.9m/s | -54.4°C | 1.6% | 40.8hPa | 2.7V | 00:00:00 | 00:00:00 | 00:00:00 | |
| SP9KGR-15 | 2026-08-31 00:27:40 | 48.97856 | 21.06028 | 9° | 7km/h | 22249m | 5.1m/s | -54.4°C | 1.6% | 41.5hPa | 2.7V | 00:00:00 | 00:00:00 | 00:00:00 | |
| GYPAP8-17 | 2026-08-31 00:27:35 | 48.97845 | 21.06032 | 10° | 9km/h | 22221m | 4.0m/s | -54.6°C | 1.6% | 41.6hPa | 2.7V | 00:00:00 | 00:00:00 | 00:00:00 | |
| SQ9EZE-13 | 2026-08-31 00:27:32 | 48.97841 | 21.06031 | 361° | 4km/h | 22211m | 4.7m/s | -54.7°C | 1.6% | 41.7hPa | 2.7V | 00:00:00 | 00:00:00 | 00:00:00 | |
| SP9KGR-15 | 2026-08-31 00:27:25 | 48.97832 | 21.06018 | 17° | 9km/h | 22178m | 5.3m/s | -54.7°C | 1.6% | 41.9hPa | 2.7V | 00:00:00 | 00:00:00 | 00:00:00 | |
| SQ9EZE-13 | 2026-08-31 00:27:17 | 48.97805 | 21.06026 | 347° | 7km/h | 22141m | 4.1m/s | -54.6°C | 1.6% | 42.2hPa | 2.7V | 00:00:00 | 00:00:00 | 00:00:00 | |
| SP9KGR-15 | 2026-08-31 00:27:10 | 48.97783 | 21.06024 | 331° | 16km/h | 22108m | 4.6m/s | -54.7°C | 1.6% | 42.4hPa | 2.7V | 00:00:00 | 00:00:00 | 00:00:00 | |
| SQ9EZE-13 | 2026-08-31 00:27:02 | 48.97744 | 21.06039 | 7° | 11km/h | 22068m | 3.8m/s | -55.2°C | 1.7% | 42.6hPa | 2.7V | 00:00:00 | 00:00:00 | 00:00:00 | |
| HA6NAB-11 | 2026-08-31 00:27:00 | 48.97741 | 21.06039 | 10° | 13km/h | 22064m | 4.6m/s | -55.2°C | 1.7% | 42.7hPa | 2.7V | 00:00:00 | 00:00:00 | 00:00:00 | |
| HA6NAB-11 | 2026-08-31 00:26:54 | 48.97720 | 21.06038 | 333° | 13km/h | 22036m | 4.2m/s | -55.2°C | 1.7% | 42.9hPa | 2.7V | 00:00:00 | 00:00:00 | 00:00:00 | |
| SQ9EZE-14 | 2026-08-31 00:26:53 | 48.97717 | 21.06041 | 326° | 15km/h | 22032m | 4.6m/s | -55.2°C | 1.7% | 42.9hPa | 2.7V | 00:00:00 | 00:00:00 | 00:00:00 | |
| HA6NAB-11 | 2026-08-31 00:26:48 | 48.97701 | 21.06063 | 304° | 15km/h | 22008m | 5.5m/s | -55.2°C | 1.6% | 43.1hPa | 2.7V | 00:00:00 | 00:00:00 | 00:00:00 | |
| SQ9EZE-13 | 2026-08-31 00:26:46 | 48.97697 | 21.06071 | 303° | 11km/h | 21999m | 4.4m/s | -55.2°C | 1.7% | 43.1hPa | 2.7V | 00:00:00 | 00:00:00 | 00:00:00 | |
| HA6NAB-11 | 2026-08-31 00:26:43 | 48.97692 | 21.06080 | 321° | 9km/h | 21985m | 3.5m/s | -55.2°C | 1.6% | 43.2hPa | 2.7V | 00:00:00 | 00:00:00 | 00:00:00 | |
| SP9KGR-15 | 2026-08-31 00:26:39 | 48.97688 | 21.06090 | 304° | 7km/h | 21967m | 4.5m/s | -55.2°C | 1.7% | 43.3hPa | 2.7V | 00:00:00 | 00:00:00 | 00:00:00 | |
| SQ9EZE-14 | 2026-08-31 00:26:38 | 48.97686 | 21.06092 | 314° | 9km/h | 21962m | 5.3m/s | -55.2°C | 1.6% | 43.3hPa | 2.7V | 00:00:00 | 00:00:00 | 00:00:00 | |
| HA6NAB-11 | 2026-08-31 00:26:32 | 48.97677 | 21.06116 | 280° | 13km/h | 21935m | 4.2m/s | -55.3°C | 1.7% | 43.5hPa | 2.7V | 00:00:00 | 00:00:00 | 00:00:00 | |
| GYPAP8-17 | 2026-08-31 00:26:29 | 48.97675 | 21.06131 | 281° | 11km/h | 21921m | 4.2m/s | -55.3°C | 1.7% | 43.6hPa | 2.7V | 00:00:00 | 00:00:00 | 00:00:00 | |
| SP9KGR-15 | 2026-08-31 00:26:24 | 48.97680 | 21.06148 | 250° | 9km/h | 21897m | 5.4m/s | -55.3°C | 1.7% | 43.8hPa | 2.7V | 00:00:00 | 00:00:00 | 00:00:00 | |
| SQ9EZE-13 | 2026-08-31 00:26:15 | 48.97687 | 21.06184 | 241° | 11km/h | 21853m | 5.6m/s | -55.4°C | 1.7% | 44.1hPa | 2.7V | 00:00:00 | 00:00:00 | 00:00:00 | |
| SP9KGR-15 | 2026-08-31 00:26:08 | 48.97701 | 21.06201 | 214° | 9km/h | 21819m | 5.1m/s | -55.5°C | 1.7% | 44.4hPa | 2.7V | 00:00:00 | 00:00:00 | 00:00:00 | |
| SQ9EZE-13 | 2026-08-31 00:26:00 | 48.97705 | 21.06229 | 228° | 13km/h | 21783m | 4.0m/s | -55.9°C | 1.7% | 44.6hPa | 2.7V | 00:00:00 | 00:00:00 | 00:00:00 | |
| SP9KGR-15 | 2026-08-31 00:25:53 | 48.97719 | 21.06240 | 213° | 13km/h | 21750m | 4.9m/s | -55.8°C | 1.7% | 44.8hPa | 2.7V | 00:00:00 | 00:00:00 | 00:00:00 | |
| SQ9EZE-13 | 2026-08-31 00:25:44 | 48.97731 | 21.06246 | 100° | 7km/h | 21708m | 5.2m/s | -56.0°C | 1.8% | 45.1hPa | 2.7V | 00:00:00 | 00:00:00 | 00:00:00 | |
| SP9KGR-15 | 2026-08-31 00:25:37 | 48.97747 | 21.06239 | 193° | 13km/h | 21675m | 5.0m/s | -55.9°C | 1.8% | 45.3hPa | 2.7V | 00:00:00 | 00:00:00 | 00:00:00 | |
| SQ9EZE-13 | 2026-08-31 00:25:28 | 48.97771 | 21.06246 | 186° | 11km/h | 21632m | 5.3m/s | -55.7°C | 1.7% | 45.7hPa | 2.7V | 00:00:00 | 00:00:00 | 00:00:00 | |
| SP9KGR-15 | 2026-08-31 00:25:21 | 48.97797 | 21.06259 | 192° | 22km/h | 21598m | 5.7m/s | -55.6°C | 1.7% | 45.9hPa | 2.7V | 00:00:00 | 00:00:00 | 00:00:00 | |
| SQ9EZE-13 | 2026-08-31 00:25:12 | 48.97839 | 21.06254 | 173° | 18km/h | 21557m | 4.1m/s | -55.3°C | 1.7% | 46.2hPa | 2.7V | 00:00:00 | 00:00:00 | 00:00:00 | |
| SP9KGR-15 | 2026-08-31 00:25:06 | 48.97868 | 21.06239 | 163° | 16km/h | 21524m | 4.2m/s | -55.2°C | 1.7% | 46.4hPa | 2.7V | 00:00:00 | 00:00:00 | 00:00:00 | |
| SQ9EZE-13 | 2026-08-31 00:24:55 | 48.97915 | 21.06211 | 162° | 18km/h | 21476m | 4.9m/s | -54.8°C | 1.6% | 46.8hPa | 2.7V | 00:00:00 | 00:00:00 | 00:00:00 | |
| SP9KGR-15 | 2026-08-31 00:24:50 | 48.97934 | 21.06201 | 153° | 16km/h | 21451m | 4.2m/s | -54.7°C | 1.6% | 47.0hPa | 2.7V | 00:00:00 | 00:00:00 | 00:00:00 | |
| SQ9EZE-14 | 2026-08-31 00:24:44 | 48.97960 | 21.06188 | 159° | 20km/h | 21423m | 4.7m/s | -54.6°C | 1.6% | 47.2hPa | 2.7V | 00:00:00 | 00:00:00 | 00:00:00 | |
| SQ9EZE-13 | 2026-08-31 00:24:40 | 48.97979 | 21.06182 | 178° | 16km/h | 21405m | 3.5m/s | -54.7°C | 1.6% | 47.3hPa | 2.7V | 00:00:00 | 00:00:00 | 00:00:00 | |
| SP9KGR-15 | 2026-08-31 00:24:34 | 48.97998 | 21.06169 | 158° | 13km/h | 21378m | 5.3m/s | -54.7°C | 1.6% | 47.5hPa | 2.7V | 00:00:00 | 00:00:00 | 00:00:00 | |
| SQ9EZE-14 | 2026-08-31 00:24:29 | 48.98016 | 21.06157 | 148° | 18km/h | 21355m | 4.5m/s | -54.8°C | 1.7% | 47.7hPa | 2.7V | 00:00:00 | 00:00:00 | 00:00:00 | |
| SQ9EZE-13 | 2026-08-31 00:24:25 | 48.98030 | 21.06145 | 154° | 13km/h | 21337m | 4.1m/s | -54.8°C | 1.7% | 47.8hPa | 2.7V | 00:00:00 | 00:00:00 | 00:00:00 | |
| GYPAP8-17 | 2026-08-31 00:24:24 | 48.98033 | 21.06143 | 145° | 11km/h | 21332m | 5.5m/s | -54.8°C | 1.7% | 47.9hPa | 2.7V | 00:00:00 | 00:00:00 | 00:00:00 | |
| SP9KGR-15 | 2026-08-31 00:24:19 | 48.98038 | 21.06134 | 151° | 5km/h | 21309m | 4.0m/s | -54.8°C | 1.6% | 48.0hPa | 2.7V | 00:00:00 | 00:00:00 | 00:00:00 | |
| SQ9EZE-14 | 2026-08-31 00:24:14 | 48.98050 | 21.06119 | 149° | 16km/h | 21284m | 5.3m/s | -54.8°C | 1.7% | 48.2hPa | 2.7V | 00:00:00 | 00:00:00 | 00:00:00 | |
| SP9KGR-15 | 2026-08-31 00:24:03 | 48.98072 | 21.06108 | 142° | 9km/h | 21235m | 4.6m/s | -54.9°C | 1.7% | 48.6hPa | 2.7V | 00:00:00 | 00:00:00 | 00:00:00 | |
| SQ9EZE-13 | 2026-08-31 00:23:58 | 48.98087 | 21.06103 | 189° | 15km/h | 21211m | 4.5m/s | -54.9°C | 1.6% | 48.8hPa | 2.7V | 00:00:00 | 00:00:00 | 00:00:00 | |
| SP9KGR-15 | 2026-08-31 00:23:47 | 48.98099 | 21.06125 | 229° | 9km/h | 21159m | 5.5m/s | -55.0°C | 1.7% | 49.2hPa | 2.7V | 00:00:00 | 00:00:00 | 00:00:00 | |
| SQ9EZE-13 | 2026-08-31 00:23:37 | 48.98123 | 21.06137 | 257° | 5km/h | 21112m | 5.6m/s | -55.1°C | 1.7% | 49.5hPa | 2.7V | 00:00:00 | 00:00:00 | 00:00:00 | |
| HA6NAB-11 | 2026-08-31 00:23:34 | 48.98124 | 21.06140 | 238° | 4km/h | 21098m | 4.7m/s | -55.1°C | 1.7% | 49.6hPa | 2.7V | 00:00:00 | 00:00:00 | 00:00:00 | |
| SP9KGR-15 | 2026-08-31 00:23:31 | 48.98129 | 21.06142 | 172° | 11km/h | 21084m | 4.4m/s | -55.1°C | 1.7% | 49.8hPa | 2.7V | 00:00:00 | 00:00:00 | 00:00:00 | |
| HA6NAB-11 | 2026-08-31 00:23:28 | 48.98136 | 21.06136 | 150° | 13km/h | 21069m | 4.1m/s | -55.0°C | 1.7% | 49.9hPa | 2.7V | 00:00:00 | 00:00:00 | 00:00:00 | |
| HA6NAB-11 | 2026-08-31 00:23:23 | 48.98145 | 21.06125 | 70° | 7km/h | 21045m | 5.4m/s | -55.1°C | 1.7% | 50.1hPa | 2.7V | 00:00:00 | 00:00:00 | 00:00:00 | |
| SQ9EZE-13 | 2026-08-31 00:23:22 | 48.98143 | 21.06123 | 48° | 7km/h | 21040m | 4.7m/s | -55.1°C | 1.7% | 50.1hPa | 2.7V | 00:00:00 | 00:00:00 | 00:00:00 | |
| HA6NAB-11 | 2026-08-31 00:23:18 | 48.98141 | 21.06119 | 134° | 5km/h | 21021m | 4.4m/s | -55.2°C | 1.7% | 50.2hPa | 2.7V | 00:00:00 | 00:00:00 | 00:00:00 | |
| SP9KGR-15 | 2026-08-31 00:23:16 | 48.98143 | 21.06115 | 117° | 7km/h | 21012m | 4.3m/s | -55.2°C | 1.7% | 50.3hPa | 2.7V | 00:00:00 | 00:00:00 | 00:00:00 | |
| HA6NAB-11 | 2026-08-31 00:23:13 | 48.98145 | 21.06108 | 127° | 4km/h | 20999m | 4.5m/s | -55.2°C | 1.7% | 50.4hPa | 2.7V | 00:00:00 | 00:00:00 | 00:00:00 | |
| HA6NAB-11 | 2026-08-31 00:23:07 | 48.98145 | 21.06105 | 21° | 7km/h | 20970m | 4.5m/s | -55.0°C | 1.7% | 50.7hPa | 2.7V | 00:00:00 | 00:00:00 | 00:00:00 | |
| SQ9EZE-13 | 2026-08-31 00:23:06 | 48.98143 | 21.06104 | 15° | 7km/h | 20966m | 4.5m/s | -55.0°C | 1.7% | 50.7hPa | 2.7V | 00:00:00 | 00:00:00 | 00:00:00 | |
| SQ9EZE-15 | 2026-08-31 00:23:04 | 48.98140 | 21.06104 | 344° | 5km/h | 20956m | 4.1m/s | -54.9°C | 1.7% | 50.8hPa | 2.7V | 00:00:00 | 00:00:00 | 00:00:00 | |
| SP9KGR-15 | 2026-08-31 00:23:00 | 48.98132 | 21.06106 | 6° | 9km/h | 20938m | 4.0m/s | -54.9°C | 1.7% | 50.9hPa | 2.7V | 00:00:00 | 00:00:00 | 00:00:00 | |
| SQ9EZE-13 | 2026-08-31 00:22:50 | 48.98123 | 21.06083 | 46° | 9km/h | 20892m | 4.5m/s | -54.6°C | 1.7% | 51.3hPa | 2.7V | 00:00:00 | 00:00:00 | 00:00:00 | |
| SP9KGR-15 | 2026-08-31 00:22:44 | 48.98108 | 21.06069 | 57° | 9km/h | 20864m | 5.1m/s | -54.6°C | 1.7% | 51.5hPa | 2.7V | 00:00:00 | 00:00:00 | 00:00:00 | |
| SQ9EZE-15 | 2026-08-31 00:22:43 | 48.98107 | 21.06065 | 79° | 9km/h | 20859m | 4.0m/s | -54.6°C | 1.7% | 51.5hPa | 2.7V | 00:00:00 | 00:00:00 | 00:00:00 | |
| SQ9EZE-13 | 2026-08-31 00:22:34 | 48.98096 | 21.06027 | 37° | 9km/h | 20818m | 4.8m/s | -54.4°C | 1.6% | 51.9hPa | 2.7V | 00:00:00 | 00:00:00 | 00:00:00 | |
| SP9KGR-15 | 2026-08-31 00:22:29 | 48.98085 | 21.06018 | 41° | 7km/h | 20793m | 4.4m/s | -54.4°C | 1.6% | 52.1hPa | 2.7V | 00:00:00 | 00:00:00 | 00:00:00 | |
| SQ9EZE-15 | 2026-08-31 00:22:23 | 48.98073 | 21.06002 | 40° | 11km/h | 20765m | 4.1m/s | -54.4°C | 1.6% | 52.3hPa | 2.7V | 00:00:00 | 00:00:00 | 00:00:00 | |
| GYPAP8-17 | 2026-08-31 00:22:18 | 48.98058 | 21.05989 | 28° | 15km/h | 20743m | 4.5m/s | -54.6°C | 1.7% | 52.5hPa | 2.7V | 00:00:00 | 00:00:00 | 00:00:00 | |
| SQ9EZE-14 | 2026-08-31 00:22:14 | 48.98049 | 21.05976 | 52° | 15km/h | 20725m | 4.7m/s | -54.9°C | 1.7% | 52.6hPa | 2.7V | 00:00:00 | 00:00:00 | 00:00:00 | |
| SP9KGR-15 | 2026-08-31 00:22:12 | 48.98043 | 21.05966 | 43° | 20km/h | 20716m | 4.5m/s | -54.9°C | 1.7% | 52.7hPa | 2.7V | 00:00:00 | 00:00:00 | 00:00:00 | |
| SQ9EZE-13 | 2026-08-31 00:22:02 | 48.97998 | 21.05934 | 27° | 16km/h | 20670m | 5.0m/s | -55.0°C | 1.7% | 53.1hPa | 2.7V | 00:00:00 | 00:00:00 | 00:00:00 | |
| SQ9EZE-14 | 2026-08-31 00:21:58 | 48.97984 | 21.05923 | 26° | 15km/h | 20651m | 3.5m/s | -54.9°C | 1.7% | 53.2hPa | 2.7V | 00:00:00 | 00:00:00 | 00:00:00 | |
| SP9KGR-15 | 2026-08-31 00:21:57 | 48.97978 | 21.05920 | 7° | 9km/h | 20643m | 5.3m/s | -54.9°C | 1.7% | 53.3hPa | 2.7V | 00:00:00 | 00:00:00 | 00:00:00 | |
| SQ9EZE-13 | 2026-08-31 00:21:46 | 48.97945 | 21.05934 | 357° | 18km/h | 20595m | 4.9m/s | -54.7°C | 1.7% | 53.7hPa | 2.7V | 00:00:00 | 00:00:00 | 00:00:00 | |
| SP9KGR-15 | 2026-08-31 00:21:41 | 48.97928 | 21.05939 | 332° | 11km/h | 20572m | 4.3m/s | -54.6°C | 1.7% | 53.9hPa | 2.7V | 00:00:00 | 00:00:00 | 00:00:00 | |
| SQ9EZE-13 | 2026-08-31 00:21:31 | 48.97899 | 21.05969 | 321° | 20km/h | 20526m | 5.2m/s | -54.6°C | 1.7% | 54.3hPa | 2.7V | 00:00:00 | 00:00:00 | 00:00:00 | |
| SP9KGR-15 | 2026-08-31 00:21:26 | 48.97880 | 21.05995 | 322° | 18km/h | 20502m | 4.2m/s | -54.6°C | 1.7% | 54.5hPa | 2.7V | 00:00:00 | 00:00:00 | 00:00:00 | |
| SQ9EZE-13 | 2026-08-31 00:21:15 | 48.97868 | 21.06042 | 329° | 7km/h | 20453m | 4.4m/s | -54.7°C | 1.6% | 54.9hPa | 2.7V | 00:00:00 | 00:00:00 | 00:00:00 | |
| SP9KGR-15 | 2026-08-31 00:21:10 | 48.97858 | 21.06046 | 319° | 4km/h | 20429m | 4.8m/s | -54.7°C | 1.7% | 55.1hPa | 2.7V | 00:00:00 | 00:00:00 | 00:00:00 | |
| HA6NAB-11 | 2026-08-31 00:21:03 | 48.97854 | 21.06046 | 94° | 5km/h | 20394m | 4.7m/s | -54.8°C | 1.7% | 55.4hPa | 2.7V | 00:00:00 | 00:00:00 | 00:00:00 | |
| SQ9EZE-13 | 2026-08-31 00:20:59 | 48.97854 | 21.06040 | 63° | 5km/h | 20382m | 4.5m/s | -54.9°C | 1.6% | 55.5hPa | 2.7V | 00:00:00 | 00:00:00 | 00:00:00 | |
| HA6NAB-11 | 2026-08-31 00:20:56 | 48.97849 | 21.06032 | 45° | 11km/h | 20369m | 4.0m/s | -54.9°C | 1.7% | 55.6hPa | 2.7V | 00:00:00 | 00:00:00 | 00:00:00 | |
| SP9KGR-15 | 2026-08-31 00:20:55 | 48.97847 | 21.06030 | 54° | 11km/h | 20365m | 4.9m/s | -54.9°C | 1.7% | 55.7hPa | 2.7V | 00:00:00 | 00:00:00 | 00:00:00 | |
| HA6NAB-11 | 2026-08-31 00:20:51 | 48.97842 | 21.06019 | 16° | 7km/h | 20348m | 5.0m/s | -55.1°C | 1.7% | 55.8hPa | 2.7V | 00:00:00 | 00:00:00 | 00:00:00 | |
| GYPAP8-17 | 2026-08-31 00:20:46 | 48.97834 | 21.06032 | 287° | 11km/h | 20324m | 3.8m/s | -55.2°C | 1.7% | 56.0hPa | 2.7V | 00:00:00 | 00:00:00 | 00:00:00 | |
| HA6NAB-11 | 2026-08-31 00:20:45 | 48.97833 | 21.06036 | 295° | 11km/h | 20320m | 3.9m/s | -55.2°C | 1.7% | 56.1hPa | 2.7V | 00:00:00 | 00:00:00 | 00:00:00 | |
| SQ9EZE-13 | 2026-08-31 00:20:44 | 48.97832 | 21.06039 | 308° | 11km/h | 20316m | 4.8m/s | -55.2°C | 1.7% | 56.1hPa | 2.7V | 00:00:00 | 00:00:00 | 00:00:00 | |
| HA6NAB-11 | 2026-08-31 00:20:40 | 48.97824 | 21.06044 | 24° | 7km/h | 20297m | 3.8m/s | -55.2°C | 1.7% | 56.2hPa | 2.7V | 00:00:00 | 00:00:00 | 00:00:00 | |
| HA6NAB-11 | 2026-08-31 00:20:34 | 48.97806 | 21.06045 | 325° | 11km/h | 20271m | 5.0m/s | -55.3°C | 1.7% | 56.5hPa | 2.7V | 00:00:00 | 00:00:00 | 00:00:00 | |
| SQ9EZE-13 | 2026-08-31 00:20:29 | 48.97798 | 21.06054 | 343° | 11km/h | 20248m | 4.0m/s | -55.3°C | 1.7% | 56.7hPa | 2.7V | 00:00:00 | 00:00:00 | 00:00:00 | |
| HA6NAB-11 | 2026-08-31 00:20:28 | 48.97795 | 21.06056 | 344° | 11km/h | 20244m | 5.1m/s | -55.3°C | 1.7% | 56.7hPa | 2.7V | 00:00:00 | 00:00:00 | 00:00:00 | |
| SP9KGR-15 | 2026-08-31 00:20:25 | 48.97786 | 21.06060 | 349° | 16km/h | 20230m | 5.6m/s | -55.4°C | 1.7% | 56.8hPa | 2.7V | 00:00:00 | 00:00:00 | 00:00:00 | |
| HA6NAB-11 | 2026-08-31 00:20:22 | 48.97772 | 21.06062 | 356° | 16km/h | 20217m | 5.2m/s | -55.4°C | 1.7% | 57.0hPa | 2.7V | 00:00:00 | 00:00:00 | 00:00:00 | |
| HA6NAB-11 | 2026-08-31 00:20:16 | 48.97751 | 21.06069 | 322° | 11km/h | 20189m | 5.3m/s | -55.4°C | 1.7% | 57.2hPa | 2.7V | 00:00:00 | 00:00:00 | 00:00:00 | |
| SQ9EZE-13 | 2026-08-31 00:20:13 | 48.97746 | 21.06081 | 308° | 15km/h | 20176m | 4.5m/s | -55.4°C | 1.7% | 57.3hPa | 2.7V | 00:00:00 | 00:00:00 | 00:00:00 | |
| HA6NAB-11 | 2026-08-31 00:20:11 | 48.97740 | 21.06087 | 338° | 13km/h | 20168m | 3.5m/s | -55.4°C | 1.7% | 57.4hPa | 2.7V | 00:00:00 | 00:00:00 | 00:00:00 | |
| HA6NAB-11 | 2026-08-31 00:20:06 | 48.97727 | 21.06081 | 25° | 15km/h | 20145m | 5.1m/s | -55.4°C | 1.8% | 57.6hPa | 2.7V | 00:00:00 | 00:00:00 | 00:00:00 | |
| HA6NAB-11 | 2026-08-31 00:20:00 | 48.97708 | 21.06086 | 320° | 13km/h | 20119m | 4.7m/s | -55.2°C | 1.7% | 57.8hPa | 2.7V | 00:00:00 | 00:00:00 | 00:00:00 | |
| SQ9EZE-13 | 2026-08-31 00:19:58 | 48.97703 | 21.06093 | 320° | 15km/h | 20110m | 4.1m/s | -55.1°C | 1.7% | 57.9hPa | 2.7V | 00:00:00 | 00:00:00 | 00:00:00 | |
| SQ9EZE-14 | 2026-08-31 00:19:57 | 48.97701 | 21.06097 | 321° | 11km/h | 20106m | 4.5m/s | -55.1°C | 1.7% | 58.0hPa | 2.7V | 00:00:00 | 00:00:00 | 00:00:00 | |
| HA6NAB-11 | 2026-08-31 00:19:55 | 48.97697 | 21.06101 | 334° | 7km/h | 20096m | 4.3m/s | -55.0°C | 1.7% | 58.0hPa | 2.7V | 00:00:00 | 00:00:00 | 00:00:00 | |
| SP9KGR-15 | 2026-08-31 00:19:54 | 48.97695 | 21.06101 | 348° | 7km/h | 20092m | 4.4m/s | -55.0°C | 1.7% | 58.1hPa | 2.7V | 00:00:00 | 00:00:00 | 00:00:00 | |
| HA6NAB-11 | 2026-08-31 00:19:50 | 48.97687 | 21.06104 | 346° | 5km/h | 20074m | 5.2m/s | -55.0°C | 1.7% | 58.3hPa | 2.7V | 00:00:00 | 00:00:00 | 00:00:00 | |
| HA6NAB-11 | 2026-08-31 00:19:45 | 48.97681 | 21.06110 | 323° | 7km/h | 20051m | 3.7m/s | -54.9°C | 1.7% | 58.5hPa | 2.7V | 00:00:00 | 00:00:00 | 00:00:00 | |
| GYPAP8-17 | 2026-08-31 00:19:43 | 48.97679 | 21.06113 | 287° | 5km/h | 20041m | 5.2m/s | -54.9°C | 1.7% | 58.5hPa | 2.7V | 00:00:00 | 00:00:00 | 00:00:00 | |
| SQ9EZE-14 | 2026-08-31 00:19:42 | 48.97679 | 21.06115 | 276° | 5km/h | 20037m | 4.3m/s | -54.9°C | 1.7% | 58.6hPa | 2.7V | 00:00:00 | 00:00:00 | 00:00:00 | |
| SP9KGR-15 | 2026-08-31 00:19:38 | 48.97676 | 21.06124 | 291° | 7km/h | 20019m | 4.6m/s | -54.8°C | 1.7% | 58.8hPa | 2.7V | 00:00:00 | 00:00:00 | 00:00:00 | |
| HA6NAB-11 | 2026-08-31 00:19:33 | 48.97676 | 21.06134 | 295° | 4km/h | 19995m | 3.9m/s | -54.7°C | 1.7% | 59.0hPa | 2.7V | 00:00:00 | 00:00:00 | 00:00:00 | |
| HA6NAB-11 | 2026-08-31 00:19:27 | 48.97676 | 21.06140 | 308° | 5km/h | 19969m | 4.2m/s | -54.6°C | 1.7% | 59.2hPa | 2.7V | 00:00:00 | 00:00:00 | 00:00:00 | |
| SQ9EZE-13 | 2026-08-31 00:19:26 | 48.97675 | 21.06142 | 301° | 5km/h | 19965m | 3.8m/s | -54.6°C | 1.7% | 59.2hPa | 2.7V | 00:00:00 | 00:00:00 | 00:00:00 | |
| SP9KGR-15 | 2026-08-31 00:19:23 | 48.97674 | 21.06147 | 280° | 4km/h | 19951m | 4.0m/s | -54.5°C | 1.6% | 59.4hPa | 2.7V | 00:00:00 | 00:00:00 | 00:00:00 | |
| HA6NAB-11 | 2026-08-31 00:19:21 | 48.97673 | 21.06148 | 12° | 4km/h | 19942m | 4.6m/s | -54.5°C | 1.7% | 59.5hPa | 2.7V | 00:00:00 | 00:00:00 | 00:00:00 | |
| HA6NAB-11 | 2026-08-31 00:19:16 | 48.97670 | 21.06136 | 86° | 9km/h | 19919m | 5.1m/s | -54.3°C | 1.6% | 59.7hPa | 2.7V | 00:00:00 | 00:00:00 | 00:00:00 | |
| SQ9EZE-13 | 2026-08-31 00:19:11 | 48.97670 | 21.06129 | 233° | 4km/h | 19897m | 4.5m/s | -54.3°C | 1.6% | 59.9hPa | 2.7V | 00:00:00 | 00:00:00 | 00:00:00 | |
| HA6NAB-11 | 2026-08-31 00:19:10 | 48.97671 | 21.06130 | 262° | 4km/h | 19892m | 4.6m/s | -54.3°C | 1.6% | 59.9hPa | 2.7V | 00:00:00 | 00:00:00 | 00:00:00 | |
| SP9KGR-15 | 2026-08-31 00:19:07 | 48.97668 | 21.06134 | 356° | 5km/h | 19878m | 3.7m/s | -54.2°C | 1.6% | 60.0hPa | 2.7V | 00:00:00 | 00:00:00 | 00:00:00 | |
| HA6NAB-11 | 2026-08-31 00:19:04 | 48.97664 | 21.06131 | 70° | 9km/h | 19865m | 4.5m/s | -54.3°C | 1.6% | 60.2hPa | 2.7V | 00:00:00 | 00:00:00 | 00:00:00 | |
| HA6NAB-11 | 2026-08-31 00:18:58 | 48.97665 | 21.06109 | 138° | 5km/h | 19838m | 3.6m/s | -54.5°C | 1.6% | 60.4hPa | 2.7V | 00:00:00 | 00:00:00 | 00:00:00 | |
| SQ9EZE-13 | 2026-08-31 00:18:55 | 48.97664 | 21.06108 | 6° | 5km/h | 19825m | 3.9m/s | -54.5°C | 1.7% | 60.5hPa | 2.7V | 00:00:00 | 00:00:00 | 00:00:00 | |
| SP9KGR-15 | 2026-08-31 00:18:52 | 48.97661 | 21.06104 | 67° | 7km/h | 19813m | 4.7m/s | -54.4°C | 1.7% | 60.7hPa | 2.7V | 00:00:00 | 00:00:00 | 00:00:00 | |
| HA6NAB-11 | 2026-08-31 00:18:51 | 48.97660 | 21.06100 | 79° | 11km/h | 19808m | 3.7m/s | -54.4°C | 1.7% | 60.7hPa | 2.7V | 00:00:00 | 00:00:00 | 00:00:00 | |
| SQ9EZE-13 | 2026-08-31 00:18:39 | 48.97653 | 21.06032 | 77° | 13km/h | 19754m | 5.1m/s | -54.3°C | 1.6% | 61.2hPa | 2.7V | 00:00:00 | 00:00:00 | 00:00:00 | |
| SP9KGR-15 | 2026-08-31 00:18:37 | 48.97651 | 21.06023 | 71° | 13km/h | 19745m | 4.5m/s | -54.3°C | 1.6% | 61.3hPa | 2.7V | 00:00:00 | 00:00:00 | 00:00:00 | |
| GYPAP8-17 | 2026-08-31 00:18:29 | 48.97641 | 21.05980 | 56° | 16km/h | 19708m | 4.4m/s | -54.3°C | 1.6% | 61.7hPa | 2.7V | 00:00:00 | 00:00:00 | 00:00:00 | |
| SQ9EZE-13 | 2026-08-31 00:18:24 | 48.97631 | 21.05958 | 64° | 15km/h | 19686m | 5.2m/s | -54.3°C | 1.7% | 61.9hPa | 2.7V | 00:00:00 | 00:00:00 | 00:00:00 | |
| SQ9EZE-15 | 2026-08-31 00:18:21 | 48.97627 | 21.05942 | 74° | 15km/h | 19673m | 5.2m/s | -54.2°C | 1.7% | 62.0hPa | 2.7V | 00:00:00 | 00:00:00 | 00:00:00 | |
| SP9KGR-15 | 2026-08-31 00:18:20 | 48.97625 | 21.05932 | 66° | 13km/h | 19664m | 3.4m/s | -54.2°C | 1.6% | 62.1hPa | 2.7V | 00:00:00 | 00:00:00 | 00:00:00 | |
| SQ9EZE-13 | 2026-08-31 00:18:09 | 48.97606 | 21.05891 | 66° | 9km/h | 19621m | 4.2m/s | -53.9°C | 1.6% | 62.5hPa | 2.7V | 00:00:00 | 00:00:00 | 00:00:00 | |
| SP9KGR-15 | 2026-08-31 00:18:03 | 48.97602 | 21.05875 | 54° | 13km/h | 19595m | 3.9m/s | -53.9°C | 1.6% | 62.7hPa | 2.7V | 00:00:00 | 00:00:00 | 00:00:00 | |
| SQ9EZE-15 | 2026-08-31 00:18:01 | 48.97597 | 21.05867 | 48° | 13km/h | 19587m | 4.9m/s | -53.9°C | 1.6% | 62.8hPa | 2.7V | 00:00:00 | 00:00:00 | 00:00:00 | |
| SQ9EZE-13 | 2026-08-31 00:17:53 | 48.97584 | 21.05847 | 74° | 5km/h | 19550m | 4.5m/s | -54.3°C | 1.6% | 63.2hPa | 2.7V | 00:00:00 | 00:00:00 | 00:00:00 | |
| SP9KGR-15 | 2026-08-31 00:17:48 | 48.97582 | 21.05833 | 92° | 7km/h | 19528m | 4.9m/s | -54.2°C | 1.6% | 63.4hPa | 2.7V | 00:00:00 | 00:00:00 | 00:00:00 | |
| SQ9EZE-14 | 2026-08-31 00:17:41 | 48.97580 | 21.05816 | 276° | 2km/h | 19498m | 4.8m/s | -54.2°C | 1.6% | 63.7hPa | 2.7V | 00:00:00 | 00:00:00 | 00:00:00 | |
| SQ9EZE-13 | 2026-08-31 00:17:37 | 48.97579 | 21.05822 | 292° | 2km/h | 19480m | 3.7m/s | -54.1°C | 1.6% | 63.9hPa | 2.7V | 00:00:00 | 00:00:00 | 00:00:00 | |
| SP9KGR-15 | 2026-08-31 00:17:32 | 48.97578 | 21.05823 | 31° | 5km/h | 19458m | 4.6m/s | -54.3°C | 1.6% | 64.1hPa | 2.7V | 00:00:00 | 00:00:00 | 00:00:00 | |
| SQ9EZE-14 | 2026-08-31 00:17:26 | 48.97578 | 21.05827 | 231° | 9km/h | 19433m | 4.9m/s | -54.7°C | 1.7% | 64.4hPa | 2.7V | 00:00:00 | 00:00:00 | 00:00:00 | |
| SQ9EZE-13 | 2026-08-31 00:17:22 | 48.97583 | 21.05835 | 217° | 7km/h | 19416m | 4.9m/s | -54.7°C | 1.6% | 64.5hPa | 2.7V | 00:00:00 | 00:00:00 | 00:00:00 | |
| SP9KGR-15 | 2026-08-31 00:17:17 | 48.97588 | 21.05846 | 260° | 5km/h | 19393m | 3.8m/s | -54.6°C | 1.6% | 64.8hPa | 2.7V | 00:00:00 | 00:00:00 | 00:00:00 | |
| GYPAP8-17 | 2026-08-31 00:17:15 | 48.97589 | 21.05850 | 226° | 7km/h | 19384m | 4.4m/s | -54.5°C | 1.7% | 64.9hPa | 2.7V | 00:00:00 | 00:00:00 | 00:00:00 | |
| SQ9EZE-13 | 2026-08-31 00:17:07 | 48.97606 | 21.05862 | 211° | 7km/h | 19344m | 4.9m/s | -54.5°C | 1.7% | 65.3hPa | 2.7V | 00:00:00 | 00:00:00 | 00:00:00 | |
| SP9KGR-15 | 2026-08-31 00:17:02 | 48.97609 | 21.05870 | 250° | 5km/h | 19326m | 4.1m/s | -54.6°C | 1.6% | 65.4hPa | 2.7V | 00:00:00 | 00:00:00 | 00:00:00 | |
| SQ9EZE-13 | 2026-08-31 00:16:50 | 48.97621 | 21.05873 | 194° | 5km/h | 19272m | 3.9m/s | -54.9°C | 1.7% | 66.0hPa | 2.7V | 00:00:00 | 00:00:00 | 00:00:00 | |
| SP9KGR-15 | 2026-08-31 00:16:47 | 48.97624 | 21.05872 | 129° | 4km/h | 19258m | 3.8m/s | -54.9°C | 1.7% | 66.1hPa | 2.7V | 00:00:00 | 00:00:00 | 00:00:00 | |
| SQ9EZE-13 | 2026-08-31 00:16:34 | 48.97645 | 21.05838 | 137° | 9km/h | 19200m | 4.6m/s | -55.3°C | 1.7% | 66.8hPa | 2.7V | 00:00:00 | 00:00:00 | 00:00:00 | |
| HA6NAB-11 | 2026-08-31 00:16:33 | 48.97647 | 21.05835 | 143° | 11km/h | 19195m | 4.8m/s | -55.3°C | 1.7% | 66.8hPa | 2.7V | 00:00:00 | 00:00:00 | 00:00:00 | |
| SP9KGR-15 | 2026-08-31 00:16:32 | 48.97652 | 21.05828 | 133° | 15km/h | 19187m | 4.1m/s | -55.4°C | 1.7% | 66.9hPa | 2.7V | 00:00:00 | 00:00:00 | 00:00:00 | |
| HA6NAB-11 | 2026-08-31 00:16:27 | 48.97658 | 21.05810 | 114° | 11km/h | 19169m | 4.7m/s | -55.4°C | 1.8% | 67.1hPa | 2.7V | 00:00:00 | 00:00:00 | 00:00:00 | |
| HA6NAB-11 | 2026-08-31 00:16:21 | 48.97664 | 21.05785 | 123° | 15km/h | 19144m | 4.7m/s | -55.7°C | 1.7% | 67.3hPa | 2.7V | 00:00:00 | 00:00:00 | 00:00:00 | |
| SQ9EZE-13 | 2026-08-31 00:16:18 | 48.97673 | 21.05769 | 129° | 20km/h | 19131m | 4.7m/s | -55.6°C | 1.7% | 67.5hPa | 2.7V | 00:00:00 | 00:00:00 | 00:00:00 | |
| SP9KGR-15 | 2026-08-31 00:16:16 | 48.97678 | 21.05757 | 115° | 18km/h | 19122m | 4.1m/s | -55.6°C | 1.8% | 67.6hPa | 2.7V | 00:00:00 | 00:00:00 | 00:00:00 | |
| SQ9EZE-15 | 2026-08-31 00:16:10 | 48.97677 | 21.05726 | 55° | 15km/h | 19095m | 4.0m/s | -55.6°C | 1.8% | 67.9hPa | 2.7V | 00:00:00 | 00:00:00 | 00:00:00 | |
| GYPAP8-17 | 2026-08-31 00:16:06 | 48.97672 | 21.05707 | 89° | 15km/h | 19077m | 5.1m/s | -55.6°C | 1.8% | 68.0hPa | 2.7V | 00:00:00 | 00:00:00 | 00:00:00 | |
| HA6NAB-11 | 2026-08-31 00:16:05 | 48.97672 | 21.05701 | 91° | 16km/h | 19072m | 4.8m/s | -55.6°C | 1.8% | 68.1hPa | 2.7V | 00:00:00 | 00:00:00 | 00:00:00 | |
| SQ9EZE-13 | 2026-08-31 00:16:03 | 48.97673 | 21.05688 | 102° | 16km/h | 19063m | 4.9m/s | -55.5°C | 1.8% | 68.2hPa | 2.7V | 00:00:00 | 00:00:00 | 00:00:00 | |
| HA6NAB-11 | 2026-08-31 00:16:00 | 48.97675 | 21.05667 | 78° | 13km/h | 19045m | 4.7m/s | -55.3°C | 1.8% | 68.4hPa | 2.7V | 00:00:00 | 00:00:00 | 00:00:00 | |
| HA6NAB-11 | 2026-08-31 00:15:51 | 48.97667 | 21.05638 | 78° | 13km/h | 19011m | 4.5m/s | -55.2°C | 1.7% | 68.7hPa | 2.7V | 00:00:00 | 00:00:00 | 00:00:00 | |
| SQ9EZE-15 | 2026-08-31 00:15:49 | 48.97666 | 21.05629 | 80° | 13km/h | 19002m | 3.9m/s | -55.2°C | 1.7% | 68.9hPa | 2.7V | 00:00:00 | 00:00:00 | 00:00:00 | |
| SQ9EZE-13 | 2026-08-31 00:15:47 | 48.97665 | 21.05618 | 90° | 15km/h | 18993m | 4.8m/s | -55.1°C | 1.7% | 68.9hPa | 2.7V | 00:00:00 | 00:00:00 | 00:00:00 | |
| SP9KGR-15 | 2026-08-31 00:15:45 | 48.97665 | 21.05608 | 99° | 11km/h | 18984m | 4.9m/s | -55.0°C | 1.7% | 69.0hPa | 2.7V | 00:00:00 | 00:00:00 | 00:00:00 | |
| SQ9EZE-13 | 2026-08-31 00:15:31 | 48.97678 | 21.05567 | 90° | 11km/h | 18924m | 4.9m/s | -54.8°C | 1.7% | 69.7hPa | 2.7V | 00:00:00 | 00:00:00 | 00:00:00 | |
| SP9KGR-15 | 2026-08-31 00:15:29 | 48.97678 | 21.05561 | 91° | 7km/h | 18916m | 3.0m/s | -54.9°C | 1.7% | 69.8hPa | 2.7V | 00:00:00 | 00:00:00 | 00:00:00 | |
| SQ9EZE-14 | 2026-08-31 00:15:26 | 48.97680 | 21.05553 | 133° | 9km/h | 18902m | 4.2m/s | -54.8°C | 1.7% | 69.9hPa | 2.7V | 00:00:00 | 00:00:00 | 00:00:00 | |
| SQ9EZE-13 | 2026-08-31 00:15:17 | 48.97699 | 21.05537 | 144° | 9km/h | 18859m | 4.0m/s | -54.9°C | 1.7% | 70.4hPa | 2.7V | 00:00:00 | 00:00:00 | 00:00:00 | |
| SP9KGR-15 | 2026-08-31 00:15:14 | 48.97703 | 21.05533 | 146° | 9km/h | 18849m | 4.5m/s | -54.9°C | 1.7% | 70.5hPa | 2.7V | 00:00:00 | 00:00:00 | 00:00:00 | |
| SQ9EZE-14 | 2026-08-31 00:15:10 | 48.97709 | 21.05530 | 187° | 4km/h | 18832m | 3.9m/s | -54.9°C | 1.7% | 70.7hPa | 2.7V | 00:00:00 | 00:00:00 | 00:00:00 | |
| SQ9EZE-13 | 2026-08-31 00:15:00 | 48.97736 | 21.05499 | 139° | 18km/h | 18788m | 3.8m/s | -55.0°C | 1.7% | 71.2hPa | 2.7V | 00:00:00 | 00:00:00 | 00:00:00 | |
| SP9KGR-15 | 2026-08-31 00:14:58 | 48.97742 | 21.05491 | 136° | 13km/h | 18780m | 5.0m/s | -55.1°C | 1.7% | 71.3hPa | 2.7V | 00:00:00 | 00:00:00 | 00:00:00 | |
| SQ9EZE-13 | 2026-08-31 00:14:44 | 48.97786 | 21.05418 | 127° | 16km/h | 18720m | 3.8m/s | -55.3°C | 1.8% | 71.9hPa | 2.7V | 00:00:00 | 00:00:00 | 00:00:00 | |
| SP9KGR-15 | 2026-08-31 00:14:42 | 48.97790 | 21.05407 | 121° | 18km/h | 18712m | 5.0m/s | -55.5°C | 1.8% | 72.0hPa | 2.7V | 00:00:00 | 00:00:00 | 00:00:00 | |
| SQ9EZE-13 | 2026-08-31 00:14:28 | 48.97833 | 21.05294 | 103° | 27km/h | 18653m | 3.9m/s | -55.8°C | 1.8% | 72.7hPa | 2.7V | 00:00:00 | 00:00:00 | 00:00:00 | |
| SP9KGR-15 | 2026-08-31 00:14:27 | 48.97834 | 21.05285 | 104° | 24km/h | 18649m | 4.7m/s | -55.8°C | 1.7% | 72.7hPa | 2.7V | 00:00:00 | 00:00:00 | 00:00:00 | |
| GYPAP8-17 | 2026-08-31 00:14:26 | 48.97836 | 21.05277 | 104° | 20km/h | 18644m | 4.3m/s | -55.8°C | 1.8% | 72.8hPa | 2.7V | 00:00:00 | 00:00:00 | 00:00:00 | |
| SQ9EZE-13 | 2026-08-31 00:14:12 | 48.97838 | 21.05132 | 87° | 26km/h | 18585m | 3.9m/s | -56.9°C | 1.8% | 73.5hPa | 2.7V | 00:00:00 | 00:00:00 | 00:00:00 | |
| SP9KGR-15 | 2026-08-31 00:14:11 | 48.97837 | 21.05121 | 85° | 26km/h | 18580m | 4.4m/s | -57.0°C | 1.9% | 73.5hPa | 2.7V | 00:00:00 | 00:00:00 | 00:00:00 | |
| HA6NAB-11 | 2026-08-31 00:14:04 | 48.97830 | 21.05054 | 76° | 31km/h | 18550m | 4.7m/s | -57.3°C | 1.9% | 73.9hPa | 2.7V | 00:00:00 | 00:00:00 | 00:00:00 | |
| HA6NAB-11 | 2026-08-31 00:13:59 | 48.97815 | 21.04997 | 65° | 33km/h | 18528m | 4.6m/s | -57.4°C | 1.9% | 74.1hPa | 2.7V | 00:00:00 | 00:00:00 | 00:00:00 | |
| SQ9EZE-13 | 2026-08-31 00:13:56 | 48.97805 | 21.04965 | 66° | 29km/h | 18515m | 4.7m/s | -57.4°C | 2.0% | 74.3hPa | 2.7V | 00:00:00 | 00:00:00 | 00:00:00 | |
| SP9KGR-15 | 2026-08-31 00:13:55 | 48.97802 | 21.04955 | 69° | 26km/h | 18511m | 4.7m/s | -57.4°C | 2.0% | 74.3hPa | 2.7V | 00:00:00 | 00:00:00 | 00:00:00 | |
| HA6NAB-11 | 2026-08-31 00:13:53 | 48.97798 | 21.04937 | 73° | 27km/h | 18502m | 4.7m/s | -57.4°C | 1.9% | 74.4hPa | 2.7V | 00:00:00 | 00:00:00 | 00:00:00 | |
| HA6NAB-11 | 2026-08-31 00:13:48 | 48.97785 | 21.04891 | 63° | 24km/h | 18483m | 4.3m/s | -57.3°C | 1.9% | 74.7hPa | 2.7V | 00:00:00 | 00:00:00 | 00:00:00 | |
| HA6NAB-11 | 2026-08-31 00:13:42 | 48.97764 | 21.04841 | 50° | 24km/h | 18457m | 3.5m/s | -57.1°C | 2.0% | 74.9hPa | 2.7V | 00:00:00 | 00:00:00 | 00:00:00 | |
| SQ9EZE-13 | 2026-08-31 00:13:41 | 48.97760 | 21.04834 | 49° | 24km/h | 18454m | 3.6m/s | -57.0°C | 1.9% | 75.0hPa | 2.7V | 00:00:00 | 00:00:00 | 00:00:00 | |
| SP9KGR-15 | 2026-08-31 00:13:40 | 48.97756 | 21.04827 | 52° | 26km/h | 18450m | 4.9m/s | -57.0°C | 2.0% | 75.1hPa | 2.7V | 00:00:00 | 00:00:00 | 00:00:00 | |
| HA6NAB-11 | 2026-08-31 00:13:36 | 48.97742 | 21.04798 | 59° | 18km/h | 18433m | 4.0m/s | -56.9°C | 2.0% | 75.3hPa | 2.7V | 00:00:00 | 00:00:00 | 00:00:00 | |
| SQ9EZE-13 | 2026-08-31 00:13:25 | 48.97708 | 21.04721 | 54° | 22km/h | 18387m | 4.9m/s | -56.5°C | 1.9% | 75.8hPa | 2.7V | 00:00:00 | 00:00:00 | 00:00:00 | |
| SP9KGR-15 | 2026-08-31 00:13:24 | 48.97705 | 21.04714 | 59° | 20km/h | 18382m | 4.5m/s | -56.4°C | 1.9% | 75.9hPa | 2.7V | 00:00:00 | 00:00:00 | 00:00:00 | |
| GYPAP8-17 | 2026-08-31 00:13:18 | 48.97695 | 21.04669 | 69° | 22km/h | 18358m | 4.4m/s | -56.2°C | 1.9% | 76.1hPa | 2.7V | 00:00:00 | 00:00:00 | 00:00:00 | |
| SQ9EZE-14 | 2026-08-31 00:13:10 | 48.97675 | 21.04605 | 78° | 22km/h | 18324m | 4.1m/s | -56.0°C | 1.9% | 76.6hPa | 2.7V | 00:00:00 | 00:00:00 | 00:00:00 | |
| SP9KGR-15 | 2026-08-31 00:13:09 | 48.97674 | 21.04597 | 78° | 22km/h | 18320m | 4.1m/s | -56.0°C | 1.8% | 76.6hPa | 2.7V | 00:00:00 | 00:00:00 | 00:00:00 | |
| SQ9EZE-15 | 2026-08-31 00:13:04 | 48.97667 | 21.04559 | 64° | 16km/h | 18297m | 4.4m/s | -56.0°C | 1.9% | 76.9hPa | 2.7V | 00:00:00 | 00:00:00 | 00:00:00 | |
| SQ9EZE-14 | 2026-08-31 00:12:55 | 48.97649 | 21.04489 | 82° | 24km/h | 18254m | 3.3m/s | -55.8°C | 1.8% | 77.4hPa | 2.7V | 00:00:00 | 00:00:00 | 00:00:00 | |
| SP9KGR-15 | 2026-08-31 00:12:53 | 48.97648 | 21.04480 | 83° | 22km/h | 18251m | 3.8m/s | -55.8°C | 1.8% | 77.4hPa | 2.7V | 00:00:00 | 00:00:00 | 00:00:00 | |
| SQ9EZE-13 | 2026-08-31 00:12:52 | 48.97647 | 21.04472 | 83° | 20km/h | 18246m | 4.9m/s | -55.8°C | 1.8% | 77.5hPa | 2.7V | 00:00:00 | 00:00:00 | 00:00:00 | |
| SQ9EZE-15 | 2026-08-31 00:12:43 | 48.97641 | 21.04411 | 82° | 18km/h | 18206m | 4.3m/s | -55.7°C | 1.8% | 78.0hPa | 2.7V | 00:00:00 | 00:00:00 | 00:00:00 | |
| SP9KGR-15 | 2026-08-31 00:12:38 | 48.97638 | 21.04382 | 78° | 13km/h | 18185m | 3.9m/s | -55.8°C | 1.8% | 78.2hPa | 2.7V | 00:00:00 | 00:00:00 | 00:00:00 | |
| SQ9EZE-13 | 2026-08-31 00:12:37 | 48.97637 | 21.04378 | 75° | 13km/h | 18181m | 5.0m/s | -55.7°C | 1.8% | 78.3hPa | 2.7V | 00:00:00 | 00:00:00 | 00:00:00 | |
| SQ9EZE-13 | 2026-08-31 00:12:22 | 48.97638 | 21.04292 | 99° | 22km/h | 18114m | 4.5m/s | -55.7°C | 1.9% | 79.1hPa | 2.7V | 00:00:00 | 00:00:00 | 00:00:00 | |
| GYPAP8-17 | 2026-08-31 00:12:11 | 48.97647 | 21.04215 | 96° | 20km/h | 18066m | 4.0m/s | -55.7°C | 1.8% | 79.7hPa | 2.7V | 00:00:00 | 00:00:00 | 00:00:00 | |
| SP9KGR-15 | 2026-08-31 00:12:07 | 48.97648 | 21.04181 | 92° | 24km/h | 18050m | 3.7m/s | -55.7°C | 1.9% | 79.9hPa | 2.7V | 00:00:00 | 00:00:00 | 00:00:00 | |
| SP9KGR-15 | 2026-08-31 00:11:51 | 48.97623 | 21.04067 | 68° | 22km/h | 17983m | 4.2m/s | -55.9°C | 1.8% | 80.8hPa | 2.7V | 00:00:00 | 00:00:00 | 00:00:00 | |
| HA6NAB-11 | 2026-08-31 00:11:42 | 48.97602 | 21.04015 | 56° | 20km/h | 17944m | 3.8m/s | -56.3°C | 1.9% | 81.3hPa | 2.7V | 00:00:00 | 00:00:00 | 00:00:00 | |
| SP9KGR-15 | 2026-08-31 00:11:36 | 48.97582 | 21.03968 | 50° | 24km/h | 17918m | 4.1m/s | -56.7°C | 2.0% | 81.6hPa | 2.7V | 00:00:00 | 00:00:00 | 00:00:00 | |
| HA6NAB-11 | 2026-08-31 00:11:31 | 48.97561 | 21.03932 | 50° | 24km/h | 17898m | 4.9m/s | -56.9°C | 2.0% | 81.9hPa | 2.7V | 00:00:00 | 00:00:00 | 00:00:00 | |
| HA6NAB-11 | 2026-08-31 00:11:26 | 48.97544 | 21.03901 | 48° | 20km/h | 17876m | 3.6m/s | -56.8°C | 2.0% | 82.1hPa | 2.7V | 00:00:00 | 00:00:00 | 00:00:00 | |
| SP9KGR-15 | 2026-08-31 00:11:20 | 48.97512 | 21.03877 | 15° | 29km/h | 17849m | 3.7m/s | -56.6°C | 2.0% | 82.5hPa | 2.7V | 00:00:00 | 00:00:00 | 00:00:00 | |
| HA6NAB-11 | 2026-08-31 00:11:15 | 48.97479 | 21.03865 | 25° | 16km/h | 17824m | 3.9m/s | -56.4°C | 1.9% | 82.8hPa | 2.7V | 00:00:00 | 00:00:00 | 00:00:00 | |
| SQ9EZE-13 | 2026-08-31 00:11:04 | 48.97436 | 21.03842 | 20° | 22km/h | 17781m | 5.0m/s | -56.3°C | 1.9% | 83.4hPa | 2.7V | 00:00:00 | 00:00:00 | 00:00:00 | |
| GYPAP8-17 | 2026-08-31 00:10:56 | 48.97405 | 21.03831 | 16° | 16km/h | 17748m | 4.0m/s | -56.1°C | 1.9% | 83.8hPa | 2.7V | 00:00:00 | 00:00:00 | 00:00:00 | |
| SQ9EZE-14 | 2026-08-31 00:10:54 | 48.97396 | 21.03828 | 12° | 18km/h | 17741m | 3.5m/s | -56.1°C | 1.9% | 83.9hPa | 2.7V | 00:00:00 | 00:00:00 | 00:00:00 | |
| SQ9EZE-15 | 2026-08-31 00:10:52 | 48.97389 | 21.03826 | 17° | 11km/h | 17732m | 4.5m/s | -56.0°C | 2.0% | 84.1hPa | 2.7V | 00:00:00 | 00:00:00 | 00:00:00 | |
| SP9KGR-15 | 2026-08-31 00:10:49 | 48.97383 | 21.03821 | 36° | 9km/h | 17720m | 4.9m/s | -55.9°C | 1.9% | 84.2hPa | 2.7V | 00:00:00 | 00:00:00 | 00:00:00 | |
| SQ9EZE-13 | 2026-08-31 00:10:48 | 48.97381 | 21.03819 | 29° | 9km/h | 17715m | 4.5m/s | -55.9°C | 1.9% | 84.3hPa | 2.7V | 00:00:00 | 00:00:00 | 00:00:00 | |
| SQ9EZE-14 | 2026-08-31 00:10:38 | 48.97354 | 21.03807 | 16° | 11km/h | 17673m | 3.6m/s | -55.9°C | 1.9% | 84.8hPa | 2.7V | 00:00:00 | 00:00:00 | 00:00:00 | |
| SQ9EZE-13 | 2026-08-31 00:10:33 | 48.97343 | 21.03807 | 333° | 4km/h | 17653m | 4.9m/s | -56.3°C | 2.0% | 85.1hPa | 2.7V | 00:00:00 | 00:00:00 | 00:00:00 | |
| SQ9EZE-15 | 2026-08-31 00:10:31 | 48.97343 | 21.03807 | 0° | 0km/h | 17645m | 3.3m/s | -56.5°C | 2.0% | 85.2hPa | 2.7V | 00:00:00 | 00:00:00 | 00:00:00 | |
| SQ9EZE-13 | 2026-08-31 00:10:18 | 48.97329 | 21.03815 | 147° | 5km/h | 17591m | 4.4m/s | -56.1°C | 1.9% | 85.9hPa | 2.7V | 00:00:00 | 00:00:00 | 00:00:00 | |
| SP9KGR-15 | 2026-08-31 00:10:17 | 48.97330 | 21.03814 | 148° | 5km/h | 17586m | 4.9m/s | -56.0°C | 1.9% | 86.0hPa | 2.7V | 00:00:00 | 00:00:00 | 00:00:00 | |
| SQ9EZE-13 | 2026-08-31 00:10:02 | 48.97335 | 21.03818 | 139° | 7km/h | 17521m | 4.8m/s | -55.6°C | 2.0% | 86.9hPa | 2.7V | 00:00:00 | 00:00:00 | 00:00:00 | |
| HA6NAB-11 | 2026-08-31 00:10:01 | 48.97336 | 21.03816 | 141° | 9km/h | 17517m | 5.0m/s | -55.6°C | 2.0% | 86.9hPa | 2.7V | 00:00:00 | 00:00:00 | 00:00:00 | |
| HA6NAB-11 | 2026-08-31 00:09:55 | 48.97339 | 21.03803 | 22° | 5km/h | 17490m | 5.4m/s | -55.6°C | 1.9% | 87.3hPa | 2.7V | 00:00:00 | 00:00:00 | 00:00:00 | |
| HA6NAB-11 | 2026-08-31 00:09:51 | 48.97336 | 21.03807 | 207° | 5km/h | 17468m | 4.5m/s | -55.6°C | 1.9% | 87.6hPa | 2.7V | 00:00:00 | 00:00:00 | 00:00:00 | |
| SP9KGR-15 | 2026-08-31 00:09:46 | 48.97348 | 21.03801 | 142° | 15km/h | 17450m | 4.5m/s | -55.5°C | 1.9% | 87.9hPa | 2.7V | 00:00:00 | 00:00:00 | 00:00:00 | |
| HA6NAB-11 | 2026-08-31 00:09:44 | 48.97352 | 21.03793 | 96° | 13km/h | 17439m | 5.3m/s | -55.4°C | 1.9% | 88.0hPa | 2.7V | 00:00:00 | 00:00:00 | 00:00:00 | |
| HA6NAB-11 | 2026-08-31 00:09:39 | 48.97347 | 21.03780 | 136° | 4km/h | 17414m | 4.6m/s | -55.3°C | 1.9% | 88.3hPa | 2.7V | 00:00:00 | 00:00:00 | 00:00:00 | |
| HA6NAB-11 | 2026-08-31 00:09:33 | 48.97359 | 21.03756 | 114° | 16km/h | 17384m | 5.0m/s | -55.4°C | 1.9% | 88.8hPa | 2.7V | 00:00:00 | 00:00:00 | 00:00:00 | |
| SQ9EZE-13 | 2026-08-31 00:09:32 | 48.97360 | 21.03750 | 112° | 18km/h | 17379m | 4.9m/s | -55.3°C | 1.8% | 88.8hPa | 2.7V | 00:00:00 | 00:00:00 | 00:00:00 | |
| SP9KGR-15 | 2026-08-31 00:09:30 | 48.97364 | 21.03736 | 112° | 22km/h | 17368m | 6.2m/s | -55.4°C | 1.8% | 89.0hPa | 2.7V | 00:00:00 | 00:00:00 | 00:00:00 | |
| SQ9EZE-13 | 2026-08-31 00:09:17 | 48.97367 | 21.03633 | 77° | 26km/h | 17306m | 5.4m/s | -56.0°C | 1.9% | 89.8hPa | 2.7V | 00:00:00 | 00:00:00 | 00:00:00 | |
| SP9KGR-15 | 2026-08-31 00:09:14 | 48.97364 | 21.03603 | 90° | 26km/h | 17291m | 4.4m/s | -56.0°C | 1.9% | 90.0hPa | 2.7V | 00:00:00 | 00:00:00 | 00:00:00 | |
| SP9KGR-15 | 2026-08-31 00:08:59 | 48.97369 | 21.03409 | 95° | 38km/h | 17230m | 3.8m/s | -56.2°C | 2.0% | 90.9hPa | 2.7V | 00:00:00 | 00:00:00 | 00:00:00 | |
| GYPAP8-17 | 2026-08-31 00:08:46 | 48.97387 | 21.03204 | 89° | 40km/h | 17176m | 5.0m/s | -56.0°C | 2.0% | 91.7hPa | 2.7V | 00:00:00 | 00:00:00 | 00:00:00 | |
| SP9KGR-15 | 2026-08-31 00:08:43 | 48.97386 | 21.03158 | 87° | 37km/h | 17164m | 4.8m/s | -56.0°C | 1.9% | 91.9hPa | 2.7V | 00:00:00 | 00:00:00 | 00:00:00 | |
| SQ9EZE-14 | 2026-08-31 00:08:38 | 48.97387 | 21.03089 | 98° | 38km/h | 17142m | 3.8m/s | -55.9°C | 1.9% | 92.2hPa | 2.7V | 00:00:00 | 00:00:00 | 00:00:00 | |
| SQ9EZE-13 | 2026-08-31 00:08:30 | 48.97386 | 21.02968 | 84° | 37km/h | 17106m | 4.2m/s | -55.8°C | 1.9% | 92.7hPa | 2.7V | 00:00:00 | 00:00:00 | 00:00:00 | |
| SP9KGR-15 | 2026-08-31 00:08:28 | 48.97384 | 21.02941 | 86° | 35km/h | 17099m | 4.0m/s | -55.8°C | 1.9% | 92.8hPa | 2.7V | 00:00:00 | 00:00:00 | 00:00:00 | |
| HA6NAB-11 | 2026-08-31 00:08:24 | 48.97381 | 21.02887 | 86° | 35km/h | 17081m | 4.6m/s | -55.9°C | 2.0% | 93.1hPa | 2.7V | 00:00:00 | 00:00:00 | 00:00:00 | |
| SQ9EZE-14 | 2026-08-31 00:08:22 | 48.97380 | 21.02860 | 88° | 37km/h | 17073m | 5.1m/s | -55.9°C | 1.9% | 93.2hPa | 2.7V | 00:00:00 | 00:00:00 | 00:00:00 | |
| HA6NAB-11 | 2026-08-31 00:08:19 | 48.97379 | 21.02818 | 92° | 35km/h | 17061m | 5.0m/s | -55.9°C | 1.9% | 93.4hPa | 2.7V | 00:00:00 | 00:00:00 | 00:00:00 | |
| SQ9EZE-13 | 2026-08-31 00:08:16 | 48.97381 | 21.02765 | 92° | 37km/h | 17043m | 4.1m/s | -56.4°C | 2.0% | 93.6hPa | 2.7V | 00:00:00 | 00:00:00 | 00:00:00 | |
| HA6NAB-11 | 2026-08-31 00:08:13 | 48.97380 | 21.02738 | 82° | 35km/h | 17035m | 5.3m/s | -56.5°C | 2.0% | 93.7hPa | 2.7V | 00:00:00 | 00:00:00 | 00:00:00 | |
| SP9KGR-15 | 2026-08-31 00:08:12 | 48.97378 | 21.02724 | 75° | 37km/h | 17030m | 4.1m/s | -56.6°C | 2.0% | 93.8hPa | 2.7V | 00:00:00 | 00:00:00 | 00:00:00 | |
| HA6NAB-11 | 2026-08-31 00:08:08 | 48.97363 | 21.02669 | 67° | 38km/h | 17014m | 3.6m/s | -56.6°C | 2.0% | 94.0hPa | 2.7V | 00:00:00 | 00:00:00 | 00:00:00 | |
| HA6NAB-11 | 2026-08-31 00:08:02 | 48.97349 | 21.02598 | 89° | 29km/h | 16990m | 4.3m/s | -56.8°C | 2.0% | 94.4hPa | 2.7V | 00:00:00 | 00:00:00 | 00:00:00 | |
| SQ9EZE-13 | 2026-08-31 00:07:59 | 48.97347 | 21.02564 | 85° | 31km/h | 16977m | 3.2m/s | -56.7°C | 2.0% | 94.6hPa | 2.7V | 00:00:00 | 00:00:00 | 00:00:00 | |
| SP9KGR-15 | 2026-08-31 00:07:56 | 48.97342 | 21.02528 | 69° | 33km/h | 16965m | 3.9m/s | -56.6°C | 2.0% | 94.8hPa | 2.7V | 00:00:00 | 00:00:00 | 00:00:00 | |
| HA6NAB-11 | 2026-08-31 00:07:50 | 48.97322 | 21.02469 | 64° | 29km/h | 16942m | 3.8m/s | -56.3°C | 2.0% | 95.1hPa | 2.7V | 00:00:00 | 00:00:00 | 00:00:00 | |
| HA6NAB-11 | 2026-08-31 00:07:45 | 48.97305 | 21.02411 | 68° | 29km/h | 16916m | 3.7m/s | -56.1°C | 2.0% | 95.5hPa | 2.7V | 00:00:00 | 00:00:00 | 00:00:00 | |
| SQ9EZE-13 | 2026-08-31 00:07:44 | 48.97305 | 21.02411 | 68° | 29km/h | 16916m | 3.7m/s | -56.1°C | 2.0% | 95.5hPa | 2.7V | 00:00:00 | 00:00:00 | 00:00:00 | |
| SQ9EZE-15 | 2026-08-31 00:07:42 | 48.97299 | 21.02391 | 70° | 27km/h | 16907m | 3.8m/s | -56.0°C | 2.0% | 95.6hPa | 2.7V | 00:00:00 | 00:00:00 | 00:00:00 | |
| SP9KGR-15 | 2026-08-31 00:07:41 | 48.97296 | 21.02380 | 70° | 29km/h | 16903m | 3.9m/s | -56.0°C | 2.0% | 95.7hPa | 2.7V | 00:00:00 | 00:00:00 | 00:00:00 | |
| HA6NAB-11 | 2026-08-31 00:07:38 | 48.97288 | 21.02347 | 73° | 31km/h | 16890m | 3.5m/s | -55.9°C | 2.0% | 95.9hPa | 2.7V | 00:00:00 | 00:00:00 | 00:00:00 | |
| GYPAP8-17 | 2026-08-31 00:07:33 | 48.97279 | 21.02295 | 80° | 27km/h | 16868m | 3.6m/s | -55.8°C | 1.9% | 96.2hPa | 2.7V | 00:00:00 | 00:00:00 | 00:00:00 | |
| HA6NAB-11 | 2026-08-31 00:07:31 | 48.97277 | 21.02274 | 79° | 27km/h | 16859m | 5.0m/s | -56.1°C | 2.0% | 96.4hPa | 2.7V | 00:00:00 | 00:00:00 | 00:00:00 | |
| SQ9EZE-13 | 2026-08-31 00:07:29 | 48.97273 | 21.02254 | 73° | 29km/h | 16850m | 4.8m/s | -56.4°C | 2.0% | 96.5hPa | 2.7V | 00:00:00 | 00:00:00 | 00:00:00 | |
| HA6NAB-11 | 2026-08-31 00:07:25 | 48.97261 | 21.02208 | 68° | 31km/h | 16832m | 4.5m/s | -56.4°C | 2.0% | 96.7hPa | 2.7V | 00:00:00 | 00:00:00 | 00:00:00 | |
| HA6NAB-11 | 2026-08-31 00:07:19 | 48.97249 | 21.02136 | 84° | 35km/h | 16807m | 5.2m/s | -56.4°C | 2.1% | 97.1hPa | 2.7V | 00:00:00 | 00:00:00 | 00:00:00 | |
| HA6NAB-11 | 2026-08-31 00:07:13 | 48.97239 | 21.02057 | 76° | 35km/h | 16783m | 4.7m/s | -56.2°C | 2.0% | 97.5hPa | 2.7V | 00:00:00 | 00:00:00 | 00:00:00 | |
| SQ9EZE-13 | 2026-08-31 00:07:12 | 48.97237 | 21.02045 | 77° | 31km/h | 16778m | 3.7m/s | -56.2°C | 2.0% | 97.6hPa | 2.7V | 00:00:00 | 00:00:00 | 00:00:00 | |
| SP9KGR-15 | 2026-08-31 00:07:09 | 48.97232 | 21.02009 | 84° | 31km/h | 16766m | 3.2m/s | -56.1°C | 2.0% | 97.8hPa | 2.7V | 00:00:00 | 00:00:00 | 00:00:00 | |
| HA6NAB-11 | 2026-08-31 00:07:07 | 48.97231 | 21.01986 | 91° | 29km/h | 16759m | 4.5m/s | -56.1°C | 2.0% | 97.9hPa | 2.7V | 00:00:00 | 00:00:00 | 00:00:00 | |
| HA6NAB-11 | 2026-08-31 00:07:01 | 48.97230 | 21.01910 | 87° | 33km/h | 16734m | 4.1m/s | -56.0°C | 2.0% | 98.3hPa | 2.7V | 00:00:00 | 00:00:00 | 00:00:00 | |
| SQ9EZE-13 | 2026-08-31 00:06:57 | 48.97224 | 21.01860 | 79° | 31km/h | 16718m | 3.9m/s | -56.0°C | 2.0% | 98.5hPa | 2.7V | 00:00:00 | 00:00:00 | 00:00:00 | |
| HA6NAB-11 | 2026-08-31 00:06:56 | 48.97223 | 21.01849 | 83° | 29km/h | 16714m | 4.3m/s | -56.0°C | 2.0% | 98.6hPa | 2.7V | 00:00:00 | 00:00:00 | 00:00:00 | |
| SP9KGR-15 | 2026-08-31 00:06:53 | 48.97221 | 21.01816 | 87° | 31km/h | 16703m | 4.4m/s | -56.2°C | 2.0% | 98.8hPa | 2.7V | 00:00:00 | 00:00:00 | 00:00:00 | |
| HA6NAB-11 | 2026-08-31 00:06:51 | 48.97220 | 21.01792 | 90° | 33km/h | 16695m | 3.9m/s | -56.3°C | 2.0% | 98.9hPa | 2.7V | 00:00:00 | 00:00:00 | 00:00:00 | |
| HA6NAB-11 | 2026-08-31 00:06:45 | 48.97220 | 21.01715 | 84° | 37km/h | 16671m | 3.8m/s | -56.4°C | 2.1% | 99.3hPa | 2.7V | 00:00:00 | 00:00:00 | 00:00:00 | |
| SQ9EZE-13 | 2026-08-31 00:06:41 | 48.97216 | 21.01662 | 84° | 35km/h | 16656m | 4.3m/s | -56.4°C | 2.1% | 99.5hPa | 2.7V | 00:00:00 | 00:00:00 | 00:00:00 | |
| SP9KGR-15 | 2026-08-31 00:06:38 | 48.97212 | 21.01623 | 85° | 31km/h | 16645m | 3.9m/s | -56.6°C | 2.2% | 99.7hPa | 2.7V | 00:00:00 | 00:00:00 | 00:00:00 | |
| SQ9EZE-13 | 2026-08-31 00:06:24 | 48.97196 | 21.01469 | 87° | 29km/h | 16588m | 4.4m/s | -56.5°C | 2.2% | 100.6hPa | 2.7V | 00:00:00 | 00:00:00 | 00:00:00 | |
| SP9KGR-15 | 2026-08-31 00:06:23 | 48.97196 | 21.01458 | 92° | 29km/h | 16584m | 2.9m/s | -56.5°C | 2.2% | 100.6hPa | 2.7V | 00:00:00 | 00:00:00 | 00:00:00 | |
| SQ9EZE-14 | 2026-08-31 00:06:20 | 48.97195 | 21.01425 | 85° | 29km/h | 16572m | 3.8m/s | -56.4°C | 2.1% | 100.8hPa | 2.7V | 00:00:00 | 00:00:00 | 00:00:00 | |
| GYPAP8-17 | 2026-08-31 00:06:14 | 48.97193 | 21.01358 | 88° | 29km/h | 16548m | 3.8m/s | -56.3°C | 2.2% | 101.2hPa | 2.7V | 00:00:00 | 00:00:00 | 00:00:00 | |
| SQ9EZE-13 | 2026-08-31 00:06:09 | 48.97197 | 21.01301 | 102° | 33km/h | 16529m | 3.7m/s | -56.3°C | 2.2% | 101.5hPa | 2.7V | 00:00:00 | 00:00:00 | 00:00:00 | |
| SP9KGR-15 | 2026-08-31 00:06:07 | 48.97199 | 21.01276 | 92° | 33km/h | 16520m | 4.2m/s | -56.4°C | 2.2% | 101.6hPa | 2.7V | 00:00:00 | 00:00:00 | 00:00:00 | |
| SQ9EZE-14 | 2026-08-31 00:06:04 | 48.97198 | 21.01239 | 92° | 29km/h | 16509m | 4.6m/s | -56.6°C | 2.2% | 101.8hPa | 2.7V | 00:00:00 | 00:00:00 | 00:00:00 | |
| SQ9EZE-15 | 2026-08-31 00:05:59 | 48.97200 | 21.01179 | 94° | 35km/h | 16488m | 4.3m/s | -57.0°C | 2.3% | 102.1hPa | 2.7V | 00:00:00 | 00:00:00 | 00:00:00 | |
| SQ9EZE-13 | 2026-08-31 00:05:53 | 48.97203 | 21.01086 | 93° | 44km/h | 16463m | 4.2m/s | -57.4°C | 2.3% | 102.6hPa | 2.7V | 00:00:00 | 00:00:00 | 00:00:00 | |
| SP9KGR-15 | 2026-08-31 00:05:52 | 48.97204 | 21.01070 | 95° | 42km/h | 16459m | 4.4m/s | -57.4°C | 2.3% | 102.6hPa | 2.7V | 00:00:00 | 00:00:00 | 00:00:00 | |
| SQ9EZE-13 | 2026-08-31 00:05:39 | 48.97189 | 21.00865 | 80° | 40km/h | 16401m | 4.3m/s | -57.0°C | 2.3% | 103.5hPa | 2.7V | 00:00:00 | 00:00:00 | 00:00:00 | |
| SP9KGR-15 | 2026-08-31 00:05:36 | 48.97185 | 21.00834 | 80° | 40km/h | 16392m | 4.1m/s | -57.2°C | 2.3% | 103.7hPa | 2.7V | 00:00:00 | 00:00:00 | 00:00:00 | |
| HA6NAB-11 | 2026-08-31 00:05:31 | 48.97178 | 21.00758 | 83° | 46km/h | 16371m | 4.2m/s | -57.6°C | 2.4% | 104.0hPa | 2.7V | 00:00:00 | 00:00:00 | 00:00:00 | |
| HA6NAB-11 | 2026-08-31 00:05:25 | 48.97161 | 21.00661 | 65° | 44km/h | 16346m | 5.1m/s | -58.0°C | 2.6% | 104.4hPa | 2.7V | 00:00:00 | 00:00:00 | 00:00:00 | |
| SQ9EZE-13 | 2026-08-31 00:05:23 | 48.97151 | 21.00630 | 66° | 44km/h | 16338m | 3.7m/s | -58.1°C | 2.6% | 104.6hPa | 2.7V | 00:00:00 | 00:00:00 | 00:00:00 | |
| SP9KGR-15 | 2026-08-31 00:05:20 | 48.97141 | 21.00584 | 79° | 42km/h | 16324m | 4.6m/s | -58.2°C | 2.6% | 104.8hPa | 2.7V | 00:00:00 | 00:00:00 | 00:00:00 | |
| HA6NAB-11 | 2026-08-31 00:05:19 | 48.97139 | 21.00569 | 81° | 42km/h | 16320m | 4.6m/s | -58.3°C | 2.6% | 104.9hPa | 2.7V | 00:00:00 | 00:00:00 | 00:00:00 | |
| HA6NAB-11 | 2026-08-31 00:05:14 | 48.97125 | 21.00495 | 64° | 40km/h | 16300m | 4.0m/s | -58.4°C | 2.6% | 105.2hPa | 2.7V | 00:00:00 | 00:00:00 | 00:00:00 | |
| HA6NAB-11 | 2026-08-31 00:05:09 | 48.97095 | 21.00421 | 56° | 46km/h | 16280m | 3.9m/s | -58.3°C | 2.6% | 105.5hPa | 2.7V | 00:00:00 | 00:00:00 | 00:00:00 | |
| SP9KGR-15 | 2026-08-31 00:05:07 | 48.97074 | 21.00365 | 70° | 37km/h | 16264m | 3.5m/s | -58.1°C | 2.7% | 105.8hPa | 2.7V | 00:00:00 | 00:00:00 | 00:00:00 | |
| HA6NAB-11 | 2026-08-31 00:05:03 | 48.97068 | 21.00340 | 74° | 31km/h | 16256m | 4.7m/s | -58.1°C | 2.6% | 106.0hPa | 2.7V | 00:00:00 | 00:00:00 | 00:00:00 | |
| HA6NAB-11 | 2026-08-31 00:04:58 | 48.97050 | 21.00273 | 63° | 33km/h | 16232m | 4.4m/s | -57.9°C | 2.6% | 106.3hPa | 2.7V | 00:00:00 | 00:00:00 | 00:00:00 | |
| SQ9EZE-13 | 2026-08-31 00:04:52 | 48.97030 | 21.00213 | 67° | 37km/h | 16210m | 3.6m/s | -57.9°C | 2.6% | 106.7hPa | 2.7V | 00:00:00 | 00:00:00 | 00:00:00 | |
| SP9KGR-15 | 2026-08-31 00:04:50 | 48.97019 | 21.00177 | 63° | 31km/h | 16197m | 3.9m/s | -57.8°C | 2.6% | 106.9hPa | 2.7V | 00:00:00 | 00:00:00 | 00:00:00 | |
| HA6NAB-11 | 2026-08-31 00:04:47 | 48.97008 | 21.00146 | 64° | 29km/h | 16184m | 3.9m/s | -57.7°C | 2.6% | 107.2hPa | 2.7V | 00:00:00 | 00:00:00 | 00:00:00 | |
| HA6NAB-11 | 2026-08-31 00:04:42 | 48.96993 | 21.00099 | 68° | 29km/h | 16162m | 3.8m/s | -57.6°C | 2.5% | 107.5hPa | 2.7V | 00:00:00 | 00:00:00 | 00:00:00 | |
| SQ9EZE-15 | 2026-08-31 00:04:38 | 48.96978 | 21.00049 | 67° | 29km/h | 16139m | 4.8m/s | -57.4°C | 2.5% | 107.9hPa | 2.7V | 00:00:00 | 00:00:00 | 00:00:00 | |
| HA6NAB-11 | 2026-08-31 00:04:37 | 48.96975 | 21.00039 | 66° | 29km/h | 16135m | 3.7m/s | -57.4°C | 2.5% | 108.0hPa | 2.7V | 00:00:00 | 00:00:00 | 00:00:00 | |
| SP9KGR-15 | 2026-08-31 00:04:35 | 48.96969 | 21.00020 | 64° | 26km/h | 16126m | 5.1m/s | -57.4°C | 2.5% | 108.1hPa | 2.7V | 00:00:00 | 00:00:00 | 00:00:00 | |
| SQ9EZE-13 | 2026-08-31 00:04:21 | 48.96944 | 20.99900 | 77° | 22km/h | 16071m | 3.8m/s | -57.0°C | 2.5% | 109.1hPa | 2.7V | 00:00:00 | 00:00:00 | 00:00:00 | |
| SP9KGR-15 | 2026-08-31 00:04:17 | 48.96941 | 20.99875 | 82° | 24km/h | 16057m | 4.7m/s | -57.0°C | 2.5% | 109.3hPa | 2.7V | 00:00:00 | 00:00:00 | 00:00:00 | |
| SQ9EZE-15 | 2026-08-31 00:04:16 | 48.96939 | 20.99857 | 81° | 24km/h | 16050m | 3.6m/s | -57.0°C | 2.5% | 109.5hPa | 2.7V | 00:00:00 | 00:00:00 | 00:00:00 | |
| SQ9EZE-13 | 2026-08-31 00:04:05 | 48.96938 | 20.99754 | 80° | 29km/h | 16002m | 4.6m/s | -56.8°C | 2.5% | 110.3hPa | 2.7V | 00:00:00 | 00:00:00 | 00:00:00 | |
| GYPAP8-17 | 2026-08-31 00:04:04 | 48.96936 | 20.99744 | 79° | 27km/h | 15998m | 3.2m/s | -56.8°C | 2.5% | 110.4hPa | 2.7V | 00:00:00 | 00:00:00 | 00:00:00 | |
| SP9KGR-15 | 2026-08-31 00:04:03 | 48.96934 | 20.99734 | 79° | 26km/h | 15994m | 4.8m/s | -56.8°C | 2.4% | 110.4hPa | 2.7V | 00:00:00 | 00:00:00 | 00:00:00 | |
| SQ9EZE-13 | 2026-08-31 00:03:50 | 48.96952 | 20.99607 | 103° | 29km/h | 15936m | 5.4m/s | -56.6°C | 2.4% | 111.4hPa | 2.7V | 00:00:00 | 00:00:00 | 00:00:00 | |
| SQ9EZE-14 | 2026-08-31 00:03:49 | 48.96953 | 20.99596 | 100° | 27km/h | 15932m | 4.1m/s | -56.6°C | 2.5% | 111.5hPa | 2.7V | 00:00:00 | 00:00:00 | 00:00:00 | |
| SP9KGR-15 | 2026-08-31 00:03:46 | 48.96956 | 20.99574 | 102° | 31km/h | 15924m | 4.9m/s | -56.5°C | 2.5% | 111.6hPa | 2.7V | 00:00:00 | 00:00:00 | 00:00:00 | |
| SQ9EZE-13 | 2026-08-31 00:03:34 | 48.96984 | 20.99428 | 104° | 31km/h | 15869m | 5.1m/s | -56.3°C | 2.4% | 112.6hPa | 2.7V | 00:00:00 | 00:00:00 | 00:00:00 | |
| SP9KGR-15 | 2026-08-31 00:03:32 | 48.96989 | 20.99379 | 100° | 33km/h | 15850m | 4.5m/s | -56.2°C | 2.4% | 113.0hPa | 2.7V | 00:00:00 | 00:00:00 | 00:00:00 | |
| HA6NAB-11 | 2026-08-31 00:03:24 | 48.97007 | 20.99288 | 117° | 37km/h | 15819m | 4.3m/s | -56.1°C | 2.4% | 113.5hPa | 2.7V | 00:00:00 | 00:00:00 | 00:00:00 | |
| HA6NAB-11 | 2026-08-31 00:03:20 | 48.97024 | 20.99220 | 105° | 35km/h | 15795m | 4.5m/s | -56.0°C | 2.4% | 113.9hPa | 2.7V | 00:00:00 | 00:00:00 | 00:00:00 | |
| SP9KGR-15 | 2026-08-31 00:03:18 | 48.97028 | 20.99180 | 97° | 37km/h | 15782m | 4.4m/s | -56.1°C | 2.4% | 114.2hPa | 2.7V | 00:00:00 | 00:00:00 | 00:00:00 | |
| HA6NAB-11 | 2026-08-31 00:03:15 | 48.97031 | 20.99140 | 98° | 33km/h | 15770m | 4.4m/s | -56.1°C | 2.4% | 114.4hPa | 2.7V | 00:00:00 | 00:00:00 | 00:00:00 | |
| HA6NAB-11 | 2026-08-31 00:03:10 | 48.97035 | 20.99075 | 99° | 37km/h | 15747m | 4.6m/s | -56.0°C | 2.4% | 114.8hPa | 2.7V | 00:00:00 | 00:00:00 | 00:00:00 | |
| SQ9EZE-13 | 2026-08-31 00:03:04 | 48.97040 | 20.99033 | 100° | 38km/h | 15734m | 4.6m/s | -56.0°C | 2.4% | 115.0hPa | 2.7V | 00:00:00 | 00:00:00 | 00:00:00 | |
| SP9KGR-15 | 2026-08-31 00:02:50 | 48.97069 | 20.98266 | 94° | 35km/h | 15509m | 5.3m/s | -55.2°C | 2.5% | 119.1hPa | 2.7V | 00:00:00 | 00:00:00 | 00:00:00 | |
| SQ9EZE-13 | 2026-08-31 00:02:32 | 48.97072 | 20.98091 | 91° | 33km/h | 15454m | 3.8m/s | -55.0°C | 2.6% | 120.2hPa | 2.7V | 00:00:00 | 00:00:00 | 00:00:00 | |
| SP9KGR-15 | 2026-08-31 00:02:24 | 48.97072 | 20.98052 | 88° | 35km/h | 15442m | 3.8m/s | -54.9°C | 2.6% | 120.4hPa | 2.7V | 00:00:00 | 00:00:00 | 00:00:00 | |
| GYPAP8-17 | 2026-08-31 00:02:23 | 48.97071 | 20.98038 | 84° | 35km/h | 15438m | 5.0m/s | -54.9°C | 2.5% | 120.5hPa | 2.7V | 00:00:00 | 00:00:00 | 00:00:00 | |
| SQ9EZE-14 | 2026-08-31 00:02:14 | 48.97064 | 20.97921 | 91° | 42km/h | 15404m | 4.7m/s | -54.9°C | 2.6% | 121.1hPa | 2.7V | 00:00:00 | 00:00:00 | 00:00:00 | |
| SQ9EZE-13 | 2026-08-31 00:02:11 | 48.97065 | 20.97873 | 91° | 40km/h | 15391m | 4.7m/s | -55.1°C | 2.7% | 121.4hPa | 2.7V | 00:00:00 | 00:00:00 | 00:00:00 | |
| SP9KGR-15 | 2026-08-31 00:02:05 | 48.97062 | 20.97830 | 81° | 37km/h | 15378m | 4.4m/s | -55.2°C | 2.7% | 121.6hPa | 2.7V | 00:00:00 | 00:00:00 | 00:00:00 | |
| SQ9EZE-15 | 2026-08-31 00:01:52 | 48.97047 | 20.97722 | 80° | 35km/h | 15346m | 4.4m/s | -55.2°C | 2.8% | 122.2hPa | 2.7V | 00:00:00 | 00:00:00 | 00:00:00 | |
| SQ9EZE-14 | 2026-08-31 00:01:51 | 48.97044 | 20.97695 | 83° | 37km/h | 15338m | 3.3m/s | -55.3°C | 2.8% | 122.4hPa | 2.7V | 00:00:00 | 00:00:00 | 00:00:00 | |
| SQ9EZE-13 | 2026-08-31 00:01:43 | 48.97043 | 20.97636 | 93° | 42km/h | 15323m | 3.9m/s | -55.2°C | 2.8% | 122.7hPa | 2.7V | 00:00:00 | 00:00:00 | 00:00:00 | |
| SP9KGR-15 | 2026-08-31 00:01:40 | 48.97043 | 20.97603 | 91° | 46km/h | 15315m | 3.5m/s | -55.3°C | 2.9% | 122.9hPa | 2.7V | 00:00:00 | 00:00:00 | 00:00:00 | |
| HA6NAB-11 | 2026-08-31 00:01:30 | 48.97042 | 20.97481 | 90° | 46km/h | 15287m | 3.7m/s | -55.6°C | 3.0% | 123.4hPa | 2.7V | 00:00:00 | 00:00:00 | 00:00:00 | |
| SQ9EZE-13 | 2026-08-31 00:01:23 | 48.97047 | 20.97354 | 98° | 55km/h | 15258m | 4.5m/s | -55.6°C | 3.0% | 123.9hPa | 2.7V | 00:00:00 | 00:00:00 | 00:00:00 | |
| SP9KGR-15 | 2026-08-31 00:01:20 | 48.97049 | 20.97332 | 99° | 57km/h | 15254m | 4.1m/s | -55.6°C | 3.0% | 124.0hPa | 2.7V | 00:00:00 | 00:00:00 | 00:00:00 | |
| HA6NAB-11 | 2026-08-31 00:01:14 | 48.97055 | 20.97242 | 94° | 60km/h | 15238m | 3.0m/s | -55.6°C | 3.1% | 124.3hPa | 2.7V | 00:00:00 | 00:00:00 | 00:00:00 | |
| HA6NAB-11 | 2026-08-31 00:01:10 | 48.97057 | 20.97112 | 89° | 53km/h | 15215m | 4.0m/s | -55.6°C | 3.1% | 124.8hPa | 2.7V | 00:00:00 | 00:00:00 | 00:00:00 | |
| SQ9EZE-13 | 2026-08-31 00:01:01 | 48.97055 | 20.97014 | 89° | 51km/h | 15194m | 3.6m/s | -55.7°C | 3.2% | 125.2hPa | 2.7V | 00:00:00 | 00:00:00 | 00:00:00 | |
| HA6NAB-11 | 2026-08-31 00:00:59 | 48.97055 | 20.96995 | 90° | 51km/h | 15190m | 3.7m/s | -55.7°C | 3.2% | 125.3hPa | 2.7V | 00:00:00 | 00:00:00 | 00:00:00 | |
| SQ9EZE-15 | 2026-08-31 00:00:55 | 48.97056 | 20.96934 | 91° | 55km/h | 15179m | 4.3m/s | -55.6°C | 3.3% | 125.5hPa | 2.7V | 00:00:00 | 00:00:00 | 00:00:00 | |
| HA6NAB-11 | 2026-08-31 00:00:53 | 48.97053 | 20.96871 | 85° | 53km/h | 15168m | 4.0m/s | -55.7°C | 3.3% | 125.7hPa | 2.7V | 00:00:00 | 00:00:00 | 00:00:00 | |
| HA6NAB-11 | 2026-08-31 00:00:45 | 48.97051 | 20.96765 | 91° | 44km/h | 15144m | 4.7m/s | -55.7°C | 3.3% | 126.2hPa | 2.7V | 00:00:00 | 00:00:00 | 00:00:00 | |
| SP9KGR-15 | 2026-08-31 00:00:44 | 48.97048 | 20.96711 | 83° | 51km/h | 15132m | 4.5m/s | -55.8°C | 3.2% | 126.4hPa | 2.7V | 00:00:00 | 00:00:00 | 00:00:00 | |
| HA6NAB-11 | 2026-08-31 00:00:42 | 48.97039 | 20.96649 | 74° | 57km/h | 15120m | 3.9m/s | -55.8°C | 3.3% | 126.6hPa | 2.7V | 00:00:00 | 00:00:00 | 00:00:00 | |
| HA6NAB-11 | 2026-08-31 00:00:34 | 48.97021 | 20.96534 | 87° | 44km/h | 15098m | 4.8m/s | -56.0°C | 3.6% | 127.1hPa | 2.7V | 00:00:00 | 00:00:00 | 00:00:00 | |
| HA6NAB-11 | 2026-08-31 00:00:30 | 48.97020 | 20.96450 | 84° | 49km/h | 15080m | 3.5m/s | -56.4°C | 3.6% | 127.5hPa | 2.7V | 00:00:00 | 00:00:00 | 00:00:00 | |
| SP9KGR-15 | 2026-08-31 00:00:28 | 48.97018 | 20.96431 | 80° | 49km/h | 15077m | 3.4m/s | -56.4°C | 3.6% | 127.5hPa | 2.7V | 00:00:00 | 00:00:00 | 00:00:00 | |
| HA6NAB-11 | 2026-08-31 00:00:19 | 48.97003 | 20.96259 | 93° | 38km/h | 15040m | 4.5m/s | -56.4°C | 3.7% | 128.3hPa | 2.7V | 00:00:00 | 00:00:00 | 00:00:00 | |
| HA6NAB-11 | 2026-08-31 00:00:13 | 48.97000 | 20.96189 | 81° | 38km/h | 15021m | 3.1m/s | -56.3°C | 3.7% | 128.7hPa | 2.7V | 00:00:00 | 00:00:00 | 00:00:00 | |
| SQ9EZE-13 | 2026-08-31 00:00:11 | 48.96999 | 20.96175 | 85° | 38km/h | 15017m | 4.3m/s | -56.3°C | 3.7% | 128.8hPa | 2.7V | 00:00:00 | 00:00:00 | 00:00:00 | |
| SP9KGR-15 | 2026-08-31 00:00:10 | 48.96999 | 20.96175 | 85° | 38km/h | 15017m | 4.3m/s | -56.3°C | 3.7% | 128.8hPa | 2.7V | 00:00:00 | 00:00:00 | 00:00:00 | |
| HA6NAB-11 | 2026-08-31 00:00:08 | 48.96998 | 20.96118 | 97° | 35km/h | 15001m | 3.8m/s | -56.3°C | 0% | 129.0hPa | 2.7V | 00:00:00 | 00:00:00 | 00:00:00 | |
| HA6NAB-11 | 2026-08-31 00:00:00 | 48.97004 | 20.96050 | 97° | 33km/h | 14981m | 5.3m/s | -56.3°C | 0% | 129.5hPa | 2.7V | 00:00:00 | 00:00:00 | 00:00:00 | |
| HA6NAB-11 | 2026-08-30 23:59:54 | 48.97012 | 20.95971 | 103° | 35km/h | 14956m | 5.0m/s | -56.3°C | 0% | 130.0hPa | 2.7V | 00:00:00 | 00:00:00 | 00:00:00 | |
| SQ9EZE-13 | 2026-08-30 23:59:53 | 48.97013 | 20.95957 | 103° | 35km/h | 14952m | 3.3m/s | -56.3°C | 4.1% | 130.0hPa | 2.7V | 00:00:00 | 00:00:00 | 00:00:00 | |
| HA6NAB-11 | 2026-08-30 23:59:48 | 48.97023 | 20.95885 | 104° | 37km/h | 14932m | 4.4m/s | -56.3°C | 0% | 130.4hPa | 2.7V | 00:00:00 | 00:00:00 | 00:00:00 | |
| GYPAP8-17 | 2026-08-30 23:59:44 | 48.97031 | 20.95831 | 105° | 37km/h | 14918m | 3.7m/s | -56.4°C | 4.1% | 130.8hPa | 2.7V | 00:00:00 | 00:00:00 | 00:00:00 | |
| HA6NAB-11 | 2026-08-30 23:59:42 | 48.97036 | 20.95803 | 110° | 38km/h | 14910m | 4.2m/s | -56.4°C | 0% | 130.9hPa | 2.7V | 00:00:00 | 00:00:00 | 00:00:00 | |
| SQ9EZE-15 | 2026-08-30 23:59:40 | 48.97042 | 20.95775 | 107° | 38km/h | 14901m | 4.5m/s | -56.4°C | 4.1% | 131.1hPa | 2.7V | 00:00:00 | 00:00:00 | 00:00:00 | |
| SP9KGR-15 | 2026-08-30 23:59:37 | 48.97049 | 20.95730 | 104° | 40km/h | 14889m | 4.5m/s | -56.3°C | 4.1% | 131.3hPa | 2.7V | 00:00:00 | 00:00:00 | 00:00:00 | |
| HA6NAB-11 | 2026-08-30 23:59:35 | 48.97054 | 20.95700 | 107° | 42km/h | 14881m | 3.5m/s | -56.3°C | 0% | 131.5hPa | 2.7V | 00:00:00 | 00:00:00 | 00:00:00 | |
| SQ9EZE-14 | 2026-08-30 23:59:32 | 48.97062 | 20.95651 | 104° | 47km/h | 14868m | 3.8m/s | -56.3°C | 4.2% | 131.7hPa | 2.7V | 00:00:00 | 00:00:00 | 00:00:00 | |
| SQ9EZE-13 | 2026-08-30 23:59:22 | 48.97104 | 20.95472 | 111° | 51km/h | 14829m | 3.6m/s | -56.1°C | 4.1% | 132.6hPa | 2.7V | 00:00:00 | 00:00:00 | 00:00:00 | |
| SQ9EZE-15 | 2026-08-30 23:59:19 | 48.97117 | 20.95414 | 109° | 53km/h | 14817m | 4.1m/s | -56.1°C | 4.2% | 132.8hPa | 2.7V | 00:00:00 | 00:00:00 | 00:00:00 | |
| SQ9EZE-14 | 2026-08-30 23:59:16 | 48.97131 | 20.95355 | 110° | 57km/h | 14804m | 4.2m/s | -56.1°C | 4.2% | 133.1hPa | 2.7V | 00:00:00 | 00:00:00 | 00:00:00 | |
| SP9KGR-15 | 2026-08-30 23:59:07 | 48.97172 | 20.95158 | 108° | 62km/h | 14767m | 3.8m/s | -56.0°C | 4.2% | 133.9hPa | 2.7V | 00:00:00 | 00:00:00 | 00:00:00 | |
| SQ9EZE-13 | 2026-08-30 23:59:06 | 48.97177 | 20.95135 | 108° | 62km/h | 14763m | 4.9m/s | -56.0°C | 4.2% | 134.0hPa | 2.7V | 00:00:00 | 00:00:00 | 00:00:00 | |
| SP9KGR-15 | 2026-08-30 23:58:52 | 48.97251 | 20.94798 | 109° | 69km/h | 14707m | 3.3m/s | -56.2°C | 4.1% | 135.1hPa | 2.7V | 00:00:00 | 00:00:00 | 00:00:00 | |
| SQ9EZE-13 | 2026-08-30 23:58:51 | 48.97256 | 20.94772 | 109° | 69km/h | 14703m | 4.3m/s | -56.2°C | 4.1% | 135.2hPa | 2.7V | 00:00:00 | 00:00:00 | 00:00:00 | |
| SP9KGR-15 | 2026-08-30 23:58:37 | 48.97347 | 20.94348 | 106° | 82km/h | 14643m | 4.7m/s | -56.6°C | 3.9% | 136.5hPa | 2.7V | 00:00:00 | 00:00:00 | 00:00:00 | |
| SQ9EZE-13 | 2026-08-30 23:58:35 | 48.97352 | 20.94318 | 104° | 82km/h | 14639m | 3.9m/s | -56.6°C | 3.9% | 136.6hPa | 2.7V | 00:00:00 | 00:00:00 | 00:00:00 | |
| GYPAP8-17 | 2026-08-30 23:58:28 | 48.97384 | 20.94060 | 104° | 86km/h | 14608m | 4.3m/s | -56.6°C | 3.8% | 137.3hPa | 2.7V | 00:00:00 | 00:00:00 | 00:00:00 | |
| SQ9EZE-13 | 2026-08-30 23:58:20 | 48.97416 | 20.93845 | 100° | 80km/h | 14580m | 3.7m/s | -56.7°C | 3.7% | 137.9hPa | 2.7V | 00:00:00 | 00:00:00 | 00:00:00 | |
| SQ9EZE-15 | 2026-08-30 23:58:17 | 48.97425 | 20.93753 | 99° | 78km/h | 14569m | 3.8m/s | -56.6°C | 3.7% | 138.1hPa | 2.7V | 00:00:00 | 00:00:00 | 00:00:00 | |
| SQ9EZE-13 | 2026-08-30 23:58:04 | 48.97475 | 20.93377 | 105° | 73km/h | 14516m | 4.3m/s | -56.9°C | 3.8% | 139.2hPa | 2.7V | 00:00:00 | 00:00:00 | 00:00:00 | |
| SP9KGR-15 | 2026-08-30 23:57:49 | 48.97552 | 20.92961 | 107° | 73km/h | 14458m | 3.1m/s | -56.9°C | 3.7% | 140.5hPa | 2.7V | 00:00:00 | 00:00:00 | 00:00:00 | |
| SQ9EZE-13 | 2026-08-30 23:57:48 | 48.97557 | 20.92933 | 106° | 77km/h | 14455m | 4.3m/s | -56.9°C | 3.7% | 140.6hPa | 2.7V | 00:00:00 | 00:00:00 | 00:00:00 | |
| HA6NAB-11 | 2026-08-30 23:57:39 | 48.97596 | 20.92680 | 103° | 69km/h | 14420m | 4.1m/s | -56.8°C | 0% | 141.4hPa | 2.7V | 00:00:00 | 00:00:00 | 00:00:00 | |
| SP9KGR-15 | 2026-08-30 23:57:34 | 48.97613 | 20.92546 | 103° | 73km/h | 14401m | 4.4m/s | -56.7°C | 3.5% | 141.8hPa | 2.7V | 00:00:00 | 00:00:00 | 00:00:00 | |
| SQ9EZE-13 | 2026-08-30 23:57:32 | 48.97621 | 20.92490 | 102° | 77km/h | 14393m | 4.2m/s | -56.6°C | 3.4% | 142.0hPa | 2.7V | 00:00:00 | 00:00:00 | 00:00:00 | |
| HA6NAB-11 | 2026-08-30 23:57:31 | 48.97624 | 20.92461 | 102° | 77km/h | 14389m | 4.1m/s | -56.6°C | 0% | 142.1hPa | 2.7V | 00:00:00 | 00:00:00 | 00:00:00 | |
| GYPAP8-17 | 2026-08-30 23:57:25 | 48.97643 | 20.92297 | 99° | 68km/h | 14366m | 3.3m/s | -56.5°C | 3.3% | 142.6hPa | 2.7V | 00:00:00 | 00:00:00 | 00:00:00 | |
| HA6NAB-11 | 2026-08-30 23:57:23 | 48.97648 | 20.92245 | 99° | 69km/h | 14358m | 3.6m/s | -56.5°C | 0% | 142.8hPa | 2.7V | 00:00:00 | 00:00:00 | 00:00:00 | |
| SP9KGR-15 | 2026-08-30 23:57:18 | 48.97659 | 20.92105 | 99° | 77km/h | 14338m | 3.6m/s | -56.4°C | 3.2% | 143.2hPa | 2.7V | 00:00:00 | 00:00:00 | 00:00:00 | |
| SQ9EZE-13 | 2026-08-30 23:57:17 | 48.97662 | 20.92076 | 99° | 77km/h | 14335m | 3.2m/s | -56.4°C | 3.3% | 143.3hPa | 2.7V | 00:00:00 | 00:00:00 | 00:00:00 | |
| SQ9EZE-14 | 2026-08-30 23:57:16 | 48.97664 | 20.92046 | 98° | 77km/h | 14331m | 3.9m/s | -56.4°C | 3.2% | 143.4hPa | 2.7V | 00:00:00 | 00:00:00 | 00:00:00 | |
| HA6NAB-11 | 2026-08-30 23:57:11 | 48.97674 | 20.91901 | 97° | 75km/h | 14312m | 3.8m/s | -56.4°C | 0% | 143.8hPa | 2.7V | 00:00:00 | 00:00:00 | 00:00:00 | |
| HA6NAB-11 | 2026-08-30 23:57:06 | 48.97684 | 20.91756 | 98° | 77km/h | 14293m | 3.1m/s | -56.3°C | 0% | 144.2hPa | 2.7V | 00:00:00 | 00:00:00 | 00:00:00 | |
| SP9KGR-15 | 2026-08-30 23:57:03 | 48.97691 | 20.91668 | 98° | 77km/h | 14282m | 3.3m/s | -56.3°C | 3.2% | 144.5hPa | 2.7V | 00:00:00 | 00:00:00 | 00:00:00 | |
| SQ9EZE-13 | 2026-08-30 23:57:02 | 48.97694 | 20.91639 | 99° | 77km/h | 14278m | 3.9m/s | -56.3°C | 3.2% | 144.6hPa | 2.7V | 00:00:00 | 00:00:00 | 00:00:00 | |
| SQ9EZE-14 | 2026-08-30 23:57:00 | 48.97699 | 20.91580 | 98° | 77km/h | 14271m | 4.2m/s | -56.3°C | 3.2% | 144.7hPa | 2.7V | 00:00:00 | 00:00:00 | 00:00:00 | |
| SQ9EZE-15 | 2026-08-30 23:56:53 | 48.97715 | 20.91389 | 98° | 68km/h | 14244m | 3.5m/s | -56.3°C | 3.3% | 145.3hPa | 2.7V | 00:00:00 | 00:00:00 | 00:00:00 | |
| SP9KGR-15 | 2026-08-30 23:56:47 | 48.97729 | 20.91228 | 97° | 71km/h | 14222m | 3.5m/s | -56.4°C | 3.3% | 145.8hPa | 2.7V | 00:00:00 | 00:00:00 | 00:00:00 | |
| SQ9EZE-13 | 2026-08-30 23:56:46 | 48.97730 | 20.91201 | 98° | 69km/h | 14218m | 3.9m/s | -56.4°C | 3.3% | 145.9hPa | 2.7V | 00:00:00 | 00:00:00 | 00:00:00 | |
| SP9KGR-15 | 2026-08-30 23:56:32 | 48.97750 | 20.90846 | 92° | 68km/h | 14166m | 3.2m/s | -56.4°C | 3.6% | 147.1hPa | 2.7V | 00:00:00 | 00:00:00 | 00:00:00 | |
| SQ9EZE-13 | 2026-08-30 23:56:31 | 48.97750 | 20.90820 | 93° | 69km/h | 14163m | 3.1m/s | -56.5°C | 3.6% | 147.2hPa | 2.7V | 00:00:00 | 00:00:00 | 00:00:00 | |
| SQ9EZE-13 | 2026-08-30 23:56:17 | 48.97782 | 20.90427 | 96° | 71km/h | 14108m | 4.4m/s | -56.7°C | 3.7% | 148.5hPa | 2.7V | 00:00:00 | 00:00:00 | 00:00:00 | |
| SQ9EZE-13 | 2026-08-30 23:56:00 | 48.97797 | 20.89975 | 91° | 78km/h | 14046m | 4.1m/s | -57.0°C | 3.9% | 149.9hPa | 2.7V | 00:00:00 | 00:00:00 | 00:00:00 | |
| GYPAP8-17 | 2026-08-30 23:55:58 | 48.97796 | 20.89916 | 90° | 75km/h | 14038m | 3.4m/s | -56.9°C | 4.0% | 150.2hPa | 2.7V | 00:00:00 | 00:00:00 | 00:00:00 | |
| SQ9EZE-15 | 2026-08-30 23:55:44 | 48.97804 | 20.89525 | 96° | 75km/h | 13984m | 3.3m/s | -56.6°C | 3.9% | 151.4hPa | 2.7V | 00:00:00 | 00:00:00 | 00:00:00 | |
| SQ9EZE-13 | 2026-08-30 23:55:43 | 48.97805 | 20.89496 | 95° | 73km/h | 13980m | 4.6m/s | -56.5°C | 3.9% | 151.5hPa | 2.7V | 00:00:00 | 00:00:00 | 00:00:00 | |
| HA6NAB-11 | 2026-08-30 23:55:40 | 48.97810 | 20.89413 | 98° | 71km/h | 13968m | 4.2m/s | -56.4°C | 0% | 151.8hPa | 2.7V | 00:00:00 | 00:00:00 | 00:00:00 | |
| HA6NAB-11 | 2026-08-30 23:55:35 | 48.97821 | 20.89279 | 99° | 71km/h | 13949m | 4.7m/s | -56.3°C | 0% | 152.2hPa | 2.7V | 00:00:00 | 00:00:00 | 00:00:00 | |
| HA6NAB-11 | 2026-08-30 23:55:30 | 48.97832 | 20.89145 | 99° | 69km/h | 13928m | 4.7m/s | -56.2°C | 0% | 152.8hPa | 2.7V | 00:00:00 | 00:00:00 | 00:00:00 | |
| SP9KGR-15 | 2026-08-30 23:55:29 | 48.97835 | 20.89119 | 100° | 69km/h | 13924m | 4.0m/s | -56.1°C | 3.9% | 152.9hPa | 2.7V | 00:00:00 | 00:00:00 | 00:00:00 | |
| HA6NAB-11 | 2026-08-30 23:55:24 | 48.97848 | 20.88992 | 102° | 66km/h | 13905m | 4.5m/s | -56.0°C | 0% | 153.3hPa | 2.7V | 00:00:00 | 00:00:00 | 00:00:00 | |
| SQ9EZE-15 | 2026-08-30 23:55:23 | 48.97851 | 20.88966 | 103° | 68km/h | 13901m | 3.4m/s | -56.0°C | 3.9% | 153.4hPa | 2.7V | 00:00:00 | 00:00:00 | 00:00:00 | |
| SQ9EZE-13 | 2026-08-30 23:55:21 | 48.97858 | 20.88916 | 100° | 68km/h | 13893m | 4.3m/s | -55.9°C | 3.9% | 153.6hPa | 2.7V | 00:00:00 | 00:00:00 | 00:00:00 | |
| SP9KGR-15 | 2026-08-30 23:55:13 | 48.97883 | 20.88719 | 105° | 68km/h | 13861m | 4.6m/s | -55.9°C | 3.9% | 154.4hPa | 2.7V | 00:00:00 | 00:00:00 | 00:00:00 | |
| SQ9EZE-13 | 2026-08-30 23:55:06 | 48.97910 | 20.88538 | 104° | 69km/h | 13833m | 3.7m/s | -56.0°C | 3.8% | 155.1hPa | 2.7V | 00:00:00 | 00:00:00 | 00:00:00 | |
| SQ9EZE-14 | 2026-08-30 23:54:59 | 48.97942 | 20.88363 | 109° | 68km/h | 13804m | 4.2m/s | -56.2°C | 3.8% | 155.8hPa | 2.7V | 00:00:00 | 00:00:00 | 00:00:00 | |
| SP9KGR-15 | 2026-08-30 23:54:57 | 48.97952 | 20.88314 | 110° | 68km/h | 13797m | 4.2m/s | -56.1°C | 3.9% | 156.0hPa | 2.7V | 00:00:00 | 00:00:00 | 00:00:00 | |
| SQ9EZE-14 | 2026-08-30 23:54:44 | 48.98027 | 20.87952 | 109° | 75km/h | 13746m | 3.7m/s | -56.4°C | 4.0% | 157.2hPa | 2.7V | 00:00:00 | 00:00:00 | 00:00:00 | |
| GYPAP8-17 | 2026-08-30 23:54:43 | 48.98033 | 20.87925 | 109° | 71km/h | 13741m | 4.8m/s | -56.4°C | 4.0% | 157.3hPa | 2.7V | 00:00:00 | 00:00:00 | 00:00:00 | |
| SP9KGR-15 | 2026-08-30 23:54:42 | 48.98038 | 20.87899 | 109° | 71km/h | 13737m | 3.1m/s | -56.5°C | 4.1% | 157.4hPa | 2.7V | 00:00:00 | 00:00:00 | 00:00:00 | |
| SQ9EZE-13 | 2026-08-30 23:54:35 | 48.98084 | 20.87706 | 110° | 77km/h | 13711m | 3.7m/s | -56.4°C | 4.1% | 158.1hPa | 2.7V | 00:00:00 | 00:00:00 | 00:00:00 | |
| SP9KGR-15 | 2026-08-30 23:54:26 | 48.98130 | 20.87456 | 104° | 77km/h | 13677m | 2.9m/s | -56.3°C | 4.2% | 159.0hPa | 2.7V | 00:00:00 | 00:00:00 | 00:00:00 | |
| SQ9EZE-15 | 2026-08-30 23:54:20 | 48.98170 | 20.87256 | 108° | 78km/h | 13650m | 4.4m/s | -56.3°C | 4.3% | 159.6hPa | 2.7V | 00:00:00 | 00:00:00 | 00:00:00 | |
| HA6NAB-11 | 2026-08-30 23:54:13 | 48.98201 | 20.87084 | 107° | 80km/h | 13624m | 4.5m/s | -56.3°C | 0% | 160.3hPa | 2.7V | 00:00:00 | 00:00:00 | 00:00:00 | |
| SP9KGR-15 | 2026-08-30 23:54:10 | 48.98219 | 20.86992 | 108° | 86km/h | 13612m | 4.6m/s | -56.2°C | 4.4% | 160.5hPa | 2.7V | 00:00:00 | 00:00:00 | 00:00:00 | |
| HA6NAB-11 | 2026-08-30 23:54:08 | 48.98232 | 20.86928 | 109° | 88km/h | 13604m | 4.0m/s | -56.2°C | 0% | 160.7hPa | 2.7V | 00:00:00 | 00:00:00 | 00:00:00 | |
| SQ9EZE-13 | 2026-08-30 23:54:02 | 48.98268 | 20.86745 | 105° | 78km/h | 13580m | 4.5m/s | -56.1°C | 4.6% | 161.3hPa | 2.7V | 00:00:00 | 00:00:00 | 00:00:00 | |
| SQ9EZE-15 | 2026-08-30 23:54:00 | 48.98282 | 20.86656 | 104° | 80km/h | 13568m | 4.3m/s | -56.1°C | 4.7% | 161.7hPa | 2.7V | 00:00:00 | 00:00:00 | 00:00:00 | |
| HA6NAB-11 | 2026-08-30 23:53:57 | 48.98292 | 20.86595 | 105° | 82km/h | 13561m | 4.2m/s | -56.1°C | 0% | 161.8hPa | 2.7V | 00:00:00 | 00:00:00 | 00:00:00 | |
| SP9KGR-15 | 2026-08-30 23:53:55 | 48.98302 | 20.86535 | 106° | 80km/h | 13553m | 3.8m/s | -56.1°C | 4.7% | 162.0hPa | 2.7V | 00:00:00 | 00:00:00 | 00:00:00 | |
| HA6NAB-11 | 2026-08-30 23:53:51 | 48.98322 | 20.86417 | 105° | 78km/h | 13536m | 4.5m/s | -56.2°C | 0% | 162.5hPa | 2.7V | 00:00:00 | 00:00:00 | 00:00:00 | |
| HA6NAB-11 | 2026-08-30 23:53:46 | 48.98343 | 20.86272 | 102° | 75km/h | 13517m | 4.5m/s | -56.3°C | 0% | 163.0hPa | 2.7V | 00:00:00 | 00:00:00 | 00:00:00 | |
| HA6NAB-11 | 2026-08-30 23:53:40 | 48.98365 | 20.86095 | 104° | 84km/h | 13494m | 4.3m/s | -56.3°C | 0% | 163.6hPa | 2.7V | 00:00:00 | 00:00:00 | 00:00:00 | |
| SP9KGR-15 | 2026-08-30 23:53:39 | 48.98370 | 20.86064 | 105° | 88km/h | 13490m | 3.7m/s | -56.4°C | 5.2% | 163.7hPa | 2.7V | 00:00:00 | 00:00:00 | 00:00:00 | |
| HA6NAB-11 | 2026-08-30 23:53:35 | 48.98390 | 20.85930 | 104° | 88km/h | 13474m | 4.4m/s | -56.6°C | 0% | 164.1hPa | 2.7V | 00:00:00 | 00:00:00 | 00:00:00 | |
| SQ9EZE-13 | 2026-08-30 23:53:31 | 48.98405 | 20.85803 | 98° | 80km/h | 13458m | 4.1m/s | -56.7°C | 5.5% | 164.5hPa | 2.7V | 00:00:00 | 00:00:00 | 00:00:00 | |
| HA6NAB-11 | 2026-08-30 23:53:29 | 48.98410 | 20.85743 | 98° | 78km/h | 13450m | 4.3m/s | -56.7°C | 0% | 164.7hPa | 2.7V | 00:00:00 | 00:00:00 | 00:00:00 | |
| GYPAP8-17 | 2026-08-30 23:53:27 | 48.98416 | 20.85684 | 100° | 80km/h | 13444m | 3.4m/s | -56.7°C | 5.9% | 164.9hPa | 2.7V | 00:00:00 | 00:00:00 | 00:00:00 | |
| HA6NAB-11 | 2026-08-30 23:53:24 | 48.98426 | 20.85592 | 102° | 82km/h | 13432m | 4.1m/s | -56.7°C | 0% | 165.2hPa | 2.7V | 00:00:00 | 00:00:00 | 00:00:00 | |
| SP9KGR-15 | 2026-08-30 23:53:23 | 48.98430 | 20.85560 | 103° | 82km/h | 13428m | 3.8m/s | -56.7°C | 5.9% | 165.3hPa | 2.7V | 00:00:00 | 00:00:00 | 00:00:00 | |
| HA6NAB-11 | 2026-08-30 23:53:18 | 48.98450 | 20.85404 | 103° | 84km/h | 13409m | 4.6m/s | -56.6°C | 0% | 165.8hPa | 2.7V | 00:00:00 | 00:00:00 | 00:00:00 | |
| SQ9EZE-13 | 2026-08-30 23:53:15 | 48.98464 | 20.85310 | 103° | 82km/h | 13398m | 4.7m/s | -56.6°C | 5.8% | 166.1hPa | 2.7V | 00:00:00 | 00:00:00 | 00:00:00 | |
| SP9KGR-15 | 2026-08-30 23:53:08 | 48.98492 | 20.85111 | 102° | 71km/h | 13369m | 3.2m/s | -56.5°C | 6.1% | 166.8hPa | 2.7V | 00:00:00 | 00:00:00 | 00:00:00 | |
| SQ9EZE-15 | 2026-08-30 23:52:55 | 48.98529 | 20.84757 | 99° | 73km/h | 13321m | 4.2m/s | -56.3°C | 6.3% | 168.1hPa | 2.7V | 00:00:00 | 00:00:00 | 00:00:00 | |
| SP9KGR-15 | 2026-08-30 23:52:52 | 48.98537 | 20.84675 | 100° | 71km/h | 13309m | 4.7m/s | -56.4°C | 6.4% | 168.4hPa | 2.7V | 00:00:00 | 00:00:00 | 00:00:00 | |
| SQ9EZE-13 | 2026-08-30 23:52:49 | 48.98546 | 20.84594 | 101° | 73km/h | 13297m | 3.8m/s | -56.4°C | 6.4% | 168.7hPa | 2.7V | 00:00:00 | 00:00:00 | 00:00:00 | |
| SQ9EZE-14 | 2026-08-30 23:52:44 | 48.98560 | 20.84456 | 101° | 73km/h | 13278m | 5.0m/s | -56.7°C | 6.6% | 169.2hPa | 2.7V | 00:00:00 | 00:00:00 | 00:00:00 | |
| SP9KGR-15 | 2026-08-30 23:52:36 | 48.98596 | 20.84248 | 108° | 71km/h | 13247m | 4.1m/s | -56.8°C | 6.5% | 170.1hPa | 2.7V | 00:00:00 | 00:00:00 | 00:00:00 | |
| SQ9EZE-13 | 2026-08-30 23:52:32 | 48.98617 | 20.84137 | 107° | 78km/h | 13232m | 3.5m/s | -57.0°C | 6.4% | 170.5hPa | 2.7V | 00:00:00 | 00:00:00 | 00:00:00 | |
| SQ9EZE-14 | 2026-08-30 23:52:28 | 48.98638 | 20.84023 | 108° | 73km/h | 13216m | 3.9m/s | -57.0°C | 6.3% | 170.9hPa | 2.7V | 00:00:00 | 00:00:00 | 00:00:00 | |
| GYPAP8-17 | 2026-08-30 23:52:21 | 48.98669 | 20.83827 | 101° | 80km/h | 13190m | 3.6m/s | -56.9°C | 6.5% | 171.6hPa | 2.7V | 00:00:00 | 00:00:00 | 00:00:00 | |
| SQ9EZE-13 | 2026-08-30 23:52:16 | 48.98682 | 20.83676 | 99° | 75km/h | 13173m | 4.1m/s | -56.9°C | 6.6% | 172.1hPa | 2.7V | 00:00:00 | 00:00:00 | 00:00:00 | |
| HA6NAB-11 | 2026-08-30 23:52:15 | 48.98685 | 20.83648 | 102° | 73km/h | 13169m | 3.3m/s | -56.9°C | 0% | 172.2hPa | 2.7V | 00:00:00 | 00:00:00 | 00:00:00 | |
| HA6NAB-11 | 2026-08-30 23:52:10 | 48.98705 | 20.83508 | 104° | 78km/h | 13152m | 3.6m/s | -57.1°C | 0% | 172.6hPa | 2.7V | 00:00:00 | 00:00:00 | 00:00:00 | |
| SP9KGR-15 | 2026-08-30 23:52:06 | 48.98722 | 20.83389 | 101° | 78km/h | 13137m | 4.0m/s | -57.3°C | 7.1% | 173.1hPa | 2.7V | 00:00:00 | 00:00:00 | 00:00:00 | |
| HA6NAB-11 | 2026-08-30 23:52:04 | 48.98728 | 20.83330 | 101° | 77km/h | 13131m | 3.3m/s | -57.3°C | 0% | 173.2hPa | 2.7V | 00:00:00 | 00:00:00 | 00:00:00 | |
| SQ9EZE-13 | 2026-08-30 23:52:01 | 48.98739 | 20.83246 | 103° | 73km/h | 13120m | 4.0m/s | -57.5°C | 7.4% | 173.5hPa | 2.7V | 00:00:00 | 00:00:00 | 00:00:00 | |
| HA6NAB-11 | 2026-08-30 23:51:58 | 48.98752 | 20.83163 | 105° | 75km/h | 13109m | 4.2m/s | -57.6°C | 0% | 0hPa | 2.7V | 00:00:00 | 00:00:00 | 00:00:00 | |
| OE3JTB-15 | 2026-08-30 23:51:57 | 48.98761 | 20.83106 | 104° | 75km/h | 13102m | 3.6m/s | -57.6°C | 11.6% | 174.0hPa | 2.7V | 00:00:00 | 00:00:00 | 00:00:00 | |
| SP9KGR-15 | 2026-08-30 23:51:51 | 48.98781 | 20.82954 | 103° | 80km/h | 13084m | 3.4m/s | -57.7°C | 7.9% | 174.6hPa | 2.7V | 00:00:00 | 00:00:00 | 00:00:00 | |
| SQ9EZE-13 | 2026-08-30 23:51:46 | 48.98803 | 20.82813 | 109° | 73km/h | 13065m | 3.9m/s | -58.0°C | 8.3% | 175.0hPa | 2.7V | 00:00:00 | 00:00:00 | 00:00:00 | |
| SP9KGR-15 | 2026-08-30 23:51:35 | 48.98854 | 20.82497 | 101° | 80km/h | 13027m | 4.3m/s | -58.0°C | 8.7% | 176.1hPa | 2.7V | 00:00:00 | 00:00:00 | 00:00:00 | |
| SQ9EZE-15 | 2026-08-30 23:51:31 | 48.98870 | 20.82381 | 103° | 75km/h | 13013m | 3.4m/s | -58.2°C | 9.0% | 176.5hPa | 2.7V | 00:00:00 | 00:00:00 | 00:00:00 | |
| GYPAP8-17 | 2026-08-30 23:51:30 | 48.98874 | 20.82353 | 103° | 75km/h | 13010m | 3.8m/s | -58.2°C | 9.0% | 176.6hPa | 2.7V | 00:00:00 | 00:00:00 | 00:00:00 | |
| SQ9EZE-13 | 2026-08-30 23:51:21 | 48.98906 | 20.82098 | 102° | 73km/h | 12975m | 3.5m/s | -58.3°C | 9.5% | 177.5hPa | 2.7V | 00:00:00 | 00:00:00 | 00:00:00 | |
| SP9KGR-15 | 2026-08-30 23:51:19 | 48.98914 | 20.82043 | 104° | 73km/h | 12968m | 4.1m/s | -58.2°C | 9.5% | 177.8hPa | 2.7V | 00:00:00 | 00:00:00 | 00:00:00 | |
| OE3JTB-15 | 2026-08-30 23:51:14 | 48.98941 | 20.81887 | 107° | 68km/h | 12947m | 3.5m/s | -58.5°C | 14.5% | 178.3hPa | 2.7V | 00:00:00 | 01:01:06 | 00:00:00 | |
| SQ9EZE-15 | 2026-08-30 23:51:11 | 48.98951 | 20.81835 | 108° | 69km/h | 12939m | 3.1m/s | -58.5°C | 10.1% | 178.6hPa | 2.7V | 00:00:00 | 00:00:00 | 00:00:00 | |
| SP9KGR-15 | 2026-08-30 23:51:05 | 48.98991 | 20.81659 | 110° | 68km/h | 12914m | 4.1m/s | -58.3°C | 10.4% | 179.3hPa | 2.7V | 00:00:00 | 00:00:00 | 00:00:00 | |
| SP9KGR-15 | 2026-08-30 23:50:49 | 48.99085 | 20.81295 | 115° | 69km/h | 12859m | 4.2m/s | -57.9°C | 11.8% | 180.8hPa | 2.7V | 00:00:00 | 00:00:00 | 00:00:00 | |
| OE3JTB-15 | 2026-08-30 23:50:44 | 48.99131 | 20.81156 | 117° | 69km/h | 12836m | 4.3m/s | -57.7°C | 16.9% | 181.5hPa | 2.7V | 00:00:00 | 00:00:00 | 00:00:00 | |
| SP9KGR-15 | 2026-08-30 23:50:33 | 48.99196 | 20.80911 | 112° | 73km/h | 12799m | 3.7m/s | -57.5°C | 13.0% | 182.6hPa | 2.6V | 00:00:00 | 00:00:00 | 00:00:00 | |
| SQ9EZE-13 | 2026-08-30 23:50:31 | 48.99209 | 20.80860 | 114° | 69km/h | 12790m | 4.4m/s | -57.5°C | 13.2% | 182.8hPa | 2.6V | 00:00:00 | 00:00:00 | 00:00:00 | |
| GYPAP8-17 | 2026-08-30 23:50:27 | 48.99240 | 20.80767 | 121° | 71km/h | 12774m | 3.8m/s | -57.4°C | 13.7% | 183.3hPa | 2.6V | 00:00:00 | 00:00:00 | 00:00:00 | |
| SP9KGR-15 | 2026-08-30 23:50:18 | 48.99313 | 20.80542 | 113° | 77km/h | 12741m | 4.2m/s | -57.3°C | 14.1% | 184.2hPa | 2.6V | 00:00:00 | 00:00:00 | 00:00:00 | |
| OE3JTB-15 | 2026-08-30 23:50:14 | 48.99354 | 20.80413 | 119° | 78km/h | 12722m | 3.8m/s | -57.1°C | 18.7% | 184.8hPa | 2.6V | 00:00:00 | 00:00:00 | 00:00:00 | |
| SQ9EZE-13 | 2026-08-30 23:50:12 | 48.99363 | 20.80388 | 118° | 75km/h | 12718m | 4.4m/s | -57.2°C | 14.2% | 184.9hPa | 2.6V | 00:00:00 | 00:00:00 | 00:00:00 | |
| SQ9EZE-15 | 2026-08-30 23:50:08 | 48.99398 | 20.80283 | 117° | 78km/h | 12701m | 4.1m/s | -57.1°C | 14.5% | 185.5hPa | 2.6V | 00:00:00 | 00:00:00 | 00:00:00 | |
| SP9KGR-15 | 2026-08-30 23:50:02 | 48.99448 | 20.80116 | 118° | 78km/h | 12678m | 3.3m/s | -56.9°C | 15.0% | 186.1hPa | 2.6V | 00:00:00 | 00:00:00 | 00:00:00 | |
| SQ9EZE-13 | 2026-08-30 23:49:56 | 48.99501 | 20.79956 | 118° | 80km/h | 12656m | 3.5m/s | -56.8°C | 15.2% | 186.8hPa | 2.6V | 00:00:00 | 00:00:00 | 00:00:00 | |
| SQ9EZE-15 | 2026-08-30 23:49:47 | 48.99583 | 20.79704 | 119° | 80km/h | 12623m | 3.3m/s | -56.6°C | 15.9% | 187.7hPa | 2.6V | 00:00:00 | 00:00:00 | 00:00:00 | |
| OE3JTB-15 | 2026-08-30 23:49:45 | 48.99612 | 20.79621 | 117° | 80km/h | 12612m | 3.1m/s | -56.4°C | 21.1% | 188.0hPa | 2.6V | 00:00:00 | 00:59:37 | 00:00:00 | |
| SQ9EZE-13 | 2026-08-30 23:49:39 | 48.99653 | 20.79482 | 113° | 80km/h | 12593m | 4.4m/s | -56.5°C | 16.8% | 188.6hPa | 2.6V | 00:00:00 | 00:00:00 | 00:00:00 | |
| SP9KGR-15 | 2026-08-30 23:49:31 | 48.99727 | 20.79228 | 118° | 78km/h | 12558m | 3.5m/s | -56.3°C | 18.1% | 189.7hPa | 2.6V | 00:00:00 | 00:00:00 | 00:00:00 | |
| SQ9EZE-13 | 2026-08-30 23:49:23 | 48.99788 | 20.79034 | 113° | 80km/h | 12530m | 4.4m/s | -56.1°C | 19.3% | 190.5hPa | 2.6V | 00:00:00 | 00:00:00 | 00:00:00 | |
| GYPAP8-17 | 2026-08-30 23:49:22 | 48.99796 | 20.79005 | 113° | 80km/h | 12525m | 4.4m/s | -56.1°C | 19.6% | 190.6hPa | 2.6V | 00:00:00 | 00:00:00 | 00:00:00 | |
| OE3JTB-15 | 2026-08-30 23:49:15 | 48.99862 | 20.78773 | 115° | 86km/h | 12493m | 3.5m/s | -56.0°C | 29.1% | 191.5hPa | 2.6V | 00:00:00 | 00:00:00 | 00:00:00 | |
| SQ9EZE-13 | 2026-08-30 23:49:07 | 48.99928 | 20.78584 | 120° | 77km/h | 12464m | 4.5m/s | -56.0°C | 25.3% | 192.5hPa | 2.7V | 00:00:00 | 00:00:00 | 00:00:00 | |
| SP9KGR-15 | 2026-08-30 23:49:00 | 48.99996 | 20.78336 | 112° | 91km/h | 12428m | 3.5m/s | -55.9°C | 28.9% | 193.6hPa | 2.7V | 00:00:00 | 00:00:00 | 00:00:00 | |
| SQ9EZE-13 | 2026-08-30 23:48:51 | 49.00065 | 20.78088 | 112° | 86km/h | 12390m | 4.1m/s | -56.0°C | 35.3% | 194.7hPa | 2.7V | 00:00:00 | 00:00:00 | 00:00:00 | |
| OE3JTB-15 | 2026-08-30 23:48:46 | 49.00117 | 20.77886 | 110° | 93km/h | 12361m | 3.7m/s | -58.5°C | 56.3% | 195.6hPa | 2.7V | 00:00:00 | 00:00:00 | 00:00:00 | |
| SP9KGR-15 | 2026-08-30 23:48:45 | 49.00124 | 20.77853 | 110° | 89km/h | 12357m | 4.4m/s | -58.6°C | 48.2% | 195.7hPa | 2.7V | 00:00:00 | 00:00:00 | 00:00:00 | |
| SQ9EZE-15 | 2026-08-30 23:48:44 | 49.00124 | 20.77853 | 110° | 89km/h | 12357m | 4.4m/s | -58.6°C | 48.2% | 195.7hPa | 2.7V | 00:00:00 | 00:00:00 | 00:00:00 | |
| SQ9EZE-13 | 2026-08-30 23:48:34 | 49.00191 | 20.77518 | 105° | 100km/h | 12311m | 3.9m/s | -59.0°C | 53.7% | 197.1hPa | 2.7V | 00:00:00 | 00:00:00 | 00:00:00 | |
| SQ9EZE-14 | 2026-08-30 23:48:31 | 49.00211 | 20.77407 | 107° | 99km/h | 12300m | 3.8m/s | -59.0°C | 54.5% | 197.5hPa | 2.7V | 00:00:00 | 00:00:00 | 00:00:00 | |
| SP9KGR-15 | 2026-08-30 23:48:28 | 49.00231 | 20.77300 | 107° | 93km/h | 12288m | 3.4m/s | -59.0°C | 55.8% | 197.9hPa | 2.7V | 00:00:00 | 00:00:00 | 00:00:00 | |
| SQ9EZE-15 | 2026-08-30 23:48:23 | 49.00262 | 20.77130 | 103° | 91km/h | 12269m | 3.3m/s | -59.2°C | 59.5% | 198.5hPa | 2.7V | 00:00:00 | 00:00:00 | 00:00:00 | |
| SQ9EZE-13 | 2026-08-30 23:48:18 | 49.00286 | 20.76953 | 103° | 99km/h | 12251m | 3.2m/s | -59.2°C | 60.3% | 199.1hPa | 2.7V | 00:00:00 | 00:00:00 | 00:00:00 | |
| OE3JTB-15 | 2026-08-30 23:48:17 | 49.00296 | 20.76880 | 102° | 91km/h | 12244m | 4.4m/s | -59.1°C | 69.3% | 199.2hPa | 2.7V | 00:00:00 | 00:58:09 | 00:00:00 | |
| SP9KGR-15 | 2026-08-30 23:48:13 | 49.00310 | 20.76775 | 103° | 91km/h | 12231m | 4.6m/s | -59.1°C | 60.4% | 199.6hPa | 2.7V | 00:00:00 | 00:00:00 | 00:00:00 | |
| SQ9EZE-13 | 2026-08-30 23:48:03 | 49.00356 | 20.76436 | 103° | 91km/h | 12194m | 3.1m/s | -59.2°C | 65.0% | 200.9hPa | 2.7V | 00:00:00 | 00:00:00 | 00:00:00 | |
| SP9KGR-15 | 2026-08-30 23:47:58 | 49.00392 | 20.76231 | 105° | 91km/h | 12172m | 3.6m/s | -59.2°C | 65.5% | 201.6hPa | 2.7V | 00:00:00 | 00:00:00 | 00:00:00 | |
| SP9KGR-15 | 2026-08-30 23:47:41 | 49.00478 | 20.75684 | 103° | 93km/h | 12108m | 3.8m/s | -58.9°C | 62.2% | 203.6hPa | 2.7V | 00:00:00 | 00:00:00 | 00:00:00 | |
| HA6NAB-11 | 2026-08-30 23:47:34 | 49.00522 | 20.75415 | 109° | 86km/h | 12079m | 3.5m/s | -58.6°C | 0% | 0hPa | 2.7V | 00:00:00 | 00:00:00 | 00:00:00 | |
| SQ9EZE-13 | 2026-08-30 23:47:32 | 49.00528 | 20.75384 | 108° | 84km/h | 12075m | 4.5m/s | -58.6°C | 62.2% | 204.7hPa | 2.7V | 00:00:00 | 00:00:00 | 00:00:00 | |
| SP9KGR-15 | 2026-08-30 23:47:25 | 49.00566 | 20.75155 | 103° | 88km/h | 12049m | 3.4m/s | -58.4°C | 61.2% | 205.6hPa | 2.7V | 00:00:00 | 00:00:00 | 00:00:00 | |
| SQ9EZE-15 | 2026-08-30 23:47:20 | 49.00593 | 20.74998 | 108° | 82km/h | 12030m | 4.1m/s | -58.2°C | 60.1% | 206.2hPa | 2.7V | 00:00:00 | 00:00:00 | 00:00:00 | |
| OE3JTB-15 | 2026-08-30 23:47:19 | 49.00606 | 20.74938 | 108° | 88km/h | 12022m | 4.7m/s | -58.1°C | 69.3% | 206.4hPa | 2.7V | 00:00:00 | 00:00:00 | 00:00:00 | |
| SQ9EZE-13 | 2026-08-30 23:47:16 | 49.00624 | 20.74842 | 107° | 88km/h | 12011m | 3.4m/s | -58.0°C | 60.2% | 206.8hPa | 2.7V | 00:00:00 | 00:00:00 | 00:00:00 | |
| GYPAP8-17 | 2026-08-30 23:47:14 | 49.00631 | 20.74809 | 107° | 89km/h | 12008m | 3.8m/s | -58.0°C | 59.7% | 207.0hPa | 2.7V | 00:00:00 | 00:00:00 | 00:00:00 | |
| SP9KGR-15 | 2026-08-30 23:47:09 | 49.00665 | 20.74647 | 107° | 82km/h | 11989m | 3.6m/s | -57.9°C | 58.5% | 207.6hPa | 2.7V | 00:00:00 | 00:00:00 | 00:00:00 | |
| SQ9EZE-13 | 2026-08-30 23:47:00 | 49.00714 | 20.74372 | 109° | 89km/h | 11953m | 5.9m/s | -57.6°C | 57.4% | 208.8hPa | 2.7V | 00:00:00 | 00:00:00 | 00:00:00 | |
| SQ9EZE-15 | 2026-08-30 23:46:59 | 49.00721 | 20.74339 | 108° | 91km/h | 11949m | 3.7m/s | -57.6°C | 58.2% | 208.9hPa | 2.7V | 00:00:00 | 00:00:00 | 00:00:00 | |
| HA6NAB-11 | 2026-08-30 23:46:58 | 49.00728 | 20.74305 | 108° | 91km/h | 11945m | 4.4m/s | -57.6°C | 0% | 0hPa | 2.7V | 00:00:00 | 00:00:00 | 00:00:00 | |
| SP9KGR-15 | 2026-08-30 23:46:54 | 49.00752 | 20.74177 | 107° | 82km/h | 11927m | 6.0m/s | -57.5°C | 56.6% | 209.7hPa | 2.7V | 00:00:00 | 00:00:00 | 00:00:00 | |
| HA6NAB-11 | 2026-08-30 23:46:52 | 49.00763 | 20.74115 | 106° | 84km/h | 11917m | 4.9m/s | -57.4°C | 0% | 0hPa | 2.7V | 00:00:00 | 00:00:00 | 00:00:00 | |
| HA6NAB-11 | 2026-08-30 23:46:47 | 49.00797 | 20.73951 | 109° | 93km/h | 11890m | 7.5m/s | -57.3°C | 0% | 0hPa | 2.7V | 00:00:00 | 00:00:00 | 00:00:00 | |
| OE3JTB-15 | 2026-08-30 23:46:45 | 49.00818 | 20.73849 | 108° | 89km/h | 11874m | 5.1m/s | -57.2°C | 62.9% | 211.3hPa | 2.7V | 00:00:00 | 00:56:37 | 00:00:00 | |
| SQ9EZE-13 | 2026-08-30 23:46:43 | 49.00825 | 20.73815 | 109° | 91km/h | 11867m | 7.9m/s | -57.2°C | 54.5% | 211.5hPa | 2.7V | 00:00:00 | 00:00:00 | 00:00:00 | |
| HA6NAB-11 | 2026-08-30 23:46:41 | 49.00840 | 20.73748 | 110° | 91km/h | 11855m | 7.3m/s | -57.1°C | 0% | 0hPa | 2.7V | 00:00:00 | 00:00:00 | 00:00:00 | |
| SP9KGR-15 | 2026-08-30 23:46:38 | 49.00860 | 20.73651 | 109° | 88km/h | 11838m | 3.4m/s | -57.1°C | 53.8% | 212.5hPa | 2.7V | 00:00:00 | 00:00:00 | 00:00:00 | |
| SQ9EZE-14 | 2026-08-30 23:46:30 | 49.00930 | 20.73408 | 117° | 86km/h | 11799m | 4.9m/s | -56.8°C | 55.4% | 213.9hPa | 2.7V | 00:00:00 | 00:00:00 | 00:00:00 | |
| SQ9EZE-13 | 2026-08-30 23:46:27 | 49.00956 | 20.73318 | 113° | 86km/h | 11787m | 4.7m/s | -56.7°C | 53.9% | 214.3hPa | 2.7V | 00:00:00 | 00:00:00 | 00:00:00 | |
| SP9KGR-15 | 2026-08-30 23:46:23 | 49.00987 | 20.73193 | 111° | 84km/h | 11763m | 4.2m/s | -56.6°C | 53.8% | 215.0hPa | 2.7V | 00:00:00 | 00:00:00 | 00:00:00 | |
| SQ9EZE-14 | 2026-08-30 23:46:14 | 49.01062 | 20.72932 | 117° | 84km/h | 11720m | 4.0m/s | -56.2°C | 52.1% | 216.5hPa | 2.7V | 00:00:00 | 00:00:00 | 00:00:00 | |
| GYPAP8-17 | 2026-08-30 23:46:11 | 49.01090 | 20.72845 | 116° | 82km/h | 11705m | 5.9m/s | -56.1°C | 50.6% | 217.0hPa | 2.7V | 00:00:00 | 00:00:00 | 00:00:00 | |
| SP9KGR-15 | 2026-08-30 23:46:08 | 49.01114 | 20.72759 | 115° | 80km/h | 11692m | 2.4m/s | -56.0°C | 51.0% | 217.5hPa | 2.7V | 00:00:00 | 00:00:00 | 00:00:00 | |
| SQ9EZE-15 | 2026-08-30 23:45:56 | 49.01226 | 20.72393 | 113° | 86km/h | 11634m | 4.1m/s | -55.5°C | 49.6% | 219.5hPa | 2.7V | 00:00:00 | 00:00:00 | 00:00:00 | |
| SQ9EZE-13 | 2026-08-30 23:45:54 | 49.01243 | 20.72334 | 114° | 82km/h | 11625m | 4.4m/s | -55.5°C | 49.5% | 219.8hPa | 2.7V | 00:00:00 | 00:00:00 | 00:00:00 | |
| SP9KGR-15 | 2026-08-30 23:45:52 | 49.01259 | 20.72273 | 113° | 86km/h | 11618m | 4.9m/s | -55.4°C | 48.6% | 220.1hPa | 2.7V | 00:00:00 | 00:00:00 | 00:00:00 | |
| SQ9EZE-13 | 2026-08-30 23:45:39 | 49.01371 | 20.71852 | 116° | 91km/h | 11553m | 4.8m/s | -54.8°C | 44.9% | 222.4hPa | 2.7V | 00:00:00 | 00:00:00 | 00:00:00 | |
| SP9KGR-15 | 2026-08-30 23:45:36 | 49.01400 | 20.71757 | 116° | 93km/h | 11536m | 6.6m/s | -54.7°C | 44.5% | 223.0hPa | 2.7V | 00:00:00 | 00:00:00 | 00:00:00 | |
| SQ9EZE-15 | 2026-08-30 23:45:35 | 49.01410 | 20.71725 | 116° | 93km/h | 11531m | 5.0m/s | -54.6°C | 44.6% | 223.2hPa | 2.7V | 00:00:00 | 00:00:00 | 00:00:00 | |
| SQ9EZE-13 | 2026-08-30 23:45:24 | 49.01514 | 20.71374 | 117° | 95km/h | 11472m | 5.0m/s | -54.1°C | 42.8% | 225.1hPa | 2.7V | 00:00:00 | 00:00:00 | 00:00:00 | |
| SP9KGR-15 | 2026-08-30 23:45:20 | 49.01556 | 20.71242 | 115° | 95km/h | 11451m | 3.1m/s | -53.9°C | 43.2% | 225.9hPa | 2.7V | 00:00:00 | 00:00:00 | 00:00:00 | |
| SQ9EZE-13 | 2026-08-30 23:45:08 | 49.01664 | 20.70866 | 116° | 91km/h | 11391m | 4.1m/s | -53.4°C | 39.8% | 227.9hPa | 2.7V | 00:00:00 | 00:00:00 | 00:00:00 | |
| GYPAP8-17 | 2026-08-30 23:45:07 | 49.01673 | 20.70834 | 114° | 91km/h | 11386m | 5.5m/s | -53.4°C | 39.8% | 228.1hPa | 2.7V | 00:00:00 | 00:00:00 | 00:00:00 | |
| SP9KGR-15 | 2026-08-30 23:45:04 | 49.01698 | 20.70741 | 113° | 82km/h | 11371m | 3.9m/s | -53.2°C | 39.4% | 228.7hPa | 2.7V | 00:00:00 | 00:00:00 | 00:00:00 | |
| OE3JTB-15 | 2026-08-30 23:45:01 | 49.01731 | 20.70623 | 116° | 80km/h | 11349m | 3.6m/s | -53.0°C | 45.2% | 229.4hPa | 2.7V | 00:00:00 | 00:00:00 | 00:00:00 | |
| SQ9EZE-13 | 2026-08-30 23:44:52 | 49.01803 | 20.70375 | 112° | 89km/h | 11308m | 7.0m/s | -52.9°C | 38.8% | 230.9hPa | 2.7V | 00:00:00 | 00:00:00 | 00:00:00 | |
| SP9KGR-15 | 2026-08-30 23:44:49 | 49.01828 | 20.70280 | 113° | 86km/h | 11295m | 3.5m/s | -52.9°C | 39.5% | 231.4hPa | 2.7V | 00:00:00 | 00:00:00 | 00:00:00 | |
| HA6NAB-11 | 2026-08-30 23:44:39 | 49.01918 | 20.69978 | 111° | 86km/h | 11247m | 4.3m/s | -53.0°C | 0% | 0hPa | 2.7V | 00:00:00 | 00:00:00 | 00:00:00 | |
| SQ9EZE-13 | 2026-08-30 23:44:36 | 49.01940 | 20.69890 | 114° | 78km/h | 11231m | 4.1m/s | -52.8°C | 41.6% | 233.7hPa | 2.7V | 00:00:00 | 00:00:00 | 00:00:00 | |
| HA6NAB-11 | 2026-08-30 23:44:34 | 49.01955 | 20.69836 | 113° | 71km/h | 11221m | 4.5m/s | 0°C | 0% | 0hPa | 2.7V | 00:00:00 | 00:00:00 | 00:00:00 | |
| SP9KGR-15 | 2026-08-30 23:44:33 | 49.01962 | 20.69811 | 113° | 71km/h | 11217m | 4.6m/s | -52.7°C | 41.8% | 234.2hPa | 2.7V | 00:00:00 | 00:00:00 | 00:00:00 | |
| OE3JTB-15 | 2026-08-30 23:44:31 | 49.01983 | 20.69733 | 112° | 78km/h | 11202m | 6.4m/s | -52.5°C | 47.9% | 234.7hPa | 2.7V | 00:00:00 | 00:00:00 | 00:00:00 | |
| HA6NAB-11 | 2026-08-30 23:44:28 | 49.01997 | 20.69677 | 112° | 78km/h | 11191m | 7.6m/s | 0°C | 0% | 0hPa | 2.7V | 00:00:00 | 00:00:00 | 00:00:00 | |
| SQ9EZE-13 | 2026-08-30 23:44:22 | 49.02055 | 20.69478 | 115° | 80km/h | 11156m | 4.0m/s | -52.2°C | 42.3% | 236.4hPa | 2.7V | 00:00:00 | 00:00:00 | 00:00:00 | |
| SP9KGR-15 | 2026-08-30 23:44:18 | 49.02077 | 20.69395 | 112° | 75km/h | 11143m | 4.6m/s | -52.1°C | 42.0% | 237.0hPa | 2.7V | 00:00:00 | 00:00:00 | 00:00:00 | |
| SQ9EZE-14 | 2026-08-30 23:44:16 | 49.02091 | 20.69342 | 115° | 71km/h | 11133m | 4.3m/s | -52.0°C | 41.4% | 237.3hPa | 2.7V | 00:00:00 | 00:00:00 | 00:00:00 | |
| SQ9EZE-15 | 2026-08-30 23:44:11 | 49.02130 | 20.69209 | 114° | 82km/h | 11105m | 7.1m/s | -51.7°C | 40.3% | 238.3hPa | 2.7V | 00:00:00 | 00:00:00 | 00:00:00 | |
| SQ9EZE-13 | 2026-08-30 23:44:06 | 49.02166 | 20.69066 | 114° | 75km/h | 11079m | 4.3m/s | -51.5°C | 40.6% | 239.2hPa | 2.7V | 00:00:00 | 00:00:00 | 00:00:00 | |
| OE3JTB-15 | 2026-08-30 23:44:02 | 49.02206 | 20.68934 | 118° | 77km/h | 11057m | 3.1m/s | -51.3°C | 46.3% | 240.0hPa | 2.7V | 00:00:00 | 00:53:54 | 00:00:00 | |
| SQ9EZE-14 | 2026-08-30 23:44:01 | 49.02215 | 20.68908 | 118° | 75km/h | 11053m | 5.9m/s | -51.3°C | 40.8% | 240.2hPa | 2.7V | 00:00:00 | 00:00:00 | 00:00:00 | |
| GYPAP8-17 | 2026-08-30 23:43:55 | 49.02254 | 20.68778 | 116° | 75km/h | 11030m | 4.7m/s | -51.1°C | 41.8% | 241.1hPa | 2.7V | 00:00:00 | 00:00:00 | 00:00:00 | |
| SQ9EZE-13 | 2026-08-30 23:43:49 | 49.02295 | 20.68612 | 108° | 82km/h | 10997m | 4.8m/s | -50.9°C | 41.1% | 242.4hPa | 2.7V | 00:00:00 | 00:00:00 | 00:00:00 | |
| SP9KGR-15 | 2026-08-30 23:43:46 | 49.02316 | 20.68523 | 113° | 80km/h | 10980m | 6.1m/s | -50.7°C | 41.1% | 242.9hPa | 2.7V | 00:00:00 | 00:00:00 | 00:00:00 | |
| SQ9EZE-14 | 2026-08-30 23:43:44 | 49.02331 | 20.68467 | 115° | 78km/h | 10969m | 7.4m/s | -50.6°C | 40.7% | 243.3hPa | 2.7V | 00:00:00 | 00:00:00 | 00:00:00 | |
| SQ9EZE-13 | 2026-08-30 23:43:34 | 49.02393 | 20.68186 | 109° | 80km/h | 10914m | 6.4m/s | -50.1°C | 39.7% | 245.2hPa | 2.7V | 00:00:00 | 00:00:00 | 00:00:00 | |
| OE3JTB-15 | 2026-08-30 23:43:33 | 49.02406 | 20.68127 | 110° | 78km/h | 10905m | 5.4m/s | -50.0°C | 45.3% | 245.5hPa | 2.7V | 00:00:00 | 00:00:00 | 00:00:00 | |
| SP9KGR-15 | 2026-08-30 23:43:30 | 49.02421 | 20.68069 | 112° | 80km/h | 10895m | 5.0m/s | -50.0°C | 40.4% | 246.0hPa | 2.7V | 00:00:00 | 00:00:00 | 00:00:00 | |
| SQ9EZE-14 | 2026-08-30 23:43:28 | 49.02434 | 20.68014 | 112° | 75km/h | 10886m | 6.0m/s | -49.9°C | 40.2% | 246.3hPa | 2.7V | 00:00:00 | 00:00:00 | 00:00:00 | |
| SQ9EZE-13 | 2026-08-30 23:43:18 | 49.02495 | 20.67738 | 110° | 80km/h | 10833m | 5.5m/s | -49.4°C | 39.9% | 248.4hPa | 2.7V | 00:00:00 | 00:00:00 | 00:00:00 | |
| SP9KGR-15 | 2026-08-30 23:43:15 | 49.02517 | 20.67651 | 112° | 78km/h | 10817m | 4.6m/s | -49.2°C | 39.3% | 249.0hPa | 2.7V | 00:00:00 | 00:00:00 | 00:00:00 | |
| SQ9EZE-15 | 2026-08-30 23:43:07 | 49.02576 | 20.67429 | 111° | 80km/h | 10776m | 7.4m/s | -48.9°C | 38.0% | 250.7hPa | 2.7V | 00:00:00 | 00:00:00 | 00:00:00 | |
| SQ9EZE-13 | 2026-08-30 23:43:04 | 49.02601 | 20.67310 | 107° | 82km/h | 10753m | 6.3m/s | -48.7°C | 38.5% | 251.5hPa | 2.7V | 00:00:00 | 00:00:00 | 00:00:00 | |
| SP9KGR-15 | 2026-08-30 23:42:59 | 49.02625 | 20.67195 | 111° | 73km/h | 10734m | 6.0m/s | -48.5°C | 40.1% | 252.3hPa | 2.7V | 00:00:00 | 00:00:00 | 00:00:00 | |
| GYPAP8-17 | 2026-08-30 23:42:53 | 49.02659 | 20.67030 | 104° | 77km/h | 10702m | 5.2m/s | -48.3°C | 40.9% | 253.4hPa | 2.7V | 00:00:00 | 00:00:00 | 00:00:00 | |
| SQ9EZE-15 | 2026-08-30 23:42:47 | 49.02690 | 20.66859 | 108° | 77km/h | 10674m | 8.0m/s | -48.0°C | 39.9% | 254.6hPa | 2.7V | 00:00:00 | 00:00:00 | 00:00:00 | |
| SP9KGR-15 | 2026-08-30 23:42:43 | 49.02711 | 20.66752 | 107° | 71km/h | 10651m | 7.4m/s | -47.8°C | 39.5% | 255.5hPa | 2.7V | 00:00:00 | 00:00:00 | 00:00:00 | |
| OE3JTB-15 | 2026-08-30 23:42:35 | 49.02763 | 20.66503 | 110° | 80km/h | 10605m | 7.7m/s | -47.3°C | 42.7% | 257.3hPa | 2.7V | 00:00:00 | 00:52:27 | 00:00:00 | |
| SQ9EZE-13 | 2026-08-30 23:42:32 | 49.02774 | 20.66452 | 108° | 69km/h | 10593m | 6.8m/s | -47.2°C | 38.2% | 257.7hPa | 2.7V | 00:00:00 | 00:00:00 | 00:00:00 | |
| SP9KGR-15 | 2026-08-30 23:42:27 | 49.02801 | 20.66311 | 103° | 82km/h | 10567m | 4.9m/s | -47.0°C | 36.4% | 258.7hPa | 2.7V | 00:00:00 | 00:00:00 | 00:00:00 | |
| SQ9EZE-13 | 2026-08-30 23:42:16 | 49.02862 | 20.65982 | 106° | 78km/h | 10500m | 5.3m/s | -46.5°C | 37.3% | 261.4hPa | 2.7V | 00:00:00 | 00:00:00 | 00:00:00 | |
| SP9KGR-15 | 2026-08-30 23:42:11 | 49.02884 | 20.65830 | 104° | 84km/h | 10470m | 4.8m/s | -46.2°C | 38.2% | 262.5hPa | 2.7V | 00:00:00 | 00:00:00 | 00:00:00 | |
| OE3JTB-15 | 2026-08-30 23:42:03 | 49.02936 | 20.65566 | 105° | 80km/h | 10420m | 4.3m/s | -45.7°C | 43.0% | 264.4hPa | 2.7V | 00:00:00 | 00:00:00 | 08:30:00 | |
| SQ9EZE-13 | 2026-08-30 23:42:01 | 49.02945 | 20.65506 | 101° | 80km/h | 10409m | 4.3m/s | -45.7°C | 38.1% | 264.9hPa | 2.7V | 00:00:00 | 00:00:00 | 00:00:00 | |
| SP9KGR-15 | 2026-08-30 23:41:56 | 49.02965 | 20.65347 | 105° | 84km/h | 10384m | 6.5m/s | -45.4°C | 38.3% | 265.9hPa | 2.7V | 00:00:00 | 00:00:00 | 00:00:00 | |
| GYPAP8-17 | 2026-08-30 23:41:50 | 49.02995 | 20.65203 | 108° | 78km/h | 10356m | 7.6m/s | -45.2°C | 37.9% | 267.0hPa | 2.7V | 00:00:00 | 00:00:00 | 00:00:00 | |
| SQ9EZE-13 | 2026-08-30 23:41:44 | 49.03021 | 20.65029 | 103° | 78km/h | 10323m | 4.5m/s | -45.0°C | 39.4% | 268.3hPa | 2.7V | 00:00:00 | 00:00:00 | 00:00:00 | |
| SP9KGR-15 | 2026-08-30 23:41:40 | 49.03038 | 20.64910 | 104° | 80km/h | 10303m | 5.3m/s | -44.8°C | 39.1% | 269.0hPa | 2.7V | 00:00:00 | 00:00:00 | 00:00:00 | |
| SQ9EZE-13 | 2026-08-30 23:41:28 | 49.03091 | 20.64559 | 105° | 84km/h | 10237m | 4.2m/s | -44.2°C | 37.9% | 271.8hPa | 2.7V | 00:00:00 | 00:00:00 | 00:00:00 | |
| OE3JTB-15 | 2026-08-30 23:41:27 | 49.03106 | 20.64466 | 104° | 80km/h | 10222m | 6.1m/s | -44.0°C | 41.7% | 272.3hPa | 2.7V | 00:00:00 | 00:00:00 | 00:00:00 | |
| SP9KGR-15 | 2026-08-30 23:41:24 | 49.03111 | 20.64435 | 104° | 80km/h | 10217m | 4.0m/s | -44.0°C | 37.5% | 272.6hPa | 2.7V | 00:00:00 | 00:00:00 | 00:00:00 | |
| SQ9EZE-15 | 2026-08-30 23:41:23 | 49.03115 | 20.64405 | 103° | 78km/h | 10212m | 5.5m/s | -44.0°C | 37.5% | 272.7hPa | 2.7V | 00:00:00 | 00:00:00 | 00:00:00 | |
| SQ9EZE-13 | 2026-08-30 23:41:14 | 49.03164 | 20.64105 | 107° | 84km/h | 10166m | 6.4m/s | -43.6°C | 36.9% | 274.6hPa | 2.7V | 00:00:00 | 00:00:00 | 00:00:00 | |
| SQ9EZE-14 | 2026-08-30 23:41:12 | 49.03169 | 20.64075 | 107° | 84km/h | 10161m | 4.3m/s | -43.5°C | 37.5% | 274.9hPa | 2.7V | 00:00:00 | 00:00:00 | 00:00:00 | |
| SP9KGR-15 | 2026-08-30 23:41:09 | 49.03186 | 20.63984 | 106° | 77km/h | 10147m | 5.0m/s | -43.4°C | 37.4% | 275.4hPa | 2.7V | 00:00:00 | 00:00:00 | 00:00:00 | |
| OE3JTB-15 | 2026-08-30 23:40:57 | 49.03248 | 20.63591 | 107° | 77km/h | 10076m | 5.2m/s | 0°C | 0% | 0hPa | 2.7V | 00:00:00 | 00:50:49 | 00:00:00 | |
| SP9KGR-15 | 2026-08-30 23:40:54 | 49.03263 | 20.63503 | 102° | 77km/h | 10062m | 3.3m/s | -42.6°C | 36.6% | 278.9hPa | 2.7V | 00:00:00 | 00:00:00 | 00:00:00 | |
| GYPAP8-17 | 2026-08-30 23:40:46 | 49.03289 | 20.63306 | 104° | 77km/h | 10025m | 3.9m/s | -42.3°C | 37.2% | 280.4hPa | 2.7V | 00:00:00 | 00:00:00 | 00:00:00 | |
| SQ9EZE-13 | 2026-08-30 23:40:42 | 49.03306 | 20.63190 | 103° | 75km/h | 10004m | 4.1m/s | -42.1°C | 37.4% | 281.4hPa | 2.7V | 00:00:00 | 00:00:00 | 00:00:00 | |
| HA6NAB-11 | 2026-08-30 23:40:38 | 49.03326 | 20.63045 | 101° | 78km/h | 9978m | 4.7m/s | 0°C | 0% | 0hPa | 2.7V | 00:00:00 | 00:00:00 | 00:00:00 | |
| OE3JTB-15 | 2026-08-30 23:40:28 | 49.03369 | 20.62748 | 101° | 77km/h | 9924m | 7.1m/s | -41.3°C | 39.9% | 284.7hPa | 2.7V | 00:00:00 | 00:00:00 | 00:00:00 | |
| SQ9EZE-13 | 2026-08-30 23:40:27 | 49.03369 | 20.62748 | 102° | 77km/h | 9924m | 7.1m/s | -41.4°C | 36.2% | 284.7hPa | 0V | 00:00:00 | 00:00:00 | 00:00:00 | |
| SP9KGR-15 | 2026-08-30 23:40:23 | 49.03384 | 20.62603 | 100° | 77km/h | 9896m | 7.6m/s | -41.1°C | 35.8% | 285.8hPa | 0V | 00:00:00 | 00:00:00 | 00:00:00 | |
| SQ9EZE-15 | 2026-08-30 23:40:21 | 49.03390 | 20.62544 | 101° | 77km/h | 9885m | 5.4m/s | -41.0°C | 35.9% | 286.3hPa | 0V | 00:00:00 | 00:00:00 | 00:00:00 | |
| SQ9EZE-13 | 2026-08-30 23:40:10 | 49.03430 | 20.62259 | 102° | 73km/h | 9834m | 4.3m/s | -40.5°C | 35.0% | 288.4hPa | 0V | 00:00:00 | 00:00:00 | 00:00:00 | |
| SP9KGR-15 | 2026-08-30 23:40:06 | 49.03444 | 20.62147 | 102° | 75km/h | 9813m | 3.9m/s | -40.3°C | 34.9% | 289.4hPa | 0V | 00:00:00 | 00:00:00 | 00:00:00 | |
| OE3JTB-15 | 2026-08-30 23:39:59 | 49.03478 | 20.61909 | 103° | 78km/h | 9771m | 5.2m/s | 0°C | 0% | 0hPa | 0V | 00:00:00 | 00:00:00 | 00:00:00 | |
| SQ9EZE-13 | 2026-08-30 23:39:52 | 49.03499 | 20.61742 | 103° | 84km/h | 9742m | 6.7m/s | -39.6°C | 31.4% | 292.5hPa | 0V | 00:00:00 | 00:00:00 | 00:00:00 | |
| SP9KGR-15 | 2026-08-30 23:39:50 | 49.03507 | 20.61678 | 101° | 86km/h | 9731m | 7.3m/s | -39.5°C | 31.3% | 292.9hPa | 0V | 00:00:00 | 00:00:00 | 00:00:00 | |
| GYPAP8-17 | 2026-08-30 23:39:42 | 49.03539 | 20.61436 | 103° | 78km/h | 9688m | 5.3m/s | -39.1°C | 31.2% | 294.9hPa | 0V | 00:00:00 | 00:00:00 | 00:00:00 | |
| SQ9EZE-13 | 2026-08-30 23:39:37 | 49.03561 | 20.61288 | 105° | 80km/h | 9662m | 4.7m/s | -38.9°C | 31.4% | 296.0hPa | 0V | 00:00:00 | 00:00:00 | 00:00:00 | |
| SP9KGR-15 | 2026-08-30 23:39:34 | 49.03573 | 20.61198 | 101° | 78km/h | 9649m | 7.1m/s | -38.8°C | 31.3% | 296.6hPa | 0V | 00:00:00 | 00:00:00 | 00:00:00 | |
| OE3JTB-15 | 2026-08-30 23:39:30 | 49.03586 | 20.61050 | 99° | 77km/h | 9624m | 3.9m/s | 0°C | 0% | 0hPa | 0V | 00:00:00 | 00:49:22 | 00:00:00 | |
| SQ9EZE-13 | 2026-08-30 23:39:20 | 49.03620 | 20.60789 | 103° | 73km/h | 9577m | 7.2m/s | -38.4°C | 43.3% | 299.7hPa | 0V | 00:00:00 | 00:00:00 | 00:00:00 | |
| SP9KGR-15 | 2026-08-30 23:39:19 | 49.03627 | 20.60735 | 104° | 71km/h | 9566m | 6.7m/s | -38.4°C | 45.0% | 300.1hPa | 0V | 00:00:00 | 00:00:00 | 00:00:00 | |
| SQ9EZE-14 | 2026-08-30 23:39:12 | 49.03650 | 20.60562 | 100° | 86km/h | 9538m | 3.2m/s | -38.2°C | 45.2% | 301.5hPa | 0V | 00:00:00 | 00:00:00 | 00:00:00 | |
| SQ9EZE-13 | 2026-08-30 23:39:04 | 49.03688 | 20.60323 | 104° | 75km/h | 9497m | 4.8m/s | -37.8°C | 44.3% | 303.2hPa | 0V | 00:00:00 | 00:00:00 | 00:00:00 | |
| SP9KGR-15 | 2026-08-30 23:39:03 | 49.03695 | 20.60266 | 98° | 75km/h | 9487m | 4.8m/s | -37.7°C | 44.2% | 303.6hPa | 0V | 00:00:00 | 00:00:00 | 00:00:00 | |
| OE3JTB-15 | 2026-08-30 23:39:01 | 49.03700 | 20.60208 | 98° | 73km/h | 9479m | 5.2m/s | 0°C | 0% | 0hPa | 0V | 00:00:00 | 00:00:00 | 00:00:00 | |
| SQ9EZE-15 | 2026-08-30 23:38:49 | 49.03746 | 20.59896 | 106° | 77km/h | 9427m | 3.8m/s | -37.3°C | 47.1% | 306.2hPa | 0V | 00:00:00 | 00:00:00 | 00:00:00 | |
| SQ9EZE-13 | 2026-08-30 23:38:47 | 49.03756 | 20.59836 | 105° | 80km/h | 9418m | 4.1m/s | -37.2°C | 46.7% | 306.6hPa | 0V | 00:00:00 | 00:00:00 | 00:00:00 | |
| SP9KGR-15 | 2026-08-30 23:38:46 | 49.03761 | 20.59807 | 107° | 80km/h | 9413m | 6.4m/s | -37.1°C | 46.5% | 306.9hPa | 0V | 00:00:00 | 00:00:00 | 00:00:00 | |
| OE3JTB-15 | 2026-08-30 23:38:32 | 49.03824 | 20.59410 | 103° | 73km/h | 9332m | 4.3m/s | 0°C | 0% | 0hPa | 0V | 00:00:00 | 00:00:00 | 00:00:00 | |
| SP9KGR-15 | 2026-08-30 23:38:31 | 49.03828 | 20.59384 | 107° | 68km/h | 9327m | 4.5m/s | -36.3°C | 45.9% | 310.7hPa | 0V | 00:00:00 | 00:00:00 | 00:00:00 | |
| SP9KGR-15 | 2026-08-30 23:38:15 | 49.03925 | 20.58982 | 110° | 71km/h | 9243m | 4.9m/s | -35.7°C | 54.0% | 314.5hPa | 0V | 00:00:00 | 00:00:00 | 00:00:00 | |
| SP9KGR-15 | 2026-08-30 23:38:00 | 49.04008 | 20.58595 | 107° | 71km/h | 9174m | 6.1m/s | -35.2°C | 53.2% | 317.5hPa | 0V | 00:00:00 | 00:00:00 | 00:00:00 | |
| SQ9EZE-13 | 2026-08-30 23:37:59 | 49.04008 | 20.58595 | 107° | 71km/h | 9174m | 6.1m/s | -35.2°C | 53.2% | 317.5hPa | 0V | 00:00:00 | 00:00:00 | 00:00:00 | |
| SP9KGR-15 | 2026-08-30 23:37:44 | 49.04072 | 20.58171 | 104° | 69km/h | 9103m | 2.6m/s | -34.6°C | 54.4% | 320.7hPa | 0V | 00:00:00 | 00:00:00 | 00:00:00 | |
| SP9KGR-15 | 2026-08-30 23:37:28 | 49.04146 | 20.57786 | 102° | 71km/h | 9037m | 4.2m/s | -34.1°C | 61.6% | 323.8hPa | 0V | 00:00:00 | 00:00:00 | 00:00:00 | |
| SP9KGR-15 | 2026-08-30 23:37:13 | 49.04228 | 20.57379 | 107° | 80km/h | 8975m | 3.8m/s | -33.8°C | 65.4% | 326.7hPa | 0V | 00:00:00 | 00:00:00 | 00:00:00 | |
| SQ9EZE-13 | 2026-08-30 23:37:11 | 49.04239 | 20.57320 | 106° | 78km/h | 8968m | 3.9m/s | -33.7°C | 64.9% | 327.0hPa | 0V | 00:00:00 | 00:00:00 | 00:00:00 | |
| SQ9EZE-15 | 2026-08-30 23:37:08 | 49.04261 | 20.57210 | 112° | 71km/h | 8947m | 4.2m/s | -33.5°C | 64.4% | 328.0hPa | 0V | 00:00:00 | 00:00:00 | 00:00:00 | |
| GYPAP8-17 | 2026-08-30 23:37:07 | 49.04261 | 20.57210 | 112° | 71km/h | 8947m | 4.2m/s | -33.5°C | 64.4% | 328.0hPa | 0V | 00:00:00 | 00:00:00 | 00:00:00 | |
| SQ9EZE-14 | 2026-08-30 23:37:01 | 49.04299 | 20.57059 | 108° | 69km/h | 8923m | 3.6m/s | -33.3°C | 65.5% | 329.1hPa | 0V | 00:00:00 | 00:00:00 | 00:00:00 | |
| SP9KGR-15 | 2026-08-30 23:36:58 | 49.04321 | 20.56947 | 109° | 82km/h | 8901m | 3.8m/s | -33.2°C | 65.2% | 330.0hPa | 0V | 00:00:00 | 00:00:00 | 00:00:00 | |
| SQ9EZE-13 | 2026-08-30 23:36:56 | 49.04327 | 20.56917 | 107° | 82km/h | 8897m | 4.2m/s | -33.1°C | 65.4% | 330.1hPa | 0V | 00:00:00 | 00:00:00 | 00:00:00 | |
| OE3JTB-15 | 2026-08-30 23:36:52 | 49.04348 | 20.56771 | 100° | 51km/h | 8876m | 2.8m/s | 0°C | 0% | 0hPa | 0V | 00:00:00 | 00:46:44 | 00:00:00 | |
| SQ9EZE-15 | 2026-08-30 23:36:47 | 49.04360 | 20.56664 | 104° | 69km/h | 8862m | 1.7m/s | -32.8°C | 66.7% | 331.9hPa | 0V | 00:00:00 | 00:00:00 | 00:00:00 | |
| SQ9EZE-14 | 2026-08-30 23:36:46 | 49.04369 | 20.56612 | 108° | 71km/h | 8855m | 5.7m/s | -32.8°C | 66.3% | 332.1hPa | 0V | 00:00:00 | 00:00:00 | 00:00:00 | |
| SP9KGR-15 | 2026-08-30 23:36:42 | 49.04392 | 20.56500 | 108° | 80km/h | 8837m | 5.6m/s | -32.8°C | 68.6% | 333.0hPa | 0V | 00:00:00 | 00:00:00 | 00:00:00 | |
| SQ9EZE-13 | 2026-08-30 23:36:41 | 49.04398 | 20.56470 | 110° | 80km/h | 8833m | 2.2m/s | -32.7°C | 69.8% | 333.2hPa | 0V | 00:00:00 | 00:00:00 | 00:00:00 | |
| SQ9EZE-14 | 2026-08-30 23:36:30 | 49.04443 | 20.56191 | 107° | 80km/h | 8794m | 4.5m/s | -32.4°C | 70.9% | 335.2hPa | 0V | 00:00:00 | 00:00:00 | 00:00:00 | |
| SP9KGR-15 | 2026-08-30 23:36:27 | 49.04466 | 20.56077 | 106° | 73km/h | 8775m | 4.2m/s | -32.3°C | 70.5% | 336.0hPa | 0V | 00:00:00 | 00:00:00 | 00:00:00 | |
| SQ9EZE-13 | 2026-08-30 23:36:25 | 49.04471 | 20.56051 | 106° | 71km/h | 8771m | 5.3m/s | -32.3°C | 69.8% | 336.1hPa | 0V | 00:00:00 | 00:00:00 | 00:00:00 | |
| SP9KGR-15 | 2026-08-30 23:36:12 | 49.04531 | 20.55664 | 107° | 71km/h | 8710m | 5.8m/s | -31.7°C | 66.4% | 339.2hPa | 0V | 00:00:00 | 00:00:00 | 00:00:00 | |
| SQ9EZE-13 | 2026-08-30 23:36:09 | 49.04540 | 20.55612 | 105° | 71km/h | 8702m | 5.7m/s | -31.7°C | 65.3% | 339.5hPa | 0V | 00:00:00 | 00:00:00 | 00:00:00 | |
| GYPAP8-17 | 2026-08-30 23:36:06 | 49.04561 | 20.55472 | 103° | 77km/h | 8678m | 2.0m/s | -31.8°C | 68.9% | 340.7hPa | 0V | 00:00:00 | 00:00:00 | 00:00:00 | |
| SP9KGR-15 | 2026-08-30 23:35:56 | 49.04590 | 20.55257 | 105° | 66km/h | 8638m | 6.1m/s | -31.7°C | 71.6% | 342.6hPa | 0V | 00:00:00 | 00:00:00 | 00:00:00 | |
| SQ9EZE-13 | 2026-08-30 23:35:53 | 49.04598 | 20.55206 | 104° | 71km/h | 8627m | 6.7m/s | -31.6°C | 72.4% | 343.1hPa | 0V | 00:00:00 | 00:00:00 | 00:00:00 | |
| SP9KGR-15 | 2026-08-30 23:35:40 | 49.04636 | 20.54866 | 104° | 73km/h | 8572m | 5.6m/s | -31.5°C | 74.6% | 345.7hPa | 0V | 00:00:00 | 00:00:00 | 00:00:00 | |
| SQ9EZE-15 | 2026-08-30 23:35:39 | 49.04645 | 20.54812 | 106° | 71km/h | 8564m | 4.9m/s | -31.5°C | 74.2% | 346.2hPa | 0V | 00:00:00 | 00:00:00 | 00:00:00 | |
| SQ9EZE-13 | 2026-08-30 23:35:38 | 49.04645 | 20.54812 | 106° | 71km/h | 8564m | 4.9m/s | -31.5°C | 74.2% | 346.2hPa | 0V | 00:00:00 | 00:00:00 | 00:00:00 | |
| SP9KGR-15 | 2026-08-30 23:35:25 | 49.04698 | 20.54465 | 106° | 73km/h | 8508m | 5.6m/s | -31.3°C | 71.1% | 349.0hPa | 0V | 00:00:00 | 00:00:00 | 00:00:00 | |
| SQ9EZE-13 | 2026-08-30 23:35:23 | 49.04714 | 20.54384 | 110° | 73km/h | 8495m | 5.0m/s | -31.2°C | 69.4% | 349.6hPa | 0V | 00:00:00 | 00:00:00 | 00:00:00 | |
| SP9KGR-15 | 2026-08-30 23:35:10 | 49.04756 | 20.54070 | 106° | 57km/h | 8428m | 4.1m/s | -30.7°C | 54.0% | 353.0hPa | 0V | 00:00:00 | 00:00:00 | 00:00:00 | |
| SQ9EZE-13 | 2026-08-30 23:35:07 | 49.04763 | 20.54028 | 101° | 58km/h | 8418m | 3.4m/s | -30.7°C | 52.4% | 353.4hPa | 0V | 00:00:00 | 00:00:00 | 00:00:00 | |
| SP9KGR-15 | 2026-08-30 23:34:53 | 49.04786 | 20.53737 | 104° | 57km/h | 8350m | 3.5m/s | -30.1°C | 47.9% | 356.8hPa | 0V | 00:00:00 | 00:00:00 | 00:00:00 | |
| SQ9EZE-13 | 2026-08-30 23:34:52 | 49.04791 | 20.53696 | 98° | 51km/h | 8341m | 3.6m/s | -30.0°C | 47.7% | 357.3hPa | 0V | 00:00:00 | 00:00:00 | 00:00:00 | |
| SP9KGR-15 | 2026-08-30 23:34:37 | 49.04821 | 20.53401 | 104° | 49km/h | 8277m | 4.1m/s | -29.5°C | 44.1% | 360.4hPa | 0V | 00:00:00 | 00:00:00 | 00:00:00 | |
| SQ9EZE-13 | 2026-08-30 23:34:35 | 49.04824 | 20.53361 | 93° | 55km/h | 8270m | 3.6m/s | -29.4°C | 44.0% | 360.9hPa | 0V | 00:00:00 | 00:00:00 | 00:00:00 | |
| SQ9EZE-14 | 2026-08-30 23:34:31 | 49.04828 | 20.53249 | 99° | 58km/h | 8248m | 4.7m/s | -29.2°C | 44.0% | 361.9hPa | 0V | 00:00:00 | 00:00:00 | 00:00:00 | |
| GYPAP8-17 | 2026-08-30 23:34:23 | 49.04843 | 20.53103 | 95° | 51km/h | 8218m | 6.5m/s | -29.0°C | 45.5% | 363.4hPa | 0V | 00:00:00 | 00:00:00 | 00:00:00 | |
| SP9KGR-15 | 2026-08-30 23:34:22 | 49.04845 | 20.53062 | 95° | 57km/h | 8207m | 4.7m/s | -28.9°C | 46.0% | 364.0hPa | 0V | 00:00:00 | 00:00:00 | 00:00:00 | |
| SQ9EZE-13 | 2026-08-30 23:34:20 | 49.04848 | 20.53017 | 98° | 60km/h | 8197m | 4.0m/s | -28.8°C | 44.8% | 364.6hPa | 0V | 00:00:00 | 00:00:00 | 00:00:00 | |
| SQ9EZE-14 | 2026-08-30 23:34:15 | 49.04853 | 20.52908 | 92° | 53km/h | 8174m | 5.3m/s | -28.6°C | 40.2% | 365.7hPa | 0V | 00:00:00 | 00:00:00 | 00:00:00 | |
| SP9KGR-15 | 2026-08-30 23:34:06 | 49.04862 | 20.52734 | 94° | 64km/h | 8135m | 4.0m/s | -28.3°C | 37.9% | 367.8hPa | 0V | 00:00:00 | 00:00:00 | 00:00:00 | |
| SQ9EZE-13 | 2026-08-30 23:34:03 | 49.04866 | 20.52661 | 101° | 62km/h | 8122m | 5.0m/s | -28.1°C | 36.2% | 368.4hPa | 0V | 00:00:00 | 00:00:00 | 00:00:00 | |
| SQ9EZE-15 | 2026-08-30 23:33:56 | 49.04887 | 20.52488 | 93° | 57km/h | 8089m | 3.8m/s | -27.9°C | 35.3% | 370.1hPa | 0V | 00:00:00 | 00:00:00 | 00:00:00 | |
| SP9KGR-15 | 2026-08-30 23:33:51 | 49.04889 | 20.52366 | 97° | 64km/h | 8069m | 4.0m/s | -27.7°C | 34.4% | 371.1hPa | 0V | 00:00:00 | 00:00:00 | 00:00:00 | |
| SQ9EZE-13 | 2026-08-30 23:33:47 | 49.04898 | 20.52298 | 105° | 55km/h | 8055m | 5.4m/s | -27.5°C | 34.5% | 371.8hPa | 0V | 00:00:00 | 00:00:00 | 00:00:00 | |
| GYPAP8-17 | 2026-08-30 23:33:40 | 49.04904 | 20.52154 | 89° | 58km/h | 8024m | 5.2m/s | -27.2°C | 35.1% | 373.5hPa | 0V | 00:00:00 | 00:00:00 | 00:00:00 | |
| SP9KGR-15 | 2026-08-30 23:33:36 | 49.04908 | 20.52050 | 97° | 51km/h | 8000m | 7.6m/s | -27.0°C | 35.4% | 374.7hPa | 0V | 00:00:00 | 00:00:00 | 00:00:00 | |
| SQ9EZE-15 | 2026-08-30 23:33:35 | 49.04908 | 20.52050 | 97° | 51km/h | 8000m | 7.6m/s | -27.0°C | 35.4% | 374.7hPa | 0V | 00:00:00 | 00:00:00 | 00:00:00 | |
| SQ9EZE-13 | 2026-08-30 23:33:31 | 49.04911 | 20.51967 | 94° | 62km/h | 7977m | 3.3m/s | -26.8°C | 37.6% | 375.9hPa | 0V | 00:00:00 | 00:00:00 | 00:00:00 | |
| SP9KGR-15 | 2026-08-30 23:33:19 | 49.04919 | 20.51714 | 92° | 51km/h | 7914m | 4.7m/s | -26.4°C | 45.2% | 379.2hPa | 0V | 00:00:00 | 00:00:00 | 00:00:00 | |
| SQ9EZE-13 | 2026-08-30 23:33:16 | 49.04921 | 20.51630 | 93° | 57km/h | 7893m | 6.8m/s | -26.3°C | 45.8% | 380.2hPa | 0V | 00:00:00 | 00:00:00 | 00:00:00 | |
| SP9KGR-15 | 2026-08-30 23:33:05 | 49.04929 | 20.51419 | 97° | 42km/h | 7838m | 6.4m/s | -26.1°C | 43.0% | 383.1hPa | 0V | 00:00:00 | 00:00:00 | 00:00:00 | |
| SQ9EZE-13 | 2026-08-30 23:32:59 | 49.04928 | 20.51330 | 89° | 51km/h | 7817m | 4.0m/s | -26.0°C | 36.6% | 384.3hPa | 0V | 00:00:00 | 00:00:00 | 00:00:00 | |
| GYPAP8-17 | 2026-08-30 23:32:55 | 49.04926 | 20.51251 | 87° | 46km/h | 7797m | 3.7m/s | -25.8°C | 35.5% | 385.3hPa | 0V | 00:00:00 | 00:00:00 | 00:00:00 | |
| SP9KGR-15 | 2026-08-30 23:32:49 | 49.04923 | 20.51118 | 86° | 51km/h | 7758m | 3.9m/s | -25.5°C | 35.9% | 387.4hPa | 0V | 00:00:00 | 00:00:00 | 00:00:00 | |
| SQ9EZE-13 | 2026-08-30 23:32:43 | 49.04922 | 20.51029 | 95° | 44km/h | 7734m | 5.6m/s | -25.3°C | 36.3% | 388.7hPa | 0V | 00:00:00 | 00:00:00 | 00:00:00 | |
| SP9KGR-15 | 2026-08-30 23:32:32 | 49.04918 | 20.50825 | 87° | 47km/h | 7686m | 4.7m/s | -24.9°C | 36.2% | 391.3hPa | 0V | 00:00:00 | 00:00:00 | 00:00:00 | |
| SQ9EZE-15 | 2026-08-30 23:32:31 | 49.04918 | 20.50807 | 94° | 46km/h | 7682m | 3.8m/s | -24.8°C | 33.3% | 391.5hPa | 0V | 00:00:00 | 00:00:00 | 00:00:00 | |
| SQ9EZE-13 | 2026-08-30 23:32:27 | 49.04922 | 20.50735 | 92° | 49km/h | 7661m | 4.0m/s | -24.6°C | 28.0% | 392.5hPa | 0V | 00:00:00 | 00:00:00 | 00:00:00 | |
| SP9KGR-15 | 2026-08-30 23:32:17 | 49.04914 | 20.50558 | 89° | 46km/h | 7605m | 5.0m/s | -24.2°C | 26.1% | 395.5hPa | 0V | 00:00:00 | 00:00:00 | 00:00:00 | |
| SQ9EZE-14 | 2026-08-30 23:32:12 | 49.04914 | 20.50473 | 90° | 44km/h | 7581m | 3.4m/s | -24.0°C | 24.6% | 396.8hPa | 0V | 00:00:00 | 00:00:00 | 00:00:00 | |
| SQ9EZE-15 | 2026-08-30 23:32:11 | 49.04914 | 20.50473 | 90° | 44km/h | 7581m | 3.4m/s | -24.0°C | 24.6% | 396.8hPa | 0V | 00:00:00 | 00:00:00 | 00:00:00 | |
| SP9KGR-15 | 2026-08-30 23:32:02 | 49.04912 | 20.50299 | 93° | 42km/h | 7535m | 6.3m/s | -23.7°C | 16.9% | 399.3hPa | 0V | 00:00:00 | 00:00:00 | 00:00:00 | |
| SQ9EZE-13 | 2026-08-30 23:31:57 | 49.04905 | 20.50223 | 80° | 40km/h | 7513m | 4.1m/s | -23.5°C | 16.5% | 400.6hPa | 0V | 00:00:00 | 00:00:00 | 00:00:00 | |
| SQ9EZE-14 | 2026-08-30 23:31:56 | 49.04904 | 20.50207 | 83° | 40km/h | 7508m | 6.9m/s | -23.5°C | 16.2% | 400.8hPa | 0V | 00:00:00 | 00:00:00 | 00:00:00 | |
| SP9KGR-15 | 2026-08-30 23:31:46 | 49.04906 | 20.50039 | 95° | 33km/h | 7458m | 7.7m/s | -23.1°C | 17.1% | 403.5hPa | 0V | 00:00:00 | 00:00:00 | 00:00:00 | |
| SQ9EZE-13 | 2026-08-30 23:31:41 | 49.04908 | 20.49970 | 93° | 40km/h | 7426m | 6.1m/s | -22.9°C | 16.3% | 405.2hPa | 0V | 00:00:00 | 00:00:00 | 00:00:00 | |
| SP9KGR-15 | 2026-08-30 23:31:30 | 49.04907 | 20.49795 | 95° | 47km/h | 7371m | 7.5m/s | -22.5°C | 13.1% | 408.5hPa | 0V | 00:00:00 | 00:00:00 | 00:00:00 | |
| GYPAP8-17 | 2026-08-30 23:31:26 | 49.04912 | 20.49742 | 101° | 46km/h | 7354m | 4.1m/s | -22.4°C | 12.6% | 409.3hPa | 0V | 00:00:00 | 00:00:00 | 00:00:00 | |
| SQ9EZE-13 | 2026-08-30 23:31:25 | 49.04914 | 20.49725 | 106° | 46km/h | 7348m | 6.9m/s | -22.3°C | 12.5% | 409.7hPa | 0V | 00:00:00 | 00:00:00 | 00:00:00 | |
| SP9KGR-15 | 2026-08-30 23:31:15 | 49.04918 | 20.49543 | 89° | 38km/h | 7291m | 6.2m/s | -21.7°C | 11.9% | 412.9hPa | 0V | 00:00:00 | 00:00:00 | 00:00:00 | |
| SQ9EZE-13 | 2026-08-30 23:31:09 | 49.04929 | 20.49462 | 108° | 47km/h | 7264m | 6.3m/s | -21.5°C | 12.4% | 414.5hPa | 0V | 00:00:00 | 00:00:00 | 00:00:00 | |
| SQ9EZE-15 | 2026-08-30 23:31:08 | 49.04934 | 20.49426 | 101° | 51km/h | 7254m | 5.7m/s | -21.4°C | 12.9% | 415.0hPa | 0V | 00:00:00 | 00:00:00 | 00:00:00 | |
| SP9KGR-15 | 2026-08-30 23:30:59 | 49.04933 | 20.49277 | 98° | 47km/h | 7213m | 5.7m/s | -21.1°C | 16.6% | 417.3hPa | 0V | 00:00:00 | 00:00:00 | 00:00:00 | |
| SQ9EZE-13 | 2026-08-30 23:30:53 | 49.04940 | 20.49169 | 88° | 44km/h | 7180m | 7.1m/s | -20.8°C | 16.5% | 419.0hPa | 0V | 00:00:00 | 00:00:00 | 00:00:00 | |
| SQ9EZE-15 | 2026-08-30 23:30:47 | 49.04945 | 20.49064 | 102° | 47km/h | 7152m | 5.3m/s | -20.6°C | 16.1% | 420.7hPa | 0V | 00:00:00 | 00:00:00 | 00:00:00 | |
| SP9KGR-15 | 2026-08-30 23:30:44 | 49.04951 | 20.48994 | 95° | 46km/h | 7131m | 5.9m/s | -20.4°C | 14.4% | 421.9hPa | 0V | 00:00:00 | 00:00:00 | 00:00:00 | |
| GYPAP8-17 | 2026-08-30 23:30:43 | 49.04952 | 20.48975 | 95° | 49km/h | 7126m | 4.2m/s | -20.3°C | 14.9% | 422.2hPa | 0V | 00:00:00 | 00:00:00 | 00:00:00 | |
| SQ9EZE-13 | 2026-08-30 23:30:39 | 49.04955 | 20.48900 | 97° | 46km/h | 7104m | 7.4m/s | -20.1°C | 15.3% | 423.6hPa | 0V | 00:00:00 | 00:00:00 | 00:00:00 | |
| OE3JTB-15 | 2026-08-30 23:30:38 | 49.04956 | 20.48884 | 98° | 44km/h | 7097m | 5.7m/s | 0°C | 0% | 0hPa | 0V | 00:00:00 | 00:00:00 | 00:00:00 | |
| SP9KGR-15 | 2026-08-30 23:30:28 | 49.04972 | 20.48728 | 100° | 49km/h | 7045m | 5.0m/s | -19.6°C | 15.8% | 427.0hPa | 0V | 00:00:00 | 00:00:00 | 00:00:00 | |
| SQ9EZE-13 | 2026-08-30 23:30:23 | 49.04973 | 20.48644 | 85° | 46km/h | 7016m | 6.5m/s | -19.4°C | 16.0% | 428.6hPa | 0V | 00:00:00 | 00:00:00 | 00:00:00 | |
| SP9KGR-15 | 2026-08-30 23:30:12 | 49.04977 | 20.48455 | 90° | 44km/h | 6960m | 3.6m/s | -19.0°C | 13.5% | 431.9hPa | 0V | 00:00:00 | 00:00:00 | 00:00:00 | |
| SQ9EZE-13 | 2026-08-30 23:30:07 | 49.04979 | 20.48369 | 95° | 46km/h | 6934m | 6.3m/s | -18.8°C | 12.6% | 433.4hPa | 0V | 00:00:00 | 00:00:00 | 00:00:00 | |
| GYPAP8-17 | 2026-08-30 23:29:57 | 49.04980 | 20.48203 | 86° | 42km/h | 6888m | 6.2m/s | -18.4°C | 11.6% | 436.2hPa | 0V | 00:00:00 | 00:00:00 | 00:00:00 | |
| SP9KGR-15 | 2026-08-30 23:29:56 | 49.04979 | 20.48187 | 90° | 42km/h | 6882m | 5.6m/s | -18.3°C | 11.8% | 436.4hPa | 0V | 00:00:00 | 00:00:00 | 00:00:00 | |
| SQ9EZE-13 | 2026-08-30 23:29:52 | 49.04985 | 20.48101 | 97° | 51km/h | 6852m | 3.4m/s | -18.1°C | 12.3% | 438.2hPa | 0V | 00:00:00 | 00:00:00 | 00:00:00 | |
| SQ9EZE-15 | 2026-08-30 23:29:43 | 49.04993 | 20.47956 | 94° | 46km/h | 6808m | 8.7m/s | -17.8°C | 12.6% | 440.6hPa | 0V | 00:00:00 | 00:00:00 | 00:00:00 | |
| SP9KGR-15 | 2026-08-30 23:29:41 | 49.04994 | 20.47921 | 94° | 42km/h | 6795m | 7.8m/s | -17.7°C | 12.2% | 441.4hPa | 0V | 00:00:00 | 00:00:00 | 00:00:00 | |
| SQ9EZE-13 | 2026-08-30 23:29:36 | 49.04996 | 20.47837 | 94° | 51km/h | 6764m | 3.1m/s | -17.4°C | 10.9% | 443.2hPa | 0V | 00:00:00 | 00:00:00 | 00:00:00 | |
| SP9KGR-15 | 2026-08-30 23:29:25 | 49.05005 | 20.47653 | 98° | 42km/h | 6706m | 5.1m/s | -17.1°C | 9.3% | 446.7hPa | 0V | 00:00:00 | 00:00:00 | 00:00:00 | |
| SQ9EZE-15 | 2026-08-30 23:29:23 | 49.05008 | 20.47620 | 95° | 44km/h | 6695m | 3.6m/s | -17.1°C | 12.4% | 447.3hPa | 0V | 00:00:00 | 00:00:00 | 00:00:00 | |
| SQ9EZE-13 | 2026-08-30 23:29:20 | 49.05007 | 20.47566 | 87° | 51km/h | 6681m | 5.1m/s | -17.1°C | 15.3% | 448.2hPa | 0V | 00:00:00 | 00:00:00 | 00:00:00 | |
| GYPAP8-17 | 2026-08-30 23:29:13 | 49.05006 | 20.47436 | 93° | 46km/h | 6646m | 3.7m/s | -16.9°C | 14.4% | 450.3hPa | 0V | 00:00:00 | 00:00:00 | 00:00:00 | |
| SP9KGR-15 | 2026-08-30 23:29:09 | 49.05005 | 20.47363 | 94° | 47km/h | 6624m | 8.0m/s | -16.7°C | 11.7% | 451.6hPa | 0V | 00:00:00 | 00:00:00 | 00:00:00 | |
| SQ9EZE-13 | 2026-08-30 23:29:04 | 49.05009 | 20.47273 | 86° | 46km/h | 6597m | 4.0m/s | -16.5°C | 13.7% | 453.2hPa | 0V | 00:00:00 | 00:00:00 | 00:00:00 | |
| SP9KGR-15 | 2026-08-30 23:28:54 | 49.05010 | 20.47080 | 95° | 51km/h | 6544m | 6.1m/s | -16.1°C | 9.4% | 456.3hPa | 0V | 00:00:00 | 00:00:00 | 00:00:00 | |
| SQ9EZE-13 | 2026-08-30 23:28:48 | 49.05012 | 20.46975 | 88° | 44km/h | 6516m | 4.6m/s | -15.9°C | 9.7% | 458.0hPa | 0V | 00:00:00 | 00:00:00 | 00:00:00 | |
| SP9KGR-15 | 2026-08-30 23:28:39 | 49.05013 | 20.46778 | 90° | 53km/h | 6465m | 4.6m/s | -15.5°C | 10.9% | 461.2hPa | 0V | 00:00:00 | 00:00:00 | 00:00:00 | |
| SQ9EZE-13 | 2026-08-30 23:28:33 | 49.05011 | 20.46656 | 90° | 55km/h | 6430m | 8.0m/s | -15.2°C | 11.7% | 463.3hPa | 0V | 00:00:00 | 00:00:00 | 00:00:00 | |
| GYPAP8-17 | 2026-08-30 23:28:29 | 49.05011 | 20.46592 | 90° | 53km/h | 6412m | 5.7m/s | -15.1°C | 13.1% | 464.2hPa | 0V | 00:00:00 | 00:00:00 | 00:00:00 | |
| SP9KGR-15 | 2026-08-30 23:28:23 | 49.05001 | 20.46457 | 84° | 49km/h | 6376m | 7.0m/s | -14.8°C | 10.1% | 466.6hPa | 0V | 00:00:00 | 00:00:00 | 00:00:00 | |
| SQ9EZE-15 | 2026-08-30 23:28:17 | 49.04998 | 20.46362 | 89° | 47km/h | 6352m | 5.6m/s | -14.6°C | 10.7% | 468.2hPa | 0V | 00:00:00 | 00:00:00 | 00:00:00 | |
| SQ9EZE-13 | 2026-08-30 23:28:16 | 49.04998 | 20.46344 | 91° | 47km/h | 6346m | 6.2m/s | -14.6°C | 10.6% | 468.5hPa | 0V | 00:00:00 | 00:00:00 | 00:00:00 | |
| SP9KGR-15 | 2026-08-30 23:28:07 | 49.04984 | 20.46172 | 80° | 58km/h | 6287m | 6.1m/s | -14.2°C | 10.5% | 471.9hPa | 0V | 00:00:00 | 00:00:00 | 00:00:00 | |
| SQ9EZE-13 | 2026-08-30 23:28:00 | 49.04975 | 20.46030 | 94° | 42km/h | 6251m | 4.7m/s | -13.9°C | 10.3% | 474.4hPa | 0V | 00:00:00 | 00:00:00 | 00:00:00 | |
| SQ9EZE-15 | 2026-08-30 23:27:57 | 49.04977 | 20.45967 | 90° | 46km/h | 6230m | 3.7m/s | -13.8°C | 9.8% | 475.7hPa | 0V | 00:00:00 | 00:00:00 | 00:00:00 | |
| SP9KGR-15 | 2026-08-30 23:27:51 | 49.04966 | 20.45871 | 79° | 53km/h | 6203m | 6.4m/s | -13.6°C | 7.9% | 477.3hPa | 0V | 00:00:00 | 00:00:00 | 00:00:00 | |
| SQ9EZE-13 | 2026-08-30 23:27:45 | 49.04951 | 20.45747 | 81° | 46km/h | 6165m | 4.7m/s | -13.3°C | 7.3% | 479.8hPa | 0V | 00:00:00 | 00:00:00 | 00:00:00 | |
| GYPAP8-17 | 2026-08-30 23:27:44 | 49.04951 | 20.45747 | 81° | 46km/h | 6165m | 4.7m/s | -13.3°C | 7.3% | 479.8hPa | 0V | 00:00:00 | 00:00:00 | 00:00:00 | |
| SP9KGR-15 | 2026-08-30 23:27:35 | 49.04942 | 20.45577 | 82° | 40km/h | 6113m | 5.1m/s | -12.9°C | 6.7% | 482.8hPa | 0V | 00:00:00 | 00:00:00 | 00:00:00 | |
| SQ9EZE-14 | 2026-08-30 23:27:32 | 49.04938 | 20.45534 | 84° | 37km/h | 6094m | 6.5m/s | -12.7°C | 6.6% | 484.0hPa | 0V | 00:00:00 | 00:00:00 | 00:00:00 | |
| SQ9EZE-13 | 2026-08-30 23:27:30 | 49.04933 | 20.45487 | 81° | 44km/h | 6079m | 5.7m/s | -12.6°C | 6.9% | 485.1hPa | 0V | 00:00:00 | 00:00:00 | 00:00:00 | |
| SP9KGR-15 | 2026-08-30 23:27:20 | 49.04922 | 20.45335 | 89° | 44km/h | 6026m | 5.1m/s | -12.2°C | 7.5% | 488.4hPa | 0V | 00:00:00 | 00:00:00 | 00:00:00 | |
| SQ9EZE-14 | 2026-08-30 23:27:17 | 49.04922 | 20.45286 | 96° | 42km/h | 6011m | 4.7m/s | -12.1°C | 0% | 489.3hPa | 0V | 00:00:00 | 00:00:00 | 00:00:00 | |
| SQ9EZE-13 | 2026-08-30 23:27:13 | 49.04926 | 20.45212 | 93° | 51km/h | 5992m | 5.8m/s | -11.9°C | 7.5% | 490.6hPa | 0V | 00:00:00 | 00:00:00 | 00:00:00 | |
| SP9KGR-15 | 2026-08-30 23:27:04 | 49.04918 | 20.45065 | 89° | 46km/h | 5945m | 5.2m/s | -11.5°C | 7.5% | 493.9hPa | 0V | 00:00:00 | 00:00:00 | 00:00:00 | |
| SQ9EZE-13 | 2026-08-30 23:26:58 | 49.04914 | 20.44958 | 86° | 46km/h | 5912m | 4.5m/s | -11.3°C | 7.6% | 495.9hPa | 0V | 00:00:00 | 00:00:00 | 00:00:00 | |
| GYPAP8-17 | 2026-08-30 23:26:55 | 49.04909 | 20.44902 | 83° | 49km/h | 5897m | 5.9m/s | -11.2°C | 7.5% | 496.9hPa | 0V | 00:00:00 | 00:00:00 | 00:00:00 | |
| SQ9EZE-15 | 2026-08-30 23:26:49 | 49.04908 | 20.44800 | 94° | 47km/h | 5866m | 4.4m/s | -11.0°C | 7.6% | 499.0hPa | 0V | 00:00:00 | 00:00:00 | 00:00:00 | |
| SP9KGR-15 | 2026-08-30 23:26:48 | 49.04909 | 20.44782 | 95° | 47km/h | 5861m | 7.5m/s | -10.9°C | 7.5% | 499.4hPa | 0V | 00:00:00 | 00:00:00 | 00:00:00 | |
| SQ9EZE-13 | 2026-08-30 23:26:42 | 49.04911 | 20.44662 | 83° | 49km/h | 5829m | 4.2m/s | -10.7°C | 7.5% | 501.5hPa | 0V | 00:00:00 | 00:00:00 | 00:00:00 | |
| SP9KGR-15 | 2026-08-30 23:26:33 | 49.04912 | 20.44507 | 97° | 47km/h | 5784m | 3.3m/s | -10.3°C | 7.3% | 504.3hPa | 0V | 00:00:00 | 00:00:00 | 00:00:00 | |
| SQ9EZE-15 | 2026-08-30 23:26:29 | 49.04914 | 20.44434 | 88° | 49km/h | 5767m | 5.2m/s | -10.2°C | 7.1% | 505.5hPa | 0V | 00:00:00 | 00:00:00 | 00:00:00 | |
| SQ9EZE-13 | 2026-08-30 23:26:27 | 49.04911 | 20.44395 | 84° | 49km/h | 5758m | 4.4m/s | -10.1°C | 7.1% | 506.2hPa | 0V | 00:00:00 | 00:00:00 | 00:00:00 | |
| SP9KGR-15 | 2026-08-30 23:26:18 | 49.04905 | 20.44238 | 91° | 51km/h | 5712m | 7.7m/s | -9.7°C | 6.7% | 509.2hPa | 0V | 00:00:00 | 00:00:00 | 00:00:00 | |
| GYPAP8-17 | 2026-08-30 23:26:11 | 49.04899 | 20.44118 | 79° | 40km/h | 5673m | 5.6m/s | -9.4°C | 6.3% | 512.0hPa | 0V | 00:00:00 | 00:00:00 | 00:00:00 | |
| SP9KGR-15 | 2026-08-30 23:26:02 | 49.04892 | 20.43979 | 82° | 42km/h | 5619m | 4.6m/s | -9.0°C | 6.2% | 515.3hPa | 0V | 00:00:00 | 00:00:00 | 00:00:00 | |
| SQ9EZE-13 | 2026-08-30 23:25:55 | 49.04884 | 20.43858 | 83° | 46km/h | 5582m | 4.4m/s | -8.7°C | 6.2% | 517.7hPa | 0V | 00:00:00 | 00:00:00 | 00:00:00 | |
| SP9KGR-15 | 2026-08-30 23:25:48 | 49.04879 | 20.43733 | 86° | 46km/h | 5543m | 5.9m/s | -8.3°C | 6.2% | 520.4hPa | 0V | 00:00:00 | 00:00:00 | 00:00:00 | |
| SQ9EZE-13 | 2026-08-30 23:25:40 | 49.04858 | 20.43611 | 63° | 33km/h | 5503m | 6.6m/s | -8.1°C | 6.5% | 523.1hPa | 0V | 00:00:00 | 00:00:00 | 00:00:00 | |
| SP9KGR-15 | 2026-08-30 23:25:31 | 49.04841 | 20.43503 | 76° | 38km/h | 5458m | 4.7m/s | -7.9°C | 6.8% | 526.0hPa | 0V | 00:00:00 | 00:00:00 | 00:00:00 | |
| GYPAP8-17 | 2026-08-30 23:25:28 | 49.04835 | 20.43446 | 87° | 38km/h | 5438m | 4.3m/s | -7.8°C | 6.8% | 527.4hPa | 0V | 00:00:00 | 00:00:00 | 00:00:00 | |
| OM5KV | 2026-08-30 23:25:25 | 49.04833 | 20.43416 | 83° | 40km/h | 5427m | 5.9m/s | 0°C | 0% | 0hPa | 0V | 00:00:00 | 00:00:00 | 00:00:00 | |
| SQ9EZE-15 | 2026-08-30 23:25:23 | 49.04827 | 20.43372 | 75° | 40km/h | 5413m | 3.5m/s | -7.5°C | 6.8% | 529.1hPa | 0V | 00:00:00 | 00:00:00 | 00:00:00 | |
| OM5KV | 2026-08-30 23:25:20 | 49.04822 | 20.43341 | 82° | 42km/h | 5401m | 5.6m/s | 0°C | 0% | 0hPa | 0V | 00:00:00 | 00:00:00 | 00:00:00 | |
| SP9KGR-15 | 2026-08-30 23:25:16 | 49.04814 | 20.43277 | 80° | 42km/h | 5381m | 4.2m/s | -7.5°C | 7.2% | 531.3hPa | 0V | 00:00:00 | 00:00:00 | 00:00:00 | |
| SQ9EZE-14 | 2026-08-30 23:25:14 | 49.04811 | 20.43247 | 81° | 37km/h | 5371m | 5.3m/s | -7.4°C | 0% | 531.9hPa | 0V | 00:00:00 | 00:00:00 | 00:00:00 | |
| SQ9EZE-13 | 2026-08-30 23:25:07 | 49.04800 | 20.43146 | 80° | 33km/h | 5336m | 3.2m/s | -7.2°C | 6.5% | 534.5hPa | 0V | 00:00:00 | 00:00:00 | 00:00:00 | |
| SQ9EZE-15 | 2026-08-30 23:25:04 | 49.04790 | 20.43088 | 77° | 35km/h | 5316m | 4.5m/s | -7.0°C | 6.4% | 535.8hPa | 0V | 00:00:00 | 00:00:00 | 00:00:00 | |
| SP9KGR-15 | 2026-08-30 23:25:00 | 49.04786 | 20.43059 | 79° | 38km/h | 5309m | 5.1m/s | -7.0°C | 6.3% | 536.3hPa | 0V | 00:00:00 | 00:00:00 | 00:00:00 | |
| SQ9EZE-14 | 2026-08-30 23:24:58 | 49.04782 | 20.43030 | 81° | 40km/h | 5299m | 4.5m/s | 0°C | 0% | 537.0hPa | 0V | 00:00:00 | 00:00:00 | 00:00:00 | |
| OM5KV | 2026-08-30 23:24:56 | 49.04778 | 20.43000 | 80° | 38km/h | 5291m | 4.3m/s | 0°C | 0% | 0hPa | 0V | 00:00:00 | 00:00:00 | 00:00:00 | |
| SQ9EZE-13 | 2026-08-30 23:24:51 | 49.04769 | 20.42928 | 83° | 42km/h | 5275m | 2.6m/s | -6.9°C | 6.2% | 538.7hPa | 0V | 00:00:00 | 00:00:00 | 00:00:00 | |
| OM5KV | 2026-08-30 23:24:50 | 49.04768 | 20.42912 | 84° | 42km/h | 5272m | 2.1m/s | 0°C | 0% | 0hPa | 0V | 00:00:00 | 00:00:00 | 00:00:00 | |
| OM5KV | 2026-08-30 23:24:47 | 49.04762 | 20.42866 | 77° | 40km/h | 5264m | 2.8m/s | 0°C | 0% | 0hPa | 0V | 00:00:00 | 00:00:00 | 00:00:00 | |
| OM5KV | 2026-08-30 23:24:45 | 49.04758 | 20.42837 | 79° | 38km/h | 5259m | 2.9m/s | 0°C | 0% | 0hPa | 0V | 00:00:00 | 00:00:00 | 00:00:00 | |
| GYPAP8-17 | 2026-08-30 23:24:43 | 49.04754 | 20.42807 | 81° | 40km/h | 5254m | 2.7m/s | -7.0°C | 0% | 0hPa | 0V | 00:00:00 | 00:00:00 | 00:00:00 | |
| SQ9EZE-13 | 2026-08-30 23:24:36 | 49.04740 | 20.42695 | 82° | 42km/h | 5233m | 2.3m/s | -6.9°C | 6.7% | 541.5hPa | 0V | 00:00:00 | 00:00:00 | 00:00:00 | |
| SP9KGR-15 | 2026-08-30 23:24:30 | 49.04733 | 20.42596 | 83° | 44km/h | 5218m | 3.3m/s | -6.8°C | 6.8% | 542.6hPa | 0V | 00:00:00 | 00:00:00 | 00:00:00 | |
| OM5KV | 2026-08-30 23:24:28 | 49.04729 | 20.42545 | 81° | 46km/h | 5210m | 2.5m/s | 0°C | 0% | 0hPa | 0V | 00:00:00 | 00:00:00 | 00:00:00 | |
| OM5KV | 2026-08-30 23:24:22 | 49.04711 | 20.42452 | 70° | 42km/h | 5198m | 2.5m/s | 0°C | 0% | 0hPa | 0V | 00:00:00 | 00:00:00 | 00:00:00 | |
| SQ9EZE-13 | 2026-08-30 23:24:20 | 49.04705 | 20.42425 | 79° | 31km/h | 5190m | 4.2m/s | -6.6°C | 6.9% | 544.5hPa | 0V | 00:00:00 | 00:00:00 | 00:00:00 | |
| OM5KV | 2026-08-30 23:24:16 | 49.04711 | 20.42373 | 107° | 42km/h | 5171m | 4.9m/s | 0°C | 0% | 0hPa | 0V | 00:00:00 | 00:00:00 | 00:00:00 | |
| SP9KGR-15 | 2026-08-30 23:24:14 | 49.04716 | 20.42341 | 99° | 42km/h | 5163m | 4.8m/s | -6.3°C | 6.9% | 546.4hPa | 0V | 00:00:00 | 00:00:00 | 00:00:00 | |
| SQ9EZE-13 | 2026-08-30 23:24:04 | 49.04714 | 20.42175 | 91° | 44km/h | 5108m | 5.8m/s | -6.3°C | 7.7% | 550.3hPa | 0V | 00:00:00 | 00:00:00 | 00:00:00 | |
| OM5KV | 2026-08-30 23:24:03 | 49.04714 | 20.42158 | 91° | 42km/h | 5103m | 4.0m/s | 0°C | 0% | 0hPa | 0V | 00:00:00 | 00:00:00 | 00:00:00 | |
| SP9KGR-15 | 2026-08-30 23:24:00 | 49.04715 | 20.42099 | 91° | 37km/h | 5087m | 6.2m/s | -6.1°C | 7.8% | 551.7hPa | 0V | 00:00:00 | 00:00:00 | 00:00:00 | |
| OM5KV | 2026-08-30 23:23:57 | 49.04715 | 20.42068 | 90° | 42km/h | 5077m | 5.6m/s | 0°C | 0% | 0hPa | 0V | 00:00:00 | 00:00:00 | 00:00:00 | |
| SQ9EZE-15 | 2026-08-30 23:23:55 | 49.04715 | 20.42036 | 95° | 42km/h | 5068m | 3.2m/s | -6.0°C | 7.8% | 553.1hPa | 0V | 00:00:00 | 00:00:00 | 00:00:00 | |
| SQ9EZE-13 | 2026-08-30 23:23:48 | 49.04720 | 20.41932 | 82° | 38km/h | 5033m | 6.4m/s | -5.8°C | 7.7% | 555.5hPa | 0V | 00:00:00 | 00:00:00 | 00:00:00 | |
| OM5KV | 2026-08-30 23:23:46 | 49.04717 | 20.41901 | 81° | 38km/h | 5023m | 5.7m/s | 0°C | 0% | 0hPa | 0V | 00:00:00 | 00:00:00 | 00:00:00 | |
| SP9KGR-15 | 2026-08-30 23:23:43 | 49.04715 | 20.41858 | 89° | 37km/h | 5007m | 6.7m/s | -6.0°C | 8.7% | 557.5hPa | 0V | 00:00:00 | 00:00:00 | 00:00:00 | |
| SQ9EZE-15 | 2026-08-30 23:23:35 | 49.04719 | 20.41746 | 93° | 35km/h | 4965m | 6.6m/s | -6.4°C | 17.2% | 560.5hPa | 0V | 00:00:00 | 00:00:00 | 00:00:00 | |
| SQ9EZE-13 | 2026-08-30 23:23:33 | 49.04718 | 20.41722 | 82° | 29km/h | 4955m | 7.0m/s | -6.4°C | 17.9% | 561.2hPa | 0V | 00:00:00 | 00:00:00 | 00:00:00 | |
| SP9KGR-15 | 2026-08-30 23:23:29 | 49.04710 | 20.41660 | 82° | 33km/h | 4930m | 7.5m/s | -6.2°C | 19.7% | 563.0hPa | 0V | 00:00:00 | 00:00:00 | 00:00:00 | |
| SQ9EZE-13 | 2026-08-30 23:23:18 | 49.04697 | 20.41518 | 92° | 46km/h | 4881m | 4.1m/s | -6.7°C | 35.2% | 566.5hPa | 0V | 00:00:00 | 00:00:00 | 00:00:00 | |
| GYPAP8-17 | 2026-08-30 23:23:15 | 49.04696 | 20.41484 | 88° | 44km/h | 4874m | 4.1m/s | 0°C | 0% | 0hPa | 0V | 00:00:00 | 00:00:00 | 00:00:00 | |
| SP9KGR-15 | 2026-08-30 23:23:12 | 49.04692 | 20.41438 | 86° | 38km/h | 4860m | 6.7m/s | -6.9°C | 41.1% | 568.2hPa | 0V | 00:00:00 | 00:00:00 | 00:00:00 | |
| SQ9EZE-14 | 2026-08-30 23:23:01 | 49.04664 | 20.41266 | 83° | 33km/h | 4810m | 6.1m/s | 0°C | 0% | 571.5hPa | 0V | 00:00:00 | 00:00:00 | 00:00:00 | |
| SP9KGR-15 | 2026-08-30 23:22:57 | 49.04657 | 20.41197 | 86° | 40km/h | 4779m | 4.3m/s | -7.0°C | 54.6% | 573.8hPa | 0V | 00:00:00 | 00:00:00 | 00:00:00 | |
| SQ9EZE-14 | 2026-08-30 23:22:46 | 49.04648 | 20.41069 | 74° | 26km/h | 4738m | 4.4m/s | 0°C | 0% | 576.7hPa | 0V | 00:00:00 | 00:00:00 | 00:00:00 | |
| SP9KGR-15 | 2026-08-30 23:22:41 | 49.04637 | 20.41025 | 70° | 24km/h | 4721m | 3.9m/s | -7.1°C | 71.5% | 578.1hPa | 0V | 00:00:00 | 00:00:00 | 00:00:00 | |
| GYPAP8-17 | 2026-08-30 23:22:30 | 49.04597 | 20.40869 | 60° | 47km/h | 4669m | 4.8m/s | 0°C | 0% | 0hPa | 0V | 00:00:00 | 00:00:00 | 00:00:00 | |
| SQ9EZE-15 | 2026-08-30 23:22:29 | 49.04592 | 20.40854 | 63° | 42km/h | 4664m | 5.6m/s | -6.6°C | 75.0% | 582.4hPa | 0V | 00:00:00 | 00:00:00 | 00:00:00 | |
| SP9KGR-15 | 2026-08-30 23:22:26 | 49.04582 | 20.40804 | 88° | 31km/h | 4643m | 7.0m/s | -6.4°C | 73.6% | 583.8hPa | 0V | 00:00:00 | 00:00:00 | 00:00:00 | |
| SQ9EZE-13 | 2026-08-30 23:22:14 | 49.04541 | 20.40648 | 66° | 51km/h | 4576m | 3.7m/s | -5.8°C | 71.1% | 588.8hPa | 0V | 00:00:00 | 00:00:00 | 00:00:00 | |
| SP9KGR-15 | 2026-08-30 23:22:10 | 49.04522 | 20.40581 | 68° | 42km/h | 4555m | 4.9m/s | -5.6°C | 70.0% | 590.6hPa | 0V | 00:00:00 | 00:00:00 | 00:00:00 | |
| SQ9EZE-15 | 2026-08-30 23:22:08 | 49.04514 | 20.40553 | 69° | 38km/h | 4545m | 4.2m/s | -5.5°C | 0% | 0hPa | 0V | 00:00:00 | 00:00:00 | 00:00:00 | |
| SQ9EZE-13 | 2026-08-30 23:21:58 | 49.04479 | 20.40403 | 72° | 40km/h | 4504m | 3.2m/s | -5.1°C | 68.7% | 594.3hPa | 0V | 00:00:00 | 00:00:00 | 00:00:00 | |
| SP9KGR-15 | 2026-08-30 23:21:55 | 49.04463 | 20.40341 | 66° | 42km/h | 4490m | 2.7m/s | -4.9°C | 68.4% | 595.4hPa | 0V | 00:00:00 | 00:00:00 | 00:00:00 | |
| GYPAP8-17 | 2026-08-30 23:21:46 | 49.04432 | 20.40195 | 70° | 53km/h | 4460m | 3.1m/s | 0°C | 0% | 0hPa | 0V | 00:00:00 | 00:00:00 | 00:00:00 | |
| SQ9EZE-13 | 2026-08-30 23:21:42 | 49.04412 | 20.40137 | 58° | 35km/h | 4444m | 7.4m/s | -4.5°C | 66.4% | 598.8hPa | 0V | 00:00:00 | 00:00:00 | 00:00:00 | |
| SQ9EZE-13 | 2026-08-30 23:21:26 | 49.04372 | 20.39890 | 68° | 49km/h | 4351m | 4.2m/s | -3.6°C | 64.8% | 606.0hPa | 0V | 00:00:00 | 00:00:00 | 00:00:00 | |
| SP9KGR-15 | 2026-08-30 23:21:24 | 49.04362 | 20.39852 | 69° | 55km/h | 4343m | 3.4m/s | -3.6°C | 64.3% | 606.7hPa | 0V | 00:00:00 | 00:00:00 | 00:00:00 | |
| SQ9EZE-13 | 2026-08-30 23:21:10 | 49.04321 | 20.39622 | 73° | 46km/h | 4281m | 4.0m/s | -3.0°C | 62.6% | 611.3hPa | 0V | 00:00:00 | 00:00:00 | 00:00:00 | |
| SP9KGR-15 | 2026-08-30 23:21:08 | 49.04310 | 20.39586 | 64° | 53km/h | 4273m | 2.8m/s | -2.9°C | 62.7% | 612.0hPa | 0V | 00:00:00 | 00:00:00 | 00:00:00 | |
| GYPAP8-17 | 2026-08-30 23:21:01 | 49.04265 | 20.39461 | 71° | 57km/h | 4243m | 6.4m/s | 0°C | 0% | 0hPa | 0V | 00:00:00 | 00:00:00 | 00:00:00 | |
| SQ9EZE-15 | 2026-08-30 23:20:56 | 49.04256 | 20.39369 | 94° | 38km/h | 4211m | 7.3m/s | -2.3°C | 0% | 0hPa | 0V | 00:00:00 | 00:00:00 | 00:00:00 | |
| SP9KGR-15 | 2026-08-30 23:20:53 | 49.04258 | 20.39327 | 96° | 33km/h | 4194m | 5.0m/s | -2.1°C | 0% | 618.0hPa | 0V | 00:00:00 | 00:00:00 | 00:00:00 | |
| SQ9EZE-13 | 2026-08-30 23:20:39 | 49.04221 | 20.39109 | 95° | 38km/h | 4127m | 6.4m/s | 0°C | 0% | 623.1hPa | 0V | 00:00:00 | 00:00:00 | 00:00:00 | |
| SP9KGR-15 | 2026-08-30 23:20:37 | 49.04223 | 20.39077 | 98° | 40km/h | 4117m | 3.8m/s | 0°C | 0% | 623.8hPa | 0V | 00:00:00 | 00:00:00 | 00:00:00 | |
| SQ9EZE-15 | 2026-08-30 23:20:36 | 49.04224 | 20.39062 | 92° | 42km/h | 4113m | 3.2m/s | 0°C | 0% | 0hPa | 0V | 00:00:00 | 00:00:00 | 00:00:00 | |
| SQ9EZE-14 | 2026-08-30 23:20:27 | 49.04188 | 20.38906 | 72° | 57km/h | 4073m | 5.5m/s | 0°C | 0% | 0hPa | 0V | 00:00:00 | 00:00:00 | 00:00:00 | |
| GYPAP8-17 | 2026-08-30 23:20:26 | 49.04184 | 20.38885 | 71° | 55km/h | 4067m | 6.7m/s | 0°C | 0% | 0hPa | 0V | 00:00:00 | 00:00:00 | 00:00:00 | |
| SQ9EZE-13 | 2026-08-30 23:20:23 | 49.04169 | 20.38836 | 68° | 38km/h | 4049m | 6.8m/s | 0°C | 0% | 0hPa | 0V | 00:00:00 | 00:00:00 | 00:00:00 | |
| SP9KGR-15 | 2026-08-30 23:20:21 | 49.04164 | 20.38808 | 82° | 35km/h | 4036m | 4.8m/s | 0°C | 0% | 0hPa | 0V | 00:00:00 | 00:00:00 | 00:00:00 | |
| SQ9EZE-14 | 2026-08-30 23:20:11 | 49.04158 | 20.38669 | 78° | 44km/h | 3988m | 5.3m/s | 0°C | 0% | 0hPa | 0V | 00:00:00 | 00:00:00 | 00:00:00 | |
| SQ9EZE-13 | 2026-08-30 23:20:07 | 49.04151 | 20.38607 | 89° | 33km/h | 3965m | 5.5m/s | 0°C | 0% | 0hPa | 0V | 00:00:00 | 00:00:00 | 00:00:00 | |
| GYPAP8-17 | 2026-08-30 23:20:05 | 49.04151 | 20.38584 | 93° | 29km/h | 3955m | 4.8m/s | 0°C | 0% | 0hPa | 0V | 00:00:00 | 00:00:00 | 00:00:00 | |
| SP9KGR-15 | 2026-08-30 23:20:04 | 49.04151 | 20.38573 | 95° | 29km/h | 3951m | 4.3m/s | 0°C | 0% | 0hPa | 0V | 00:00:00 | 00:00:00 | 00:00:00 | |
| SQ9EZE-13 | 2026-08-30 23:19:51 | 49.04125 | 20.38410 | 67° | 40km/h | 3887m | 3.8m/s | 0°C | 0% | 0hPa | 0V | 00:00:00 | 00:00:00 | 00:00:00 | |
| SQ9EZE-13 | 2026-08-30 23:19:35 | 49.04084 | 20.38247 | 78° | 31km/h | 3820m | 5.5m/s | 0°C | 0% | 0hPa | 0V | 00:00:00 | 00:00:00 | 00:00:00 | |
| GYPAP8-17 | 2026-08-30 23:19:26 | 49.04056 | 20.38111 | 80° | 44km/h | 3777m | 6.5m/s | 0°C | 0% | 0hPa | 0V | 00:00:00 | 00:00:00 | 00:00:00 | |
| GYPAP8-17 | 2026-08-30 23:18:31 | 49.03969 | 20.37327 | 96° | 42km/h | 3498m | 3.7m/s | 0°C | 0% | 0hPa | 0V | 00:00:00 | 00:00:00 | 00:00:00 |